<?xml version='1.0' encoding='UTF-8'?><gpx version="1.1" creator="JPX - https://github.com/jenetics/jpx" xmlns="http://www.topografix.com/GPX/1/1"><trk><trkseg><trkpt lat="45.71999224329329" lon="11.359838711496726"><ele>200.00000000000003</ele><time>2026-04-16T16:07:28.999Z</time></trkpt><trkpt lat="45.71994421551697" lon="11.359742146100125"><ele>200.0</ele><time>2026-04-16T16:09:40.999Z</time></trkpt><trkpt lat="45.719924575238856" lon="11.359631618576927"><ele>200.0</ele><time>2026-04-16T16:12:06.999Z</time></trkpt><trkpt lat="45.71998452105227" lon="11.35954750349062"><ele>200.0</ele><time>2026-04-16T16:12:08.999Z</time></trkpt><trkpt lat="45.720048368684665" lon="11.359505732225815"><ele>200.00000000000003</ele><time>2026-04-16T16:12:09.999Z</time></trkpt><trkpt lat="45.720104690289304" lon="11.359457428030053"><ele>200.0</ele><time>2026-04-16T16:12:10.999Z</time></trkpt><trkpt lat="45.72020035319937" lon="11.359364247570022"><ele>200.33333333333334</ele><time>2026-04-16T16:12:12.999Z</time></trkpt><trkpt lat="45.72029844012536" lon="11.359261747947874"><ele>200.66666666666669</ele><time>2026-04-16T16:12:14.999Z</time></trkpt><trkpt lat="45.72035422323358" lon="11.359205389387515"><ele>201.0</ele><time>2026-04-16T16:12:15.999Z</time></trkpt><trkpt lat="45.720412546973954" lon="11.359145566347728"><ele>201.33333333333331</ele><time>2026-04-16T16:12:16.999Z</time></trkpt><trkpt lat="45.72047850275568" lon="11.359092160924549"><ele>201.66666666666666</ele><time>2026-04-16T16:12:17.999Z</time></trkpt><trkpt lat="45.72055374683603" lon="11.359045389291468"><ele>202.0</ele><time>2026-04-16T16:12:18.999Z</time></trkpt><trkpt lat="45.720641367476595" lon="11.359011558969215"><ele>201.99999999999997</ele><time>2026-04-16T16:12:19.999Z</time></trkpt><trkpt lat="45.72073403480652" lon="11.359005755085072"><ele>202.0</ele><time>2026-04-16T16:12:20.998Z</time></trkpt><trkpt lat="45.720828653966045" lon="11.359017670101904"><ele>202.0</ele><time>2026-04-16T16:12:21.998Z</time></trkpt><trkpt lat="45.72092172621989" lon="11.359027972346441"><ele>202.0</ele><time>2026-04-16T16:12:22.998Z</time></trkpt><trkpt lat="45.72100041264799" lon="11.359025982412376"><ele>201.99999999999997</ele><time>2026-04-16T16:12:23.998Z</time></trkpt><trkpt lat="45.72107522283284" lon="11.359009874210022"><ele>202.0</ele><time>2026-04-16T16:12:24.998Z</time></trkpt><trkpt lat="45.72115354258241" lon="11.35898514847723"><ele>202.33333333333331</ele><time>2026-04-16T16:12:25.998Z</time></trkpt><trkpt lat="45.72122807154141" lon="11.358952059594268"><ele>202.66666666666666</ele><time>2026-04-16T16:12:26.998Z</time></trkpt><trkpt lat="45.721306691366955" lon="11.358900253738952"><ele>203.0</ele><time>2026-04-16T16:12:27.998Z</time></trkpt><trkpt lat="45.72138055827041" lon="11.358842996308896"><ele>203.33333333333331</ele><time>2026-04-16T16:12:28.998Z</time></trkpt><trkpt lat="45.721453328492856" lon="11.358787933750042"><ele>203.66666666666666</ele><time>2026-04-16T16:12:29.998Z</time></trkpt><trkpt lat="45.72152419876113" lon="11.358725659746664"><ele>204.0</ele><time>2026-04-16T16:12:30.998Z</time></trkpt><trkpt lat="45.72159739525613" lon="11.358660201412528"><ele>204.0</ele><time>2026-04-16T16:12:31.998Z</time></trkpt><trkpt lat="45.721677875868465" lon="11.35858524970708"><ele>204.0</ele><time>2026-04-16T16:12:32.998Z</time></trkpt><trkpt lat="45.72177108630255" lon="11.358515936670845"><ele>204.0</ele><time>2026-04-16T16:12:33.998Z</time></trkpt><trkpt lat="45.72188040605883" lon="11.358506432227404"><ele>204.0</ele><time>2026-04-16T16:12:34.998Z</time></trkpt><trkpt lat="45.72199189127382" lon="11.358516222617"><ele>204.0</ele><time>2026-04-16T16:12:35.998Z</time></trkpt><trkpt lat="45.72210809849037" lon="11.358503698656534"><ele>203.75</ele><time>2026-04-16T16:12:36.998Z</time></trkpt><trkpt lat="45.72222393072576" lon="11.358504378486476"><ele>203.5</ele><time>2026-04-16T16:12:37.998Z</time></trkpt><trkpt lat="45.72234621746243" lon="11.358485683909215"><ele>203.25</ele><time>2026-04-16T16:12:38.998Z</time></trkpt><trkpt lat="45.72246077426354" lon="11.358455530873048"><ele>203.0</ele><time>2026-04-16T16:12:39.998Z</time></trkpt><trkpt lat="45.722562520391406" lon="11.358420049684156"><ele>203.0</ele><time>2026-04-16T16:12:40.998Z</time></trkpt><trkpt lat="45.722651416130596" lon="11.358387741642137"><ele>203.0</ele><time>2026-04-16T16:12:41.998Z</time></trkpt><trkpt lat="45.72273394821692" lon="11.358354615582035"><ele>203.0</ele><time>2026-04-16T16:12:42.998Z</time></trkpt><trkpt lat="45.722818853389256" lon="11.358315244208466"><ele>203.0</ele><time>2026-04-16T16:12:43.998Z</time></trkpt><trkpt lat="45.72290725813116" lon="11.358263801592615"><ele>203.0</ele><time>2026-04-16T16:12:44.998Z</time></trkpt><trkpt lat="45.722992714782364" lon="11.358201395848502"><ele>203.0</ele><time>2026-04-16T16:12:45.998Z</time></trkpt><trkpt lat="45.72307486727632" lon="11.358133348734896"><ele>203.0</ele><time>2026-04-16T16:12:46.998Z</time></trkpt><trkpt lat="45.72315977235155" lon="11.358068410850535"><ele>203.0</ele><time>2026-04-16T16:12:47.998Z</time></trkpt><trkpt lat="45.72324370117273" lon="11.358005979732136"><ele>203.0</ele><time>2026-04-16T16:12:48.998Z</time></trkpt><trkpt lat="45.72333075249396" lon="11.357943837649454"><ele>203.0</ele><time>2026-04-16T16:12:49.998Z</time></trkpt><trkpt lat="45.72340908409897" lon="11.357866949214838"><ele>203.4</ele><time>2026-04-16T16:12:50.998Z</time></trkpt><trkpt lat="45.723475416035384" lon="11.35776390869896"><ele>203.8</ele><time>2026-04-16T16:12:51.998Z</time></trkpt><trkpt lat="45.723527490123985" lon="11.357635934373368"><ele>204.2</ele><time>2026-04-16T16:12:52.998Z</time></trkpt><trkpt lat="45.723571836948125" lon="11.357497919567656"><ele>204.6</ele><time>2026-04-16T16:12:53.998Z</time></trkpt><trkpt lat="45.723615309340936" lon="11.357359165367384"><ele>205.0</ele><time>2026-04-16T16:12:54.998Z</time></trkpt><trkpt lat="45.72366861763353" lon="11.357236128237068"><ele>205.6</ele><time>2026-04-16T16:12:55.998Z</time></trkpt><trkpt lat="45.723731052796204" lon="11.35713323000868"><ele>206.2</ele><time>2026-04-16T16:12:56.998Z</time></trkpt><trkpt lat="45.723802235588124" lon="11.357038832182504"><ele>206.8</ele><time>2026-04-16T16:12:57.998Z</time></trkpt><trkpt lat="45.72388218455775" lon="11.356943542581819"><ele>207.4</ele><time>2026-04-16T16:12:58.998Z</time></trkpt><trkpt lat="45.72396732280826" lon="11.356845083563597"><ele>208.0</ele><time>2026-04-16T16:12:59.998Z</time></trkpt><trkpt lat="45.72405295250383" lon="11.356744336282452"><ele>208.0</ele><time>2026-04-16T16:13:00.998Z</time></trkpt><trkpt lat="45.72413014063946" lon="11.356651252332407"><ele>208.0</ele><time>2026-04-16T16:13:01.998Z</time></trkpt><trkpt lat="45.72420112580802" lon="11.356567195036863"><ele>208.0</ele><time>2026-04-16T16:13:02.998Z</time></trkpt><trkpt lat="45.72426782670578" lon="11.356488504416024"><ele>208.0</ele><time>2026-04-16T16:13:03.998Z</time></trkpt><trkpt lat="45.724337910539546" lon="11.356404613728486"><ele>208.0</ele><time>2026-04-16T16:13:04.998Z</time></trkpt><trkpt lat="45.724407821410836" lon="11.356321979322143"><ele>207.99999999999997</ele><time>2026-04-16T16:13:05.998Z</time></trkpt><trkpt lat="45.72446701331119" lon="11.356249439685081"><ele>208.0</ele><time>2026-04-16T16:13:06.998Z</time></trkpt><trkpt lat="45.724519601286616" lon="11.356185303040352"><ele>208.0</ele><time>2026-04-16T16:13:07.998Z</time></trkpt><trkpt lat="45.72456824249825" lon="11.356124303996548"><ele>208.0</ele><time>2026-04-16T16:13:08.998Z</time></trkpt><trkpt lat="45.72464351583923" lon="11.356036175721696"><ele>207.99999999999997</ele><time>2026-04-16T16:13:10.998Z</time></trkpt><trkpt lat="45.72471116053195" lon="11.355989482970413"><ele>208.0</ele><time>2026-04-16T16:13:59.999Z</time></trkpt><trkpt lat="45.72478799205285" lon="11.356066214782766"><ele>207.99999999999997</ele><time>2026-04-16T16:14:01.999Z</time></trkpt><trkpt lat="45.72484576623399" lon="11.356141975601119"><ele>208.0</ele><time>2026-04-16T16:14:02.999Z</time></trkpt><trkpt lat="45.7249142680257" lon="11.356230002429625"><ele>208.0</ele><time>2026-04-16T16:14:03.999Z</time></trkpt><trkpt lat="45.72497724655502" lon="11.356305648364069"><ele>208.0</ele><time>2026-04-16T16:14:04.999Z</time></trkpt><trkpt lat="45.72503531336074" lon="11.35637809022454"><ele>207.99999999999997</ele><time>2026-04-16T16:14:05.999Z</time></trkpt><trkpt lat="45.72509369065566" lon="11.35645331488932"><ele>208.0</ele><time>2026-04-16T16:14:06.999Z</time></trkpt><trkpt lat="45.72514854220301" lon="11.356537248657025"><ele>207.99999999999997</ele><time>2026-04-16T16:14:07.999Z</time></trkpt><trkpt lat="45.725207652493566" lon="11.356632322802586"><ele>208.0</ele><time>2026-04-16T16:14:08.999Z</time></trkpt><trkpt lat="45.7252639840334" lon="11.356731757272277"><ele>208.0</ele><time>2026-04-16T16:14:09.999Z</time></trkpt><trkpt lat="45.72531137507212" lon="11.356832600062514"><ele>208.0</ele><time>2026-04-16T16:14:10.999Z</time></trkpt><trkpt lat="45.725343060497295" lon="11.356938525719386"><ele>207.99999999999997</ele><time>2026-04-16T16:14:11.999Z</time></trkpt><trkpt lat="45.72535949747846" lon="11.35703671471935"><ele>208.0</ele><time>2026-04-16T16:14:12.999Z</time></trkpt><trkpt lat="45.7253612051334" lon="11.35713241020914"><ele>208.99999999999997</ele><time>2026-04-16T16:14:13.999Z</time></trkpt><trkpt lat="45.725352299601504" lon="11.357231393190888"><ele>210.0</ele><time>2026-04-16T16:14:14.999Z</time></trkpt><trkpt lat="45.72533390672803" lon="11.357383734122385"><ele>211.0</ele><time>2026-04-16T16:14:16.999Z</time></trkpt><trkpt lat="45.725433476001314" lon="11.357413178151193"><ele>212.0</ele><time>2026-04-16T16:14:17.999Z</time></trkpt><trkpt lat="45.72549882269776" lon="11.357449093554672"><ele>212.99999999999997</ele><time>2026-04-16T16:14:18.999Z</time></trkpt><trkpt lat="45.72558664419402" lon="11.35739216668799"><ele>214.0</ele><time>2026-04-16T16:14:19.999Z</time></trkpt><trkpt lat="45.72567083576841" lon="11.357453251500804"><ele>214.0</ele><time>2026-04-16T16:14:20.999Z</time></trkpt><trkpt lat="45.72572195310667" lon="11.357549117202804"><ele>213.99999999999997</ele><time>2026-04-16T16:14:21.998Z</time></trkpt><trkpt lat="45.72579711491423" lon="11.357659057739948"><ele>213.99999999999997</ele><time>2026-04-16T16:14:22.998Z</time></trkpt><trkpt lat="45.725864874505966" lon="11.357801927634796"><ele>214.0</ele><time>2026-04-16T16:14:23.998Z</time></trkpt><trkpt lat="45.72592213686266" lon="11.357910540812526"><ele>214.0</ele><time>2026-04-16T16:14:24.998Z</time></trkpt><trkpt lat="45.72597848040509" lon="11.358012365928776"><ele>213.99999999999997</ele><time>2026-04-16T16:14:25.998Z</time></trkpt><trkpt lat="45.726034124632584" lon="11.358108709237177"><ele>214.0</ele><time>2026-04-16T16:14:26.998Z</time></trkpt><trkpt lat="45.72609065131431" lon="11.358207609202235"><ele>214.0</ele><time>2026-04-16T16:14:27.998Z</time></trkpt><trkpt lat="45.72614816117541" lon="11.358308794886007"><ele>214.0</ele><time>2026-04-16T16:14:28.998Z</time></trkpt><trkpt lat="45.72620177250257" lon="11.358403044787554"><ele>213.99999999999997</ele><time>2026-04-16T16:14:29.998Z</time></trkpt><trkpt lat="45.72624723481415" lon="11.358489961781945"><ele>214.0</ele><time>2026-04-16T16:14:30.998Z</time></trkpt><trkpt lat="45.72629281543619" lon="11.358576082525817"><ele>213.99999999999997</ele><time>2026-04-16T16:14:31.998Z</time></trkpt><trkpt lat="45.726341880070876" lon="11.358668350242986"><ele>214.0</ele><time>2026-04-16T16:14:32.998Z</time></trkpt><trkpt lat="45.726395913761024" lon="11.358765871410473"><ele>214.0</ele><time>2026-04-16T16:14:33.998Z</time></trkpt><trkpt lat="45.726451169780624" lon="11.358865504255071"><ele>214.0</ele><time>2026-04-16T16:14:34.998Z</time></trkpt><trkpt lat="45.72650729188221" lon="11.358965247375407"><ele>213.99999999999997</ele><time>2026-04-16T16:14:35.998Z</time></trkpt><trkpt lat="45.7265613453135" lon="11.359063231767568"><ele>214.0</ele><time>2026-04-16T16:14:36.998Z</time></trkpt><trkpt lat="45.726613337342236" lon="11.359155336866992"><ele>213.0</ele><time>2026-04-16T16:14:37.998Z</time></trkpt><trkpt lat="45.72666050847781" lon="11.35923690989643"><ele>212.0</ele><time>2026-04-16T16:14:38.998Z</time></trkpt><trkpt lat="45.726703980936996" lon="11.359306198614828"><ele>211.0</ele><time>2026-04-16T16:14:39.998Z</time></trkpt><trkpt lat="45.726746087673504" lon="11.35941324718739"><ele>210.0</ele><time>2026-04-16T16:14:41.998Z</time></trkpt><trkpt lat="45.72684766871342" lon="11.359121923026967"><ele>210.0</ele><time>2026-04-16T16:14:45.998Z</time></trkpt><trkpt lat="45.72683159497767" lon="11.358996499634406"><ele>210.0</ele><time>2026-04-16T16:14:47.998Z</time></trkpt><trkpt lat="45.726843212040706" lon="11.358893638372274"><ele>210.0</ele><time>2026-04-16T16:14:48.998Z</time></trkpt><trkpt lat="45.7268539982212" lon="11.358798134068826"><ele>210.0</ele><time>2026-04-16T16:14:49.998Z</time></trkpt><trkpt lat="45.726877049199025" lon="11.358661529201667"><ele>210.0</ele><time>2026-04-16T16:14:51.998Z</time></trkpt><trkpt lat="45.727194420580425" lon="11.358700435463103"><ele>212.0</ele><time>2026-04-16T16:14:52.998Z</time></trkpt><trkpt lat="45.72730130727489" lon="11.358811817285288"><ele>214.0</ele><time>2026-04-16T16:14:55.998Z</time></trkpt><trkpt lat="45.727364938303374" lon="11.3588213612625"><ele>216.0</ele><time>2026-04-16T16:14:56.998Z</time></trkpt><trkpt lat="45.727457294333355" lon="11.358776533117892"><ele>218.0</ele><time>2026-04-16T16:14:57.998Z</time></trkpt><trkpt lat="45.72757137832945" lon="11.358720318416747"><ele>220.0</ele><time>2026-04-16T16:14:58.998Z</time></trkpt><trkpt lat="45.72768573048591" lon="11.35871448079135"><ele>219.8</ele><time>2026-04-16T16:14:59.998Z</time></trkpt><trkpt lat="45.727801805439384" lon="11.358707219614246"><ele>219.6</ele><time>2026-04-16T16:15:00.998Z</time></trkpt><trkpt lat="45.727909127079506" lon="11.3586920588172"><ele>219.39999999999998</ele><time>2026-04-16T16:15:01.998Z</time></trkpt><trkpt lat="45.72800201655648" lon="11.358682718728753"><ele>219.2</ele><time>2026-04-16T16:15:02.998Z</time></trkpt><trkpt lat="45.728085267633" lon="11.358646997430105"><ele>219.0</ele><time>2026-04-16T16:15:03.998Z</time></trkpt><trkpt lat="45.728168321347624" lon="11.358579060487767"><ele>219.0</ele><time>2026-04-16T16:15:04.998Z</time></trkpt><trkpt lat="45.728265223242104" lon="11.358490075279535"><ele>219.0</ele><time>2026-04-16T16:15:05.998Z</time></trkpt><trkpt lat="45.72838963049634" lon="11.358431646358111"><ele>219.0</ele><time>2026-04-16T16:15:06.998Z</time></trkpt><trkpt lat="45.72851503211944" lon="11.358369685127771"><ele>219.0</ele><time>2026-04-16T16:15:07.998Z</time></trkpt><trkpt lat="45.72863856905605" lon="11.358278111049486"><ele>219.79999999999998</ele><time>2026-04-16T16:15:08.998Z</time></trkpt><trkpt lat="45.728757523405804" lon="11.35819324859437"><ele>220.59999999999997</ele><time>2026-04-16T16:15:09.998Z</time></trkpt><trkpt lat="45.7288540932977" lon="11.358128733244238"><ele>221.4</ele><time>2026-04-16T16:15:10.998Z</time></trkpt><trkpt lat="45.72893334029635" lon="11.358090754931315"><ele>222.2</ele><time>2026-04-16T16:15:11.998Z</time></trkpt><trkpt lat="45.72901358031658" lon="11.358124304193508"><ele>223.0</ele><time>2026-04-16T16:15:12.998Z</time></trkpt><trkpt lat="45.72910184711689" lon="11.358129151416822"><ele>223.0</ele><time>2026-04-16T16:15:13.998Z</time></trkpt><trkpt lat="45.729194048318824" lon="11.358123039550193"><ele>223.0</ele><time>2026-04-16T16:15:14.998Z</time></trkpt><trkpt lat="45.729302184318" lon="11.358124125463373"><ele>223.0</ele><time>2026-04-16T16:15:15.998Z</time></trkpt><trkpt lat="45.72942670316908" lon="11.358125090723268"><ele>223.0</ele><time>2026-04-16T16:15:16.998Z</time></trkpt><trkpt lat="45.729564298643204" lon="11.358126157349904"><ele>224.75</ele><time>2026-04-16T16:15:17.999Z</time></trkpt><trkpt lat="45.72966248534887" lon="11.358138284826868"><ele>226.5</ele><time>2026-04-16T16:15:18.999Z</time></trkpt><trkpt lat="45.72973160264823" lon="11.358174624912502"><ele>228.25</ele><time>2026-04-16T16:15:19.999Z</time></trkpt><trkpt lat="45.729800951990775" lon="11.358193745798149"><ele>230.0</ele><time>2026-04-16T16:15:20.999Z</time></trkpt><trkpt lat="45.729919536739814" lon="11.35785346274326"><ele>232.6</ele><time>2026-04-16T16:15:21.999Z</time></trkpt><trkpt lat="45.73001696256878" lon="11.357780384835683"><ele>235.2</ele><time>2026-04-16T16:15:22.999Z</time></trkpt><trkpt lat="45.73010296933876" lon="11.357718161267442"><ele>237.8</ele><time>2026-04-16T16:15:23.999Z</time></trkpt><trkpt lat="45.73016485488514" lon="11.357680544321228"><ele>240.4</ele><time>2026-04-16T16:15:24.999Z</time></trkpt><trkpt lat="45.73028712625651" lon="11.357684602553785"><ele>243.0</ele><time>2026-04-16T16:15:26.999Z</time></trkpt><trkpt lat="45.73035392886324" lon="11.357713914812438"><ele>248.5</ele><time>2026-04-16T16:15:27.999Z</time></trkpt><trkpt lat="45.73046083541277" lon="11.357732986918702"><ele>254.0</ele><time>2026-04-16T16:15:29.999Z</time></trkpt><trkpt lat="45.73057275190519" lon="11.357740904016689"><ele>259.5</ele><time>2026-04-16T16:15:31.999Z</time></trkpt><trkpt lat="45.73068457713956" lon="11.357770507376463"><ele>265.0</ele><time>2026-04-16T16:15:33.999Z</time></trkpt><trkpt lat="45.73080554897052" lon="11.35783402477884"><ele>265.0</ele><time>2026-04-16T16:15:35.999Z</time></trkpt><trkpt lat="45.730869694181294" lon="11.35788844121908"><ele>265.0</ele><time>2026-04-16T16:15:36.999Z</time></trkpt><trkpt lat="45.730989386028845" lon="11.357951369539055"><ele>265.0</ele><time>2026-04-16T16:15:38.999Z</time></trkpt><trkpt lat="45.731062849410314" lon="11.358003671779407"><ele>265.0</ele><time>2026-04-16T16:15:39.999Z</time></trkpt><trkpt lat="45.73116867572466" lon="11.358043232753218"><ele>265.0</ele><time>2026-04-16T16:15:41.999Z</time></trkpt><trkpt lat="45.73125227164162" lon="11.358123590911573"><ele>263.5</ele><time>2026-04-16T16:15:43.999Z</time></trkpt><trkpt lat="45.73130529957337" lon="11.358207518283159"><ele>262.0</ele><time>2026-04-16T16:15:45.999Z</time></trkpt><trkpt lat="45.73137080107063" lon="11.358255722914446"><ele>260.5</ele><time>2026-04-16T16:15:47.999Z</time></trkpt><trkpt lat="45.7314339797431" lon="11.358278980038797"><ele>259.0</ele><time>2026-04-16T16:15:49.999Z</time></trkpt><trkpt lat="45.731516824455994" lon="11.358316044412105"><ele>257.5</ele><time>2026-04-16T16:15:51.999Z</time></trkpt><trkpt lat="45.73160608115238" lon="11.358421998708314"><ele>256.0</ele><time>2026-04-16T16:15:53.999Z</time></trkpt><trkpt lat="45.731688629155286" lon="11.358517655089269"><ele>255.99999999999997</ele><time>2026-04-16T16:15:55.999Z</time></trkpt><trkpt lat="45.731769324142455" lon="11.35863027239402"><ele>256.0</ele><time>2026-04-16T16:15:57.999Z</time></trkpt><trkpt lat="45.73181791494707" lon="11.358716046052862"><ele>256.0</ele><time>2026-04-16T16:15:58.999Z</time></trkpt><trkpt lat="45.7318806868338" lon="11.358797812201368"><ele>256.0</ele><time>2026-04-16T16:22:46.999Z</time></trkpt><trkpt lat="45.731948645796315" lon="11.358882366089553"><ele>255.99999999999997</ele><time>2026-04-16T16:22:48.999Z</time></trkpt><trkpt lat="45.7319887953192" lon="11.35895771055456"><ele>256.0</ele><time>2026-04-16T16:22:49.999Z</time></trkpt><trkpt lat="45.73199629070331" lon="11.359082344020184"><ele>261.40000000000003</ele><time>2026-04-16T16:22:51.999Z</time></trkpt><trkpt lat="45.73202887915986" lon="11.35918634039709"><ele>266.8</ele><time>2026-04-16T16:22:54.999Z</time></trkpt><trkpt lat="45.73207744246133" lon="11.359329244897557"><ele>272.20000000000005</ele><time>2026-04-16T16:22:57.999Z</time></trkpt><trkpt lat="45.73217850191556" lon="11.359484858156716"><ele>277.6</ele><time>2026-04-16T16:22:59.999Z</time></trkpt><trkpt lat="45.73226445483125" lon="11.359567472736721"><ele>283.0</ele><time>2026-04-16T16:23:00.999Z</time></trkpt><trkpt lat="45.732374413684944" lon="11.359663756548208"><ele>281.7142857142857</ele><time>2026-04-16T16:23:01.999Z</time></trkpt><trkpt lat="45.73243961968334" lon="11.359732687793109"><ele>280.42857142857144</ele><time>2026-04-16T16:23:02.999Z</time></trkpt><trkpt lat="45.73249916687511" lon="11.359775034806008"><ele>279.14285714285717</ele><time>2026-04-16T16:23:03.999Z</time></trkpt><trkpt lat="45.73256522420051" lon="11.35983688744587"><ele>277.8571428571429</ele><time>2026-04-16T16:23:04.999Z</time></trkpt><trkpt lat="45.73262370610732" lon="11.359871741635033"><ele>276.57142857142856</ele><time>2026-04-16T16:23:05.999Z</time></trkpt><trkpt lat="45.732694649470076" lon="11.359896218447956"><ele>275.28571428571433</ele><time>2026-04-16T16:23:07.999Z</time></trkpt><trkpt lat="45.732755807960146" lon="11.359951881217961"><ele>274.0</ele><time>2026-04-16T16:23:09.999Z</time></trkpt><trkpt lat="45.73282276517605" lon="11.360000481559998"><ele>277.59999999999997</ele><time>2026-04-16T16:23:11.999Z</time></trkpt><trkpt lat="45.73287131750353" lon="11.360111518416394"><ele>281.2</ele><time>2026-04-16T16:23:13.999Z</time></trkpt><trkpt lat="45.73290422292194" lon="11.360202692624473"><ele>284.79999999999995</ele><time>2026-04-16T16:23:14.999Z</time></trkpt><trkpt lat="45.73298766623496" lon="11.36029171183618"><ele>288.4</ele><time>2026-04-16T16:23:16.999Z</time></trkpt><trkpt lat="45.733091930912884" lon="11.360350754892734"><ele>292.0</ele><time>2026-04-16T16:23:18.999Z</time></trkpt><trkpt lat="45.733195570142" lon="11.360404345333622"><ele>292.0</ele><time>2026-04-16T16:23:20.999Z</time></trkpt><trkpt lat="45.733267030973835" lon="11.360420372060494"><ele>292.0</ele><time>2026-04-16T16:23:21.999Z</time></trkpt><trkpt lat="45.73332948538453" lon="11.360450400259397"><ele>292.0</ele><time>2026-04-16T16:23:22.999Z</time></trkpt><trkpt lat="45.73343524982455" lon="11.360479072372419"><ele>292.0</ele><time>2026-04-16T16:23:24.999Z</time></trkpt><trkpt lat="45.733531155448794" lon="11.36048907924275"><ele>292.0</ele><time>2026-04-16T16:23:26.999Z</time></trkpt><trkpt lat="45.7335734252511" lon="11.360572879857447"><ele>292.0</ele><time>2026-04-16T16:23:28.999Z</time></trkpt><trkpt lat="45.73356151021577" lon="11.360677414499476"><ele>290.8333333333333</ele><time>2026-04-16T16:23:31.998Z</time></trkpt><trkpt lat="45.733494363262345" lon="11.360712350512749"><ele>289.66666666666663</ele><time>2026-04-16T16:23:33.998Z</time></trkpt><trkpt lat="45.733442610536166" lon="11.36079555587342"><ele>288.5</ele><time>2026-04-16T16:23:35.998Z</time></trkpt><trkpt lat="45.73342150039003" lon="11.360941747911882"><ele>287.3333333333333</ele><time>2026-04-16T16:23:37.998Z</time></trkpt><trkpt lat="45.7334028556602" lon="11.36108800431109"><ele>286.1666666666667</ele><time>2026-04-16T16:23:39.998Z</time></trkpt><trkpt lat="45.73331741160195" lon="11.361106695071562"><ele>285.0</ele><time>2026-04-16T16:23:42Z</time></trkpt><trkpt lat="45.73318466711567" lon="11.361075553319786"><ele>285.0</ele><time>2026-04-16T16:23:44Z</time></trkpt><trkpt lat="45.733054341539386" lon="11.361123772839392"><ele>285.0</ele><time>2026-04-16T16:23:46Z</time></trkpt><trkpt lat="45.73299083765244" lon="11.361179412953781"><ele>285.0</ele><time>2026-04-16T16:23:47Z</time></trkpt><trkpt lat="45.73293291546106" lon="11.361236026657947"><ele>285.0</ele><time>2026-04-16T16:23:48Z</time></trkpt><trkpt lat="45.73288993520723" lon="11.361305685117902"><ele>285.0</ele><time>2026-04-16T16:23:49Z</time></trkpt><trkpt lat="45.73279035523535" lon="11.36135562482836"><ele>287.4</ele><time>2026-04-16T16:23:51Z</time></trkpt><trkpt lat="45.732735673351435" lon="11.361490002074518"><ele>289.8</ele><time>2026-04-16T16:23:53Z</time></trkpt><trkpt lat="45.7327659137923" lon="11.361609452294847"><ele>292.2</ele><time>2026-04-16T16:23:55Z</time></trkpt><trkpt lat="45.73282300083632" lon="11.361768585094334"><ele>294.6</ele><time>2026-04-16T16:23:57Z</time></trkpt><trkpt lat="45.73284197987803" lon="11.361900379584503"><ele>297.0</ele><time>2026-04-16T16:23:59Z</time></trkpt><trkpt lat="45.73284234193637" lon="11.362088893405106"><ele>298.4</ele><time>2026-04-16T16:24:01Z</time></trkpt><trkpt lat="45.73283940593572" lon="11.362216322214538"><ele>299.79999999999995</ele><time>2026-04-16T16:24:03Z</time></trkpt><trkpt lat="45.73284584271855" lon="11.362384844770578"><ele>301.2</ele><time>2026-04-16T16:24:05Z</time></trkpt><trkpt lat="45.73290766815134" lon="11.362475602949166"><ele>302.59999999999997</ele><time>2026-04-16T16:24:07Z</time></trkpt><trkpt lat="45.73294198205927" lon="11.362579781293386"><ele>304.0</ele><time>2026-04-16T16:24:08Z</time></trkpt><trkpt lat="45.73297310965816" lon="11.362687178780476"><ele>304.0</ele><time>2026-04-16T16:24:09Z</time></trkpt><trkpt lat="45.73298112534173" lon="11.362820286683972"><ele>304.0</ele><time>2026-04-16T16:24:10.999Z</time></trkpt><trkpt lat="45.733064099409134" lon="11.362816394846854"><ele>304.0</ele><time>2026-04-16T16:24:13.999Z</time></trkpt><trkpt lat="45.73314190021918" lon="11.362740615333262"><ele>304.0</ele><time>2026-04-16T16:24:15.999Z</time></trkpt><trkpt lat="45.733207662262345" lon="11.362719648898132"><ele>304.0</ele><time>2026-04-16T16:24:16.999Z</time></trkpt><trkpt lat="45.73325649345807" lon="11.362824904529123"><ele>304.0</ele><time>2026-04-16T16:24:19.999Z</time></trkpt><trkpt lat="45.73327859155044" lon="11.36292853591529"><ele>304.0</ele><time>2026-04-16T16:24:22.999Z</time></trkpt><trkpt lat="45.73333527298578" lon="11.363020952121031"><ele>304.0</ele><time>2026-04-16T16:24:24.999Z</time></trkpt><trkpt lat="45.733375734667554" lon="11.363092698194157"><ele>304.0</ele><time>2026-04-16T16:24:25.999Z</time></trkpt><trkpt lat="45.733462400963944" lon="11.363217708231033"><ele>304.0</ele><time>2026-04-16T16:24:27.999Z</time></trkpt><trkpt lat="45.733524229800395" lon="11.363357173989304"><ele>304.0</ele><time>2026-04-16T16:24:29.999Z</time></trkpt><trkpt lat="45.733559086857134" lon="11.363478549921245"><ele>309.0</ele><time>2026-04-16T16:24:31.999Z</time></trkpt><trkpt lat="45.73359123148579" lon="11.363363829391847"><ele>314.0</ele><time>2026-04-16T16:24:37.999Z</time></trkpt><trkpt lat="45.733587773917485" lon="11.36325424908126"><ele>319.0</ele><time>2026-04-16T16:24:38.999Z</time></trkpt><trkpt lat="45.733576406541935" lon="11.363101719379559"><ele>324.0</ele><time>2026-04-16T16:24:40.999Z</time></trkpt><trkpt lat="45.73357795253513" lon="11.362953778646238"><ele>329.0</ele><time>2026-04-16T16:24:42.999Z</time></trkpt><trkpt lat="45.7336089857705" lon="11.362804366593833"><ele>329.0</ele><time>2026-04-16T16:24:44.999Z</time></trkpt><trkpt lat="45.733665793084185" lon="11.362669366832977"><ele>329.0</ele><time>2026-04-16T16:24:46.999Z</time></trkpt><trkpt lat="45.733685190825135" lon="11.362577141373212"><ele>329.0</ele><time>2026-04-16T16:24:47.999Z</time></trkpt><trkpt lat="45.73376911557796" lon="11.362445627176164"><ele>329.0</ele><time>2026-04-16T16:24:49.999Z</time></trkpt><trkpt lat="45.733811491018926" lon="11.362370963215124"><ele>329.0</ele><time>2026-04-16T16:24:51.999Z</time></trkpt><trkpt lat="45.73388846036435" lon="11.36235589927016"><ele>329.0</ele><time>2026-04-16T16:24:53.999Z</time></trkpt><trkpt lat="45.73401149379769" lon="11.362366640727547"><ele>329.0</ele><time>2026-04-16T16:24:55.999Z</time></trkpt><trkpt lat="45.7340822613414" lon="11.362370800526545"><ele>329.0</ele><time>2026-04-16T16:24:57.999Z</time></trkpt><trkpt lat="45.73417492171417" lon="11.362395968359955"><ele>329.0</ele><time>2026-04-16T16:24:59.999Z</time></trkpt><trkpt lat="45.734293116916035" lon="11.362409474099127"><ele>329.0</ele><time>2026-04-16T16:25:01.999Z</time></trkpt><trkpt lat="45.73440226287633" lon="11.362433585377442"><ele>329.0</ele><time>2026-04-16T16:25:03.999Z</time></trkpt><trkpt lat="45.73453168131939" lon="11.362448890145048"><ele>333.0</ele><time>2026-04-16T16:25:05.999Z</time></trkpt><trkpt lat="45.734603918461765" lon="11.362378111306963"><ele>337.0</ele><time>2026-04-16T16:25:07.999Z</time></trkpt><trkpt lat="45.734642958215474" lon="11.362299616023966"><ele>341.0</ele><time>2026-04-16T16:25:08.999Z</time></trkpt><trkpt lat="45.73469306678571" lon="11.362219238256827"><ele>345.0</ele><time>2026-04-16T16:25:09.999Z</time></trkpt><trkpt lat="45.734761414057594" lon="11.362073925504205"><ele>349.0</ele><time>2026-04-16T16:25:11.999Z</time></trkpt><trkpt lat="45.734783879649164" lon="11.361929197703331"><ele>349.0</ele><time>2026-04-16T16:25:13.999Z</time></trkpt><trkpt lat="45.73471064960675" lon="11.361827256582725"><ele>349.0</ele><time>2026-04-16T16:25:15.999Z</time></trkpt><trkpt lat="45.734655563515425" lon="11.361748555381709"><ele>349.0</ele><time>2026-04-16T16:25:16.999Z</time></trkpt><trkpt lat="45.73462437664132" lon="11.361660494869993"><ele>349.0</ele><time>2026-04-16T16:25:17.999Z</time></trkpt><trkpt lat="45.73460141554975" lon="11.361564804047923"><ele>349.0</ele><time>2026-04-16T16:25:18.999Z</time></trkpt><trkpt lat="45.73460213009667" lon="11.361389114019778"><ele>349.0</ele><time>2026-04-16T16:25:20.999Z</time></trkpt><trkpt lat="45.73461067069903" lon="11.36127961133287"><ele>348.5</ele><time>2026-04-16T16:25:21.999Z</time></trkpt><trkpt lat="45.73463223797322" lon="11.361168713446931"><ele>348.0</ele><time>2026-04-16T16:25:22.999Z</time></trkpt><trkpt lat="45.734654177428936" lon="11.361069528683663"><ele>347.5</ele><time>2026-04-16T16:25:23.999Z</time></trkpt><trkpt lat="45.73469169086466" lon="11.360966202666674"><ele>347.0</ele><time>2026-04-16T16:25:24.999Z</time></trkpt><trkpt lat="45.73473746739642" lon="11.360867684284752"><ele>346.5</ele><time>2026-04-16T16:25:25.999Z</time></trkpt><trkpt lat="45.73478424940512" lon="11.360764136129179"><ele>346.0</ele><time>2026-04-16T16:25:26.999Z</time></trkpt><trkpt lat="45.7348202517847" lon="11.360664239250575"><ele>346.0</ele><time>2026-04-16T16:25:27.998Z</time></trkpt><trkpt lat="45.73485686092874" lon="11.360559716931954"><ele>346.0</ele><time>2026-04-16T16:25:28.998Z</time></trkpt><trkpt lat="45.73488138442716" lon="11.36046327374893"><ele>346.0</ele><time>2026-04-16T16:25:29.998Z</time></trkpt><trkpt lat="45.73491834075667" lon="11.360363977481548"><ele>346.0</ele><time>2026-04-16T16:25:30.998Z</time></trkpt><trkpt lat="45.734948584234715" lon="11.360237496335309"><ele>346.0</ele><time>2026-04-16T16:25:31.998Z</time></trkpt><trkpt lat="45.73497416006166" lon="11.360140939045369"><ele>346.0</ele><time>2026-04-16T16:25:32.998Z</time></trkpt><trkpt lat="45.73499539813552" lon="11.360018002394632"><ele>344.66666666666663</ele><time>2026-04-16T16:25:33.998Z</time></trkpt><trkpt lat="45.73500380469388" lon="11.359902219524974"><ele>343.3333333333333</ele><time>2026-04-16T16:25:34.998Z</time></trkpt><trkpt lat="45.73527330085865" lon="11.359827772376935"><ele>342.0</ele><time>2026-04-16T16:25:35.998Z</time></trkpt><trkpt lat="45.735285427428146" lon="11.35969227891158"><ele>345.0</ele><time>2026-04-16T16:25:36.998Z</time></trkpt><trkpt lat="45.73529256687575" lon="11.35958235662927"><ele>348.0</ele><time>2026-04-16T16:25:37.998Z</time></trkpt><trkpt lat="45.73530215320243" lon="11.359434761485836"><ele>351.0</ele><time>2026-04-16T16:25:39.998Z</time></trkpt><trkpt lat="45.73491880653554" lon="11.358999688659324"><ele>351.0</ele><time>2026-04-16T16:25:41.998Z</time></trkpt><trkpt lat="45.734877972842966" lon="11.358883473472888"><ele>351.0</ele><time>2026-04-16T16:25:43.998Z</time></trkpt><trkpt lat="45.73478001728472" lon="11.358784559249093"><ele>351.0</ele><time>2026-04-16T16:25:45.998Z</time></trkpt><trkpt lat="45.73468627381185" lon="11.358690623669121"><ele>351.0</ele><time>2026-04-16T16:25:47.999Z</time></trkpt><trkpt lat="45.73459465327345" lon="11.358578869219436"><ele>351.0</ele><time>2026-04-16T16:25:49.999Z</time></trkpt><trkpt lat="45.73455134096376" lon="11.358513322628115"><ele>353.4</ele><time>2026-04-16T16:25:50.999Z</time></trkpt><trkpt lat="45.73450289986148" lon="11.358420288842451"><ele>355.8</ele><time>2026-04-16T16:25:52.999Z</time></trkpt><trkpt lat="45.73448010836048" lon="11.358328209841032"><ele>358.2</ele><time>2026-04-16T16:25:54.999Z</time></trkpt><trkpt lat="45.73444445287679" lon="11.358153188159095"><ele>360.59999999999997</ele><time>2026-04-16T16:25:56.999Z</time></trkpt><trkpt lat="45.734415140015734" lon="11.357967560079478"><ele>363.0</ele><time>2026-04-16T16:25:58.999Z</time></trkpt><trkpt lat="45.73439389980903" lon="11.35783503632051"><ele>362.2</ele><time>2026-04-16T16:25:59.999Z</time></trkpt><trkpt lat="45.734375925835806" lon="11.35772206306229"><ele>361.4</ele><time>2026-04-16T16:26:00.999Z</time></trkpt><trkpt lat="45.73435447725292" lon="11.357591970830796"><ele>360.59999999999997</ele><time>2026-04-16T16:26:01.999Z</time></trkpt><trkpt lat="45.73433298176375" lon="11.357469239342281"><ele>359.79999999999995</ele><time>2026-04-16T16:26:02.999Z</time></trkpt><trkpt lat="45.73430626759139" lon="11.357334983014574"><ele>359.0</ele><time>2026-04-16T16:26:03.999Z</time></trkpt><trkpt lat="45.73426264086294" lon="11.357188772148271"><ele>359.0</ele><time>2026-04-16T16:26:04.999Z</time></trkpt><trkpt lat="45.734218059854456" lon="11.357077125236659"><ele>359.0</ele><time>2026-04-16T16:26:05.999Z</time></trkpt><trkpt lat="45.7341148718498" lon="11.356963154565866"><ele>359.0</ele><time>2026-04-16T16:26:06.999Z</time></trkpt><trkpt lat="45.73401171700071" lon="11.356886551639068"><ele>359.0</ele><time>2026-04-16T16:26:07.999Z</time></trkpt><trkpt lat="45.73390435729613" lon="11.35687642913695"><ele>359.0</ele><time>2026-04-16T16:26:08.999Z</time></trkpt><trkpt lat="45.73384106288279" lon="11.356875332143638"><ele>359.0</ele><time>2026-04-16T16:26:10.999Z</time></trkpt><trkpt lat="45.733754543042735" lon="11.35687536213015"><ele>359.0</ele><time>2026-04-16T16:26:40.999Z</time></trkpt><trkpt lat="45.73364237566064" lon="11.35687064685897"><ele>359.0</ele><time>2026-04-16T16:26:42.999Z</time></trkpt><trkpt lat="45.7335667535314" lon="11.356874183013659"><ele>359.0</ele><time>2026-04-16T16:26:43.999Z</time></trkpt><trkpt lat="45.73347700300373" lon="11.356833247425243"><ele>359.0</ele><time>2026-04-16T16:26:44.999Z</time></trkpt><trkpt lat="45.73339815186008" lon="11.356747621976739"><ele>356.83333333333337</ele><time>2026-04-16T16:26:45.999Z</time></trkpt><trkpt lat="45.73334613126639" lon="11.356639411172416"><ele>354.6666666666667</ele><time>2026-04-16T16:26:46.999Z</time></trkpt><trkpt lat="45.73331155104208" lon="11.356529005508676"><ele>352.5</ele><time>2026-04-16T16:26:47.999Z</time></trkpt><trkpt lat="45.73329372531729" lon="11.356430618900319"><ele>350.3333333333333</ele><time>2026-04-16T16:26:48.999Z</time></trkpt><trkpt lat="45.73327958988011" lon="11.356325387091287"><ele>348.16666666666663</ele><time>2026-04-16T16:26:49.999Z</time></trkpt><trkpt lat="45.733260992606624" lon="11.356226068424785"><ele>346.0</ele><time>2026-04-16T16:26:50.999Z</time></trkpt><trkpt lat="45.73323304494201" lon="11.356111701537095"><ele>346.0</ele><time>2026-04-16T16:26:51.999Z</time></trkpt><trkpt lat="45.733200346424255" lon="11.356020567611845"><ele>346.0</ele><time>2026-04-16T16:26:52.999Z</time></trkpt><trkpt lat="45.733167380200236" lon="11.355931999167577"><ele>346.0</ele><time>2026-04-16T16:26:53.999Z</time></trkpt><trkpt lat="45.733059751443506" lon="11.355850936522737"><ele>346.0</ele><time>2026-04-16T16:26:55.998Z</time></trkpt><trkpt lat="45.732977323192294" lon="11.355866624992833"><ele>346.0</ele><time>2026-04-16T16:26:57.998Z</time></trkpt><trkpt lat="45.73291367383932" lon="11.35596294894456"><ele>346.0</ele><time>2026-04-16T16:27:02.998Z</time></trkpt><trkpt lat="45.732833811117324" lon="11.356004189219476"><ele>346.0</ele><time>2026-04-16T16:27:03.998Z</time></trkpt><trkpt lat="45.73277440673914" lon="11.356039081775412"><ele>346.0</ele><time>2026-04-16T16:27:04.998Z</time></trkpt><trkpt lat="45.73261426243593" lon="11.355746516980988"><ele>346.0</ele><time>2026-04-16T16:27:05.998Z</time></trkpt><trkpt lat="45.732498366495285" lon="11.355693750805374"><ele>346.0</ele><time>2026-04-16T16:27:06.998Z</time></trkpt><trkpt lat="45.732410184583436" lon="11.355662312972365"><ele>345.16666666666663</ele><time>2026-04-16T16:27:07.998Z</time></trkpt><trkpt lat="45.73233572379033" lon="11.355625377984463"><ele>344.3333333333333</ele><time>2026-04-16T16:27:08.998Z</time></trkpt><trkpt lat="45.732274911301374" lon="11.355591679227995"><ele>343.5</ele><time>2026-04-16T16:27:09.998Z</time></trkpt><trkpt lat="45.73220850280187" lon="11.355535389971836"><ele>342.6666666666667</ele><time>2026-04-16T16:27:10.998Z</time></trkpt><trkpt lat="45.73214731368866" lon="11.35546773902456"><ele>341.83333333333337</ele><time>2026-04-16T16:27:11.998Z</time></trkpt><trkpt lat="45.73209421963103" lon="11.355398735999028"><ele>341.0</ele><time>2026-04-16T16:27:12.998Z</time></trkpt><trkpt lat="45.73205400848471" lon="11.355287864236665"><ele>340.8</ele><time>2026-04-16T16:27:13.998Z</time></trkpt><trkpt lat="45.732002851560665" lon="11.355182237932787"><ele>340.6</ele><time>2026-04-16T16:27:14.998Z</time></trkpt><trkpt lat="45.73192126581129" lon="11.355076672372622"><ele>340.4</ele><time>2026-04-16T16:27:16.998Z</time></trkpt><trkpt lat="45.7318713574856" lon="11.354920097070924"><ele>340.2</ele><time>2026-04-16T16:27:18.998Z</time></trkpt><trkpt lat="45.73186629151922" lon="11.354822758555287"><ele>340.0</ele><time>2026-04-16T16:27:19.998Z</time></trkpt><trkpt lat="45.731853354235064" lon="11.354713905738757"><ele>342.66666666666663</ele><time>2026-04-16T16:27:20.998Z</time></trkpt><trkpt lat="45.7318445328977" lon="11.354622665319594"><ele>345.3333333333333</ele><time>2026-04-16T16:27:21.998Z</time></trkpt><trkpt lat="45.731866429159766" lon="11.354527408346298"><ele>348.0</ele><time>2026-04-16T16:27:22.998Z</time></trkpt><trkpt lat="45.73187502100039" lon="11.354386015449029"><ele>350.6666666666667</ele><time>2026-04-16T16:27:24.998Z</time></trkpt><trkpt lat="45.731914188999355" lon="11.354249427335908"><ele>353.33333333333337</ele><time>2026-04-16T16:27:26.998Z</time></trkpt><trkpt lat="45.7318624061503" lon="11.35415201639333"><ele>356.0</ele><time>2026-04-16T16:27:28.998Z</time></trkpt><trkpt lat="45.73173164092963" lon="11.354215744323753"><ele>356.0</ele><time>2026-04-16T16:27:30.998Z</time></trkpt><trkpt lat="45.73166778799791" lon="11.354235180551985"><ele>356.0</ele><time>2026-04-16T16:27:31.998Z</time></trkpt><trkpt lat="45.731595386085104" lon="11.354297327078717"><ele>356.0</ele><time>2026-04-16T16:27:34.998Z</time></trkpt><trkpt lat="45.731534487468146" lon="11.354339061037924"><ele>356.0</ele><time>2026-04-16T16:27:35.998Z</time></trkpt><trkpt lat="45.731433307329894" lon="11.354365528868579"><ele>356.0</ele><time>2026-04-16T16:27:36.998Z</time></trkpt><trkpt lat="45.73135511804448" lon="11.354364186326217"><ele>356.0</ele><time>2026-04-16T16:27:37.998Z</time></trkpt><trkpt lat="45.73124933563141" lon="11.354409841064612"><ele>356.0</ele><time>2026-04-16T16:27:39.998Z</time></trkpt><trkpt lat="45.731144397506185" lon="11.354472348146716"><ele>356.0</ele><time>2026-04-16T16:27:41.998Z</time></trkpt><trkpt lat="45.731047003413" lon="11.354425757382533"><ele>356.0</ele><time>2026-04-16T16:27:43.998Z</time></trkpt><trkpt lat="45.73098396387014" lon="11.354393383109764"><ele>356.0</ele><time>2026-04-16T16:27:44.998Z</time></trkpt><trkpt lat="45.73086887433579" lon="11.354280249912497"><ele>356.0</ele><time>2026-04-16T16:27:46.998Z</time></trkpt><trkpt lat="45.730787090653585" lon="11.354182015643953"><ele>355.83333333333337</ele><time>2026-04-16T16:27:47.998Z</time></trkpt><trkpt lat="45.73072539346342" lon="11.35413238181353"><ele>355.6666666666667</ele><time>2026-04-16T16:27:48.998Z</time></trkpt><trkpt lat="45.73065913475596" lon="11.35411519679363"><ele>355.5</ele><time>2026-04-16T16:27:49.998Z</time></trkpt><trkpt lat="45.73058400724243" lon="11.35404066758514"><ele>355.3333333333333</ele><time>2026-04-16T16:27:51.999Z</time></trkpt><trkpt lat="45.73048460434805" lon="11.35397579526146"><ele>355.16666666666663</ele><time>2026-04-16T16:27:53.999Z</time></trkpt><trkpt lat="45.73039926593796" lon="11.353886768008618"><ele>355.0</ele><time>2026-04-16T16:27:55.999Z</time></trkpt><trkpt lat="45.73034605298895" lon="11.353809062132282"><ele>355.0</ele><time>2026-04-16T16:27:56.999Z</time></trkpt><trkpt lat="45.730259920680126" lon="11.353746391836069"><ele>355.0</ele><time>2026-04-16T16:27:58.999Z</time></trkpt><trkpt lat="45.73015826498641" lon="11.353711391523298"><ele>355.0</ele><time>2026-04-16T16:28:00.999Z</time></trkpt><trkpt lat="45.730068003196486" lon="11.353689589784823"><ele>355.0</ele><time>2026-04-16T16:28:02.999Z</time></trkpt><trkpt lat="45.73002040005543" lon="11.353623239259896"><ele>355.0</ele><time>2026-04-16T16:28:06.999Z</time></trkpt><trkpt lat="45.73006807657535" lon="11.353495045573727"><ele>355.0</ele><time>2026-04-16T16:28:08.999Z</time></trkpt><trkpt lat="45.730116233319535" lon="11.35338524392434"><ele>355.0</ele><time>2026-04-16T16:28:09.999Z</time></trkpt><trkpt lat="45.730155665794605" lon="11.353230969567074"><ele>355.0</ele><time>2026-04-16T16:28:10.999Z</time></trkpt><trkpt lat="45.730211160869864" lon="11.353117030965725"><ele>355.0</ele><time>2026-04-16T16:28:11.999Z</time></trkpt><trkpt lat="45.730260651893275" lon="11.353041679173348"><ele>355.0</ele><time>2026-04-16T16:28:12.999Z</time></trkpt><trkpt lat="45.73030286704898" lon="11.352971734896254"><ele>355.0</ele><time>2026-04-16T16:28:13.999Z</time></trkpt><trkpt lat="45.730278934141396" lon="11.35283618720458"><ele>356.16666666666663</ele><time>2026-04-16T16:28:16.999Z</time></trkpt><trkpt lat="45.73022670989862" lon="11.352736648931772"><ele>357.3333333333333</ele><time>2026-04-16T16:28:17.999Z</time></trkpt><trkpt lat="45.730185836160395" lon="11.352663565663564"><ele>358.5</ele><time>2026-04-16T16:28:18.999Z</time></trkpt><trkpt lat="45.730158609625505" lon="11.35252372029612"><ele>359.6666666666667</ele><time>2026-04-16T16:28:20.999Z</time></trkpt><trkpt lat="45.73015704768599" lon="11.352431967571876"><ele>360.83333333333337</ele><time>2026-04-16T16:28:21.999Z</time></trkpt><trkpt lat="45.73017143613261" lon="11.352331871304608"><ele>362.0</ele><time>2026-04-16T16:28:22.999Z</time></trkpt><trkpt lat="45.73020240329957" lon="11.352181535505894"><ele>362.83333333333337</ele><time>2026-04-16T16:28:24.999Z</time></trkpt><trkpt lat="45.73024793747973" lon="11.352089672748248"><ele>363.6666666666667</ele><time>2026-04-16T16:28:25.999Z</time></trkpt><trkpt lat="45.73027398473932" lon="11.351985874315174"><ele>364.5</ele><time>2026-04-16T16:28:26.999Z</time></trkpt><trkpt lat="45.73035664737039" lon="11.351881959069596"><ele>365.3333333333333</ele><time>2026-04-16T16:28:28.999Z</time></trkpt><trkpt lat="45.73044946759472" lon="11.351834475148802"><ele>366.16666666666663</ele><time>2026-04-16T16:28:30.999Z</time></trkpt><trkpt lat="45.73049896440661" lon="11.35176742926271"><ele>367.0</ele><time>2026-04-16T16:28:31.999Z</time></trkpt><trkpt lat="45.73052695239885" lon="11.35160528255113"><ele>367.0</ele><time>2026-04-16T16:28:33.999Z</time></trkpt><trkpt lat="45.73050128985552" lon="11.351470360568142"><ele>367.0</ele><time>2026-04-16T16:28:35.999Z</time></trkpt><trkpt lat="45.730507023528304" lon="11.351294505464292"><ele>367.0</ele><time>2026-04-16T16:28:37.999Z</time></trkpt><trkpt lat="45.730591146330305" lon="11.351158664882927"><ele>367.0</ele><time>2026-04-16T16:28:39.999Z</time></trkpt><trkpt lat="45.730645929792466" lon="11.351097410860278"><ele>367.0</ele><time>2026-04-16T16:28:40.999Z</time></trkpt><trkpt lat="45.73071764479322" lon="11.351026356154087"><ele>367.8333333333333</ele><time>2026-04-16T16:28:42.999Z</time></trkpt><trkpt lat="45.73074319777773" lon="11.350943805644775"><ele>368.66666666666663</ele><time>2026-04-16T16:28:43.999Z</time></trkpt><trkpt lat="45.730788771969216" lon="11.35084396491823"><ele>369.5</ele><time>2026-04-16T16:28:44.999Z</time></trkpt><trkpt lat="45.730808275937264" lon="11.350742976079145"><ele>370.3333333333333</ele><time>2026-04-16T16:28:46.999Z</time></trkpt><trkpt lat="45.730806659564976" lon="11.350642003851256"><ele>371.1666666666667</ele><time>2026-04-16T16:28:48.999Z</time></trkpt><trkpt lat="45.730744516763124" lon="11.35056270672942"><ele>372.0</ele><time>2026-04-16T16:28:50.999Z</time></trkpt><trkpt lat="45.7306934350209" lon="11.350466586180442"><ele>376.6</ele><time>2026-04-16T16:28:53.999Z</time></trkpt><trkpt lat="45.73057947858648" lon="11.350378409736399"><ele>381.20000000000005</ele><time>2026-04-16T16:28:55.999Z</time></trkpt><trkpt lat="45.73049374743375" lon="11.350330837613914"><ele>385.8</ele><time>2026-04-16T16:28:56.999Z</time></trkpt><trkpt lat="45.73041537004284" lon="11.350265930168838"><ele>390.4</ele><time>2026-04-16T16:28:57.999Z</time></trkpt><trkpt lat="45.73033531614214" lon="11.350178876972588"><ele>395.0</ele><time>2026-04-16T16:28:58.999Z</time></trkpt><trkpt lat="45.73025227374182" lon="11.35008899382654"><ele>388.25</ele><time>2026-04-16T16:28:59.999Z</time></trkpt><trkpt lat="45.73016895046836" lon="11.349996435314095"><ele>381.5</ele><time>2026-04-16T16:29:00.999Z</time></trkpt><trkpt lat="45.73007892311412" lon="11.349892793854432"><ele>374.75</ele><time>2026-04-16T16:29:01.999Z</time></trkpt><trkpt lat="45.729990131777015" lon="11.349768357601159"><ele>368.0</ele><time>2026-04-16T16:29:02.999Z</time></trkpt><trkpt lat="45.729905256491456" lon="11.34963146223597"><ele>368.0</ele><time>2026-04-16T16:29:03.999Z</time></trkpt><trkpt lat="45.729826347526945" lon="11.349498124546457"><ele>368.0</ele><time>2026-04-16T16:29:04.999Z</time></trkpt><trkpt lat="45.7297371819552" lon="11.34937473618498"><ele>368.0</ele><time>2026-04-16T16:29:05.999Z</time></trkpt><trkpt lat="45.72965231676967" lon="11.349259045816474"><ele>368.0</ele><time>2026-04-16T16:29:06.999Z</time></trkpt><trkpt lat="45.72957005549586" lon="11.34914496830785"><ele>368.0</ele><time>2026-04-16T16:29:07.999Z</time></trkpt><trkpt lat="45.72950191291128" lon="11.349032282433503"><ele>368.0</ele><time>2026-04-16T16:29:08.999Z</time></trkpt><trkpt lat="45.729440910856304" lon="11.348915641292331"><ele>368.0</ele><time>2026-04-16T16:29:09.999Z</time></trkpt><trkpt lat="45.72938413479841" lon="11.3488012792785"><ele>368.0</ele><time>2026-04-16T16:29:10.999Z</time></trkpt><trkpt lat="45.729329949256886" lon="11.348683900630421"><ele>368.0</ele><time>2026-04-16T16:29:11.999Z</time></trkpt><trkpt lat="45.72928736941258" lon="11.348565895200199"><ele>359.59999999999997</ele><time>2026-04-16T16:29:12.999Z</time></trkpt><trkpt lat="45.729262800377995" lon="11.348444003108977"><ele>351.2</ele><time>2026-04-16T16:29:13.999Z</time></trkpt><trkpt lat="45.72925981750861" lon="11.348309618983592"><ele>342.8</ele><time>2026-04-16T16:29:14.999Z</time></trkpt><trkpt lat="45.72927930531152" lon="11.348174196487069"><ele>334.4</ele><time>2026-04-16T16:29:15.999Z</time></trkpt><trkpt lat="45.72930638529853" lon="11.348026936977613"><ele>326.0</ele><time>2026-04-16T16:29:16.999Z</time></trkpt><trkpt lat="45.72933643480771" lon="11.347856038973529"><ele>325.25</ele><time>2026-04-16T16:29:17.999Z</time></trkpt><trkpt lat="45.729368531540075" lon="11.347674923976028"><ele>324.5</ele><time>2026-04-16T16:29:18.999Z</time></trkpt><trkpt lat="45.72939606504067" lon="11.347511303006787"><ele>323.75</ele><time>2026-04-16T16:29:19.999Z</time></trkpt><trkpt lat="45.72941753578979" lon="11.347345971984492"><ele>323.0</ele><time>2026-04-16T16:29:20.998Z</time></trkpt><trkpt lat="45.72942524109729" lon="11.347182658915074"><ele>324.0</ele><time>2026-04-16T16:29:21.998Z</time></trkpt><trkpt lat="45.72942301406538" lon="11.347017160794273"><ele>325.0</ele><time>2026-04-16T16:29:22.998Z</time></trkpt><trkpt lat="45.72938845355384" lon="11.346862640975699"><ele>326.0</ele><time>2026-04-16T16:29:23.998Z</time></trkpt><trkpt lat="45.72932901136357" lon="11.346714378180685"><ele>327.0</ele><time>2026-04-16T16:29:24.998Z</time></trkpt><trkpt lat="45.72925887239936" lon="11.346558641419092"><ele>327.0</ele><time>2026-04-16T16:29:25.998Z</time></trkpt><trkpt lat="45.729187640805044" lon="11.346388330306459"><ele>327.0</ele><time>2026-04-16T16:29:26.998Z</time></trkpt><trkpt lat="45.729103111723866" lon="11.346199532785759"><ele>327.0</ele><time>2026-04-16T16:29:27.998Z</time></trkpt><trkpt lat="45.72901532882709" lon="11.346009550539847"><ele>328.75</ele><time>2026-04-16T16:29:28.998Z</time></trkpt><trkpt lat="45.72893641489541" lon="11.345833356590212"><ele>330.5</ele><time>2026-04-16T16:29:29.998Z</time></trkpt><trkpt lat="45.728872767091666" lon="11.345660193122237"><ele>332.25</ele><time>2026-04-16T16:29:30.998Z</time></trkpt><trkpt lat="45.72882989625656" lon="11.34547309377465"><ele>334.0</ele><time>2026-04-16T16:29:31.998Z</time></trkpt><trkpt lat="45.72878928626606" lon="11.345269930089039"><ele>336.3333333333333</ele><time>2026-04-16T16:29:32.998Z</time></trkpt><trkpt lat="45.728734939676244" lon="11.345059271906306"><ele>338.6666666666667</ele><time>2026-04-16T16:29:33.998Z</time></trkpt><trkpt lat="45.7286605441322" lon="11.344842798191648"><ele>341.0</ele><time>2026-04-16T16:29:34.998Z</time></trkpt><trkpt lat="45.72857624149591" lon="11.34463635210918"><ele>330.33333333333337</ele><time>2026-04-16T16:29:35.998Z</time></trkpt><trkpt lat="45.72848815168357" lon="11.3444329721968"><ele>319.6666666666667</ele><time>2026-04-16T16:29:36.998Z</time></trkpt><trkpt lat="45.72840874844408" lon="11.344231791787928"><ele>309.0</ele><time>2026-04-16T16:29:37.998Z</time></trkpt><trkpt lat="45.728333583639056" lon="11.344019672157065"><ele>308.3333333333333</ele><time>2026-04-16T16:29:38.998Z</time></trkpt><trkpt lat="45.72826436837078" lon="11.343806441976353"><ele>307.66666666666663</ele><time>2026-04-16T16:29:39.998Z</time></trkpt><trkpt lat="45.72819994583686" lon="11.34358019892129"><ele>307.0</ele><time>2026-04-16T16:29:40.998Z</time></trkpt><trkpt lat="45.72814213534854" lon="11.3433825837913"><ele>307.0</ele><time>2026-04-16T16:29:41.998Z</time></trkpt><trkpt lat="45.72808438232217" lon="11.343191255602957"><ele>307.0</ele><time>2026-04-16T16:29:42.998Z</time></trkpt><trkpt lat="45.728035189035474" lon="11.343006086083967"><ele>307.0</ele><time>2026-04-16T16:29:43.998Z</time></trkpt><trkpt lat="45.72801092411143" lon="11.342808437440796"><ele>307.0</ele><time>2026-04-16T16:29:44.998Z</time></trkpt><trkpt lat="45.72798539633961" lon="11.342558822872"><ele>310.3333333333333</ele><time>2026-04-16T16:29:45.998Z</time></trkpt><trkpt lat="45.727913843091116" lon="11.342268708192417"><ele>313.6666666666667</ele><time>2026-04-16T16:29:46.998Z</time></trkpt><trkpt lat="45.72783439628655" lon="11.34201838299505"><ele>317.0</ele><time>2026-04-16T16:29:47.998Z</time></trkpt><trkpt lat="45.727758832435356" lon="11.341800819000445"><ele>311.0</ele><time>2026-04-16T16:29:48.998Z</time></trkpt><trkpt lat="45.72771296306759" lon="11.341628974202175"><ele>305.0</ele><time>2026-04-16T16:29:49.998Z</time></trkpt><trkpt lat="45.72768466389815" lon="11.341495469419554"><ele>299.0</ele><time>2026-04-16T16:29:50.998Z</time></trkpt><trkpt lat="45.72764109139949" lon="11.34138355993968"><ele>293.0</ele><time>2026-04-16T16:29:51.998Z</time></trkpt><trkpt lat="45.72757440749415" lon="11.34129543271117"><ele>287.0</ele><time>2026-04-16T16:29:52.998Z</time></trkpt><trkpt lat="45.72748943192095" lon="11.341235865321805"><ele>286.6666666666667</ele><time>2026-04-16T16:29:53.998Z</time></trkpt><trkpt lat="45.727437333373274" lon="11.341171631346647"><ele>286.33333333333337</ele><time>2026-04-16T16:29:54.998Z</time></trkpt><trkpt lat="45.72742966861046" lon="11.341074677675016"><ele>286.0</ele><time>2026-04-16T16:29:55.998Z</time></trkpt><trkpt lat="45.7273936468315" lon="11.340982862258354"><ele>285.6666666666667</ele><time>2026-04-16T16:29:57Z</time></trkpt><trkpt lat="45.72742944599584" lon="11.340828348109333"><ele>285.3333333333333</ele><time>2026-04-16T16:29:58Z</time></trkpt><trkpt lat="45.727431867004015" lon="11.340675898901068"><ele>285.0</ele><time>2026-04-16T16:29:59Z</time></trkpt><trkpt lat="45.72744304895972" lon="11.34050656952108"><ele>284.6</ele><time>2026-04-16T16:30:00Z</time></trkpt><trkpt lat="45.72744591073007" lon="11.34033952983686"><ele>284.2</ele><time>2026-04-16T16:30:01Z</time></trkpt><trkpt lat="45.72745278372811" lon="11.340192216560615"><ele>283.8</ele><time>2026-04-16T16:30:02Z</time></trkpt><trkpt lat="45.727473725917285" lon="11.340059603637801"><ele>283.4</ele><time>2026-04-16T16:30:03Z</time></trkpt><trkpt lat="45.727520369197634" lon="11.339945990095321"><ele>283.0</ele><time>2026-04-16T16:30:04Z</time></trkpt><trkpt lat="45.72759698777644" lon="11.339827902621503"><ele>283.8333333333333</ele><time>2026-04-16T16:30:05Z</time></trkpt><trkpt lat="45.72766762148354" lon="11.339705020411303"><ele>284.66666666666663</ele><time>2026-04-16T16:30:06Z</time></trkpt><trkpt lat="45.72770896003388" lon="11.339575998109567"><ele>285.5</ele><time>2026-04-16T16:30:07Z</time></trkpt><trkpt lat="45.72769966436175" lon="11.339477635924183"><ele>286.3333333333333</ele><time>2026-04-16T16:30:08Z</time></trkpt><trkpt lat="45.727658888632696" lon="11.33939752799824"><ele>287.1666666666667</ele><time>2026-04-16T16:30:09Z</time></trkpt><trkpt lat="45.72758539785621" lon="11.339337766891031"><ele>288.0</ele><time>2026-04-16T16:30:10Z</time></trkpt><trkpt lat="45.72747977441116" lon="11.339286108319996"><ele>288.0</ele><time>2026-04-16T16:30:11Z</time></trkpt><trkpt lat="45.72735699919482" lon="11.339181004888196"><ele>288.0</ele><time>2026-04-16T16:30:12Z</time></trkpt><trkpt lat="45.72727176288398" lon="11.339032037659535"><ele>288.0</ele><time>2026-04-16T16:30:13Z</time></trkpt><trkpt lat="45.72721634063178" lon="11.338846018495344"><ele>288.0</ele><time>2026-04-16T16:30:13.999Z</time></trkpt><trkpt lat="45.72718589388514" lon="11.338645801308557"><ele>290.0</ele><time>2026-04-16T16:30:14.999Z</time></trkpt><trkpt lat="45.72716537197893" lon="11.338385826442522"><ele>292.0</ele><time>2026-04-16T16:30:15.999Z</time></trkpt><trkpt lat="45.727134903133866" lon="11.338109201429269"><ele>294.0</ele><time>2026-04-16T16:30:16.999Z</time></trkpt><trkpt lat="45.72710304259716" lon="11.33789754585104"><ele>294.75</ele><time>2026-04-16T16:30:17.999Z</time></trkpt><trkpt lat="45.72704424102098" lon="11.33776921711469"><ele>295.5</ele><time>2026-04-16T16:30:18.999Z</time></trkpt><trkpt lat="45.726957149918505" lon="11.33768587860385"><ele>296.25</ele><time>2026-04-16T16:30:19.999Z</time></trkpt><trkpt lat="45.7268384441013" lon="11.33764382645235"><ele>297.0</ele><time>2026-04-16T16:30:20.999Z</time></trkpt><trkpt lat="45.72670179771164" lon="11.337608753302298"><ele>295.75</ele><time>2026-04-16T16:30:21.999Z</time></trkpt><trkpt lat="45.72656955460023" lon="11.337558306493456"><ele>294.5</ele><time>2026-04-16T16:30:22.999Z</time></trkpt><trkpt lat="45.726467302928654" lon="11.337431203975841"><ele>293.25</ele><time>2026-04-16T16:30:23.999Z</time></trkpt><trkpt lat="45.72635224986256" lon="11.337284734523404"><ele>292.0</ele><time>2026-04-16T16:30:24.999Z</time></trkpt><trkpt lat="45.72623298506127" lon="11.337129828890887"><ele>292.0</ele><time>2026-04-16T16:30:25.999Z</time></trkpt><trkpt lat="45.72609886418405" lon="11.336986164852053"><ele>292.0</ele><time>2026-04-16T16:30:26.999Z</time></trkpt><trkpt lat="45.72597526634981" lon="11.33681533143673"><ele>292.0</ele><time>2026-04-16T16:30:27.999Z</time></trkpt><trkpt lat="45.725869425679065" lon="11.33664754775947"><ele>290.75</ele><time>2026-04-16T16:30:28.999Z</time></trkpt><trkpt lat="45.72576837466533" lon="11.336488168272206"><ele>289.5</ele><time>2026-04-16T16:30:29.999Z</time></trkpt><trkpt lat="45.72567248315629" lon="11.336320716351354"><ele>288.25</ele><time>2026-04-16T16:30:30.999Z</time></trkpt><trkpt lat="45.7255952201518" lon="11.336163570147084"><ele>287.0</ele><time>2026-04-16T16:30:31.999Z</time></trkpt><trkpt lat="45.72552960978952" lon="11.336010067476764"><ele>287.0</ele><time>2026-04-16T16:30:32.999Z</time></trkpt><trkpt lat="45.725482764151" lon="11.33586270339446"><ele>287.0</ele><time>2026-04-16T16:30:33.999Z</time></trkpt><trkpt lat="45.725442459036834" lon="11.335721613218952"><ele>287.0</ele><time>2026-04-16T16:30:34.999Z</time></trkpt><trkpt lat="45.7254049480172" lon="11.335598127873386"><ele>287.0</ele><time>2026-04-16T16:30:35.999Z</time></trkpt><trkpt lat="45.72536904619314" lon="11.335496761985086"><ele>287.0</ele><time>2026-04-16T16:30:36.999Z</time></trkpt><trkpt lat="45.72532416052315" lon="11.335404051106517"><ele>287.75</ele><time>2026-04-16T16:30:38.999Z</time></trkpt><trkpt lat="45.72533651697889" lon="11.335230454757626"><ele>288.5</ele><time>2026-04-16T16:30:42.999Z</time></trkpt><trkpt lat="45.72535397831319" lon="11.335084418466671"><ele>289.25</ele><time>2026-04-16T16:30:43.999Z</time></trkpt><trkpt lat="45.72534869953489" lon="11.334905294117434"><ele>290.0</ele><time>2026-04-16T16:30:44.999Z</time></trkpt><trkpt lat="45.72532817843478" lon="11.334707740573654"><ele>290.0</ele><time>2026-04-16T16:30:45.999Z</time></trkpt><trkpt lat="45.7252876938817" lon="11.334438841780972"><ele>290.0</ele><time>2026-04-16T16:30:46.999Z</time></trkpt><trkpt lat="45.725248863138994" lon="11.334166308004521"><ele>290.0</ele><time>2026-04-16T16:30:47.999Z</time></trkpt><trkpt lat="45.72522826015931" lon="11.33391544187238"><ele>287.5</ele><time>2026-04-16T16:30:48.999Z</time></trkpt><trkpt lat="45.72520628181164" lon="11.333679501088968"><ele>285.0</ele><time>2026-04-16T16:30:49.999Z</time></trkpt><trkpt lat="45.72518293258196" lon="11.333468033117034"><ele>282.5</ele><time>2026-04-16T16:30:50.999Z</time></trkpt><trkpt lat="45.72515770171443" lon="11.3332818548184"><ele>280.0</ele><time>2026-04-16T16:30:51.999Z</time></trkpt><trkpt lat="45.72511616318017" lon="11.333118867323758"><ele>280.0</ele><time>2026-04-16T16:30:52.999Z</time></trkpt><trkpt lat="45.72507439396068" lon="11.33297805614989"><ele>280.0</ele><time>2026-04-16T16:30:53.999Z</time></trkpt><trkpt lat="45.725052373774744" lon="11.332838465607274"><ele>280.0</ele><time>2026-04-16T16:30:54.999Z</time></trkpt><trkpt lat="45.72506881013935" lon="11.33267026377444"><ele>280.0</ele><time>2026-04-16T16:30:55.999Z</time></trkpt><trkpt lat="45.725079430999834" lon="11.332460847558878"><ele>280.0</ele><time>2026-04-16T16:30:56.999Z</time></trkpt><trkpt lat="45.7250847494701" lon="11.33223713438429"><ele>280.0</ele><time>2026-04-16T16:30:57.999Z</time></trkpt><trkpt lat="45.72509702159588" lon="11.332030577922328"><ele>280.0</ele><time>2026-04-16T16:30:58.999Z</time></trkpt><trkpt lat="45.725107145322035" lon="11.331843357636453"><ele>280.0</ele><time>2026-04-16T16:30:59.999Z</time></trkpt><trkpt lat="45.7251115229407" lon="11.331664414063336"><ele>279.75</ele><time>2026-04-16T16:31:00.999Z</time></trkpt><trkpt lat="45.72510969347209" lon="11.331484359240484"><ele>279.5</ele><time>2026-04-16T16:31:01.999Z</time></trkpt><trkpt lat="45.725115175408774" lon="11.331317795032623"><ele>279.25</ele><time>2026-04-16T16:31:02.999Z</time></trkpt><trkpt lat="45.725122339890795" lon="11.331157763320746"><ele>279.0</ele><time>2026-04-16T16:31:03.999Z</time></trkpt><trkpt lat="45.72514839348332" lon="11.331019139405681"><ele>278.5</ele><time>2026-04-16T16:31:04.999Z</time></trkpt><trkpt lat="45.72519370255471" lon="11.330871397076077"><ele>278.0</ele><time>2026-04-16T16:31:05.999Z</time></trkpt><trkpt lat="45.72525919291061" lon="11.330718250184848"><ele>277.5</ele><time>2026-04-16T16:31:06.999Z</time></trkpt><trkpt lat="45.725327070970124" lon="11.330546657756457"><ele>277.0</ele><time>2026-04-16T16:31:07.999Z</time></trkpt><trkpt lat="45.72538251276613" lon="11.330349570506053"><ele>278.25</ele><time>2026-04-16T16:31:08.999Z</time></trkpt><trkpt lat="45.725430331811474" lon="11.330155744246875"><ele>279.5</ele><time>2026-04-16T16:31:09.999Z</time></trkpt><trkpt lat="45.72545596115038" lon="11.329959399885993"><ele>280.75</ele><time>2026-04-16T16:31:10.999Z</time></trkpt><trkpt lat="45.7254536274161" lon="11.329763742668506"><ele>282.0</ele><time>2026-04-16T16:31:11.999Z</time></trkpt><trkpt lat="45.7254281032809" lon="11.329525464364396"><ele>282.0</ele><time>2026-04-16T16:31:12.999Z</time></trkpt><trkpt lat="45.72542194439944" lon="11.329266616974301"><ele>282.0</ele><time>2026-04-16T16:31:13.999Z</time></trkpt><trkpt lat="45.725434657841696" lon="11.32904441529685"><ele>282.0</ele><time>2026-04-16T16:31:14.999Z</time></trkpt><trkpt lat="45.72545803709727" lon="11.328834863322973"><ele>281.6</ele><time>2026-04-16T16:31:15.999Z</time></trkpt><trkpt lat="45.725475601947835" lon="11.328648197232903"><ele>281.2</ele><time>2026-04-16T16:31:16.999Z</time></trkpt><trkpt lat="45.72546452260455" lon="11.32848375318382"><ele>280.8</ele><time>2026-04-16T16:31:17.999Z</time></trkpt><trkpt lat="45.725428070443634" lon="11.328333986114352"><ele>280.4</ele><time>2026-04-16T16:31:18.999Z</time></trkpt><trkpt lat="45.7253822504682" lon="11.328219859818047"><ele>280.0</ele><time>2026-04-16T16:31:19.999Z</time></trkpt><trkpt lat="45.72536417672336" lon="11.328129760306759"><ele>280.5</ele><time>2026-04-16T16:31:20.999Z</time></trkpt><trkpt lat="45.725368565849244" lon="11.328031434825201"><ele>281.0</ele><time>2026-04-16T16:31:22.999Z</time></trkpt><trkpt lat="45.72543505343841" lon="11.327917903550894"><ele>281.5</ele><time>2026-04-16T16:31:24.999Z</time></trkpt><trkpt lat="45.7255049754639" lon="11.327871127809155"><ele>282.0</ele><time>2026-04-16T16:31:25.999Z</time></trkpt><trkpt lat="45.72558677123978" lon="11.3278229346682"><ele>282.5</ele><time>2026-04-16T16:31:26.999Z</time></trkpt><trkpt lat="45.72567255233247" lon="11.32780843476627"><ele>283.0</ele><time>2026-04-16T16:31:27.999Z</time></trkpt><trkpt lat="45.72578163744099" lon="11.327805675172236"><ele>283.0</ele><time>2026-04-16T16:31:28.999Z</time></trkpt><trkpt lat="45.72589382764919" lon="11.3277893625533"><ele>283.0</ele><time>2026-04-16T16:31:29.999Z</time></trkpt><trkpt lat="45.726034863028" lon="11.327756754087442"><ele>283.0</ele><time>2026-04-16T16:31:30.999Z</time></trkpt><trkpt lat="45.72620364840994" lon="11.327686352430632"><ele>283.0</ele><time>2026-04-16T16:31:31.999Z</time></trkpt><trkpt lat="45.726330202192" lon="11.327570685687501"><ele>284.3333333333333</ele><time>2026-04-16T16:31:32.999Z</time></trkpt><trkpt lat="45.72646434992521" lon="11.327435273800008"><ele>285.6666666666667</ele><time>2026-04-16T16:31:33.999Z</time></trkpt><trkpt lat="45.726605158127626" lon="11.327270834618924"><ele>287.0</ele><time>2026-04-16T16:31:34.999Z</time></trkpt><trkpt lat="45.72674172472945" lon="11.327085839639734"><ele>288.0</ele><time>2026-04-16T16:31:35.999Z</time></trkpt><trkpt lat="45.72688497457375" lon="11.32691246848427"><ele>289.0</ele><time>2026-04-16T16:31:36.999Z</time></trkpt><trkpt lat="45.72702221744115" lon="11.326760375181125"><ele>290.0</ele><time>2026-04-16T16:31:37.998Z</time></trkpt><trkpt lat="45.727137443758494" lon="11.326626761096234"><ele>291.0</ele><time>2026-04-16T16:31:38.998Z</time></trkpt><trkpt lat="45.727240338077046" lon="11.326518585556794"><ele>292.0</ele><time>2026-04-16T16:31:39.998Z</time></trkpt><trkpt lat="45.727322236635665" lon="11.326442094534979"><ele>293.0</ele><time>2026-04-16T16:31:40.998Z</time></trkpt><trkpt lat="45.72739801520728" lon="11.326401534242049"><ele>294.0</ele><time>2026-04-16T16:31:41.998Z</time></trkpt><trkpt lat="45.727416902810134" lon="11.326277553359192"><ele>295.0</ele><time>2026-04-16T16:31:42.998Z</time></trkpt><trkpt lat="45.727430161078196" lon="11.326163408774095"><ele>295.6</ele><time>2026-04-16T16:31:44.998Z</time></trkpt><trkpt lat="45.72743767326612" lon="11.326059442985734"><ele>296.2</ele><time>2026-04-16T16:31:45.998Z</time></trkpt><trkpt lat="45.7274418221436" lon="11.325938749599013"><ele>296.8</ele><time>2026-04-16T16:31:46.998Z</time></trkpt><trkpt lat="45.727422759583206" lon="11.325791788755973"><ele>297.4</ele><time>2026-04-16T16:31:47.998Z</time></trkpt><trkpt lat="45.72738983747685" lon="11.325640551726389"><ele>298.0</ele><time>2026-04-16T16:31:48.998Z</time></trkpt><trkpt lat="45.72735562396355" lon="11.325489194609462"><ele>298.4</ele><time>2026-04-16T16:31:49.998Z</time></trkpt><trkpt lat="45.72732256661636" lon="11.325336433469989"><ele>298.8</ele><time>2026-04-16T16:31:50.998Z</time></trkpt><trkpt lat="45.72729098397561" lon="11.325185106858516"><ele>299.2</ele><time>2026-04-16T16:31:51.998Z</time></trkpt><trkpt lat="45.72725783755864" lon="11.325030066333838"><ele>299.6</ele><time>2026-04-16T16:31:52.998Z</time></trkpt><trkpt lat="45.72723398415441" lon="11.324879688394027"><ele>300.0</ele><time>2026-04-16T16:31:53.998Z</time></trkpt><trkpt lat="45.72722162823059" lon="11.324719692600215"><ele>300.75</ele><time>2026-04-16T16:31:54.998Z</time></trkpt><trkpt lat="45.72723735321297" lon="11.324554776824339"><ele>301.5</ele><time>2026-04-16T16:31:55.998Z</time></trkpt><trkpt lat="45.727299139709636" lon="11.32440860399937"><ele>302.25</ele><time>2026-04-16T16:31:56.998Z</time></trkpt><trkpt lat="45.7273597859096" lon="11.324246129243571"><ele>303.0</ele><time>2026-04-16T16:31:57.998Z</time></trkpt><trkpt lat="45.7274128861868" lon="11.32408519220712"><ele>303.0</ele><time>2026-04-16T16:31:58.998Z</time></trkpt><trkpt lat="45.727471157341064" lon="11.323950634348707"><ele>303.0</ele><time>2026-04-16T16:31:59.998Z</time></trkpt><trkpt lat="45.727523989066185" lon="11.32381465020213"><ele>303.0</ele><time>2026-04-16T16:32:00.998Z</time></trkpt><trkpt lat="45.72756965162385" lon="11.323697151423877"><ele>303.0</ele><time>2026-04-16T16:32:02Z</time></trkpt><trkpt lat="45.72760385717097" lon="11.323599756496636"><ele>303.0</ele><time>2026-04-16T16:32:03Z</time></trkpt><trkpt lat="45.727641004838375" lon="11.323461653776869"><ele>306.25</ele><time>2026-04-16T16:32:05Z</time></trkpt><trkpt lat="45.72753623317489" lon="11.32338312448873"><ele>309.5</ele><time>2026-04-16T16:32:07Z</time></trkpt><trkpt lat="45.72745685204776" lon="11.32338803438134"><ele>312.75</ele><time>2026-04-16T16:32:08Z</time></trkpt><trkpt lat="45.72735334107352" lon="11.32341671020785"><ele>316.0</ele><time>2026-04-16T16:32:09Z</time></trkpt><trkpt lat="45.72720717319521" lon="11.323465225725975"><ele>316.0</ele><time>2026-04-16T16:32:10Z</time></trkpt><trkpt lat="45.72702649218613" lon="11.323485830138443"><ele>316.0</ele><time>2026-04-16T16:32:11Z</time></trkpt><trkpt lat="45.72685506901009" lon="11.323513893263524"><ele>316.0</ele><time>2026-04-16T16:32:12Z</time></trkpt><trkpt lat="45.72672545949318" lon="11.323507380869021"><ele>321.3333333333333</ele><time>2026-04-16T16:32:13Z</time></trkpt><trkpt lat="45.726573068920466" lon="11.323482455950613"><ele>326.6666666666667</ele><time>2026-04-16T16:32:14Z</time></trkpt><trkpt lat="45.72642322015422" lon="11.32347290893471"><ele>332.0</ele><time>2026-04-16T16:32:15Z</time></trkpt><trkpt lat="45.726274843686916" lon="11.323441490288303"><ele>332.0</ele><time>2026-04-16T16:32:16Z</time></trkpt><trkpt lat="45.72613605395786" lon="11.323420646838844"><ele>332.0</ele><time>2026-04-16T16:32:17Z</time></trkpt><trkpt lat="45.72599486954024" lon="11.323416597110601"><ele>332.0</ele><time>2026-04-16T16:32:18Z</time></trkpt><trkpt lat="45.72585321859643" lon="11.323439936982949"><ele>332.0</ele><time>2026-04-16T16:32:19Z</time></trkpt><trkpt lat="45.72571887417666" lon="11.323472359724827"><ele>333.0</ele><time>2026-04-16T16:32:20Z</time></trkpt><trkpt lat="45.72560503744103" lon="11.32346395271853"><ele>334.0</ele><time>2026-04-16T16:32:21Z</time></trkpt><trkpt lat="45.725511149189025" lon="11.32347143197138"><ele>335.0</ele><time>2026-04-16T16:32:22Z</time></trkpt><trkpt lat="45.725422053391064" lon="11.323463671330886"><ele>336.0</ele><time>2026-04-16T16:32:23Z</time></trkpt><trkpt lat="45.72533887848377" lon="11.323430076751087"><ele>337.0</ele><time>2026-04-16T16:32:24Z</time></trkpt><trkpt lat="45.725235112232525" lon="11.323405991909596"><ele>335.5</ele><time>2026-04-16T16:32:25Z</time></trkpt><trkpt lat="45.72511924425796" lon="11.323343499975831"><ele>334.0</ele><time>2026-04-16T16:32:26Z</time></trkpt><trkpt lat="45.72499479032792" lon="11.32327206284456"><ele>332.5</ele><time>2026-04-16T16:32:27Z</time></trkpt><trkpt lat="45.72488295284486" lon="11.323220990910356"><ele>331.0</ele><time>2026-04-16T16:32:28Z</time></trkpt><trkpt lat="45.72479419165725" lon="11.323189472037978"><ele>331.0</ele><time>2026-04-16T16:32:28.999Z</time></trkpt><trkpt lat="45.724708006222386" lon="11.323144712393896"><ele>331.0</ele><time>2026-04-16T16:32:29.999Z</time></trkpt><trkpt lat="45.724628739943064" lon="11.32340502971705"><ele>331.0</ele><time>2026-04-16T16:32:30.999Z</time></trkpt><trkpt lat="45.724524400100286" lon="11.323478857965998"><ele>331.0</ele><time>2026-04-16T16:32:31.999Z</time></trkpt><trkpt lat="45.72444731094451" lon="11.323525781910487"><ele>333.0</ele><time>2026-04-16T16:32:32.999Z</time></trkpt><trkpt lat="45.724383558314756" lon="11.323564587928622"><ele>335.0</ele><time>2026-04-16T16:32:33.999Z</time></trkpt><trkpt lat="45.724319421094336" lon="11.323592228509328"><ele>337.0</ele><time>2026-04-16T16:32:34.999Z</time></trkpt><trkpt lat="45.724248106040896" lon="11.32361956912826"><ele>339.0</ele><time>2026-04-16T16:32:35.999Z</time></trkpt><trkpt lat="45.72401578682721" lon="11.323144273903917"><ele>339.0</ele><time>2026-04-16T16:32:36.999Z</time></trkpt><trkpt lat="45.723925609416455" lon="11.323116944565546"><ele>339.0</ele><time>2026-04-16T16:32:37.999Z</time></trkpt><trkpt lat="45.72384516705725" lon="11.322982579605625"><ele>339.0</ele><time>2026-04-16T16:32:39.999Z</time></trkpt><trkpt lat="45.723827717041125" lon="11.32287223969078"><ele>339.0</ele><time>2026-04-16T16:32:40.999Z</time></trkpt><trkpt lat="45.72376106691429" lon="11.322809533110826"><ele>339.0</ele><time>2026-04-16T16:32:42.999Z</time></trkpt><trkpt lat="45.72370443232163" lon="11.322859459624064"><ele>339.0</ele><time>2026-04-16T16:32:43.999Z</time></trkpt><trkpt lat="45.72361672580439" lon="11.32291932601582"><ele>341.1666666666667</ele><time>2026-04-16T16:32:44.999Z</time></trkpt><trkpt lat="45.72352161829666" lon="11.322932303111306"><ele>343.3333333333333</ele><time>2026-04-16T16:32:46.999Z</time></trkpt><trkpt lat="45.72344208435292" lon="11.322867938903011"><ele>345.5</ele><time>2026-04-16T16:32:47.999Z</time></trkpt><trkpt lat="45.72342183564279" lon="11.322780478973735"><ele>347.66666666666663</ele><time>2026-04-16T16:32:49.999Z</time></trkpt><trkpt lat="45.723448751056516" lon="11.322689703394932"><ele>349.8333333333333</ele><time>2026-04-16T16:32:50.999Z</time></trkpt><trkpt lat="45.72351272556493" lon="11.322595239414449"><ele>352.0</ele><time>2026-04-16T16:32:51.999Z</time></trkpt><trkpt lat="45.72357092716195" lon="11.322521026239489"><ele>353.16666666666663</ele><time>2026-04-16T16:32:52.999Z</time></trkpt><trkpt lat="45.723626053281265" lon="11.322470551529486"><ele>354.3333333333333</ele><time>2026-04-16T16:32:53.999Z</time></trkpt><trkpt lat="45.723684718040154" lon="11.322316176363117"><ele>355.5</ele><time>2026-04-16T16:32:55.999Z</time></trkpt><trkpt lat="45.72369660747589" lon="11.322219618999219"><ele>356.6666666666667</ele><time>2026-04-16T16:32:56.999Z</time></trkpt><trkpt lat="45.72370755042848" lon="11.3220927178082"><ele>357.83333333333337</ele><time>2026-04-16T16:32:57.999Z</time></trkpt><trkpt lat="45.72372425727559" lon="11.321981940941034"><ele>359.0</ele><time>2026-04-16T16:32:58.999Z</time></trkpt><trkpt lat="45.72374162273701" lon="11.321886686717631"><ele>357.6666666666667</ele><time>2026-04-16T16:32:59.999Z</time></trkpt><trkpt lat="45.723748733249906" lon="11.321794517982665"><ele>356.33333333333337</ele><time>2026-04-16T16:33:00.999Z</time></trkpt><trkpt lat="45.723740434887354" lon="11.32169670552575"><ele>355.0</ele><time>2026-04-16T16:33:01.999Z</time></trkpt><trkpt lat="45.72368678393116" lon="11.321559306031176"><ele>353.6666666666667</ele><time>2026-04-16T16:33:03.999Z</time></trkpt><trkpt lat="45.723593698036325" lon="11.32152345682863"><ele>352.3333333333333</ele><time>2026-04-16T16:33:05.999Z</time></trkpt><trkpt lat="45.72352812361694" lon="11.32150338063355"><ele>351.0</ele><time>2026-04-16T16:33:06.999Z</time></trkpt><trkpt lat="45.72345564385454" lon="11.321544439772447"><ele>351.0</ele><time>2026-04-16T16:33:09.999Z</time></trkpt><trkpt lat="45.723502639466666" lon="11.32166977348992"><ele>351.0</ele><time>2026-04-16T16:33:11.999Z</time></trkpt><trkpt lat="45.72353498170942" lon="11.321793790298608"><ele>351.0</ele><time>2026-04-16T16:33:12.999Z</time></trkpt><trkpt lat="45.723552913008135" lon="11.32191687940133"><ele>351.0</ele><time>2026-04-16T16:33:13.999Z</time></trkpt><trkpt lat="45.72353372993561" lon="11.322023404066364"><ele>351.0</ele><time>2026-04-16T16:33:14.999Z</time></trkpt><trkpt lat="45.72347447465044" lon="11.322100808190141"><ele>351.0</ele><time>2026-04-16T16:33:15.999Z</time></trkpt><trkpt lat="45.7233964014404" lon="11.322136407139851"><ele>351.0</ele><time>2026-04-16T16:33:16.999Z</time></trkpt><trkpt lat="45.72331327743218" lon="11.322122725170727"><ele>351.0</ele><time>2026-04-16T16:33:17.999Z</time></trkpt><trkpt lat="45.723204360689735" lon="11.322091800232258"><ele>351.0</ele><time>2026-04-16T16:33:18.999Z</time></trkpt><trkpt lat="45.723117717720946" lon="11.322098350612753"><ele>351.0</ele><time>2026-04-16T16:33:19.999Z</time></trkpt><trkpt lat="45.72303601584521" lon="11.322016602277287"><ele>351.0</ele><time>2026-04-16T16:33:21.999Z</time></trkpt><trkpt lat="45.723009932655486" lon="11.321885272241438"><ele>351.0</ele><time>2026-04-16T16:33:23.999Z</time></trkpt><trkpt lat="45.722939191177915" lon="11.321726598984142"><ele>351.0</ele><time>2026-04-16T16:33:28.999Z</time></trkpt><trkpt lat="45.72289111609224" lon="11.32163823114446"><ele>351.0</ele><time>2026-04-16T16:33:31.999Z</time></trkpt><trkpt lat="45.722833276427" lon="11.32154819103959"><ele>351.0</ele><time>2026-04-16T16:33:33.999Z</time></trkpt><trkpt lat="45.72280068815087" lon="11.321467861945756"><ele>351.0</ele><time>2026-04-16T16:33:35.999Z</time></trkpt><trkpt lat="45.72274502659222" lon="11.321402863562511"><ele>351.0</ele><time>2026-04-16T16:33:37.999Z</time></trkpt><trkpt lat="45.72265457197581" lon="11.321325843978222"><ele>346.8</ele><time>2026-04-16T16:33:39.999Z</time></trkpt><trkpt lat="45.72257763947413" lon="11.321243448950252"><ele>342.6</ele><time>2026-04-16T16:33:41.999Z</time></trkpt><trkpt lat="45.722508431509915" lon="11.321171897734361"><ele>338.4</ele><time>2026-04-16T16:33:43.999Z</time></trkpt><trkpt lat="45.72242280233783" lon="11.321178192972901"><ele>334.2</ele><time>2026-04-16T16:33:45.999Z</time></trkpt><trkpt lat="45.722301314844444" lon="11.32124780928166"><ele>330.0</ele><time>2026-04-16T16:33:47.998Z</time></trkpt><trkpt lat="45.722235542153925" lon="11.32129180630873"><ele>330.00000000000006</ele><time>2026-04-16T16:33:48.998Z</time></trkpt><trkpt lat="45.72216357177676" lon="11.321323371721109"><ele>330.0</ele><time>2026-04-16T16:33:49.998Z</time></trkpt><trkpt lat="45.72209914958998" lon="11.321336350181001"><ele>330.0</ele><time>2026-04-16T16:33:50.998Z</time></trkpt><trkpt lat="45.72203050038784" lon="11.32131936045926"><ele>330.0</ele><time>2026-04-16T16:33:51.998Z</time></trkpt><trkpt lat="45.72196422926282" lon="11.321327745799064"><ele>330.0</ele><time>2026-04-16T16:33:52.998Z</time></trkpt><trkpt lat="45.72190191229268" lon="11.321280219917032"><ele>330.00000000000006</ele><time>2026-04-16T16:33:53.998Z</time></trkpt><trkpt lat="45.7218625167854" lon="11.321209639935848"><ele>330.0</ele><time>2026-04-16T16:33:54.998Z</time></trkpt><trkpt lat="45.721794066804094" lon="11.321135508260781"><ele>326.4</ele><time>2026-04-16T16:33:55.998Z</time></trkpt><trkpt lat="45.72170926029012" lon="11.321065475152846"><ele>322.8</ele><time>2026-04-16T16:33:56.998Z</time></trkpt><trkpt lat="45.721635722015286" lon="11.320987562196452"><ele>319.2</ele><time>2026-04-16T16:33:57.998Z</time></trkpt><trkpt lat="45.72155267254256" lon="11.320897279628404"><ele>315.6</ele><time>2026-04-16T16:33:58.998Z</time></trkpt><trkpt lat="45.721478717589605" lon="11.320810840401153"><ele>312.0</ele><time>2026-04-16T16:33:59.998Z</time></trkpt><trkpt lat="45.72141836223978" lon="11.320748741534029"><ele>312.0</ele><time>2026-04-16T16:34:00.998Z</time></trkpt><trkpt lat="45.7213605813849" lon="11.320695909962765"><ele>312.0</ele><time>2026-04-16T16:34:01.998Z</time></trkpt><trkpt lat="45.72126448961383" lon="11.320645856975727"><ele>312.0</ele><time>2026-04-16T16:34:03.998Z</time></trkpt><trkpt lat="45.721164381346306" lon="11.32060666374216"><ele>312.0</ele><time>2026-04-16T16:34:05.998Z</time></trkpt><trkpt lat="45.721097155746676" lon="11.320614813418384"><ele>312.0</ele><time>2026-04-16T16:34:07Z</time></trkpt><trkpt lat="45.72102746746492" lon="11.320654303839985"><ele>312.0</ele><time>2026-04-16T16:34:08Z</time></trkpt><trkpt lat="45.720941882437465" lon="11.320669454807648"><ele>311.1666666666667</ele><time>2026-04-16T16:34:09Z</time></trkpt><trkpt lat="45.72086791158568" lon="11.32065121820141"><ele>310.3333333333333</ele><time>2026-04-16T16:34:10Z</time></trkpt><trkpt lat="45.72080047565102" lon="11.320633223944938"><ele>309.5</ele><time>2026-04-16T16:34:11Z</time></trkpt><trkpt lat="45.72073126469275" lon="11.320625464739164"><ele>308.66666666666663</ele><time>2026-04-16T16:34:12Z</time></trkpt><trkpt lat="45.72061396494942" lon="11.320638750313032"><ele>307.8333333333333</ele><time>2026-04-16T16:34:14Z</time></trkpt><trkpt lat="45.720543360376425" lon="11.320634845740233"><ele>307.0</ele><time>2026-04-16T16:34:15Z</time></trkpt><trkpt lat="45.720452141833206" lon="11.320635801397424"><ele>307.0</ele><time>2026-04-16T16:34:16Z</time></trkpt><trkpt lat="45.72037819259864" lon="11.320635899162339"><ele>307.0</ele><time>2026-04-16T16:34:17Z</time></trkpt><trkpt lat="45.720309446540284" lon="11.32063958359278"><ele>307.0</ele><time>2026-04-16T16:34:19Z</time></trkpt><trkpt lat="45.720212410737936" lon="11.320643267807439"><ele>307.0</ele><time>2026-04-16T16:34:22Z</time></trkpt><trkpt lat="45.720110621816936" lon="11.320671191119862"><ele>307.0</ele><time>2026-04-16T16:34:24Z</time></trkpt><trkpt lat="45.7200473699358" lon="11.32068769382563"><ele>307.0</ele><time>2026-04-16T16:34:26Z</time></trkpt><trkpt lat="45.719967585906026" lon="11.320725710942913"><ele>302.0</ele><time>2026-04-16T16:34:28Z</time></trkpt><trkpt lat="45.71990504766898" lon="11.32067535656418"><ele>297.0</ele><time>2026-04-16T16:34:31Z</time></trkpt><trkpt lat="45.71984599856967" lon="11.320592537918904"><ele>292.0</ele><time>2026-04-16T16:34:33Z</time></trkpt><trkpt lat="45.71985487827525" lon="11.320497623171228"><ele>287.0</ele><time>2026-04-16T16:34:33.999Z</time></trkpt><trkpt lat="45.7199363763223" lon="11.32040178492743"><ele>282.0</ele><time>2026-04-16T16:34:34.999Z</time></trkpt><trkpt lat="45.72003285728428" lon="11.320334041674698"><ele>277.0</ele><time>2026-04-16T16:34:35.999Z</time></trkpt><trkpt lat="45.720120318136146" lon="11.320266714385259"><ele>277.6</ele><time>2026-04-16T16:34:36.999Z</time></trkpt><trkpt lat="45.72021488384913" lon="11.3202126338256"><ele>278.2</ele><time>2026-04-16T16:34:37.999Z</time></trkpt><trkpt lat="45.720312153588374" lon="11.320193047959348"><ele>278.8</ele><time>2026-04-16T16:34:38.999Z</time></trkpt><trkpt lat="45.72038730397243" lon="11.320132051083494"><ele>279.4</ele><time>2026-04-16T16:34:39.999Z</time></trkpt><trkpt lat="45.7204699242111" lon="11.320056452812825"><ele>280.0</ele><time>2026-04-16T16:34:41.999Z</time></trkpt><trkpt lat="45.72042574893746" lon="11.319895010600144"><ele>280.0</ele><time>2026-04-16T16:34:43.999Z</time></trkpt><trkpt lat="45.72041675558153" lon="11.319784481627424"><ele>280.0</ele><time>2026-04-16T16:34:46.999Z</time></trkpt><trkpt lat="45.72033093801719" lon="11.319734812961789"><ele>280.0</ele><time>2026-04-16T16:34:47.999Z</time></trkpt><trkpt lat="45.7202359735277" lon="11.319668379135818"><ele>280.0</ele><time>2026-04-16T16:34:48.999Z</time></trkpt><trkpt lat="45.72013676749045" lon="11.319604096500282"><ele>280.0</ele><time>2026-04-16T16:34:49.999Z</time></trkpt><trkpt lat="45.720018476670326" lon="11.319528234233305"><ele>277.0</ele><time>2026-04-16T16:34:50.999Z</time></trkpt><trkpt lat="45.71990102669198" lon="11.319446056114764"><ele>274.0</ele><time>2026-04-16T16:34:51.999Z</time></trkpt><trkpt lat="45.71978532724414" lon="11.319378489335868"><ele>271.0</ele><time>2026-04-16T16:34:52.999Z</time></trkpt><trkpt lat="45.71966305695928" lon="11.319333527921781"><ele>268.0</ele><time>2026-04-16T16:34:53.999Z</time></trkpt><trkpt lat="45.71954321102893" lon="11.319307839824877"><ele>268.0</ele><time>2026-04-16T16:34:54.999Z</time></trkpt><trkpt lat="45.71942325998632" lon="11.31929205753311"><ele>268.0</ele><time>2026-04-16T16:34:55.999Z</time></trkpt><trkpt lat="45.719305774717355" lon="11.319275365037498"><ele>268.0</ele><time>2026-04-16T16:34:56.999Z</time></trkpt><trkpt lat="45.71919054154109" lon="11.319255268383872"><ele>268.0</ele><time>2026-04-16T16:34:57.999Z</time></trkpt><trkpt lat="45.719074909687244" lon="11.319237346143394"><ele>265.4</ele><time>2026-04-16T16:34:58.999Z</time></trkpt><trkpt lat="45.7189551488125" lon="11.319221024019392"><ele>262.8</ele><time>2026-04-16T16:34:59.999Z</time></trkpt><trkpt lat="45.71884235933601" lon="11.319209395348727"><ele>260.2</ele><time>2026-04-16T16:35:00.999Z</time></trkpt><trkpt lat="45.71873339024307" lon="11.319185898883193"><ele>257.6</ele><time>2026-04-16T16:35:01.999Z</time></trkpt><trkpt lat="45.71863625784225" lon="11.319156043106114"><ele>255.0</ele><time>2026-04-16T16:35:02.999Z</time></trkpt><trkpt lat="45.71854498296309" lon="11.319132876820666"><ele>254.25</ele><time>2026-04-16T16:35:03.999Z</time></trkpt><trkpt lat="45.71846191534645" lon="11.31911632654101"><ele>253.5</ele><time>2026-04-16T16:35:04.999Z</time></trkpt><trkpt lat="45.71838730995471" lon="11.319106421971087"><ele>252.75</ele><time>2026-04-16T16:35:06.999Z</time></trkpt><trkpt lat="45.718304071209296" lon="11.319281193849625"><ele>252.0</ele><time>2026-04-16T16:35:14.999Z</time></trkpt><trkpt lat="45.71827820708297" lon="11.319493506649048"><ele>251.33333333333331</ele><time>2026-04-16T16:35:15.999Z</time></trkpt><trkpt lat="45.71822029159807" lon="11.319740564837186"><ele>250.66666666666666</ele><time>2026-04-16T16:35:16.999Z</time></trkpt><trkpt lat="45.718165733330636" lon="11.320026764087089"><ele>250.0</ele><time>2026-04-16T16:35:17.999Z</time></trkpt><trkpt lat="45.71811694695417" lon="11.320361023966253"><ele>250.5</ele><time>2026-04-16T16:35:18.999Z</time></trkpt><trkpt lat="45.71807118749146" lon="11.320696186238719"><ele>251.0</ele><time>2026-04-16T16:35:19.999Z</time></trkpt><trkpt lat="45.718019507293135" lon="11.320996799844277"><ele>251.0</ele><time>2026-04-16T16:35:20.999Z</time></trkpt><trkpt lat="45.71796936577026" lon="11.321258353812235"><ele>251.0</ele><time>2026-04-16T16:35:21.999Z</time></trkpt><trkpt lat="45.717936898103105" lon="11.321480699717656"><ele>251.0</ele><time>2026-04-16T16:35:22.999Z</time></trkpt><trkpt lat="45.71787865676613" lon="11.321715555705977"><ele>251.5</ele><time>2026-04-16T16:35:23.999Z</time></trkpt><trkpt lat="45.71784049745764" lon="11.322018478087154"><ele>252.0</ele><time>2026-04-16T16:35:24.999Z</time></trkpt><trkpt lat="45.717778290493136" lon="11.32235710595019"><ele>249.5</ele><time>2026-04-16T16:35:25.999Z</time></trkpt><trkpt lat="45.71771549404071" lon="11.322728917334024"><ele>247.0</ele><time>2026-04-16T16:35:26.999Z</time></trkpt><trkpt lat="45.71765460255462" lon="11.323094726745774"><ele>246.33333333333331</ele><time>2026-04-16T16:35:27.999Z</time></trkpt><trkpt lat="45.71759818300614" lon="11.323410903669979"><ele>245.66666666666669</ele><time>2026-04-16T16:35:28.999Z</time></trkpt><trkpt lat="45.71754806521316" lon="11.323666582812518"><ele>245.0</ele><time>2026-04-16T16:35:29.999Z</time></trkpt><trkpt lat="45.71750634293932" lon="11.32386421028243"><ele>244.8</ele><time>2026-04-16T16:35:30.999Z</time></trkpt><trkpt lat="45.71747809114089" lon="11.32399452809357"><ele>244.6</ele><time>2026-04-16T16:35:31.999Z</time></trkpt><trkpt lat="45.717407080001365" lon="11.324105378006976"><ele>244.39999999999998</ele><time>2026-04-16T16:35:33.999Z</time></trkpt><trkpt lat="45.71733638497119" lon="11.324197044534783"><ele>244.2</ele><time>2026-04-16T16:35:36.999Z</time></trkpt><trkpt lat="45.717313760179856" lon="11.32431166840328"><ele>244.0</ele><time>2026-04-16T16:39:02.999Z</time></trkpt><trkpt lat="45.717288217217124" lon="11.324406508482703"><ele>243.99999999999997</ele><time>2026-04-16T16:39:04.999Z</time></trkpt><trkpt lat="45.71729207893713" lon="11.324524268694022"><ele>244.0</ele><time>2026-04-16T16:39:08.999Z</time></trkpt><trkpt lat="45.71733001301592" lon="11.324620539077337"><ele>244.0</ele><time>2026-04-16T16:41:57.998Z</time></trkpt><trkpt lat="45.71734852105608" lon="11.324764760723056"><ele>244.0</ele><time>2026-04-16T16:42:03.998Z</time></trkpt><trkpt lat="45.71732682054092" lon="11.324858362370032"><ele>243.99999999999997</ele><time>2026-04-16T16:42:04.998Z</time></trkpt><trkpt lat="45.717308277333785" lon="11.324959549134444"><ele>244.0</ele><time>2026-04-16T16:42:05.998Z</time></trkpt><trkpt lat="45.717286936865605" lon="11.325078562654953"><ele>243.6</ele><time>2026-04-16T16:42:06.998Z</time></trkpt><trkpt lat="45.71725766988518" lon="11.325212917432586"><ele>243.2</ele><time>2026-04-16T16:42:07.998Z</time></trkpt><trkpt lat="45.717219052279944" lon="11.325344950382487"><ele>242.79999999999998</ele><time>2026-04-16T16:42:08.998Z</time></trkpt><trkpt lat="45.71717133662442" lon="11.325464290410785"><ele>242.39999999999998</ele><time>2026-04-16T16:42:09.998Z</time></trkpt><trkpt lat="45.71711677723941" lon="11.325557134574822"><ele>242.0</ele><time>2026-04-16T16:42:10.998Z</time></trkpt><trkpt lat="45.71707794747762" lon="11.325650354776148"><ele>242.66666666666669</ele><time>2026-04-16T16:42:11.998Z</time></trkpt><trkpt lat="45.71701957913203" lon="11.325719097679313"><ele>243.33333333333334</ele><time>2026-04-16T16:42:12.998Z</time></trkpt><trkpt lat="45.716995326266996" lon="11.325807244797648"><ele>244.0</ele><time>2026-04-16T16:42:13.998Z</time></trkpt><trkpt lat="45.71700893239743" lon="11.325986818163843"><ele>244.66666666666669</ele><time>2026-04-16T16:42:15.998Z</time></trkpt><trkpt lat="45.71703318349057" lon="11.326088794322073"><ele>245.33333333333334</ele><time>2026-04-16T16:42:16.998Z</time></trkpt><trkpt lat="45.71704111145924" lon="11.326229507190222"><ele>246.0</ele><time>2026-04-16T16:42:17.998Z</time></trkpt><trkpt lat="45.71705586397172" lon="11.326394601714878"><ele>247.5</ele><time>2026-04-16T16:42:18.998Z</time></trkpt><trkpt lat="45.71700269505336" lon="11.326587608642523"><ele>249.0</ele><time>2026-04-16T16:42:19.998Z</time></trkpt><trkpt lat="45.71697230101167" lon="11.326795079320014"><ele>250.5</ele><time>2026-04-16T16:42:20.998Z</time></trkpt><trkpt lat="45.71694399302275" lon="11.327015311260176"><ele>252.0</ele><time>2026-04-16T16:42:21.998Z</time></trkpt><trkpt lat="45.71691399294089" lon="11.327251248714523"><ele>247.0</ele><time>2026-04-16T16:42:22.998Z</time></trkpt><trkpt lat="45.71688369473862" lon="11.327504293536881"><ele>242.0</ele><time>2026-04-16T16:42:23.998Z</time></trkpt><trkpt lat="45.716855414813736" lon="11.327769783841864"><ele>237.0</ele><time>2026-04-16T16:42:24.998Z</time></trkpt><trkpt lat="45.71682897120588" lon="11.328042023299716"><ele>237.0</ele><time>2026-04-16T16:42:25.998Z</time></trkpt><trkpt lat="45.716801033795576" lon="11.32833293620608"><ele>237.0</ele><time>2026-04-16T16:42:26.998Z</time></trkpt><trkpt lat="45.71677277316324" lon="11.32863208876335"><ele>237.0</ele><time>2026-04-16T16:42:27.998Z</time></trkpt><trkpt lat="45.71674494616107" lon="11.328935986788586"><ele>237.33333333333331</ele><time>2026-04-16T16:42:28.998Z</time></trkpt><trkpt lat="45.71671773613945" lon="11.32923691928054"><ele>237.66666666666666</ele><time>2026-04-16T16:42:29.999Z</time></trkpt><trkpt lat="45.71669355494381" lon="11.329524243662458"><ele>238.0</ele><time>2026-04-16T16:42:30.999Z</time></trkpt><trkpt lat="45.716669885914015" lon="11.329793433544356"><ele>238.0</ele><time>2026-04-16T16:42:31.999Z</time></trkpt><trkpt lat="45.71664349060596" lon="11.330043990047875"><ele>238.0</ele><time>2026-04-16T16:42:32.999Z</time></trkpt><trkpt lat="45.71660226109115" lon="11.330271745944808"><ele>238.0</ele><time>2026-04-16T16:42:33.999Z</time></trkpt><trkpt lat="45.71652059667133" lon="11.330466214939534"><ele>238.0</ele><time>2026-04-16T16:42:34.999Z</time></trkpt><trkpt lat="45.71644738078792" lon="11.33069043833337"><ele>238.0</ele><time>2026-04-16T16:42:35.999Z</time></trkpt><trkpt lat="45.71636043894624" lon="11.330879396578409"><ele>238.0</ele><time>2026-04-16T16:42:36.999Z</time></trkpt><trkpt lat="45.716259350274335" lon="11.331049913388103"><ele>238.0</ele><time>2026-04-16T16:42:37.999Z</time></trkpt><trkpt lat="45.71614090606615" lon="11.331172226454084"><ele>238.0</ele><time>2026-04-16T16:42:38.999Z</time></trkpt><trkpt lat="45.71600420022228" lon="11.33122339230141"><ele>238.0</ele><time>2026-04-16T16:42:39.999Z</time></trkpt><trkpt lat="45.71587592958923" lon="11.331287063962437"><ele>238.0</ele><time>2026-04-16T16:42:40.999Z</time></trkpt><trkpt lat="45.71575295304244" lon="11.331321375342425"><ele>236.0</ele><time>2026-04-16T16:42:41.999Z</time></trkpt><trkpt lat="45.715637588097124" lon="11.331369946435114"><ele>234.0</ele><time>2026-04-16T16:42:42.999Z</time></trkpt><trkpt lat="45.71556304624759" lon="11.331410335611334"><ele>232.0</ele><time>2026-04-16T16:42:43.999Z</time></trkpt><trkpt lat="45.71542128719232" lon="11.331262344383408"><ele>230.0</ele><time>2026-04-16T16:42:45.999Z</time></trkpt><trkpt lat="45.71536728430005" lon="11.331127468021627"><ele>229.66666666666669</ele><time>2026-04-16T16:42:46.999Z</time></trkpt><trkpt lat="45.715318187198704" lon="11.330956129257117"><ele>229.33333333333331</ele><time>2026-04-16T16:42:47.999Z</time></trkpt><trkpt lat="45.71525901963597" lon="11.330749254927307"><ele>229.0</ele><time>2026-04-16T16:42:48.999Z</time></trkpt><trkpt lat="45.715191657610276" lon="11.330527042318337"><ele>227.33333333333331</ele><time>2026-04-16T16:42:49.999Z</time></trkpt><trkpt lat="45.71511431399843" lon="11.330279844166943"><ele>225.66666666666669</ele><time>2026-04-16T16:42:50.999Z</time></trkpt><trkpt lat="45.715034206697695" lon="11.33002978917517"><ele>224.0</ele><time>2026-04-16T16:42:51.999Z</time></trkpt><trkpt lat="45.71496798501869" lon="11.32981434066215"><ele>223.75</ele><time>2026-04-16T16:42:52.999Z</time></trkpt><trkpt lat="45.71490586705452" lon="11.329619784459014"><ele>223.5</ele><time>2026-04-16T16:42:53.999Z</time></trkpt><trkpt lat="45.714849353467535" lon="11.32944328942116"><ele>223.25</ele><time>2026-04-16T16:42:54.999Z</time></trkpt><trkpt lat="45.71479882905327" lon="11.32928650324303"><ele>223.0</ele><time>2026-04-16T16:42:55.999Z</time></trkpt><trkpt lat="45.714754226707264" lon="11.32913462256848"><ele>222.99999999999997</ele><time>2026-04-16T16:42:56.999Z</time></trkpt><trkpt lat="45.714713693669964" lon="11.329005739390551"><ele>223.0</ele><time>2026-04-16T16:42:57.999Z</time></trkpt><trkpt lat="45.71467671176085" lon="11.328891011429699"><ele>223.0</ele><time>2026-04-16T16:42:58.999Z</time></trkpt><trkpt lat="45.714644445207746" lon="11.328788344480289"><ele>223.0</ele><time>2026-04-16T16:42:59.999Z</time></trkpt><trkpt lat="45.71461202615463" lon="11.32867825977522"><ele>222.99999999999997</ele><time>2026-04-16T16:43:00.999Z</time></trkpt><trkpt lat="45.71457731139935" lon="11.328543162250321"><ele>223.0</ele><time>2026-04-16T16:43:01.999Z</time></trkpt><trkpt lat="45.71453181091228" lon="11.32839240139933"><ele>222.75</ele><time>2026-04-16T16:43:02.999Z</time></trkpt><trkpt lat="45.714476010394804" lon="11.32821295588184"><ele>222.5</ele><time>2026-04-16T16:43:03.999Z</time></trkpt><trkpt lat="45.714419820173156" lon="11.32798810825906"><ele>222.25</ele><time>2026-04-16T16:43:04.999Z</time></trkpt><trkpt lat="45.71436926693359" lon="11.327804266648563"><ele>222.0</ele><time>2026-04-16T16:43:05.999Z</time></trkpt><trkpt lat="45.7143207161704" lon="11.327640033529173"><ele>221.75</ele><time>2026-04-16T16:43:06.999Z</time></trkpt><trkpt lat="45.7142662305029" lon="11.327484367485969"><ele>221.5</ele><time>2026-04-16T16:43:07.999Z</time></trkpt><trkpt lat="45.71419954931557" lon="11.327343409318848"><ele>221.25</ele><time>2026-04-16T16:43:08.999Z</time></trkpt><trkpt lat="45.71411925366623" lon="11.327205513223317"><ele>221.0</ele><time>2026-04-16T16:43:09.999Z</time></trkpt><trkpt lat="45.71402665733299" lon="11.327096841521382"><ele>221.0</ele><time>2026-04-16T16:43:10.999Z</time></trkpt><trkpt lat="45.71392548900588" lon="11.327033691013794"><ele>221.0</ele><time>2026-04-16T16:43:11.999Z</time></trkpt><trkpt lat="45.713812194283534" lon="11.32700090654684"><ele>221.0</ele><time>2026-04-16T16:43:12.999Z</time></trkpt><trkpt lat="45.71368291633203" lon="11.326989991728558"><ele>221.0</ele><time>2026-04-16T16:43:13.999Z</time></trkpt><trkpt lat="45.71353768747358" lon="11.326973403914772"><ele>220.75</ele><time>2026-04-16T16:43:14.999Z</time></trkpt><trkpt lat="45.713398318115715" lon="11.32694759294695"><ele>220.5</ele><time>2026-04-16T16:43:15.999Z</time></trkpt><trkpt lat="45.71327530388447" lon="11.326923014499158"><ele>220.25</ele><time>2026-04-16T16:43:16.999Z</time></trkpt><trkpt lat="45.71316451789351" lon="11.32690170552192"><ele>220.0</ele><time>2026-04-16T16:43:17.999Z</time></trkpt><trkpt lat="45.71307383888926" lon="11.326888093792139"><ele>219.99999999999997</ele><time>2026-04-16T16:43:18.999Z</time></trkpt><trkpt lat="45.712988431512805" lon="11.326876371754715"><ele>220.0</ele><time>2026-04-16T16:43:19.999Z</time></trkpt><trkpt lat="45.71290491031118" lon="11.326868147632826"><ele>220.0</ele><time>2026-04-16T16:43:20.999Z</time></trkpt><trkpt lat="45.712821113032064" lon="11.326855257767438"><ele>220.0</ele><time>2026-04-16T16:43:21.999Z</time></trkpt><trkpt lat="45.71275109265623" lon="11.326838609563097"><ele>219.99999999999997</ele><time>2026-04-16T16:43:22.999Z</time></trkpt><trkpt lat="45.712642480326465" lon="11.326813255125213"><ele>220.0</ele><time>2026-04-16T16:43:24.999Z</time></trkpt><trkpt lat="45.7125471371834" lon="11.326777414972112"><ele>220.66666666666666</ele><time>2026-04-16T16:43:26.999Z</time></trkpt><trkpt lat="45.71244662601435" lon="11.326725454093111"><ele>221.33333333333331</ele><time>2026-04-16T16:43:28.999Z</time></trkpt><trkpt lat="45.71240684778826" lon="11.32663867634159"><ele>222.0</ele><time>2026-04-16T16:43:29.999Z</time></trkpt><trkpt lat="45.712356604093344" lon="11.326573674403488"><ele>222.66666666666669</ele><time>2026-04-16T16:43:30.999Z</time></trkpt><trkpt lat="45.71231177708928" lon="11.326495630182833"><ele>223.33333333333334</ele><time>2026-04-16T16:43:31.999Z</time></trkpt><trkpt lat="45.71227948768701" lon="11.326416404351022"><ele>224.0</ele><time>2026-04-16T16:43:32.999Z</time></trkpt><trkpt lat="45.71224988346684" lon="11.3262612540785"><ele>224.0</ele><time>2026-04-16T16:43:34.999Z</time></trkpt><trkpt lat="45.712256691212204" lon="11.326119420214743"><ele>223.99999999999997</ele><time>2026-04-16T16:43:36.999Z</time></trkpt><trkpt lat="45.71226171022905" lon="11.325989796668756"><ele>223.99999999999997</ele><time>2026-04-16T16:43:38.999Z</time></trkpt><trkpt lat="45.71219375916206" lon="11.325892390925402"><ele>224.0</ele><time>2026-04-16T16:43:40.999Z</time></trkpt><trkpt lat="45.712119916025564" lon="11.325861848696034"><ele>224.0</ele><time>2026-04-16T16:43:41.999Z</time></trkpt><trkpt lat="45.71203531405619" lon="11.325826950891216"><ele>224.0</ele><time>2026-04-16T16:43:42.999Z</time></trkpt><trkpt lat="45.71200498895618" lon="11.32569768826883"><ele>223.99999999999997</ele><time>2026-04-16T16:43:43.999Z</time></trkpt><trkpt lat="45.71197190958386" lon="11.325577304355335"><ele>223.99999999999997</ele><time>2026-04-16T16:43:44.998Z</time></trkpt><trkpt lat="45.71193288254789" lon="11.325479542090921"><ele>224.0</ele><time>2026-04-16T16:43:45.998Z</time></trkpt><trkpt lat="45.71179545297594" lon="11.325404948352828"><ele>224.0</ele><time>2026-04-16T16:43:47.998Z</time></trkpt><trkpt lat="45.71168628443599" lon="11.32541031013151"><ele>225.0</ele><time>2026-04-16T16:43:48.998Z</time></trkpt><trkpt lat="45.71156052823522" lon="11.325414990578832"><ele>226.0</ele><time>2026-04-16T16:43:49.998Z</time></trkpt><trkpt lat="45.711423189678364" lon="11.325414097578058"><ele>227.0</ele><time>2026-04-16T16:43:50.998Z</time></trkpt><trkpt lat="45.71128169695731" lon="11.325404590060025"><ele>228.0</ele><time>2026-04-16T16:43:51.998Z</time></trkpt><trkpt lat="45.71112710613293" lon="11.32540303202369"><ele>228.4</ele><time>2026-04-16T16:43:52.998Z</time></trkpt><trkpt lat="45.71097777083532" lon="11.325399553145722"><ele>228.8</ele><time>2026-04-16T16:43:53.998Z</time></trkpt><trkpt lat="45.71085370575458" lon="11.325396839157904"><ele>229.2</ele><time>2026-04-16T16:43:54.998Z</time></trkpt><trkpt lat="45.71075343116076" lon="11.32539746244154"><ele>229.6</ele><time>2026-04-16T16:43:55.998Z</time></trkpt><trkpt lat="45.71068787204191" lon="11.325390717475656"><ele>230.0</ele><time>2026-04-16T16:43:56.998Z</time></trkpt><trkpt lat="45.710606219456814" lon="11.325380271650754"><ele>230.0</ele><time>2026-04-16T16:43:58.998Z</time></trkpt><trkpt lat="45.71060004581143" lon="11.325210271322662"><ele>230.0</ele><time>2026-04-16T16:43:59.998Z</time></trkpt><trkpt lat="45.71061017141703" lon="11.325090206030467"><ele>230.0</ele><time>2026-04-16T16:44:00.998Z</time></trkpt><trkpt lat="45.710617902273114" lon="11.324926399037567"><ele>230.0</ele><time>2026-04-16T16:44:01.998Z</time></trkpt><trkpt lat="45.710621436345654" lon="11.324743118425143"><ele>230.0</ele><time>2026-04-16T16:44:02.998Z</time></trkpt><trkpt lat="45.710625445818216" lon="11.324589908865885"><ele>230.2</ele><time>2026-04-16T16:44:03.998Z</time></trkpt><trkpt lat="45.7106286726029" lon="11.324481291304055"><ele>230.4</ele><time>2026-04-16T16:44:04.998Z</time></trkpt><trkpt lat="45.71063329660278" lon="11.324338264623254"><ele>230.60000000000002</ele><time>2026-04-16T16:44:07.998Z</time></trkpt><trkpt lat="45.710632888512244" lon="11.324229187877755"><ele>230.8</ele><time>2026-04-16T16:44:08.998Z</time></trkpt><trkpt lat="45.710632630529666" lon="11.324079502245567"><ele>231.0</ele><time>2026-04-16T16:44:09.998Z</time></trkpt><trkpt lat="45.710634956328335" lon="11.323888261110094"><ele>231.4</ele><time>2026-04-16T16:44:10.998Z</time></trkpt><trkpt lat="45.71064210141067" lon="11.32371552396738"><ele>231.8</ele><time>2026-04-16T16:44:11.998Z</time></trkpt><trkpt lat="45.71065904975512" lon="11.323567599059661"><ele>232.20000000000002</ele><time>2026-04-16T16:44:12.998Z</time></trkpt><trkpt lat="45.71068890581721" lon="11.323438538052903"><ele>232.60000000000002</ele><time>2026-04-16T16:44:13.998Z</time></trkpt><trkpt lat="45.71072992663684" lon="11.32330578099599"><ele>233.0</ele><time>2026-04-16T16:44:14.998Z</time></trkpt><trkpt lat="45.710766271192945" lon="11.323183232723673"><ele>233.00000000000003</ele><time>2026-04-16T16:44:15.998Z</time></trkpt><trkpt lat="45.710823554798374" lon="11.323101149323593"><ele>233.0</ele><time>2026-04-16T16:44:16.998Z</time></trkpt><trkpt lat="45.710851422194004" lon="11.322994693580597"><ele>233.0</ele><time>2026-04-16T16:44:17.998Z</time></trkpt><trkpt lat="45.710897189020066" lon="11.322881679225828"><ele>233.0</ele><time>2026-04-16T16:44:18.998Z</time></trkpt><trkpt lat="45.71093532821034" lon="11.32274325227596"><ele>233.00000000000003</ele><time>2026-04-16T16:44:19.998Z</time></trkpt><trkpt lat="45.71095692171256" lon="11.322614725382408"><ele>233.0</ele><time>2026-04-16T16:44:20.998Z</time></trkpt><trkpt lat="45.71096695907228" lon="11.32246538574683"><ele>233.50000000000003</ele><time>2026-04-16T16:44:22.998Z</time></trkpt><trkpt lat="45.710854070651564" lon="11.322430145675204"><ele>234.0</ele><time>2026-04-16T16:44:27.998Z</time></trkpt><trkpt lat="45.7107859477748" lon="11.322418078461624"><ele>234.5</ele><time>2026-04-16T16:44:28.998Z</time></trkpt><trkpt lat="45.710670930922944" lon="11.322380567727793"><ele>235.0</ele><time>2026-04-16T16:44:30.998Z</time></trkpt><trkpt lat="45.71060813222164" lon="11.32237039406355"><ele>235.50000000000003</ele><time>2026-04-16T16:44:31.998Z</time></trkpt><trkpt lat="45.71053301652865" lon="11.322351311263768"><ele>236.0</ele><time>2026-04-16T16:44:32.998Z</time></trkpt><trkpt lat="45.71046342453273" lon="11.322332810907284"><ele>236.0</ele><time>2026-04-16T16:44:33.998Z</time></trkpt><trkpt lat="45.71038771903937" lon="11.322313741171525"><ele>236.0</ele><time>2026-04-16T16:44:34.998Z</time></trkpt><trkpt lat="45.710295803987556" lon="11.322291346444404"><ele>236.0</ele><time>2026-04-16T16:44:36.999Z</time></trkpt><trkpt lat="45.71021996821397" lon="11.322257898872207"><ele>236.0</ele><time>2026-04-16T16:45:15.999Z</time></trkpt><trkpt lat="45.71012347905403" lon="11.32183684475379"><ele>240.0</ele><time>2026-04-16T16:45:17.999Z</time></trkpt><trkpt lat="45.71003622655957" lon="11.321720219325444"><ele>244.0</ele><time>2026-04-16T16:45:18.999Z</time></trkpt><trkpt lat="45.70995274963972" lon="11.321599998235888"><ele>248.0</ele><time>2026-04-16T16:45:19.999Z</time></trkpt><trkpt lat="45.709870867308545" lon="11.321439027376313"><ele>252.0</ele><time>2026-04-16T16:45:20.999Z</time></trkpt><trkpt lat="45.70980888200413" lon="11.32128469029919"><ele>256.0</ele><time>2026-04-16T16:45:21.999Z</time></trkpt><trkpt lat="45.70974515258966" lon="11.321145097074062"><ele>260.0</ele><time>2026-04-16T16:45:22.999Z</time></trkpt><trkpt lat="45.70970925398334" lon="11.32098153970047"><ele>264.0</ele><time>2026-04-16T16:45:23.999Z</time></trkpt><trkpt lat="45.709672497244284" lon="11.320816291503158"><ele>268.0</ele><time>2026-04-16T16:45:24.999Z</time></trkpt><trkpt lat="45.70963886287869" lon="11.320725751457005"><ele>272.0</ele><time>2026-04-16T16:45:25.999Z</time></trkpt><trkpt lat="45.70957577567629" lon="11.320654857620132"><ele>272.0</ele><time>2026-04-16T16:45:26.999Z</time></trkpt><trkpt lat="45.709489102655404" lon="11.320607068417907"><ele>272.0</ele><time>2026-04-16T16:45:27.999Z</time></trkpt><trkpt lat="45.70936803417093" lon="11.320590763932945"><ele>272.0</ele><time>2026-04-16T16:45:28.999Z</time></trkpt><trkpt lat="45.70925098903944" lon="11.320580617387334"><ele>272.0</ele><time>2026-04-16T16:45:29.999Z</time></trkpt><trkpt lat="45.70916134377466" lon="11.3206237010081"><ele>272.0</ele><time>2026-04-16T16:45:30.999Z</time></trkpt><trkpt lat="45.70909733661977" lon="11.320663940538187"><ele>272.4</ele><time>2026-04-16T16:45:31.999Z</time></trkpt><trkpt lat="45.709004646730406" lon="11.320563302279393"><ele>272.79999999999995</ele><time>2026-04-16T16:45:33.999Z</time></trkpt><trkpt lat="45.70902286032695" lon="11.320471417333165"><ele>273.2</ele><time>2026-04-16T16:45:35.999Z</time></trkpt><trkpt lat="45.70904491014367" lon="11.320295223211915"><ele>273.59999999999997</ele><time>2026-04-16T16:45:37.999Z</time></trkpt><trkpt lat="45.70904204090687" lon="11.32018206066145"><ele>274.0</ele><time>2026-04-16T16:45:38.999Z</time></trkpt><trkpt lat="45.709037052716496" lon="11.320057746772225"><ele>274.0</ele><time>2026-04-16T16:45:39.999Z</time></trkpt><trkpt lat="45.70907571763265" lon="11.319935084627307"><ele>274.0</ele><time>2026-04-16T16:45:40.999Z</time></trkpt><trkpt lat="45.709152165163985" lon="11.31984865086937"><ele>274.0</ele><time>2026-04-16T16:45:42.999Z</time></trkpt><trkpt lat="45.70918650308664" lon="11.319954922162797"><ele>274.0</ele><time>2026-04-16T16:45:48.999Z</time></trkpt><trkpt lat="45.70917229623716" lon="11.320048111711879"><ele>274.0</ele><time>2026-04-16T16:45:49.999Z</time></trkpt><trkpt lat="45.70922653627584" lon="11.320106598281795"><ele>274.0</ele><time>2026-04-16T16:45:51.998Z</time></trkpt><trkpt lat="45.70926329743551" lon="11.319973035391707"><ele>274.0</ele><time>2026-04-16T16:45:53.998Z</time></trkpt><trkpt lat="45.70928269853774" lon="11.31986874286155"><ele>274.0</ele><time>2026-04-16T16:45:54.998Z</time></trkpt><trkpt lat="45.70933318703201" lon="11.31975416166775"><ele>274.0</ele><time>2026-04-16T16:45:55.998Z</time></trkpt><trkpt lat="45.70936062959041" lon="11.319658268539323"><ele>274.0</ele><time>2026-04-16T16:45:56.998Z</time></trkpt><trkpt lat="45.709340049380565" lon="11.31955500995373"><ele>274.0</ele><time>2026-04-16T16:45:57.998Z</time></trkpt><trkpt lat="45.709316825834364" lon="11.31940297085492"><ele>274.0</ele><time>2026-04-16T16:45:58.998Z</time></trkpt><trkpt lat="45.70930173073994" lon="11.31926864738184"><ele>277.0</ele><time>2026-04-16T16:45:59.998Z</time></trkpt><trkpt lat="45.70927958577004" lon="11.31914115854806"><ele>280.0</ele><time>2026-04-16T16:46:00.998Z</time></trkpt><trkpt lat="45.70925322516356" lon="11.319018320854951"><ele>283.0</ele><time>2026-04-16T16:46:01.998Z</time></trkpt><trkpt lat="45.70920522393428" lon="11.318908454470101"><ele>286.0</ele><time>2026-04-16T16:46:02.998Z</time></trkpt><trkpt lat="45.70915168806295" lon="11.31879880301014"><ele>289.0</ele><time>2026-04-16T16:46:03.998Z</time></trkpt><trkpt lat="45.70916436046872" lon="11.318657391893675"><ele>291.59999999999997</ele><time>2026-04-16T16:46:05.998Z</time></trkpt><trkpt lat="45.70912813715097" lon="11.3185236596451"><ele>294.2</ele><time>2026-04-16T16:46:07.998Z</time></trkpt><trkpt lat="45.70907691487262" lon="11.318470735505723"><ele>296.79999999999995</ele><time>2026-04-16T16:46:09.998Z</time></trkpt><trkpt lat="45.70908224765189" lon="11.31828133192008"><ele>299.4</ele><time>2026-04-16T16:46:12.998Z</time></trkpt><trkpt lat="45.709082228807986" lon="11.318119490416388"><ele>302.0</ele><time>2026-04-16T16:46:14.998Z</time></trkpt><trkpt lat="45.7090730364578" lon="11.317969804409522"><ele>302.14285714285717</ele><time>2026-04-16T16:46:16.998Z</time></trkpt><trkpt lat="45.709050392237636" lon="11.31786907129574"><ele>302.2857142857143</ele><time>2026-04-16T16:46:17.998Z</time></trkpt><trkpt lat="45.70902718615552" lon="11.317767304178341"><ele>302.42857142857144</ele><time>2026-04-16T16:46:18.998Z</time></trkpt><trkpt lat="45.709000384652796" lon="11.317678869272767"><ele>302.57142857142856</ele><time>2026-04-16T16:46:19.998Z</time></trkpt><trkpt lat="45.709031277382245" lon="11.31758961071127"><ele>302.7142857142857</ele><time>2026-04-16T16:46:22.998Z</time></trkpt><trkpt lat="45.70903211664486" lon="11.317470677740173"><ele>302.8571428571429</ele><time>2026-04-16T16:46:24.998Z</time></trkpt><trkpt lat="45.70899092546484" lon="11.317372147379585"><ele>303.0</ele><time>2026-04-16T16:46:25.998Z</time></trkpt><trkpt lat="45.70897504774114" lon="11.317277154586936"><ele>298.8</ele><time>2026-04-16T16:46:26.998Z</time></trkpt><trkpt lat="45.70891441670803" lon="11.317124318386414"><ele>294.6</ele><time>2026-04-16T16:46:28.998Z</time></trkpt><trkpt lat="45.70884344391056" lon="11.317057633320342"><ele>290.4</ele><time>2026-04-16T16:46:29.998Z</time></trkpt><trkpt lat="45.708752108233284" lon="11.317006641667506"><ele>286.2</ele><time>2026-04-16T16:46:30.998Z</time></trkpt><trkpt lat="45.70865232444344" lon="11.316972820123738"><ele>282.0</ele><time>2026-04-16T16:46:31.998Z</time></trkpt><trkpt lat="45.70856708388581" lon="11.316979203251595"><ele>282.0</ele><time>2026-04-16T16:46:32.998Z</time></trkpt><trkpt lat="45.708500240853084" lon="11.316963336250442"><ele>282.0</ele><time>2026-04-16T16:46:33.998Z</time></trkpt><trkpt lat="45.708447316157496" lon="11.31690344185203"><ele>282.0</ele><time>2026-04-16T16:46:34.998Z</time></trkpt><trkpt lat="45.70838029845427" lon="11.316842782288735"><ele>282.0</ele><time>2026-04-16T16:46:35.998Z</time></trkpt><trkpt lat="45.7082953271133" lon="11.316823568717432"><ele>282.0</ele><time>2026-04-16T16:46:36.998Z</time></trkpt><trkpt lat="45.70821612089443" lon="11.316834992585768"><ele>282.0</ele><time>2026-04-16T16:46:37.998Z</time></trkpt><trkpt lat="45.708137862268146" lon="11.316862151467522"><ele>282.0</ele><time>2026-04-16T16:46:38.998Z</time></trkpt><trkpt lat="45.708050765290324" lon="11.31683069094738"><ele>282.0</ele><time>2026-04-16T16:46:39.998Z</time></trkpt><trkpt lat="45.707984410977964" lon="11.316766471444138"><ele>282.0</ele><time>2026-04-16T16:46:40.998Z</time></trkpt><trkpt lat="45.70787655503578" lon="11.316727198476729"><ele>282.0</ele><time>2026-04-16T16:46:42.999Z</time></trkpt><trkpt lat="45.70785892151438" lon="11.316637206669418"><ele>282.0</ele><time>2026-04-16T16:46:46.999Z</time></trkpt><trkpt lat="45.707834815009925" lon="11.316550466280875"><ele>282.0</ele><time>2026-04-16T16:47:37.999Z</time></trkpt><trkpt lat="45.70782961399498" lon="11.316651466856834"><ele>282.0</ele><time>2026-04-16T16:47:42.999Z</time></trkpt><trkpt lat="45.70784384308084" lon="11.316755752877643"><ele>282.0</ele><time>2026-04-16T16:47:47.999Z</time></trkpt><trkpt lat="45.707803035194146" lon="11.316836606562916"><ele>282.0</ele><time>2026-04-16T16:47:56.999Z</time></trkpt><trkpt lat="45.707762975911535" lon="11.316937640634787"><ele>282.0</ele><time>2026-04-16T16:47:58.999Z</time></trkpt><trkpt lat="45.70769296604825" lon="11.316930989142163"><ele>282.0</ele><time>2026-04-16T16:48:08.999Z</time></trkpt><trkpt lat="45.70764446876711" lon="11.316826528962252"><ele>282.0</ele><time>2026-04-16T16:48:18.998Z</time></trkpt><trkpt lat="45.70759777495992" lon="11.316756792828375"><ele>283.8571428571429</ele><time>2026-04-16T16:48:22.998Z</time></trkpt><trkpt lat="45.70753674157739" lon="11.316678724641624"><ele>285.7142857142857</ele><time>2026-04-16T16:48:24.998Z</time></trkpt><trkpt lat="45.707518862924736" lon="11.316578424267282"><ele>287.57142857142856</ele><time>2026-04-16T16:48:26.998Z</time></trkpt><trkpt lat="45.70752486003833" lon="11.316479152879936"><ele>289.42857142857144</ele><time>2026-04-16T16:48:32.998Z</time></trkpt><trkpt lat="45.70745941032252" lon="11.316444219995688"><ele>291.2857142857143</ele><time>2026-04-16T16:48:38.998Z</time></trkpt><trkpt lat="45.70739587368857" lon="11.316425858834817"><ele>293.14285714285717</ele><time>2026-04-16T16:48:40.998Z</time></trkpt><trkpt lat="45.707330210354" lon="11.316437874018263"><ele>295.0</ele><time>2026-04-16T16:48:43.998Z</time></trkpt><trkpt lat="45.70729451585068" lon="11.316532920943581"><ele>295.0</ele><time>2026-04-16T16:49:04Z</time></trkpt><trkpt lat="45.70722588507826" lon="11.316553614026143"><ele>295.0</ele><time>2026-04-16T16:49:33.999Z</time></trkpt><trkpt lat="45.707163407081026" lon="11.316470695996127"><ele>295.0</ele><time>2026-04-16T16:49:35.999Z</time></trkpt><trkpt lat="45.70704462177265" lon="11.316428543426131"><ele>295.0</ele><time>2026-04-16T16:49:38.999Z</time></trkpt><trkpt lat="45.70699560149949" lon="11.316489772941503"><ele>295.0</ele><time>2026-04-16T16:49:40.999Z</time></trkpt><trkpt lat="45.70691693340988" lon="11.316435404732612"><ele>295.0</ele><time>2026-04-16T16:49:43.999Z</time></trkpt><trkpt lat="45.70684652660114" lon="11.316391916657667"><ele>300.8571428571429</ele><time>2026-04-16T16:49:47.999Z</time></trkpt><trkpt lat="45.70679038536067" lon="11.316465364107408"><ele>306.7142857142857</ele><time>2026-04-16T16:49:50.999Z</time></trkpt><trkpt lat="45.706732606734384" lon="11.31650429037253"><ele>312.57142857142856</ele><time>2026-04-16T16:49:56.999Z</time></trkpt><trkpt lat="45.7066669432852" lon="11.316513737991325"><ele>318.42857142857144</ele><time>2026-04-16T16:50:04.999Z</time></trkpt><trkpt lat="45.706641939785456" lon="11.31661205310414"><ele>324.2857142857143</ele><time>2026-04-16T16:52:23.999Z</time></trkpt><trkpt lat="45.706583193127194" lon="11.316702133564682"><ele>330.14285714285717</ele><time>2026-04-16T16:52:27.999Z</time></trkpt><trkpt lat="45.706519294262236" lon="11.316713804956663"><ele>336.0</ele><time>2026-04-16T16:52:37.999Z</time></trkpt><trkpt lat="45.70648320160359" lon="11.316637350874938"><ele>336.0</ele><time>2026-04-16T16:53:03Z</time></trkpt><trkpt lat="45.70641259828799" lon="11.3165813091672"><ele>336.0</ele><time>2026-04-16T16:53:08Z</time></trkpt><trkpt lat="45.7063472850108" lon="11.316577156605776"><ele>336.0</ele><time>2026-04-16T16:53:12Z</time></trkpt><trkpt lat="45.7062812181723" lon="11.31647926497357"><ele>336.0</ele><time>2026-04-16T16:53:15Z</time></trkpt><trkpt lat="45.706223246431286" lon="11.316411575156417"><ele>336.0</ele><time>2026-04-16T16:53:19Z</time></trkpt><trkpt lat="45.70612596243226" lon="11.316350207486074"><ele>336.0</ele><time>2026-04-16T16:54:54.998Z</time></trkpt><trkpt lat="45.70607699125505" lon="11.31626224936542"><ele>341.3333333333333</ele><time>2026-04-16T16:54:57.998Z</time></trkpt><trkpt lat="45.7060295164278" lon="11.316099404315588"><ele>346.6666666666667</ele><time>2026-04-16T16:54:59.998Z</time></trkpt><trkpt lat="45.70603007229926" lon="11.315995000709055"><ele>352.0</ele><time>2026-04-16T16:55:05Z</time></trkpt><trkpt lat="45.70595990303735" lon="11.315916213986174"><ele>357.33333333333337</ele><time>2026-04-16T16:55:07Z</time></trkpt><trkpt lat="45.70590865044339" lon="11.315855570077257"><ele>362.6666666666667</ele><time>2026-04-16T16:55:10Z</time></trkpt><trkpt lat="45.70584419522314" lon="11.31576115191674"><ele>368.0</ele><time>2026-04-16T16:55:12Z</time></trkpt><trkpt lat="45.70575630827039" lon="11.315666959650683"><ele>368.0</ele><time>2026-04-16T16:55:14Z</time></trkpt><trkpt lat="45.70570627801256" lon="11.315611771325297"><ele>368.0</ele><time>2026-04-16T16:55:16Z</time></trkpt><trkpt lat="45.705641765657774" lon="11.315513184429491"><ele>368.0</ele><time>2026-04-16T16:55:18Z</time></trkpt><trkpt lat="45.70559623009785" lon="11.315439472727034"><ele>368.0</ele><time>2026-04-16T16:55:20Z</time></trkpt><trkpt lat="45.70551858654867" lon="11.315359977948246"><ele>368.0</ele><time>2026-04-16T16:55:23Z</time></trkpt><trkpt lat="45.70544490180623" lon="11.31532346344009"><ele>368.0</ele><time>2026-04-16T16:55:25Z</time></trkpt><trkpt lat="45.70535716452523" lon="11.31525717682076"><ele>370.4</ele><time>2026-04-16T16:55:27Z</time></trkpt><trkpt lat="45.70525099931979" lon="11.315199652861395"><ele>372.79999999999995</ele><time>2026-04-16T16:55:29Z</time></trkpt><trkpt lat="45.70519085668909" lon="11.315106626868646"><ele>375.2</ele><time>2026-04-16T16:55:31Z</time></trkpt><trkpt lat="45.70510432435741" lon="11.315082935977534"><ele>377.6</ele><time>2026-04-16T16:55:35Z</time></trkpt><trkpt lat="45.7049969670299" lon="11.315060261833615"><ele>380.0</ele><time>2026-04-16T16:55:37Z</time></trkpt><trkpt lat="45.70491579775416" lon="11.315051251334298"><ele>380.0</ele><time>2026-04-16T16:55:42.999Z</time></trkpt><trkpt lat="45.70484007452648" lon="11.3150776851046"><ele>380.0</ele><time>2026-04-16T16:55:44.999Z</time></trkpt><trkpt lat="45.70476271534436" lon="11.315070396317221"><ele>380.0</ele><time>2026-04-16T16:55:46.999Z</time></trkpt><trkpt lat="45.70470382847932" lon="11.31514729297838"><ele>380.0</ele><time>2026-04-16T16:55:49.999Z</time></trkpt><trkpt lat="45.704641091357445" lon="11.315176890350534"><ele>380.0</ele><time>2026-04-16T16:55:51.999Z</time></trkpt><trkpt lat="45.704589835016726" lon="11.315237980603788"><ele>380.0</ele><time>2026-04-16T16:55:53.999Z</time></trkpt><trkpt lat="45.7045305592714" lon="11.315280965485151"><ele>380.0</ele><time>2026-04-16T16:55:56.999Z</time></trkpt><trkpt lat="45.704419833801126" lon="11.315263852498047"><ele>381.8</ele><time>2026-04-16T16:56:55.998Z</time></trkpt><trkpt lat="45.704332322379436" lon="11.315220784896358"><ele>383.6</ele><time>2026-04-16T16:56:59.998Z</time></trkpt><trkpt lat="45.70427255376556" lon="11.31518207431047"><ele>385.4</ele><time>2026-04-16T16:57:04.998Z</time></trkpt><trkpt lat="45.70419781634161" lon="11.315168636332817"><ele>387.2</ele><time>2026-04-16T16:57:07.998Z</time></trkpt><trkpt lat="45.70407745400863" lon="11.315101874036731"><ele>389.0</ele><time>2026-04-16T16:57:09.998Z</time></trkpt><trkpt lat="45.70398056738136" lon="11.315045111344952"><ele>389.0</ele><time>2026-04-16T16:57:11Z</time></trkpt><trkpt lat="45.70391636635509" lon="11.31499814057174"><ele>389.0</ele><time>2026-04-16T16:57:12Z</time></trkpt><trkpt lat="45.70385530833865" lon="11.314927895699629"><ele>389.0</ele><time>2026-04-16T16:57:14Z</time></trkpt><trkpt lat="45.70381122446472" lon="11.31486226679911"><ele>389.0</ele><time>2026-04-16T16:57:17Z</time></trkpt><trkpt lat="45.70374956068113" lon="11.31480573587517"><ele>389.0</ele><time>2026-04-16T16:57:19Z</time></trkpt><trkpt lat="45.70369985629517" lon="11.314748325155504"><ele>389.0</ele><time>2026-04-16T16:57:21Z</time></trkpt><trkpt lat="45.70364068476807" lon="11.31469941040218"><ele>389.0</ele><time>2026-04-16T16:57:24Z</time></trkpt><trkpt lat="45.70359212328796" lon="11.314608703256562"><ele>385.49999999999994</ele><time>2026-04-16T16:57:27Z</time></trkpt><trkpt lat="45.7035240385686" lon="11.314531527495191"><ele>382.0</ele><time>2026-04-16T16:57:31Z</time></trkpt><trkpt lat="45.70344305452503" lon="11.31450857296077"><ele>378.5</ele><time>2026-04-16T16:57:34Z</time></trkpt><trkpt lat="45.70336726074267" lon="11.314470491544471"><ele>375.0</ele><time>2026-04-16T16:57:36Z</time></trkpt><trkpt lat="45.70330662300133" lon="11.314411685616701"><ele>371.5</ele><time>2026-04-16T16:57:39Z</time></trkpt><trkpt lat="45.70324774774782" lon="11.314347483484655"><ele>368.0</ele><time>2026-04-16T16:57:42Z</time></trkpt><trkpt lat="45.70318275138634" lon="11.314347381977548"><ele>368.0</ele><time>2026-04-16T16:57:44.999Z</time></trkpt><trkpt lat="45.703119246472994" lon="11.314305278545062"><ele>368.0</ele><time>2026-04-16T16:57:51.999Z</time></trkpt><trkpt lat="45.70305499397724" lon="11.314250185394982"><ele>368.0</ele><time>2026-04-16T16:58:00.999Z</time></trkpt><trkpt lat="45.703000366261236" lon="11.314193415259169"><ele>368.0</ele><time>2026-04-16T16:58:04.999Z</time></trkpt><trkpt lat="45.702957625656985" lon="11.314123429854044"><ele>368.0</ele><time>2026-04-16T16:58:08.999Z</time></trkpt><trkpt lat="45.70288283168971" lon="11.314119047027699"><ele>368.0</ele><time>2026-04-16T16:58:11.999Z</time></trkpt><trkpt lat="45.70281054318328" lon="11.314047778234512"><ele>368.0</ele><time>2026-04-16T16:58:13.999Z</time></trkpt><trkpt lat="45.70275705194924" lon="11.313993048176975"><ele>367.5</ele><time>2026-04-16T16:58:14.999Z</time></trkpt><trkpt lat="45.70269312025312" lon="11.313960315048883"><ele>367.0</ele><time>2026-04-16T16:58:16.999Z</time></trkpt><trkpt lat="45.7026076565628" lon="11.3138893739128"><ele>366.5</ele><time>2026-04-16T16:58:19.999Z</time></trkpt><trkpt lat="45.70252793801454" lon="11.313871591478122"><ele>366.0</ele><time>2026-04-16T16:58:21.999Z</time></trkpt><trkpt lat="45.702455981983455" lon="11.313843970372856"><ele>365.5</ele><time>2026-04-16T16:58:24.999Z</time></trkpt><trkpt lat="45.702376600333274" lon="11.313781427530332"><ele>365.0</ele><time>2026-04-16T16:58:29.999Z</time></trkpt><trkpt lat="45.70231033883652" lon="11.313763907262194"><ele>364.0</ele><time>2026-04-16T16:58:33.999Z</time></trkpt><trkpt lat="45.702222153145954" lon="11.313645434449858"><ele>363.0</ele><time>2026-04-16T16:58:43.999Z</time></trkpt><trkpt lat="45.7021496274456" lon="11.313588241091926"><ele>362.0</ele><time>2026-04-16T16:58:47.999Z</time></trkpt><trkpt lat="45.70208082327302" lon="11.313496111536555"><ele>361.0</ele><time>2026-04-16T16:58:50.999Z</time></trkpt><trkpt lat="45.7020338207527" lon="11.313378820000562"><ele>360.0</ele><time>2026-04-16T16:58:52.999Z</time></trkpt><trkpt lat="45.701972245008754" lon="11.313277117509847"><ele>362.6666666666667</ele><time>2026-04-16T16:58:54.999Z</time></trkpt><trkpt lat="45.70188709536503" lon="11.313176732495252"><ele>365.3333333333333</ele><time>2026-04-16T16:58:56.998Z</time></trkpt><trkpt lat="45.70184659108947" lon="11.313106212026819"><ele>368.0</ele><time>2026-04-16T16:59:00.998Z</time></trkpt><trkpt lat="45.70178121552125" lon="11.313057746934616"><ele>370.66666666666663</ele><time>2026-04-16T16:59:02.998Z</time></trkpt><trkpt lat="45.70171028377864" lon="11.313006788238196"><ele>373.3333333333333</ele><time>2026-04-16T16:59:05.998Z</time></trkpt><trkpt lat="45.70165453152092" lon="11.312964828982487"><ele>376.0</ele><time>2026-04-16T16:59:07.998Z</time></trkpt><trkpt lat="45.701571723871226" lon="11.312895644328455"><ele>376.0</ele><time>2026-04-16T16:59:09.998Z</time></trkpt><trkpt lat="45.70151158434455" lon="11.312864727378921"><ele>376.0</ele><time>2026-04-16T16:59:11.998Z</time></trkpt><trkpt lat="45.701457602503936" lon="11.312763144211498"><ele>376.0</ele><time>2026-04-16T16:59:13.998Z</time></trkpt><trkpt lat="45.70137784747266" lon="11.312735197466454"><ele>376.0</ele><time>2026-04-16T16:59:17Z</time></trkpt><trkpt lat="45.70130125717717" lon="11.31270060484331"><ele>376.0</ele><time>2026-04-16T16:59:22Z</time></trkpt><trkpt lat="45.70123796282486" lon="11.312648508655647"><ele>376.0</ele><time>2026-04-16T16:59:24Z</time></trkpt><trkpt lat="45.701151839538966" lon="11.312624653131563"><ele>376.0</ele><time>2026-04-16T16:59:27Z</time></trkpt><trkpt lat="45.70108691699597" lon="11.312627602205623"><ele>376.0</ele><time>2026-04-16T16:59:31Z</time></trkpt><trkpt lat="45.70101678329107" lon="11.312576338840612"><ele>376.0</ele><time>2026-04-16T16:59:35Z</time></trkpt><trkpt lat="45.70093872888649" lon="11.312554286592189"><ele>376.0</ele><time>2026-04-16T16:59:38Z</time></trkpt><trkpt lat="45.70083802418664" lon="11.31252092371012"><ele>376.0</ele><time>2026-04-16T16:59:40Z</time></trkpt><trkpt lat="45.7007585835972" lon="11.312504186989209"><ele>376.0</ele><time>2026-04-16T16:59:42Z</time></trkpt><trkpt lat="45.70064875460821" lon="11.312497559477457"><ele>378.0</ele><time>2026-04-16T16:59:44Z</time></trkpt><trkpt lat="45.700578131608104" lon="11.312415696910323"><ele>380.0</ele><time>2026-04-16T16:59:47Z</time></trkpt><trkpt lat="45.70052165568346" lon="11.312359182471573"><ele>382.0</ele><time>2026-04-16T16:59:53.999Z</time></trkpt><trkpt lat="45.70047004837308" lon="11.312301532721047"><ele>384.0</ele><time>2026-04-16T16:59:57.999Z</time></trkpt><trkpt lat="45.700433595262574" lon="11.312216358417677"><ele>386.00000000000006</ele><time>2026-04-16T17:00:00.999Z</time></trkpt><trkpt lat="45.7003608486912" lon="11.312188193676374"><ele>388.0</ele><time>2026-04-16T17:00:03.999Z</time></trkpt><trkpt lat="45.7003318651632" lon="11.312075914846353"><ele>388.00000000000006</ele><time>2026-04-16T17:00:45.999Z</time></trkpt><trkpt lat="45.70026987422687" lon="11.312106683115003"><ele>388.0</ele><time>2026-04-16T17:01:32Z</time></trkpt><trkpt lat="45.7001953910975" lon="11.312119448445696"><ele>388.0</ele><time>2026-04-16T17:01:35Z</time></trkpt><trkpt lat="45.70007420811531" lon="11.31212371559191"><ele>388.0</ele><time>2026-04-16T17:01:37Z</time></trkpt><trkpt lat="45.69999188249519" lon="11.312120421079737"><ele>388.00000000000006</ele><time>2026-04-16T17:01:38Z</time></trkpt><trkpt lat="45.69992216813374" lon="11.312078317126792"><ele>388.0</ele><time>2026-04-16T17:01:40Z</time></trkpt><trkpt lat="45.6998325968445" lon="11.311996320380532"><ele>392.5</ele><time>2026-04-16T17:01:42Z</time></trkpt><trkpt lat="45.699754800398516" lon="11.31188348059096"><ele>397.0</ele><time>2026-04-16T17:01:44Z</time></trkpt><trkpt lat="45.69969446089694" lon="11.311783610838425"><ele>401.5</ele><time>2026-04-16T17:01:47Z</time></trkpt><trkpt lat="45.699556123751286" lon="11.311694057939366"><ele>406.0</ele><time>2026-04-16T17:01:49Z</time></trkpt><trkpt lat="45.69945844969672" lon="11.31162546491104"><ele>410.8</ele><time>2026-04-16T17:01:50Z</time></trkpt><trkpt lat="45.69940204264293" lon="11.311546097213759"><ele>415.6</ele><time>2026-04-16T17:01:50.999Z</time></trkpt><trkpt lat="45.6993857049499" lon="11.311446043694522"><ele>420.4</ele><time>2026-04-16T17:01:52.999Z</time></trkpt><trkpt lat="45.699346885030415" lon="11.311339518801477"><ele>425.2</ele><time>2026-04-16T17:01:54.999Z</time></trkpt><trkpt lat="45.69929281397076" lon="11.311186462230504"><ele>430.0</ele><time>2026-04-16T17:01:56.999Z</time></trkpt><trkpt lat="45.69926675731229" lon="11.311048660664847"><ele>430.33333333333337</ele><time>2026-04-16T17:01:58.999Z</time></trkpt><trkpt lat="45.69926491226714" lon="11.310958419020073"><ele>430.6666666666667</ele><time>2026-04-16T17:01:59.999Z</time></trkpt><trkpt lat="45.69928404622797" lon="11.310857230159073"><ele>431.0</ele><time>2026-04-16T17:02:00.999Z</time></trkpt><trkpt lat="45.69931795495613" lon="11.31074150526824"><ele>431.33333333333337</ele><time>2026-04-16T17:02:01.999Z</time></trkpt><trkpt lat="45.699347303550795" lon="11.31064234211483"><ele>431.6666666666667</ele><time>2026-04-16T17:02:02.999Z</time></trkpt><trkpt lat="45.69935825956491" lon="11.310533228206712"><ele>432.0</ele><time>2026-04-16T17:02:03.999Z</time></trkpt><trkpt lat="45.69934804303674" lon="11.310399426551038"><ele>432.0</ele><time>2026-04-16T17:02:04.999Z</time></trkpt><trkpt lat="45.69933783243856" lon="11.31027467225183"><ele>432.00000000000006</ele><time>2026-04-16T17:02:05.999Z</time></trkpt><trkpt lat="45.699345795615194" lon="11.3101278117848"><ele>432.00000000000006</ele><time>2026-04-16T17:02:06.999Z</time></trkpt><trkpt lat="45.69938852442827" lon="11.309997892901178"><ele>432.0</ele><time>2026-04-16T17:02:07.999Z</time></trkpt><trkpt lat="45.699435730216905" lon="11.30990226041905"><ele>432.0</ele><time>2026-04-16T17:02:08.999Z</time></trkpt><trkpt lat="45.69950319159885" lon="11.309835265301231"><ele>424.5</ele><time>2026-04-16T17:02:09.999Z</time></trkpt><trkpt lat="45.699543684636275" lon="11.309744758805063"><ele>417.0</ele><time>2026-04-16T17:02:11.999Z</time></trkpt><trkpt lat="45.699558827293906" lon="11.309615130405279"><ele>409.5</ele><time>2026-04-16T17:02:13.999Z</time></trkpt><trkpt lat="45.6996180145989" lon="11.309566592637657"><ele>402.0</ele><time>2026-04-16T17:02:14.999Z</time></trkpt><trkpt lat="45.69972899450089" lon="11.309543583033726"><ele>394.5</ele><time>2026-04-16T17:02:16.999Z</time></trkpt><trkpt lat="45.69978680873467" lon="11.309437642141749"><ele>387.0</ele><time>2026-04-16T17:02:18.999Z</time></trkpt><trkpt lat="45.69982136689732" lon="11.309332093903848"><ele>387.0</ele><time>2026-04-16T17:02:19.999Z</time></trkpt><trkpt lat="45.6998957203986" lon="11.309203172289235"><ele>387.0</ele><time>2026-04-16T17:02:20.999Z</time></trkpt><trkpt lat="45.69996302172389" lon="11.309092977751552"><ele>387.0</ele><time>2026-04-16T17:02:21.999Z</time></trkpt><trkpt lat="45.70002166643043" lon="11.308960420415648"><ele>387.0</ele><time>2026-04-16T17:02:22.999Z</time></trkpt><trkpt lat="45.70005023033494" lon="11.308843077563827"><ele>387.0</ele><time>2026-04-16T17:02:23.999Z</time></trkpt><trkpt lat="45.700071943749066" lon="11.308738372712652"><ele>386.6</ele><time>2026-04-16T17:02:24.999Z</time></trkpt><trkpt lat="45.700121622509414" lon="11.308597580086065"><ele>386.20000000000005</ele><time>2026-04-16T17:02:26.999Z</time></trkpt><trkpt lat="45.700173391841" lon="11.30852378180082"><ele>385.8</ele><time>2026-04-16T17:02:33.999Z</time></trkpt><trkpt lat="45.700133106532384" lon="11.308702699807785"><ele>385.4</ele><time>2026-04-16T17:03:09.998Z</time></trkpt><trkpt lat="45.700106208345844" lon="11.308553162304168"><ele>385.0</ele><time>2026-04-16T17:03:23.998Z</time></trkpt><trkpt lat="45.700105692509574" lon="11.308461102672897"><ele>385.0</ele><time>2026-04-16T17:03:27.998Z</time></trkpt><trkpt lat="45.700205450213026" lon="11.308407688922484"><ele>385.0</ele><time>2026-04-16T17:03:31Z</time></trkpt><trkpt lat="45.70028490358054" lon="11.308364953401371"><ele>385.0</ele><time>2026-04-16T17:03:33Z</time></trkpt><trkpt lat="45.700326783551255" lon="11.30823023601385"><ele>385.0</ele><time>2026-04-16T17:03:37Z</time></trkpt><trkpt lat="45.70035845990505" lon="11.30811887506192"><ele>385.0</ele><time>2026-04-16T17:03:39Z</time></trkpt><trkpt lat="45.70037545677115" lon="11.308007903810113"><ele>377.83333333333337</ele><time>2026-04-16T17:03:41Z</time></trkpt><trkpt lat="45.7003877335153" lon="11.30789368470473"><ele>370.6666666666667</ele><time>2026-04-16T17:03:43Z</time></trkpt><trkpt lat="45.700393584795265" lon="11.307776940942523"><ele>363.5</ele><time>2026-04-16T17:03:45Z</time></trkpt><trkpt lat="45.70039597015121" lon="11.307651830012395"><ele>356.33333333333337</ele><time>2026-04-16T17:03:47Z</time></trkpt><trkpt lat="45.70041072501227" lon="11.307547992120254"><ele>349.1666666666667</ele><time>2026-04-16T17:03:49Z</time></trkpt><trkpt lat="45.70041624465363" lon="11.307447626963434"><ele>342.0</ele><time>2026-04-16T17:03:51Z</time></trkpt><trkpt lat="45.70037439422974" lon="11.307347466140019"><ele>341.2857142857143</ele><time>2026-04-16T17:03:53Z</time></trkpt><trkpt lat="45.70031902399934" lon="11.307235287871206"><ele>340.57142857142856</ele><time>2026-04-16T17:03:55Z</time></trkpt><trkpt lat="45.70028348482766" lon="11.3071549832468"><ele>339.8571428571429</ele><time>2026-04-16T17:03:56Z</time></trkpt><trkpt lat="45.70022377693067" lon="11.307090893479895"><ele>339.1428571428571</ele><time>2026-04-16T17:03:57Z</time></trkpt><trkpt lat="45.7001856792503" lon="11.307013099235196"><ele>338.42857142857144</ele><time>2026-04-16T17:03:58Z</time></trkpt><trkpt lat="45.70014155047365" lon="11.306936385764134"><ele>337.7142857142857</ele><time>2026-04-16T17:03:59Z</time></trkpt><trkpt lat="45.70010474067084" lon="11.306850146525637"><ele>337.0</ele><time>2026-04-16T17:04:00Z</time></trkpt><trkpt lat="45.70006824109204" lon="11.306759376028596"><ele>340.5</ele><time>2026-04-16T17:04:01Z</time></trkpt><trkpt lat="45.70000809374637" lon="11.30660433207984"><ele>344.0</ele><time>2026-04-16T17:04:03Z</time></trkpt><trkpt lat="45.69996653947706" lon="11.30653236727751"><ele>347.5</ele><time>2026-04-16T17:04:04Z</time></trkpt><trkpt lat="45.69994059187869" lon="11.306441625011868"><ele>351.0</ele><time>2026-04-16T17:04:05Z</time></trkpt><trkpt lat="45.699912989998616" lon="11.306350534280531"><ele>354.5</ele><time>2026-04-16T17:04:06Z</time></trkpt><trkpt lat="45.69988206128656" lon="11.306219195938754"><ele>358.0</ele><time>2026-04-16T17:04:07.999Z</time></trkpt><trkpt lat="45.69982928979539" lon="11.306115918504375"><ele>358.0</ele><time>2026-04-16T17:04:09.999Z</time></trkpt><trkpt lat="45.69996112958318" lon="11.306136400250036"><ele>358.0</ele><time>2026-04-16T17:04:14.999Z</time></trkpt><trkpt lat="45.70002601286166" lon="11.306205973438948"><ele>358.0</ele><time>2026-04-16T17:04:15.999Z</time></trkpt><trkpt lat="45.70009483493229" lon="11.306287677795229"><ele>358.0</ele><time>2026-04-16T17:04:16.999Z</time></trkpt><trkpt lat="45.70016610112405" lon="11.306365608263144"><ele>358.0</ele><time>2026-04-16T17:04:17.999Z</time></trkpt><trkpt lat="45.70027755131641" lon="11.306441284255218"><ele>353.79999999999995</ele><time>2026-04-16T17:04:19.999Z</time></trkpt><trkpt lat="45.70035022930734" lon="11.3064706672611"><ele>349.6</ele><time>2026-04-16T17:04:20.999Z</time></trkpt><trkpt lat="45.700423840747135" lon="11.306508009936161"><ele>345.4</ele><time>2026-04-16T17:04:21.999Z</time></trkpt><trkpt lat="45.70049169302079" lon="11.306542431028776"><ele>341.20000000000005</ele><time>2026-04-16T17:04:22.999Z</time></trkpt><trkpt lat="45.700562751492264" lon="11.306582407138723"><ele>337.0</ele><time>2026-04-16T17:04:24.999Z</time></trkpt><trkpt lat="45.700636928392576" lon="11.306336558804139"><ele>337.00000000000006</ele><time>2026-04-16T17:04:30.999Z</time></trkpt><trkpt lat="45.70065020946413" lon="11.30623579479732"><ele>337.0</ele><time>2026-04-16T17:04:31.999Z</time></trkpt><trkpt lat="45.70067088947137" lon="11.30612952987411"><ele>337.0</ele><time>2026-04-16T17:04:32.999Z</time></trkpt><trkpt lat="45.70068617058235" lon="11.306012915425445"><ele>337.0</ele><time>2026-04-16T17:04:33.999Z</time></trkpt><trkpt lat="45.7006843409468" lon="11.30591798376177"><ele>337.0</ele><time>2026-04-16T17:04:34.999Z</time></trkpt><trkpt lat="45.700671011596135" lon="11.305817663079957"><ele>337.00000000000006</ele><time>2026-04-16T17:04:35.999Z</time></trkpt><trkpt lat="45.700656047540555" lon="11.305718544739342"><ele>337.0</ele><time>2026-04-16T17:04:36.999Z</time></trkpt><trkpt lat="45.70069524097507" lon="11.305581667595922"><ele>338.3333333333333</ele><time>2026-04-16T17:04:38.999Z</time></trkpt><trkpt lat="45.70075132954894" lon="11.305539611735703"><ele>339.66666666666663</ele><time>2026-04-16T17:04:39.999Z</time></trkpt><trkpt lat="45.70081474486984" lon="11.305484933335423"><ele>341.0</ele><time>2026-04-16T17:04:40.999Z</time></trkpt><trkpt lat="45.700868763686195" lon="11.305430873569355"><ele>342.3333333333333</ele><time>2026-04-16T17:04:41.999Z</time></trkpt><trkpt lat="45.700972032304676" lon="11.305387861483249"><ele>343.6666666666667</ele><time>2026-04-16T17:04:43.999Z</time></trkpt><trkpt lat="45.701056656137645" lon="11.305463047879812"><ele>345.0</ele><time>2026-04-16T17:04:45.999Z</time></trkpt><trkpt lat="45.701187775522534" lon="11.305425623713864"><ele>345.3333333333333</ele><time>2026-04-16T17:04:47.999Z</time></trkpt><trkpt lat="45.701251903330544" lon="11.305387450803352"><ele>345.6666666666667</ele><time>2026-04-16T17:04:48.999Z</time></trkpt><trkpt lat="45.70130778721024" lon="11.305291620316714"><ele>346.0</ele><time>2026-04-16T17:04:50.999Z</time></trkpt><trkpt lat="45.70129026315426" lon="11.305161050157288"><ele>346.33333333333337</ele><time>2026-04-16T17:04:52.999Z</time></trkpt><trkpt lat="45.701205056423895" lon="11.305041037217533"><ele>346.6666666666667</ele><time>2026-04-16T17:04:54.999Z</time></trkpt><trkpt lat="45.70114439904362" lon="11.30501218248195"><ele>347.0</ele><time>2026-04-16T17:04:55.999Z</time></trkpt><trkpt lat="45.70108321263154" lon="11.304986207072051"><ele>347.14285714285717</ele><time>2026-04-16T17:04:56.999Z</time></trkpt><trkpt lat="45.701018024537994" lon="11.304959985730891"><ele>347.2857142857143</ele><time>2026-04-16T17:04:57.999Z</time></trkpt><trkpt lat="45.7009450810524" lon="11.304917394660496"><ele>347.42857142857144</ele><time>2026-04-16T17:04:58.999Z</time></trkpt><trkpt lat="45.70088599183144" lon="11.304852866217049"><ele>347.57142857142856</ele><time>2026-04-16T17:04:59.999Z</time></trkpt><trkpt lat="45.70083821988852" lon="11.304783341641825"><ele>347.7142857142857</ele><time>2026-04-16T17:05:00.999Z</time></trkpt><trkpt lat="45.700791452879976" lon="11.304713597714713"><ele>347.85714285714283</ele><time>2026-04-16T17:05:01.999Z</time></trkpt><trkpt lat="45.700732869761815" lon="11.304640013791573"><ele>348.0</ele><time>2026-04-16T17:05:02.999Z</time></trkpt><trkpt lat="45.70068381767655" lon="11.304560955555571"><ele>348.0</ele><time>2026-04-16T17:05:03.999Z</time></trkpt><trkpt lat="45.70063674912073" lon="11.304467113043687"><ele>348.0</ele><time>2026-04-16T17:05:04.999Z</time></trkpt><trkpt lat="45.70058297434412" lon="11.304372270883592"><ele>348.0</ele><time>2026-04-16T17:05:05.999Z</time></trkpt><trkpt lat="45.70053666850151" lon="11.304271285816819"><ele>348.0</ele><time>2026-04-16T17:05:06.999Z</time></trkpt><trkpt lat="45.70049152238748" lon="11.304179676294588"><ele>348.0</ele><time>2026-04-16T17:05:07.999Z</time></trkpt><trkpt lat="45.70044535460656" lon="11.304095007282832"><ele>348.0</ele><time>2026-04-16T17:05:08.999Z</time></trkpt><trkpt lat="45.700394503738245" lon="11.304001173490574"><ele>349.0</ele><time>2026-04-16T17:05:09.999Z</time></trkpt><trkpt lat="45.70034623797447" lon="11.303902446426285"><ele>350.0</ele><time>2026-04-16T17:05:10.999Z</time></trkpt><trkpt lat="45.700298868528925" lon="11.303789718193702"><ele>351.0</ele><time>2026-04-16T17:05:11.999Z</time></trkpt><trkpt lat="45.70025295412651" lon="11.303675910709984"><ele>352.0</ele><time>2026-04-16T17:05:12.999Z</time></trkpt><trkpt lat="45.70020656343546" lon="11.303575540949929"><ele>353.0</ele><time>2026-04-16T17:05:13.999Z</time></trkpt><trkpt lat="45.700150471347335" lon="11.303503020641763"><ele>354.0</ele><time>2026-04-16T17:05:14.999Z</time></trkpt><trkpt lat="45.70008678405906" lon="11.303429104469602"><ele>356.6</ele><time>2026-04-16T17:05:15.999Z</time></trkpt><trkpt lat="45.700035077215496" lon="11.303338454153408"><ele>359.2</ele><time>2026-04-16T17:05:16.999Z</time></trkpt><trkpt lat="45.69998663747668" lon="11.303227102332146"><ele>361.8</ele><time>2026-04-16T17:05:17.999Z</time></trkpt><trkpt lat="45.69994546663885" lon="11.30309667264253"><ele>364.40000000000003</ele><time>2026-04-16T17:05:18.999Z</time></trkpt><trkpt lat="45.699900365417385" lon="11.30298244941377"><ele>367.0</ele><time>2026-04-16T17:05:19.999Z</time></trkpt><trkpt lat="45.69984729168439" lon="11.302840849784783"><ele>368.5</ele><time>2026-04-16T17:05:20.999Z</time></trkpt><trkpt lat="45.69979737656332" lon="11.302691381093693"><ele>370.0</ele><time>2026-04-16T17:05:21.998Z</time></trkpt><trkpt lat="45.699733744292594" lon="11.302542820693201"><ele>371.5</ele><time>2026-04-16T17:05:22.998Z</time></trkpt><trkpt lat="45.6996691377212" lon="11.302413757843457"><ele>373.0</ele><time>2026-04-16T17:05:23.998Z</time></trkpt><trkpt lat="45.699600090586735" lon="11.302269956115179"><ele>375.0</ele><time>2026-04-16T17:05:24.998Z</time></trkpt><trkpt lat="45.69953791400451" lon="11.302131255766279"><ele>377.0</ele><time>2026-04-16T17:05:25.998Z</time></trkpt><trkpt lat="45.69948459647104" lon="11.302005398250172"><ele>379.0</ele><time>2026-04-16T17:05:26.998Z</time></trkpt><trkpt lat="45.699430628800236" lon="11.301897770197064"><ele>381.0</ele><time>2026-04-16T17:05:27.998Z</time></trkpt><trkpt lat="45.699372259248946" lon="11.301813752917159"><ele>383.0</ele><time>2026-04-16T17:05:28.998Z</time></trkpt><trkpt lat="45.699323339673306" lon="11.301738991772254"><ele>384.83333333333337</ele><time>2026-04-16T17:05:29.998Z</time></trkpt><trkpt lat="45.69927294442268" lon="11.30168135126796"><ele>386.6666666666667</ele><time>2026-04-16T17:05:30.998Z</time></trkpt><trkpt lat="45.69921147854791" lon="11.301637167765781"><ele>388.5</ele><time>2026-04-16T17:05:31.998Z</time></trkpt><trkpt lat="45.69912401043307" lon="11.301575225305585"><ele>390.33333333333337</ele><time>2026-04-16T17:05:32.998Z</time></trkpt><trkpt lat="45.6990652990406" lon="11.301509206735542"><ele>392.1666666666667</ele><time>2026-04-16T17:05:33.998Z</time></trkpt><trkpt lat="45.69901882046111" lon="11.30134312626205"><ele>394.0</ele><time>2026-04-16T17:05:36Z</time></trkpt><trkpt lat="45.69901556484182" lon="11.301249687738574"><ele>394.2857142857143</ele><time>2026-04-16T17:05:37Z</time></trkpt><trkpt lat="45.699011908881005" lon="11.301156395694907"><ele>394.57142857142856</ele><time>2026-04-16T17:05:38Z</time></trkpt><trkpt lat="45.69899836249562" lon="11.301056940718022"><ele>394.8571428571429</ele><time>2026-04-16T17:05:39Z</time></trkpt><trkpt lat="45.69895095692882" lon="11.300969823104861"><ele>395.1428571428571</ele><time>2026-04-16T17:05:40Z</time></trkpt><trkpt lat="45.69890493607618" lon="11.300906959956883"><ele>395.4285714285714</ele><time>2026-04-16T17:05:41Z</time></trkpt><trkpt lat="45.69884761009182" lon="11.300834001521805"><ele>395.7142857142857</ele><time>2026-04-16T17:05:42Z</time></trkpt><trkpt lat="45.698791576819886" lon="11.300764295337741"><ele>396.0</ele><time>2026-04-16T17:05:43Z</time></trkpt><trkpt lat="45.69874939057154" lon="11.300695660189513"><ele>398.8</ele><time>2026-04-16T17:05:44Z</time></trkpt><trkpt lat="45.698751185495745" lon="11.300530209942051"><ele>401.6</ele><time>2026-04-16T17:05:46Z</time></trkpt><trkpt lat="45.698782574919385" lon="11.300354403897524"><ele>404.4</ele><time>2026-04-16T17:05:48Z</time></trkpt><trkpt lat="45.69877128418306" lon="11.30024329543285"><ele>407.2</ele><time>2026-04-16T17:05:49Z</time></trkpt><trkpt lat="45.69873728500748" lon="11.300085666177004"><ele>410.0</ele><time>2026-04-16T17:05:51Z</time></trkpt><trkpt lat="45.6987160026281" lon="11.299983896429273"><ele>409.99999999999994</ele><time>2026-04-16T17:05:52Z</time></trkpt><trkpt lat="45.69870388168135" lon="11.29988745659856"><ele>410.0</ele><time>2026-04-16T17:05:53Z</time></trkpt><trkpt lat="45.69869245725351" lon="11.299793858279754"><ele>410.0</ele><time>2026-04-16T17:05:54Z</time></trkpt><trkpt lat="45.69867009670011" lon="11.299696176716617"><ele>410.0</ele><time>2026-04-16T17:05:55Z</time></trkpt><trkpt lat="45.698647474426" lon="11.299596179933953"><ele>409.99999999999994</ele><time>2026-04-16T17:05:56Z</time></trkpt><trkpt lat="45.698617074695484" lon="11.299512919348402"><ele>410.0</ele><time>2026-04-16T17:05:57Z</time></trkpt><trkpt lat="45.69855605469625" lon="11.29936079494189"><ele>411.8571428571429</ele><time>2026-04-16T17:05:59Z</time></trkpt><trkpt lat="45.698524005801815" lon="11.299274188530351"><ele>413.71428571428567</ele><time>2026-04-16T17:06:00Z</time></trkpt><trkpt lat="45.6984966220315" lon="11.29919187605139"><ele>415.57142857142856</ele><time>2026-04-16T17:06:01Z</time></trkpt><trkpt lat="45.698462506607896" lon="11.299105940918684"><ele>417.42857142857144</ele><time>2026-04-16T17:06:02Z</time></trkpt><trkpt lat="45.698417637876155" lon="11.299033449371699"><ele>419.28571428571433</ele><time>2026-04-16T17:06:03Z</time></trkpt><trkpt lat="45.69836271473836" lon="11.298960106443158"><ele>421.1428571428571</ele><time>2026-04-16T17:06:04Z</time></trkpt><trkpt lat="45.69830643624526" lon="11.298872757432358"><ele>423.0</ele><time>2026-04-16T17:06:05Z</time></trkpt><trkpt lat="45.698254932715116" lon="11.298765629589347"><ele>426.59999999999997</ele><time>2026-04-16T17:06:06Z</time></trkpt><trkpt lat="45.698212858037934" lon="11.298665409220593"><ele>430.2</ele><time>2026-04-16T17:06:07Z</time></trkpt><trkpt lat="45.69817036074207" lon="11.298576207030113"><ele>433.8</ele><time>2026-04-16T17:06:07.999Z</time></trkpt><trkpt lat="45.69813723061738" lon="11.298498675002334"><ele>437.4</ele><time>2026-04-16T17:06:08.999Z</time></trkpt><trkpt lat="45.698074892931004" lon="11.29836138238938"><ele>441.0</ele><time>2026-04-16T17:06:10.999Z</time></trkpt><trkpt lat="45.69799658146972" lon="11.298210939417107"><ele>441.0</ele><time>2026-04-16T17:06:12.999Z</time></trkpt><trkpt lat="45.69796256940355" lon="11.298100067793037"><ele>441.0</ele><time>2026-04-16T17:06:13.999Z</time></trkpt><trkpt lat="45.697934242381905" lon="11.297997467957854"><ele>441.0</ele><time>2026-04-16T17:06:14.999Z</time></trkpt><trkpt lat="45.697905632107144" lon="11.297833858892101"><ele>441.0</ele><time>2026-04-16T17:06:16.999Z</time></trkpt><trkpt lat="45.697905495684694" lon="11.297643789629477"><ele>441.0</ele><time>2026-04-16T17:06:18.999Z</time></trkpt><trkpt lat="45.69798677119405" lon="11.29757697664233"><ele>444.7142857142857</ele><time>2026-04-16T17:06:20.999Z</time></trkpt><trkpt lat="45.69798012521376" lon="11.2976756756374"><ele>448.42857142857144</ele><time>2026-04-16T17:06:41.999Z</time></trkpt><trkpt lat="45.69792750484194" lon="11.297770367959934"><ele>452.1428571428571</ele><time>2026-04-16T17:06:44.999Z</time></trkpt><trkpt lat="45.697920141017434" lon="11.297869571885535"><ele>455.85714285714283</ele><time>2026-04-16T17:06:47.999Z</time></trkpt><trkpt lat="45.6978823935034" lon="11.297944244834872"><ele>459.57142857142856</ele><time>2026-04-16T17:08:54.999Z</time></trkpt><trkpt lat="45.6979370997596" lon="11.297892540765108"><ele>463.2857142857142</ele><time>2026-04-16T17:08:59.999Z</time></trkpt><trkpt lat="45.697929042171616" lon="11.297765943876946"><ele>466.99999999999994</ele><time>2026-04-16T17:09:01.999Z</time></trkpt><trkpt lat="45.697956673628894" lon="11.297658152969468"><ele>467.0</ele><time>2026-04-16T17:09:03.999Z</time></trkpt><trkpt lat="45.69803258260778" lon="11.297647002006372"><ele>467.00000000000006</ele><time>2026-04-16T17:09:05.999Z</time></trkpt><trkpt lat="45.698109385219446" lon="11.297774163709335"><ele>467.00000000000006</ele><time>2026-04-16T17:09:07.999Z</time></trkpt><trkpt lat="45.698193869288865" lon="11.297860230641376"><ele>467.0</ele><time>2026-04-16T17:09:09.999Z</time></trkpt><trkpt lat="45.69826932429527" lon="11.29798482338062"><ele>467.0</ele><time>2026-04-16T17:09:11.999Z</time></trkpt><trkpt lat="45.69833273508655" lon="11.298073490188498"><ele>465.6</ele><time>2026-04-16T17:09:12.998Z</time></trkpt><trkpt lat="45.698402217961245" lon="11.298150845532398"><ele>464.20000000000005</ele><time>2026-04-16T17:09:13.998Z</time></trkpt><trkpt lat="45.69849645047826" lon="11.298192400789311"><ele>462.8</ele><time>2026-04-16T17:09:14.998Z</time></trkpt><trkpt lat="45.698599795203314" lon="11.29822675006234"><ele>461.4</ele><time>2026-04-16T17:09:15.998Z</time></trkpt><trkpt lat="45.69868217729408" lon="11.29830328202016"><ele>460.0</ele><time>2026-04-16T17:09:16.998Z</time></trkpt><trkpt lat="45.69877787581789" lon="11.298382205196813"><ele>460.0</ele><time>2026-04-16T17:09:17.998Z</time></trkpt><trkpt lat="45.69888818658429" lon="11.298511709557204"><ele>460.0</ele><time>2026-04-16T17:09:18.998Z</time></trkpt><trkpt lat="45.69896689353992" lon="11.298584007282962"><ele>460.0</ele><time>2026-04-16T17:09:19.998Z</time></trkpt><trkpt lat="45.69903375846031" lon="11.298608278514756"><ele>460.0</ele><time>2026-04-16T17:09:20.998Z</time></trkpt><trkpt lat="45.699093221605516" lon="11.29857242472777"><ele>460.0</ele><time>2026-04-16T17:09:21.998Z</time></trkpt><trkpt lat="45.6991551588983" lon="11.298493101961707"><ele>460.0</ele><time>2026-04-16T17:09:22.998Z</time></trkpt><trkpt lat="45.699224001576596" lon="11.298397422629687"><ele>460.0</ele><time>2026-04-16T17:09:23.998Z</time></trkpt><trkpt lat="45.699330244462274" lon="11.298273777796002"><ele>460.0</ele><time>2026-04-16T17:09:24.998Z</time></trkpt><trkpt lat="45.699429658895816" lon="11.29819997886129"><ele>460.0</ele><time>2026-04-16T17:09:25.998Z</time></trkpt><trkpt lat="45.69950376644267" lon="11.298170749406268"><ele>460.0</ele><time>2026-04-16T17:09:27.998Z</time></trkpt><trkpt lat="45.69955406301363" lon="11.298304058984371"><ele>461.6</ele><time>2026-04-16T17:09:29.998Z</time></trkpt><trkpt lat="45.699613622439465" lon="11.298430248036489"><ele>463.2</ele><time>2026-04-16T17:09:30.998Z</time></trkpt><trkpt lat="45.69966613447689" lon="11.298575542762253"><ele>464.79999999999995</ele><time>2026-04-16T17:09:31.998Z</time></trkpt><trkpt lat="45.69971321890164" lon="11.298641316294"><ele>466.4</ele><time>2026-04-16T17:09:32.998Z</time></trkpt><trkpt lat="45.69979137605582" lon="11.298679418046948"><ele>468.0</ele><time>2026-04-16T17:09:33.998Z</time></trkpt><trkpt lat="45.699901443342284" lon="11.298745836337831"><ele>468.0</ele><time>2026-04-16T17:09:34.998Z</time></trkpt><trkpt lat="45.69999080849483" lon="11.298830001909513"><ele>467.99999999999994</ele><time>2026-04-16T17:09:35.998Z</time></trkpt><trkpt lat="45.700054656761516" lon="11.298887785685906"><ele>467.99999999999994</ele><time>2026-04-16T17:09:36.998Z</time></trkpt><trkpt lat="45.700139323410426" lon="11.298933852809991"><ele>468.0</ele><time>2026-04-16T17:09:37.998Z</time></trkpt><trkpt lat="45.70023149686204" lon="11.298945770165677"><ele>468.0</ele><time>2026-04-16T17:09:38.998Z</time></trkpt><trkpt lat="45.70032106389078" lon="11.29895854721735"><ele>464.4</ele><time>2026-04-16T17:09:40.998Z</time></trkpt><trkpt lat="45.70032817117226" lon="11.298859838041365"><ele>460.79999999999995</ele><time>2026-04-16T17:09:43.998Z</time></trkpt><trkpt lat="45.70036457161373" lon="11.298687928217717"><ele>457.2</ele><time>2026-04-16T17:09:47Z</time></trkpt><trkpt lat="45.700375068411276" lon="11.298507638069177"><ele>453.6</ele><time>2026-04-16T17:09:48Z</time></trkpt><trkpt lat="45.70035987317878" lon="11.298351878041158"><ele>450.0</ele><time>2026-04-16T17:09:49Z</time></trkpt><trkpt lat="45.7003887416058" lon="11.298211244621688"><ele>455.0</ele><time>2026-04-16T17:09:50Z</time></trkpt><trkpt lat="45.70044477218268" lon="11.298069388952202"><ele>460.0</ele><time>2026-04-16T17:09:51Z</time></trkpt><trkpt lat="45.70054659233065" lon="11.29787549319628"><ele>465.0</ele><time>2026-04-16T17:09:52Z</time></trkpt><trkpt lat="45.700628505339225" lon="11.29771441038904"><ele>470.0</ele><time>2026-04-16T17:09:53Z</time></trkpt><trkpt lat="45.70071485317188" lon="11.297663854001637"><ele>470.0</ele><time>2026-04-16T17:09:54Z</time></trkpt><trkpt lat="45.70079195825944" lon="11.297593459678366"><ele>470.0</ele><time>2026-04-16T17:09:55Z</time></trkpt><trkpt lat="45.70087015251887" lon="11.29753297785325"><ele>470.0</ele><time>2026-04-16T17:09:56Z</time></trkpt><trkpt lat="45.70099233029867" lon="11.29752398420681"><ele>470.0</ele><time>2026-04-16T17:09:57Z</time></trkpt><trkpt lat="45.70109305094158" lon="11.297539094997974"><ele>470.0</ele><time>2026-04-16T17:09:59Z</time></trkpt><trkpt lat="45.70118351961588" lon="11.297518227008286"><ele>468.2</ele><time>2026-04-16T17:10:01Z</time></trkpt><trkpt lat="45.7012407815338" lon="11.297449963083059"><ele>466.4</ele><time>2026-04-16T17:10:02Z</time></trkpt><trkpt lat="45.70133410909032" lon="11.297366839806335"><ele>464.6</ele><time>2026-04-16T17:10:03Z</time></trkpt><trkpt lat="45.701410907921435" lon="11.29724933403679"><ele>462.8</ele><time>2026-04-16T17:10:04Z</time></trkpt><trkpt lat="45.701468948431504" lon="11.297158585334431"><ele>461.0</ele><time>2026-04-16T17:10:05Z</time></trkpt><trkpt lat="45.701532651944454" lon="11.29705183689235"><ele>460.99999999999994</ele><time>2026-04-16T17:10:06Z</time></trkpt><trkpt lat="45.70157925815159" lon="11.296969936649154"><ele>461.0</ele><time>2026-04-16T17:10:07Z</time></trkpt><trkpt lat="45.701651403161954" lon="11.296849281911694"><ele>461.0</ele><time>2026-04-16T17:10:09Z</time></trkpt><trkpt lat="45.70170693075385" lon="11.296789210202386"><ele>461.0</ele><time>2026-04-16T17:10:10Z</time></trkpt><trkpt lat="45.70176741383908" lon="11.296719118483972"><ele>460.99999999999994</ele><time>2026-04-16T17:10:11Z</time></trkpt><trkpt lat="45.70184536435267" lon="11.29663365389998"><ele>461.0</ele><time>2026-04-16T17:10:12Z</time></trkpt><trkpt lat="45.70195451615598" lon="11.296525984564035"><ele>465.25</ele><time>2026-04-16T17:10:14Z</time></trkpt><trkpt lat="45.702045392147085" lon="11.29648833874831"><ele>469.5</ele><time>2026-04-16T17:10:15Z</time></trkpt><trkpt lat="45.70211696587641" lon="11.296499988081653"><ele>473.75</ele><time>2026-04-16T17:10:16.999Z</time></trkpt><trkpt lat="45.702007870167826" lon="11.296757908438764"><ele>478.0</ele><time>2026-04-16T17:10:19.999Z</time></trkpt><trkpt lat="45.702002532338895" lon="11.296960581618563"><ele>478.0</ele><time>2026-04-16T17:10:20.999Z</time></trkpt><trkpt lat="45.70203756853826" lon="11.29711720624269"><ele>477.99999999999994</ele><time>2026-04-16T17:10:22.999Z</time></trkpt><trkpt lat="45.702079407443364" lon="11.297234001106075"><ele>477.99999999999994</ele><time>2026-04-16T17:10:23.999Z</time></trkpt><trkpt lat="45.702148770225385" lon="11.29737499117723"><ele>478.0</ele><time>2026-04-16T17:10:24.999Z</time></trkpt><trkpt lat="45.702214444661834" lon="11.297487195175858"><ele>478.0</ele><time>2026-04-16T17:10:25.999Z</time></trkpt><trkpt lat="45.702292142706305" lon="11.297691451117084"><ele>473.5</ele><time>2026-04-16T17:10:27.999Z</time></trkpt><trkpt lat="45.702362904963984" lon="11.29784151235009"><ele>469.0</ele><time>2026-04-16T17:10:28.999Z</time></trkpt><trkpt lat="45.70243320163548" lon="11.297951647384695"><ele>464.5</ele><time>2026-04-16T17:10:29.999Z</time></trkpt><trkpt lat="45.70252345553905" lon="11.298018930710317"><ele>460.0</ele><time>2026-04-16T17:10:31.999Z</time></trkpt><trkpt lat="45.702616947560216" lon="11.298151621637333"><ele>455.6</ele><time>2026-04-16T17:10:33.999Z</time></trkpt><trkpt lat="45.702668034488234" lon="11.298261917479396"><ele>451.2</ele><time>2026-04-16T17:10:34.999Z</time></trkpt><trkpt lat="45.70270064444169" lon="11.298421456448985"><ele>446.79999999999995</ele><time>2026-04-16T17:10:36.999Z</time></trkpt><trkpt lat="45.70273009746129" lon="11.298516990617463"><ele>442.4</ele><time>2026-04-16T17:10:37.999Z</time></trkpt><trkpt lat="45.70278619704972" lon="11.298671806121401"><ele>438.0</ele><time>2026-04-16T17:10:39.999Z</time></trkpt><trkpt lat="45.70282419334857" lon="11.298787339497844"><ele>442.4</ele><time>2026-04-16T17:10:40.999Z</time></trkpt><trkpt lat="45.70285602197957" lon="11.29894333536935"><ele>446.79999999999995</ele><time>2026-04-16T17:10:41.999Z</time></trkpt><trkpt lat="45.70289927045896" lon="11.299091773589861"><ele>451.2</ele><time>2026-04-16T17:10:42.999Z</time></trkpt><trkpt lat="45.70294314406943" lon="11.299228486456926"><ele>455.6</ele><time>2026-04-16T17:10:43.999Z</time></trkpt><trkpt lat="45.70299273183614" lon="11.29937931216709"><ele>460.0</ele><time>2026-04-16T17:10:44.999Z</time></trkpt><trkpt lat="45.70305437806589" lon="11.299513912771392"><ele>460.00000000000006</ele><time>2026-04-16T17:10:45.999Z</time></trkpt><trkpt lat="45.70307150780851" lon="11.299645142908794"><ele>460.0</ele><time>2026-04-16T17:10:46.999Z</time></trkpt><trkpt lat="45.703098153700395" lon="11.299739363714297"><ele>460.0</ele><time>2026-04-16T17:10:47.999Z</time></trkpt><trkpt lat="45.70314439745731" lon="11.299849868041532"><ele>460.0</ele><time>2026-04-16T17:10:49.999Z</time></trkpt><trkpt lat="45.70311765441822" lon="11.299743675378176"><ele>460.00000000000006</ele><time>2026-04-16T17:10:54.999Z</time></trkpt><trkpt lat="45.70311749743491" lon="11.299626918446744"><ele>460.0</ele><time>2026-04-16T17:10:58.999Z</time></trkpt><trkpt lat="45.70313204241764" lon="11.299521488058819"><ele>460.0</ele><time>2026-04-16T17:10:59.999Z</time></trkpt><trkpt lat="45.703140200471935" lon="11.299397732846824"><ele>460.0</ele><time>2026-04-16T17:11:00.999Z</time></trkpt><trkpt lat="45.70314235490323" lon="11.29925590095464"><ele>460.0</ele><time>2026-04-16T17:11:01.999Z</time></trkpt><trkpt lat="45.70313714682495" lon="11.299099115486678"><ele>460.0</ele><time>2026-04-16T17:11:02.999Z</time></trkpt><trkpt lat="45.703108073392684" lon="11.29895301184827"><ele>460.0</ele><time>2026-04-16T17:11:03.999Z</time></trkpt><trkpt lat="45.70305360916921" lon="11.298836035848378"><ele>466.2</ele><time>2026-04-16T17:11:04.999Z</time></trkpt><trkpt lat="45.702982519470396" lon="11.298719472521997"><ele>472.4</ele><time>2026-04-16T17:11:05.999Z</time></trkpt><trkpt lat="45.702935616967444" lon="11.298575474124899"><ele>478.6</ele><time>2026-04-16T17:11:06.999Z</time></trkpt><trkpt lat="45.70292083712803" lon="11.298427182508005"><ele>484.8</ele><time>2026-04-16T17:11:07.999Z</time></trkpt><trkpt lat="45.702905689201636" lon="11.29824914039732"><ele>491.0</ele><time>2026-04-16T17:11:08.999Z</time></trkpt><trkpt lat="45.70287328112901" lon="11.298058638300237"><ele>499.3333333333333</ele><time>2026-04-16T17:11:09.999Z</time></trkpt><trkpt lat="45.702807884478034" lon="11.297835591592749"><ele>507.66666666666663</ele><time>2026-04-16T17:11:10.999Z</time></trkpt><trkpt lat="45.70274708877281" lon="11.297626894710858"><ele>516.0</ele><time>2026-04-16T17:11:11.999Z</time></trkpt><trkpt lat="45.70268594718292" lon="11.297467701286156"><ele>506.5</ele><time>2026-04-16T17:11:12.999Z</time></trkpt><trkpt lat="45.70259910740084" lon="11.297347469092934"><ele>497.0</ele><time>2026-04-16T17:11:13.999Z</time></trkpt><trkpt lat="45.70250450210918" lon="11.297225780678373"><ele>487.5</ele><time>2026-04-16T17:11:14.999Z</time></trkpt><trkpt lat="45.70246687206043" lon="11.29707184241111"><ele>478.0</ele><time>2026-04-16T17:11:15.999Z</time></trkpt><trkpt lat="45.70245516692923" lon="11.296915782310686"><ele>478.0</ele><time>2026-04-16T17:11:16.999Z</time></trkpt><trkpt lat="45.70244420240924" lon="11.296714452030303"><ele>478.0</ele><time>2026-04-16T17:11:17.998Z</time></trkpt><trkpt lat="45.70244698229855" lon="11.296515789773572"><ele>478.0</ele><time>2026-04-16T17:11:18.998Z</time></trkpt><trkpt lat="45.7024648410578" lon="11.296299853651911"><ele>478.0</ele><time>2026-04-16T17:11:19.998Z</time></trkpt><trkpt lat="45.702478836759944" lon="11.296065516361468"><ele>483.33333333333337</ele><time>2026-04-16T17:11:20.998Z</time></trkpt><trkpt lat="45.702470432325136" lon="11.295818767645095"><ele>488.66666666666663</ele><time>2026-04-16T17:11:21.998Z</time></trkpt><trkpt lat="45.70246397077893" lon="11.295603710140327"><ele>494.0</ele><time>2026-04-16T17:11:22.998Z</time></trkpt><trkpt lat="45.7024389249481" lon="11.29539426110776"><ele>498.0</ele><time>2026-04-16T17:11:23.998Z</time></trkpt><trkpt lat="45.702425091673" lon="11.295192584589904"><ele>502.0</ele><time>2026-04-16T17:11:24.998Z</time></trkpt><trkpt lat="45.7024289123778" lon="11.295006195705723"><ele>506.0</ele><time>2026-04-16T17:11:25.998Z</time></trkpt><trkpt lat="45.702408085839" lon="11.29487287548719"><ele>510.0</ele><time>2026-04-16T17:11:26.998Z</time></trkpt><trkpt lat="45.70236001725641" lon="11.294751739713838"><ele>513.5</ele><time>2026-04-16T17:11:27.998Z</time></trkpt><trkpt lat="45.70228410495277" lon="11.29462210357028"><ele>517.0</ele><time>2026-04-16T17:11:28.998Z</time></trkpt><trkpt lat="45.702191355731394" lon="11.29450760526596"><ele>520.5</ele><time>2026-04-16T17:11:29.998Z</time></trkpt><trkpt lat="45.702097615846995" lon="11.294410796037077"><ele>524.0</ele><time>2026-04-16T17:11:30.998Z</time></trkpt><trkpt lat="45.70199333433622" lon="11.294291443932932"><ele>521.4</ele><time>2026-04-16T17:11:31.998Z</time></trkpt><trkpt lat="45.70190166054737" lon="11.294133278919661"><ele>518.8</ele><time>2026-04-16T17:11:32.998Z</time></trkpt><trkpt lat="45.70184031394958" lon="11.294050965449681"><ele>516.2</ele><time>2026-04-16T17:11:33.998Z</time></trkpt><trkpt lat="45.701778870584825" lon="11.294000487940856"><ele>513.6</ele><time>2026-04-16T17:11:34.998Z</time></trkpt><trkpt lat="45.70171142545762" lon="11.29408294375588"><ele>511.0</ele><time>2026-04-16T17:11:36.998Z</time></trkpt><trkpt lat="45.7016555672545" lon="11.294223892597074"><ele>511.00000000000006</ele><time>2026-04-16T17:11:38.998Z</time></trkpt><trkpt lat="45.70164229419042" lon="11.294403981754934"><ele>511.0</ele><time>2026-04-16T17:11:40.998Z</time></trkpt><trkpt lat="45.70156312106012" lon="11.2944954221019"><ele>511.0</ele><time>2026-04-16T17:11:42.998Z</time></trkpt><trkpt lat="45.70149603458743" lon="11.294512732822357"><ele>511.0</ele><time>2026-04-16T17:11:43.998Z</time></trkpt><trkpt lat="45.70146255752445" lon="11.294420793549975"><ele>511.00000000000006</ele><time>2026-04-16T17:11:45.998Z</time></trkpt><trkpt lat="45.70149861411412" lon="11.294319281638707"><ele>511.0</ele><time>2026-04-16T17:11:47.998Z</time></trkpt><trkpt lat="45.70150277410913" lon="11.294160415769118"><ele>511.0</ele><time>2026-04-16T17:11:49.998Z</time></trkpt><trkpt lat="45.701393150537875" lon="11.29415996178221"><ele>511.0</ele><time>2026-04-16T17:11:53Z</time></trkpt><trkpt lat="45.70135095929898" lon="11.294339000667815"><ele>511.0</ele><time>2026-04-16T17:11:55Z</time></trkpt><trkpt lat="45.70129491413497" lon="11.294393253970023"><ele>511.0</ele><time>2026-04-16T17:11:57Z</time></trkpt><trkpt lat="45.701280342111716" lon="11.294290304858842"><ele>511.0</ele><time>2026-04-16T17:12:00Z</time></trkpt><trkpt lat="45.701345777490246" lon="11.294340794761162"><ele>511.00000000000006</ele><time>2026-04-16T17:13:34.998Z</time></trkpt><trkpt lat="45.701286757939634" lon="11.294308779994187"><ele>511.0</ele><time>2026-04-16T17:14:24.999Z</time></trkpt><trkpt lat="45.7012735925756" lon="11.294218004157402"><ele>511.0</ele><time>2026-04-16T17:18:42Z</time></trkpt><trkpt lat="45.70124776261347" lon="11.294099433656358"><ele>511.0</ele><time>2026-04-16T17:18:43Z</time></trkpt><trkpt lat="45.70122677476975" lon="11.29396946414872"><ele>511.00000000000006</ele><time>2026-04-16T17:18:44Z</time></trkpt><trkpt lat="45.70121134494266" lon="11.293801444083533"><ele>511.0</ele><time>2026-04-16T17:18:45Z</time></trkpt><trkpt lat="45.70117908981748" lon="11.293656698838001"><ele>516.0</ele><time>2026-04-16T17:18:46Z</time></trkpt><trkpt lat="45.701104877609495" lon="11.293541697009175"><ele>521.0</ele><time>2026-04-16T17:18:48Z</time></trkpt><trkpt lat="45.70110563813339" lon="11.29339481482273"><ele>526.0</ele><time>2026-04-16T17:18:52Z</time></trkpt><trkpt lat="45.70110601570634" lon="11.293290513588603"><ele>531.0</ele><time>2026-04-16T17:18:54Z</time></trkpt><trkpt lat="45.70114112785738" lon="11.293209607323059"><ele>536.0</ele><time>2026-04-16T17:18:57Z</time></trkpt><trkpt lat="45.701139688024895" lon="11.293101307817409"><ele>541.0</ele><time>2026-04-16T17:19:01Z</time></trkpt><trkpt lat="45.701112008383994" lon="11.292988643518331"><ele>544.6666666666667</ele><time>2026-04-16T17:19:03Z</time></trkpt><trkpt lat="45.70113365220894" lon="11.292900173370182"><ele>548.3333333333334</ele><time>2026-04-16T17:19:04Z</time></trkpt><trkpt lat="45.70115512360725" lon="11.292750871951863"><ele>552.0</ele><time>2026-04-16T17:19:06Z</time></trkpt><trkpt lat="45.70117574394095" lon="11.292639360172936"><ele>555.6666666666666</ele><time>2026-04-16T17:19:08Z</time></trkpt><trkpt lat="45.70121337834701" lon="11.292512522778637"><ele>559.3333333333333</ele><time>2026-04-16T17:19:11Z</time></trkpt><trkpt lat="45.70123574974883" lon="11.292392944170883"><ele>563.0</ele><time>2026-04-16T17:19:14Z</time></trkpt><trkpt lat="45.701292093414835" lon="11.292328309586368"><ele>563.0</ele><time>2026-04-16T17:19:17Z</time></trkpt><trkpt lat="45.7013576292826" lon="11.292391620766496"><ele>563.0</ele><time>2026-04-16T17:19:20Z</time></trkpt><trkpt lat="45.7014293148671" lon="11.292417925281189"><ele>563.0</ele><time>2026-04-16T17:19:22.999Z</time></trkpt><trkpt lat="45.70151227578566" lon="11.29237893237503"><ele>563.0</ele><time>2026-04-16T17:19:24.999Z</time></trkpt><trkpt lat="45.701565944788484" lon="11.292278458227553"><ele>563.0</ele><time>2026-04-16T17:19:35.999Z</time></trkpt><trkpt lat="45.7015744149795" lon="11.292143349948194"><ele>563.0</ele><time>2026-04-16T17:19:37.999Z</time></trkpt><trkpt lat="45.70156962654162" lon="11.292034256708556"><ele>567.1666666666666</ele><time>2026-04-16T17:19:38.999Z</time></trkpt><trkpt lat="45.70156194198108" lon="11.291915724608858"><ele>571.3333333333333</ele><time>2026-04-16T17:19:39.999Z</time></trkpt><trkpt lat="45.7015723702793" lon="11.291781228586341"><ele>575.5</ele><time>2026-04-16T17:19:41.999Z</time></trkpt><trkpt lat="45.70158835183915" lon="11.291679791793625"><ele>579.6666666666666</ele><time>2026-04-16T17:19:45.999Z</time></trkpt><trkpt lat="45.70158207981595" lon="11.291561418511295"><ele>583.8333333333334</ele><time>2026-04-16T17:19:49.999Z</time></trkpt><trkpt lat="45.70163249087131" lon="11.291488222953234"><ele>588.0</ele><time>2026-04-16T17:19:52.999Z</time></trkpt><trkpt lat="45.701676978874694" lon="11.291377545804858"><ele>592.1666666666666</ele><time>2026-04-16T17:19:56.999Z</time></trkpt><trkpt lat="45.70169494603297" lon="11.291262858304849"><ele>596.3333333333334</ele><time>2026-04-16T17:19:58.999Z</time></trkpt><trkpt lat="45.70174082521446" lon="11.29112414653266"><ele>600.5</ele><time>2026-04-16T17:20:00.999Z</time></trkpt><trkpt lat="45.70179108127968" lon="11.291067944870147"><ele>604.6666666666667</ele><time>2026-04-16T17:20:05.999Z</time></trkpt><trkpt lat="45.70184528282129" lon="11.290995940028264"><ele>608.8333333333334</ele><time>2026-04-16T17:20:07.999Z</time></trkpt><trkpt lat="45.70189953886203" lon="11.290885939878542"><ele>613.0</ele><time>2026-04-16T17:20:09.999Z</time></trkpt><trkpt lat="45.701874933784744" lon="11.290787605138942"><ele>613.0</ele><time>2026-04-16T17:20:11.999Z</time></trkpt><trkpt lat="45.70187060708327" lon="11.290654166944192"><ele>613.0</ele><time>2026-04-16T17:20:13.999Z</time></trkpt><trkpt lat="45.701927011231874" lon="11.290605690186775"><ele>613.0</ele><time>2026-04-16T17:20:14.999Z</time></trkpt><trkpt lat="45.701989531626" lon="11.29054682726133"><ele>613.0</ele><time>2026-04-16T17:20:17Z</time></trkpt><trkpt lat="45.70206233491" lon="11.290442754267408"><ele>613.0</ele><time>2026-04-16T17:20:20Z</time></trkpt><trkpt lat="45.70211332129593" lon="11.290354930175573"><ele>613.0</ele><time>2026-04-16T17:20:22Z</time></trkpt><trkpt lat="45.70214937988259" lon="11.290267296614145"><ele>616.5</ele><time>2026-04-16T17:20:24Z</time></trkpt><trkpt lat="45.70214483002492" lon="11.29012018919829"><ele>620.0</ele><time>2026-04-16T17:20:27Z</time></trkpt><trkpt lat="45.70215253658382" lon="11.290017705355838"><ele>623.5</ele><time>2026-04-16T17:20:29Z</time></trkpt><trkpt lat="45.70219981134605" lon="11.289922792878082"><ele>627.0</ele><time>2026-04-16T17:20:32Z</time></trkpt><trkpt lat="45.702214338618866" lon="11.289815979380093"><ele>630.5</ele><time>2026-04-16T17:20:34Z</time></trkpt><trkpt lat="45.702224062321555" lon="11.289712099113894"><ele>634.0</ele><time>2026-04-16T17:20:38Z</time></trkpt><trkpt lat="45.70220272557962" lon="11.289619875270862"><ele>634.0</ele><time>2026-04-16T17:20:41Z</time></trkpt><trkpt lat="45.70212044895661" lon="11.289633286023584"><ele>634.0</ele><time>2026-04-16T17:20:52Z</time></trkpt><trkpt lat="45.7020491612605" lon="11.289756469750131"><ele>634.0</ele><time>2026-04-16T17:20:55Z</time></trkpt><trkpt lat="45.7020069239015" lon="11.289835758745182"><ele>634.0</ele><time>2026-04-16T17:20:56Z</time></trkpt><trkpt lat="45.70194328514454" lon="11.289860683453709"><ele>634.0</ele><time>2026-04-16T17:20:58Z</time></trkpt><trkpt lat="45.70187390735081" lon="11.289829476563972"><ele>634.0</ele><time>2026-04-16T17:21:36.999Z</time></trkpt><trkpt lat="45.70174968717356" lon="11.289767354479165"><ele>637.6666666666667</ele><time>2026-04-16T17:21:38.999Z</time></trkpt><trkpt lat="45.7016631949085" lon="11.289737223184126"><ele>641.3333333333334</ele><time>2026-04-16T17:21:40.999Z</time></trkpt><trkpt lat="45.70160596482559" lon="11.289679698002812"><ele>645.0</ele><time>2026-04-16T17:21:42.999Z</time></trkpt><trkpt lat="45.70151743937146" lon="11.289672827803393"><ele>648.6666666666666</ele><time>2026-04-16T17:21:47.999Z</time></trkpt><trkpt lat="45.70148793684344" lon="11.289569956811736"><ele>652.3333333333333</ele><time>2026-04-16T17:21:50.999Z</time></trkpt><trkpt lat="45.70154177194709" lon="11.289480139203965"><ele>656.0</ele><time>2026-04-16T17:21:58.999Z</time></trkpt><trkpt lat="45.70163024066943" lon="11.28930954951837"><ele>656.0</ele><time>2026-04-16T17:22:00.999Z</time></trkpt><trkpt lat="45.701700371346966" lon="11.28913456379793"><ele>656.0</ele><time>2026-04-16T17:22:01.999Z</time></trkpt><trkpt lat="45.70177829612463" lon="11.288979066262257"><ele>656.0</ele><time>2026-04-16T17:22:02.999Z</time></trkpt><trkpt lat="45.70184722344596" lon="11.288892083230264"><ele>656.0</ele><time>2026-04-16T17:22:03.999Z</time></trkpt><trkpt lat="45.70192698043264" lon="11.288826603306019"><ele>658.25</ele><time>2026-04-16T17:22:04.999Z</time></trkpt><trkpt lat="45.702046257025565" lon="11.288770354566058"><ele>660.5</ele><time>2026-04-16T17:22:06.999Z</time></trkpt><trkpt lat="45.702139667253014" lon="11.288717729248207"><ele>662.75</ele><time>2026-04-16T17:22:07.999Z</time></trkpt><trkpt lat="45.702262745538356" lon="11.288695951676031"><ele>665.0</ele><time>2026-04-16T17:22:08.999Z</time></trkpt><trkpt lat="45.702363561335325" lon="11.288716883249304"><ele>665.0</ele><time>2026-04-16T17:22:09.999Z</time></trkpt><trkpt lat="45.702447604391615" lon="11.288733224129151"><ele>665.0</ele><time>2026-04-16T17:22:11.999Z</time></trkpt><trkpt lat="45.702572526054155" lon="11.288644887165676"><ele>665.0</ele><time>2026-04-16T17:22:15.999Z</time></trkpt><trkpt lat="45.70265645310057" lon="11.288588512450339"><ele>665.0</ele><time>2026-04-16T17:22:16.999Z</time></trkpt><trkpt lat="45.70275224097994" lon="11.2886311265153"><ele>665.0</ele><time>2026-04-16T17:22:18.999Z</time></trkpt><trkpt lat="45.70281198309102" lon="11.288701550012123"><ele>667.0</ele><time>2026-04-16T17:22:19.999Z</time></trkpt><trkpt lat="45.702880645342404" lon="11.28889649881258"><ele>669.0</ele><time>2026-04-16T17:22:22Z</time></trkpt><trkpt lat="45.70291600631344" lon="11.289037360094401"><ele>671.0</ele><time>2026-04-16T17:22:23Z</time></trkpt><trkpt lat="45.70295325835178" lon="11.289152496542487"><ele>673.0</ele><time>2026-04-16T17:22:24Z</time></trkpt><trkpt lat="45.70306847416818" lon="11.28910661566345"><ele>673.0</ele><time>2026-04-16T17:22:27Z</time></trkpt><trkpt lat="45.70314280650314" lon="11.289015076513907"><ele>673.0</ele><time>2026-04-16T17:22:28Z</time></trkpt><trkpt lat="45.703220411068486" lon="11.288943569169962"><ele>673.0</ele><time>2026-04-16T17:22:29Z</time></trkpt><trkpt lat="45.70329362938986" lon="11.288895842434329"><ele>673.0</ele><time>2026-04-16T17:22:30Z</time></trkpt><trkpt lat="45.703370221395836" lon="11.288996150911197"><ele>673.0</ele><time>2026-04-16T17:22:32Z</time></trkpt><trkpt lat="45.703388819113115" lon="11.289082694133267"><ele>673.0</ele><time>2026-04-16T17:22:33Z</time></trkpt><trkpt lat="45.70345276762877" lon="11.289188147346769"><ele>673.2</ele><time>2026-04-16T17:22:34Z</time></trkpt><trkpt lat="45.70350819616841" lon="11.289283967037639"><ele>673.4</ele><time>2026-04-16T17:22:35Z</time></trkpt><trkpt lat="45.703571849453326" lon="11.289392745438521"><ele>673.6</ele><time>2026-04-16T17:22:36Z</time></trkpt><trkpt lat="45.70363489432368" lon="11.289486399394063"><ele>673.8000000000001</ele><time>2026-04-16T17:22:37Z</time></trkpt><trkpt lat="45.70365778707178" lon="11.289607486282252"><ele>674.0</ele><time>2026-04-16T17:22:38Z</time></trkpt><trkpt lat="45.70371962204685" lon="11.28972167296073"><ele>678.4000000000001</ele><time>2026-04-16T17:22:40Z</time></trkpt><trkpt lat="45.70385327697485" lon="11.289737015494252"><ele>682.8</ele><time>2026-04-16T17:22:42Z</time></trkpt><trkpt lat="45.703915713214606" lon="11.289799516560349"><ele>687.2</ele><time>2026-04-16T17:22:43Z</time></trkpt><trkpt lat="45.703962724463295" lon="11.28986789224917"><ele>691.5999999999999</ele><time>2026-04-16T17:22:44Z</time></trkpt><trkpt lat="45.70400382824145" lon="11.289795119313117"><ele>696.0</ele><time>2026-04-16T17:22:48Z</time></trkpt><trkpt lat="45.70390165617496" lon="11.289684586255591"><ele>696.0</ele><time>2026-04-16T17:22:50Z</time></trkpt><trkpt lat="45.70385602354631" lon="11.289586315229647"><ele>696.0</ele><time>2026-04-16T17:22:51Z</time></trkpt><trkpt lat="45.703814902243344" lon="11.289458363089278"><ele>696.0</ele><time>2026-04-16T17:22:52Z</time></trkpt><trkpt lat="45.70375770883555" lon="11.289357126742471"><ele>696.0</ele><time>2026-04-16T17:22:53Z</time></trkpt><trkpt lat="45.703853684731214" lon="11.289357238249307"><ele>696.0</ele><time>2026-04-16T17:22:57Z</time></trkpt><trkpt lat="45.70392902394516" lon="11.28942654178231"><ele>696.0</ele><time>2026-04-16T17:22:58Z</time></trkpt><trkpt lat="45.70402685877601" lon="11.289479142159971"><ele>696.0</ele><time>2026-04-16T17:22:59Z</time></trkpt><trkpt lat="45.70412850350946" lon="11.28950861836871"><ele>696.0</ele><time>2026-04-16T17:23:00Z</time></trkpt><trkpt lat="45.70423209832688" lon="11.289563434394896"><ele>696.0</ele><time>2026-04-16T17:23:01Z</time></trkpt><trkpt lat="45.704292271281574" lon="11.289650350002777"><ele>696.0</ele><time>2026-04-16T17:23:02Z</time></trkpt><trkpt lat="45.704317614658656" lon="11.289835369266177"><ele>696.1999999999999</ele><time>2026-04-16T17:23:04Z</time></trkpt><trkpt lat="45.70439564353447" lon="11.289980651294744"><ele>696.4</ele><time>2026-04-16T17:23:06Z</time></trkpt><trkpt lat="45.70446339672037" lon="11.290120215570576"><ele>696.6</ele><time>2026-04-16T17:23:07Z</time></trkpt><trkpt lat="45.70448461700511" lon="11.290237164355771"><ele>696.8</ele><time>2026-04-16T17:23:08Z</time></trkpt><trkpt lat="45.70452718323448" lon="11.290321788332221"><ele>697.0</ele><time>2026-04-16T17:23:10Z</time></trkpt><trkpt lat="45.70453482961697" lon="11.29047026778998"><ele>697.1666666666667</ele><time>2026-04-16T17:23:12Z</time></trkpt><trkpt lat="45.704471633923035" lon="11.290539538700232"><ele>697.3333333333334</ele><time>2026-04-16T17:23:16Z</time></trkpt><trkpt lat="45.704447981078935" lon="11.290624226247534"><ele>697.5</ele><time>2026-04-16T17:23:17Z</time></trkpt><trkpt lat="45.70443188185155" lon="11.290736912197582"><ele>697.6666666666666</ele><time>2026-04-16T17:23:18Z</time></trkpt><trkpt lat="45.70441608570591" lon="11.290868055867671"><ele>697.8333333333333</ele><time>2026-04-16T17:23:19Z</time></trkpt><trkpt lat="45.70438398142841" lon="11.29100244644005"><ele>698.0</ele><time>2026-04-16T17:23:20Z</time></trkpt><trkpt lat="45.7043545329083" lon="11.29111374826212"><ele>698.0</ele><time>2026-04-16T17:23:21Z</time></trkpt><trkpt lat="45.704350447672226" lon="11.29125280977646"><ele>698.0</ele><time>2026-04-16T17:23:23Z</time></trkpt><trkpt lat="45.7043683939334" lon="11.291369903733536"><ele>698.0</ele><time>2026-04-16T17:23:25Z</time></trkpt><trkpt lat="45.70445093273325" lon="11.291333395156176"><ele>698.0</ele><time>2026-04-16T17:23:30Z</time></trkpt><trkpt lat="45.70452057299451" lon="11.291214210536568"><ele>698.0</ele><time>2026-04-16T17:23:32Z</time></trkpt><trkpt lat="45.7045774700464" lon="11.291139541717396"><ele>707.1666666666666</ele><time>2026-04-16T17:23:32.999Z</time></trkpt><trkpt lat="45.70465301450321" lon="11.291084331980002"><ele>716.3333333333333</ele><time>2026-04-16T17:23:33.999Z</time></trkpt><trkpt lat="45.70471024146143" lon="11.29093439648361"><ele>725.5</ele><time>2026-04-16T17:23:35.999Z</time></trkpt><trkpt lat="45.7047226982722" lon="11.291068940782507"><ele>734.6666666666666</ele><time>2026-04-16T17:23:40.999Z</time></trkpt><trkpt lat="45.70471972367461" lon="11.291161153136528"><ele>743.8333333333334</ele><time>2026-04-16T17:23:41.999Z</time></trkpt><trkpt lat="45.70472421010652" lon="11.29127687712196"><ele>753.0</ele><time>2026-04-16T17:23:42.999Z</time></trkpt><trkpt lat="45.70470994918103" lon="11.291409870433629"><ele>753.0</ele><time>2026-04-16T17:23:43.999Z</time></trkpt><trkpt lat="45.70470934305103" lon="11.291543950306888"><ele>753.0</ele><time>2026-04-16T17:23:44.999Z</time></trkpt><trkpt lat="45.704719627467206" lon="11.291642613493972"><ele>753.0</ele><time>2026-04-16T17:23:45.999Z</time></trkpt><trkpt lat="45.70480270409226" lon="11.291614872284912"><ele>753.0</ele><time>2026-04-16T17:23:50.999Z</time></trkpt><trkpt lat="45.70486873061027" lon="11.291474872612843"><ele>753.0</ele><time>2026-04-16T17:23:52.999Z</time></trkpt><trkpt lat="45.704924420452464" lon="11.291423519496483"><ele>753.0</ele><time>2026-04-16T17:24:02.999Z</time></trkpt><trkpt lat="45.704926889158294" lon="11.291513937832415"><ele>752.6666666666666</ele><time>2026-04-16T17:24:04.999Z</time></trkpt><trkpt lat="45.70495108736807" lon="11.291638018640537"><ele>752.3333333333334</ele><time>2026-04-16T17:24:06.999Z</time></trkpt><trkpt lat="45.70502138511843" lon="11.291679916338522"><ele>752.0</ele><time>2026-04-16T17:24:09.999Z</time></trkpt><trkpt lat="45.70511401482052" lon="11.291617718736292"><ele>751.6666666666667</ele><time>2026-04-16T17:24:11.999Z</time></trkpt><trkpt lat="45.70518110795933" lon="11.291559025511457"><ele>751.3333333333334</ele><time>2026-04-16T17:24:12.999Z</time></trkpt><trkpt lat="45.70526890983356" lon="11.291500431540051"><ele>751.0</ele><time>2026-04-16T17:24:13.999Z</time></trkpt><trkpt lat="45.70534393783812" lon="11.291461197040176"><ele>756.1666666666667</ele><time>2026-04-16T17:24:14.999Z</time></trkpt><trkpt lat="45.70542793360723" lon="11.291421501700892"><ele>761.3333333333334</ele><time>2026-04-16T17:24:16.999Z</time></trkpt><trkpt lat="45.70548511231723" lon="11.291461973255766"><ele>766.5</ele><time>2026-04-16T17:24:20.999Z</time></trkpt><trkpt lat="45.70554941254904" lon="11.29150502695021"><ele>771.6666666666667</ele><time>2026-04-16T17:24:23.999Z</time></trkpt><trkpt lat="45.70558570038166" lon="11.291592901524359"><ele>776.8333333333334</ele><time>2026-04-16T17:24:25.999Z</time></trkpt><trkpt lat="45.70561264253382" lon="11.291703659716939"><ele>782.0</ele><time>2026-04-16T17:24:26.999Z</time></trkpt><trkpt lat="45.705641586613694" lon="11.291802510783674"><ele>782.1428571428571</ele><time>2026-04-16T17:24:31Z</time></trkpt><trkpt lat="45.70566441754064" lon="11.291711244760528"><ele>782.2857142857142</ele><time>2026-04-16T17:24:35Z</time></trkpt><trkpt lat="45.705630174145476" lon="11.291605767993186"><ele>782.4285714285713</ele><time>2026-04-16T17:24:38Z</time></trkpt><trkpt lat="45.705717091664674" lon="11.291604033528893"><ele>782.5714285714286</ele><time>2026-04-16T17:24:44Z</time></trkpt><trkpt lat="45.705753363080504" lon="11.291682433504844"><ele>782.7142857142858</ele><time>2026-04-16T17:24:46Z</time></trkpt><trkpt lat="45.70577140422998" lon="11.291783403557298"><ele>782.8571428571428</ele><time>2026-04-16T17:24:47Z</time></trkpt><trkpt lat="45.70580429188444" lon="11.291877156086004"><ele>783.0</ele><time>2026-04-16T17:24:48Z</time></trkpt><trkpt lat="45.70585555528477" lon="11.291978214270497"><ele>783.0</ele><time>2026-04-16T17:24:50Z</time></trkpt><trkpt lat="45.70580942573675" lon="11.29204078022683"><ele>783.0</ele><time>2026-04-16T17:24:52Z</time></trkpt><trkpt lat="45.70586143461171" lon="11.29211790552169"><ele>783.0</ele><time>2026-04-16T17:24:57Z</time></trkpt><trkpt lat="45.70594049355735" lon="11.292054976667046"><ele>783.0</ele><time>2026-04-16T17:24:59Z</time></trkpt><trkpt lat="45.705958775002344" lon="11.292157737487393"><ele>783.0</ele><time>2026-04-16T17:25:04Z</time></trkpt><trkpt lat="45.70588907186462" lon="11.292214248298087"><ele>783.0</ele><time>2026-04-16T17:25:08Z</time></trkpt><trkpt lat="45.705799970723625" lon="11.292252874578084"><ele>783.8571428571428</ele><time>2026-04-16T17:25:10Z</time></trkpt><trkpt lat="45.70574380570617" lon="11.292301054692985"><ele>784.7142857142858</ele><time>2026-04-16T17:25:11Z</time></trkpt><trkpt lat="45.705770752598674" lon="11.292383153927272"><ele>785.5714285714286</ele><time>2026-04-16T17:25:14Z</time></trkpt><trkpt lat="45.70582232738063" lon="11.292481592197353"><ele>786.4285714285713</ele><time>2026-04-16T17:25:16Z</time></trkpt><trkpt lat="45.70587398254378" lon="11.292573068138038"><ele>787.2857142857142</ele><time>2026-04-16T17:25:18Z</time></trkpt><trkpt lat="45.70591303407996" lon="11.292648001317753"><ele>788.1428571428571</ele><time>2026-04-16T17:25:20Z</time></trkpt><trkpt lat="45.7058855770859" lon="11.292550138264483"><ele>789.0</ele><time>2026-04-16T17:25:36Z</time></trkpt><trkpt lat="45.705918220075134" lon="11.292456608772637"><ele>788.9999999999999</ele><time>2026-04-16T17:25:45.999Z</time></trkpt><trkpt lat="45.705991247730275" lon="11.292434695646568"><ele>789.0</ele><time>2026-04-16T17:25:57.999Z</time></trkpt><trkpt lat="45.706049494756556" lon="11.292394792321248"><ele>789.0</ele><time>2026-04-16T17:26:02.999Z</time></trkpt><trkpt lat="45.706111326684976" lon="11.29233492293109"><ele>789.0</ele><time>2026-04-16T17:26:06.999Z</time></trkpt><trkpt lat="45.70616319615827" lon="11.29227994954774"><ele>789.0</ele><time>2026-04-16T17:26:09.999Z</time></trkpt><trkpt lat="45.706239372709604" lon="11.29225328732221"><ele>788.9999999999999</ele><time>2026-04-16T17:26:12.999Z</time></trkpt><trkpt lat="45.706308335262456" lon="11.292230257915877"><ele>789.0</ele><time>2026-04-16T17:26:16.999Z</time></trkpt><trkpt lat="45.70639167573659" lon="11.292176008190587"><ele>791.5</ele><time>2026-04-16T17:26:19.999Z</time></trkpt><trkpt lat="45.70647286278405" lon="11.292133053787298"><ele>794.0</ele><time>2026-04-16T17:26:22.999Z</time></trkpt><trkpt lat="45.70653426166954" lon="11.292100039148195"><ele>796.5</ele><time>2026-04-16T17:26:26.999Z</time></trkpt><trkpt lat="45.7066022639973" lon="11.292062509333073"><ele>799.0</ele><time>2026-04-16T17:26:29.999Z</time></trkpt><trkpt lat="45.706674683089574" lon="11.292005788202394"><ele>801.5</ele><time>2026-04-16T17:26:37Z</time></trkpt><trkpt lat="45.706742987373204" lon="11.291929374038101"><ele>804.0</ele><time>2026-04-16T17:26:40Z</time></trkpt><trkpt lat="45.70680984510661" lon="11.291895352619365"><ele>804.0</ele><time>2026-04-16T17:26:44Z</time></trkpt><trkpt lat="45.706880368517275" lon="11.29185988209926"><ele>804.0</ele><time>2026-04-16T17:26:47Z</time></trkpt><trkpt lat="45.70694853412035" lon="11.291891725374063"><ele>804.0</ele><time>2026-04-16T17:26:51Z</time></trkpt><trkpt lat="45.70701249715359" lon="11.291870833274547"><ele>804.0</ele><time>2026-04-16T17:26:56Z</time></trkpt><trkpt lat="45.70706459184828" lon="11.291785700600935"><ele>804.0</ele><time>2026-04-16T17:27:01Z</time></trkpt><trkpt lat="45.70715055106126" lon="11.291697599835443"><ele>804.0</ele><time>2026-04-16T17:27:04Z</time></trkpt><trkpt lat="45.707214153963825" lon="11.29165181086152"><ele>805.0</ele><time>2026-04-16T17:28:32.999Z</time></trkpt><trkpt lat="45.70714764417667" lon="11.291551495831472"><ele>806.0</ele><time>2026-04-16T17:29:04Z</time></trkpt><trkpt lat="45.70713882438131" lon="11.291433564515504"><ele>807.0</ele><time>2026-04-16T17:29:06Z</time></trkpt><trkpt lat="45.70715179007742" lon="11.291267462856009"><ele>808.0</ele><time>2026-04-16T17:29:08Z</time></trkpt><trkpt lat="45.7071521036554" lon="11.291133362852552"><ele>809.0</ele><time>2026-04-16T17:29:09Z</time></trkpt><trkpt lat="45.707146177876" lon="11.290983837218315"><ele>806.0</ele><time>2026-04-16T17:29:10Z</time></trkpt><trkpt lat="45.707140293271934" lon="11.29086639696991"><ele>803.0</ele><time>2026-04-16T17:29:11Z</time></trkpt><trkpt lat="45.70712953426139" lon="11.2907568515835"><ele>800.0</ele><time>2026-04-16T17:29:12Z</time></trkpt><trkpt lat="45.70709710135511" lon="11.290615279067863"><ele>797.0</ele><time>2026-04-16T17:29:14Z</time></trkpt><trkpt lat="45.70717954670466" lon="11.290516861629088"><ele>794.0</ele><time>2026-04-16T17:29:17Z</time></trkpt><trkpt lat="45.70728669020703" lon="11.29045182585491"><ele>789.1666666666667</ele><time>2026-04-16T17:29:19Z</time></trkpt><trkpt lat="45.70738340655386" lon="11.290380100287663"><ele>784.3333333333334</ele><time>2026-04-16T17:29:21Z</time></trkpt><trkpt lat="45.707484365912286" lon="11.290376110194691"><ele>779.5</ele><time>2026-04-16T17:29:23Z</time></trkpt><trkpt lat="45.70757008031784" lon="11.29035359832464"><ele>774.6666666666667</ele><time>2026-04-16T17:29:25Z</time></trkpt><trkpt lat="45.70765054046809" lon="11.290332463179697"><ele>769.8333333333334</ele><time>2026-04-16T17:29:27Z</time></trkpt><trkpt lat="45.70771598929876" lon="11.29034460307429"><ele>765.0</ele><time>2026-04-16T17:29:29Z</time></trkpt><trkpt lat="45.70780187511654" lon="11.290321312295482"><ele>763.0</ele><time>2026-04-16T17:29:31Z</time></trkpt><trkpt lat="45.70791208728112" lon="11.29027879792644"><ele>761.0</ele><time>2026-04-16T17:29:33Z</time></trkpt><trkpt lat="45.708030912234484" lon="11.290253038132544"><ele>759.0</ele><time>2026-04-16T17:29:35Z</time></trkpt><trkpt lat="45.70813422266063" lon="11.290252308277406"><ele>757.0</ele><time>2026-04-16T17:29:37Z</time></trkpt><trkpt lat="45.70821728121375" lon="11.290250502864085"><ele>755.0</ele><time>2026-04-16T17:29:39Z</time></trkpt><trkpt lat="45.7083201436021" lon="11.290262150608225"><ele>755.0</ele><time>2026-04-16T17:29:41Z</time></trkpt><trkpt lat="45.7084094689803" lon="11.290283802635281"><ele>755.0</ele><time>2026-04-16T17:29:43Z</time></trkpt><trkpt lat="45.70846199128335" lon="11.290202337353444"><ele>755.0</ele><time>2026-04-16T17:29:45Z</time></trkpt><trkpt lat="45.708528140951024" lon="11.29009385359656"><ele>755.0</ele><time>2026-04-16T17:29:47Z</time></trkpt><trkpt lat="45.7085946743462" lon="11.290078013863477"><ele>755.0</ele><time>2026-04-16T17:29:49Z</time></trkpt><trkpt lat="45.70862333828662" lon="11.290173451796335"><ele>755.0</ele><time>2026-04-16T17:29:51.999Z</time></trkpt><trkpt lat="45.708682832243035" lon="11.290127909485527"><ele>751.2</ele><time>2026-04-16T17:30:03.999Z</time></trkpt><trkpt lat="45.70873433580285" lon="11.290019384261507"><ele>747.4</ele><time>2026-04-16T17:30:06.999Z</time></trkpt><trkpt lat="45.70869288627291" lon="11.289919799448029"><ele>743.5999999999999</ele><time>2026-04-16T17:30:08.999Z</time></trkpt><trkpt lat="45.70864485464952" lon="11.289843922802973"><ele>739.8</ele><time>2026-04-16T17:30:09.999Z</time></trkpt><trkpt lat="45.70859059529627" lon="11.289712217062668"><ele>736.0</ele><time>2026-04-16T17:30:11.999Z</time></trkpt><trkpt lat="45.70846627773697" lon="11.289661497318288"><ele>735.0</ele><time>2026-04-16T17:30:13.999Z</time></trkpt><trkpt lat="45.708386890991356" lon="11.289667538075825"><ele>734.0</ele><time>2026-04-16T17:30:14.999Z</time></trkpt><trkpt lat="45.70830884370887" lon="11.289716235726061"><ele>733.0</ele><time>2026-04-16T17:30:15.999Z</time></trkpt><trkpt lat="45.70821540005273" lon="11.2897462861391"><ele>732.0</ele><time>2026-04-16T17:30:16.999Z</time></trkpt><trkpt lat="45.708128764623716" lon="11.289784847066338"><ele>731.0</ele><time>2026-04-16T17:30:17.999Z</time></trkpt><trkpt lat="45.70804772210815" lon="11.289771768815957"><ele>730.0</ele><time>2026-04-16T17:30:18.999Z</time></trkpt><trkpt lat="45.707992462759144" lon="11.289707357210549"><ele>730.0</ele><time>2026-04-16T17:30:19.999Z</time></trkpt><trkpt lat="45.70794332489817" lon="11.289561198488576"><ele>730.0</ele><time>2026-04-16T17:30:21.999Z</time></trkpt><trkpt lat="45.7078366758199" lon="11.28951458982998"><ele>730.0</ele><time>2026-04-16T17:30:23.999Z</time></trkpt><trkpt lat="45.70774513217057" lon="11.289478265167146"><ele>730.0</ele><time>2026-04-16T17:30:24.999Z</time></trkpt><trkpt lat="45.70764566756109" lon="11.289458543390003"><ele>730.0</ele><time>2026-04-16T17:30:25.999Z</time></trkpt><trkpt lat="45.70753975719699" lon="11.289423990110228"><ele>731.2</ele><time>2026-04-16T17:30:26.999Z</time></trkpt><trkpt lat="45.707452219316174" lon="11.289394582580625"><ele>732.4</ele><time>2026-04-16T17:30:27.999Z</time></trkpt><trkpt lat="45.707364565724355" lon="11.289365136172174"><ele>733.5999999999999</ele><time>2026-04-16T17:30:28.999Z</time></trkpt><trkpt lat="45.70725809670825" lon="11.289349738534664"><ele>734.8</ele><time>2026-04-16T17:30:29.999Z</time></trkpt><trkpt lat="45.70716243518394" lon="11.289309663090899"><ele>736.0</ele><time>2026-04-16T17:30:30.999Z</time></trkpt><trkpt lat="45.70706319478018" lon="11.28928024555469"><ele>736.0</ele><time>2026-04-16T17:30:31.999Z</time></trkpt><trkpt lat="45.70696733075097" lon="11.289249830038411"><ele>736.0</ele><time>2026-04-16T17:30:32.999Z</time></trkpt><trkpt lat="45.706878323176646" lon="11.289196464727118"><ele>736.0</ele><time>2026-04-16T17:30:33.999Z</time></trkpt><trkpt lat="45.70678731712972" lon="11.289155924580841"><ele>736.0</ele><time>2026-04-16T17:30:34.999Z</time></trkpt><trkpt lat="45.70667454260603" lon="11.289107111661608"><ele>736.0</ele><time>2026-04-16T17:30:35.999Z</time></trkpt><trkpt lat="45.70659660348406" lon="11.289029611188692"><ele>736.3333333333334</ele><time>2026-04-16T17:30:36.999Z</time></trkpt><trkpt lat="45.70651547399234" lon="11.28895564888083"><ele>736.6666666666667</ele><time>2026-04-16T17:30:37.999Z</time></trkpt><trkpt lat="45.706431151259615" lon="11.28891822897171"><ele>737.0</ele><time>2026-04-16T17:30:38.999Z</time></trkpt><trkpt lat="45.70635210631885" lon="11.288881559354932"><ele>737.3333333333334</ele><time>2026-04-16T17:30:39.999Z</time></trkpt><trkpt lat="45.706276826073335" lon="11.288839477115987"><ele>737.6666666666666</ele><time>2026-04-16T17:30:40.999Z</time></trkpt><trkpt lat="45.7062344169799" lon="11.288764614418652"><ele>738.0</ele><time>2026-04-16T17:30:41.999Z</time></trkpt><trkpt lat="45.70618962319819" lon="11.288654696075252"><ele>734.8571428571429</ele><time>2026-04-16T17:30:42.999Z</time></trkpt><trkpt lat="45.70613735499776" lon="11.288578686098129"><ele>731.7142857142857</ele><time>2026-04-16T17:30:43.999Z</time></trkpt><trkpt lat="45.70610694493448" lon="11.288474671393823"><ele>728.5714285714287</ele><time>2026-04-16T17:30:44.999Z</time></trkpt><trkpt lat="45.70605231851268" lon="11.288392699417301"><ele>725.4285714285714</ele><time>2026-04-16T17:30:46Z</time></trkpt><trkpt lat="45.70599351308628" lon="11.288354540058268"><ele>722.2857142857143</ele><time>2026-04-16T17:30:47Z</time></trkpt><trkpt lat="45.70592992053181" lon="11.288361752812895"><ele>719.1428571428572</ele><time>2026-04-16T17:30:48Z</time></trkpt><trkpt lat="45.7058607616927" lon="11.288388515997408"><ele>716.0</ele><time>2026-04-16T17:30:49Z</time></trkpt><trkpt lat="45.705779939884984" lon="11.288413600268116"><ele>716.0</ele><time>2026-04-16T17:30:50Z</time></trkpt><trkpt lat="45.70569848501068" lon="11.288459722695617"><ele>716.0</ele><time>2026-04-16T17:30:51Z</time></trkpt><trkpt lat="45.705626207819996" lon="11.288520480604394"><ele>716.0</ele><time>2026-04-16T17:30:52Z</time></trkpt><trkpt lat="45.70553421970038" lon="11.288589094811764"><ele>716.0</ele><time>2026-04-16T17:30:53Z</time></trkpt><trkpt lat="45.705448277684" lon="11.288646361166462"><ele>716.0</ele><time>2026-04-16T17:30:54Z</time></trkpt><trkpt lat="45.70536312330008" lon="11.288720920310396"><ele>716.0</ele><time>2026-04-16T17:30:55Z</time></trkpt><trkpt lat="45.705294387978434" lon="11.288806752107698"><ele>716.0</ele><time>2026-04-16T17:30:56Z</time></trkpt><trkpt lat="45.70522400875379" lon="11.288864885975418"><ele>716.0</ele><time>2026-04-16T17:30:57Z</time></trkpt><trkpt lat="45.705164896319204" lon="11.288946599971739"><ele>716.0</ele><time>2026-04-16T17:30:58Z</time></trkpt><trkpt lat="45.705096851184315" lon="11.28902247117215"><ele>716.0</ele><time>2026-04-16T17:30:59Z</time></trkpt><trkpt lat="45.70502609593969" lon="11.289084009303515"><ele>716.0</ele><time>2026-04-16T17:31:00Z</time></trkpt><trkpt lat="45.70494068896438" lon="11.28914879950113"><ele>715.6666666666666</ele><time>2026-04-16T17:31:01Z</time></trkpt><trkpt lat="45.704862343252984" lon="11.289228584965551"><ele>715.3333333333333</ele><time>2026-04-16T17:31:02Z</time></trkpt><trkpt lat="45.70477865867746" lon="11.28927383265727"><ele>715.0</ele><time>2026-04-16T17:31:03Z</time></trkpt><trkpt lat="45.70467855663931" lon="11.289309410383112"><ele>714.6666666666666</ele><time>2026-04-16T17:31:04Z</time></trkpt><trkpt lat="45.704592548307346" lon="11.289314381987817"><ele>714.3333333333334</ele><time>2026-04-16T17:31:05Z</time></trkpt><trkpt lat="45.70452274593199" lon="11.28930402602441"><ele>714.0</ele><time>2026-04-16T17:31:06Z</time></trkpt><trkpt lat="45.70446276201995" lon="11.289224899926685"><ele>714.0</ele><time>2026-04-16T17:31:08Z</time></trkpt><trkpt lat="45.70447537285235" lon="11.289081034864898"><ele>714.0</ele><time>2026-04-16T17:31:10Z</time></trkpt><trkpt lat="45.70445464449588" lon="11.288969718666424"><ele>714.0</ele><time>2026-04-16T17:31:11Z</time></trkpt><trkpt lat="45.704414457257585" lon="11.288850769696937"><ele>714.0</ele><time>2026-04-16T17:31:12Z</time></trkpt><trkpt lat="45.7043627018638" lon="11.28876621727605"><ele>714.0</ele><time>2026-04-16T17:31:13Z</time></trkpt><trkpt lat="45.70429016728741" lon="11.288710183624298"><ele>714.0</ele><time>2026-04-16T17:31:14Z</time></trkpt><trkpt lat="45.704230464900405" lon="11.288649151783462"><ele>706.8000000000001</ele><time>2026-04-16T17:31:15Z</time></trkpt><trkpt lat="45.704143162657175" lon="11.28858500598621"><ele>699.6</ele><time>2026-04-16T17:31:16Z</time></trkpt><trkpt lat="45.70403736210616" lon="11.2885493876786"><ele>692.4</ele><time>2026-04-16T17:31:17Z</time></trkpt><trkpt lat="45.70393737054335" lon="11.288532984497836"><ele>685.2</ele><time>2026-04-16T17:31:18Z</time></trkpt><trkpt lat="45.7038517861873" lon="11.28853234641499"><ele>678.0</ele><time>2026-04-16T17:31:19Z</time></trkpt><trkpt lat="45.70376727906104" lon="11.288539163908512"><ele>678.0</ele><time>2026-04-16T17:31:20Z</time></trkpt><trkpt lat="45.70368984690114" lon="11.28856946158922"><ele>678.0</ele><time>2026-04-16T17:31:21Z</time></trkpt><trkpt lat="45.70360760955977" lon="11.288603399170016"><ele>678.0</ele><time>2026-04-16T17:31:22Z</time></trkpt><trkpt lat="45.70353893819748" lon="11.28861715254141"><ele>678.0</ele><time>2026-04-16T17:31:23Z</time></trkpt><trkpt lat="45.703463247289896" lon="11.28858060986118"><ele>678.0</ele><time>2026-04-16T17:31:25Z</time></trkpt><trkpt lat="45.70339468396943" lon="11.288548110953277"><ele>678.0</ele><time>2026-04-16T17:31:26Z</time></trkpt><trkpt lat="45.70330795632927" lon="11.288512889179575"><ele>677.0</ele><time>2026-04-16T17:31:27Z</time></trkpt><trkpt lat="45.70323754219908" lon="11.288488457202922"><ele>676.0</ele><time>2026-04-16T17:31:28Z</time></trkpt><trkpt lat="45.703182449746436" lon="11.288440073837961"><ele>675.0</ele><time>2026-04-16T17:31:29Z</time></trkpt><trkpt lat="45.70308775573398" lon="11.288392730321243"><ele>674.0</ele><time>2026-04-16T17:31:30Z</time></trkpt><trkpt lat="45.702966975991394" lon="11.288342180075006"><ele>673.0</ele><time>2026-04-16T17:31:31Z</time></trkpt><trkpt lat="45.70286983028707" lon="11.288326709218568"><ele>673.0</ele><time>2026-04-16T17:31:32Z</time></trkpt><trkpt lat="45.702766760182335" lon="11.28835420001123"><ele>673.0</ele><time>2026-04-16T17:31:33Z</time></trkpt><trkpt lat="45.702680852718295" lon="11.288380025740551"><ele>673.0</ele><time>2026-04-16T17:31:34Z</time></trkpt><trkpt lat="45.70260030415628" lon="11.288341216528824"><ele>673.0</ele><time>2026-04-16T17:31:38Z</time></trkpt><trkpt lat="45.70265490075995" lon="11.288215529544178"><ele>673.0</ele><time>2026-04-16T17:31:40Z</time></trkpt><trkpt lat="45.702726097660026" lon="11.288150757870707"><ele>669.1666666666667</ele><time>2026-04-16T17:31:43Z</time></trkpt><trkpt lat="45.70277743758545" lon="11.288075421331762"><ele>665.3333333333334</ele><time>2026-04-16T17:31:46Z</time></trkpt><trkpt lat="45.70282900757601" lon="11.28801301263353"><ele>661.5</ele><time>2026-04-16T17:31:49Z</time></trkpt><trkpt lat="45.70290532949747" lon="11.28796088530716"><ele>657.6666666666666</ele><time>2026-04-16T17:31:51Z</time></trkpt><trkpt lat="45.70297085758765" lon="11.287906416154051"><ele>653.8333333333333</ele><time>2026-04-16T17:31:53Z</time></trkpt><trkpt lat="45.70302981233228" lon="11.28781975524543"><ele>650.0</ele><time>2026-04-16T17:31:55Z</time></trkpt><trkpt lat="45.70306617305777" lon="11.287668083638271"><ele>650.0</ele><time>2026-04-16T17:31:57Z</time></trkpt><trkpt lat="45.703108995315176" lon="11.287516552605945"><ele>650.0</ele><time>2026-04-16T17:31:59Z</time></trkpt><trkpt lat="45.703160055487764" lon="11.287336644306615"><ele>650.0</ele><time>2026-04-16T17:32:00.999Z</time></trkpt><trkpt lat="45.70322208842927" lon="11.287210820807216"><ele>650.0</ele><time>2026-04-16T17:32:02.999Z</time></trkpt><trkpt lat="45.703309588448164" lon="11.287165168498985"><ele>646.3333333333333</ele><time>2026-04-16T17:32:04.999Z</time></trkpt><trkpt lat="45.70337679514871" lon="11.287085001969771"><ele>642.6666666666666</ele><time>2026-04-16T17:32:06.999Z</time></trkpt><trkpt lat="45.70343183711315" lon="11.287028134459325"><ele>639.0</ele><time>2026-04-16T17:32:07.999Z</time></trkpt><trkpt lat="45.70355446977612" lon="11.286964670679719"><ele>635.3333333333334</ele><time>2026-04-16T17:32:09.999Z</time></trkpt><trkpt lat="45.703627149034084" lon="11.286943149524355"><ele>631.6666666666667</ele><time>2026-04-16T17:32:10.999Z</time></trkpt><trkpt lat="45.70369107535964" lon="11.28691543477525"><ele>628.0</ele><time>2026-04-16T17:32:11.999Z</time></trkpt><trkpt lat="45.70376718526247" lon="11.286902663123273"><ele>628.0</ele><time>2026-04-16T17:32:12.999Z</time></trkpt><trkpt lat="45.70384640114491" lon="11.286880199880585"><ele>628.0</ele><time>2026-04-16T17:32:14.999Z</time></trkpt><trkpt lat="45.70381350610252" lon="11.286793209902568"><ele>628.0</ele><time>2026-04-16T17:32:16.999Z</time></trkpt><trkpt lat="45.703784010915356" lon="11.286630311124782"><ele>628.0</ele><time>2026-04-16T17:32:18.999Z</time></trkpt><trkpt lat="45.70380819304168" lon="11.286498710985011"><ele>628.0</ele><time>2026-04-16T17:32:19.999Z</time></trkpt><trkpt lat="45.70383473514077" lon="11.286377922204078"><ele>622.1999999999999</ele><time>2026-04-16T17:32:20.999Z</time></trkpt><trkpt lat="45.703859349231095" lon="11.286202914741363"><ele>616.4</ele><time>2026-04-16T17:32:21.999Z</time></trkpt><trkpt lat="45.7038895991576" lon="11.286082648862267"><ele>610.5999999999999</ele><time>2026-04-16T17:32:22.999Z</time></trkpt><trkpt lat="45.70393785512703" lon="11.285988666249972"><ele>604.8</ele><time>2026-04-16T17:32:23.999Z</time></trkpt><trkpt lat="45.704057283977335" lon="11.286032643543399"><ele>599.0</ele><time>2026-04-16T17:32:25.999Z</time></trkpt><trkpt lat="45.70411541012155" lon="11.286119802442073"><ele>599.0</ele><time>2026-04-16T17:32:26.999Z</time></trkpt><trkpt lat="45.70414179553152" lon="11.286248292984345"><ele>599.0</ele><time>2026-04-16T17:32:27.999Z</time></trkpt><trkpt lat="45.70417347186924" lon="11.286397620849252"><ele>599.0</ele><time>2026-04-16T17:32:28.999Z</time></trkpt><trkpt lat="45.704214711014764" lon="11.286471958978359"><ele>599.0</ele><time>2026-04-16T17:32:29.999Z</time></trkpt><trkpt lat="45.70430802127476" lon="11.286504268571953"><ele>599.0</ele><time>2026-04-16T17:32:31.999Z</time></trkpt><trkpt lat="45.7044186273472" lon="11.286397115965045"><ele>599.25</ele><time>2026-04-16T17:32:33.999Z</time></trkpt><trkpt lat="45.704537594869535" lon="11.286264136687155"><ele>599.5</ele><time>2026-04-16T17:32:34.999Z</time></trkpt><trkpt lat="45.70463022108366" lon="11.286144970257046"><ele>599.75</ele><time>2026-04-16T17:32:35.999Z</time></trkpt><trkpt lat="45.70472499198784" lon="11.28607220128962"><ele>600.0</ele><time>2026-04-16T17:32:36.999Z</time></trkpt><trkpt lat="45.70480687466985" lon="11.286003366611533"><ele>600.0</ele><time>2026-04-16T17:32:37.999Z</time></trkpt><trkpt lat="45.704868840158994" lon="11.285911921771463"><ele>600.0</ele><time>2026-04-16T17:32:38.999Z</time></trkpt><trkpt lat="45.70491685508" lon="11.285795363014413"><ele>600.0</ele><time>2026-04-16T17:32:39.999Z</time></trkpt><trkpt lat="45.70494664761915" lon="11.285677162091513"><ele>600.0</ele><time>2026-04-16T17:32:40.999Z</time></trkpt><trkpt lat="45.704933665656796" lon="11.285530128317598"><ele>600.0</ele><time>2026-04-16T17:32:41.999Z</time></trkpt><trkpt lat="45.704959222698996" lon="11.285415835518654"><ele>592.6</ele><time>2026-04-16T17:32:42.999Z</time></trkpt><trkpt lat="45.70505748065915" lon="11.285377916922615"><ele>585.2</ele><time>2026-04-16T17:32:43.999Z</time></trkpt><trkpt lat="45.70512153755052" lon="11.285305398161738"><ele>577.8</ele><time>2026-04-16T17:32:44.999Z</time></trkpt><trkpt lat="45.70520093730001" lon="11.285250515828539"><ele>570.4</ele><time>2026-04-16T17:32:45.999Z</time></trkpt><trkpt lat="45.70528467163842" lon="11.285201772536578"><ele>563.0</ele><time>2026-04-16T17:32:46.999Z</time></trkpt><trkpt lat="45.7053776477731" lon="11.285156310976685"><ele>562.1666666666666</ele><time>2026-04-16T17:32:47.999Z</time></trkpt><trkpt lat="45.705475195118524" lon="11.285124885708152"><ele>561.3333333333333</ele><time>2026-04-16T17:32:48.999Z</time></trkpt><trkpt lat="45.70556303411505" lon="11.285128754027106"><ele>560.5</ele><time>2026-04-16T17:32:49.999Z</time></trkpt><trkpt lat="45.70565476785452" lon="11.285135860117279"><ele>559.6666666666666</ele><time>2026-04-16T17:32:50.999Z</time></trkpt><trkpt lat="45.705746618741564" lon="11.285127153922703"><ele>558.8333333333334</ele><time>2026-04-16T17:32:52Z</time></trkpt><trkpt lat="45.705819235737465" lon="11.285095220632865"><ele>558.0</ele><time>2026-04-16T17:32:53Z</time></trkpt><trkpt lat="45.70587106544389" lon="11.28502073725787"><ele>558.0</ele><time>2026-04-16T17:32:54Z</time></trkpt><trkpt lat="45.705942470608605" lon="11.28500457343732"><ele>558.0</ele><time>2026-04-16T17:32:55Z</time></trkpt><trkpt lat="45.706024557164845" lon="11.284932491583703"><ele>558.0</ele><time>2026-04-16T17:32:57Z</time></trkpt><trkpt lat="45.706135843147536" lon="11.284942511946483"><ele>558.0</ele><time>2026-04-16T17:33:00Z</time></trkpt><trkpt lat="45.70621286642698" lon="11.28495895011758"><ele>558.0</ele><time>2026-04-16T17:33:01Z</time></trkpt><trkpt lat="45.70630878147193" lon="11.284945088710534"><ele>555.0</ele><time>2026-04-16T17:33:02Z</time></trkpt><trkpt lat="45.70640614765833" lon="11.284922419875652"><ele>552.0</ele><time>2026-04-16T17:33:03Z</time></trkpt><trkpt lat="45.706499545130235" lon="11.284942624397182"><ele>549.0</ele><time>2026-04-16T17:33:04Z</time></trkpt><trkpt lat="45.70659304789838" lon="11.284963017032151"><ele>546.0</ele><time>2026-04-16T17:33:05Z</time></trkpt><trkpt lat="45.70667736865186" lon="11.285000099168949"><ele>543.0</ele><time>2026-04-16T17:33:06Z</time></trkpt><trkpt lat="45.7067739111732" lon="11.285038632798912"><ele>543.0</ele><time>2026-04-16T17:33:07Z</time></trkpt><trkpt lat="45.7068749080682" lon="11.285061911251244"><ele>543.0</ele><time>2026-04-16T17:33:08Z</time></trkpt><trkpt lat="45.706994319748794" lon="11.28511878003896"><ele>543.0</ele><time>2026-04-16T17:33:09Z</time></trkpt><trkpt lat="45.70710031262159" lon="11.285172453545844"><ele>543.0</ele><time>2026-04-16T17:33:10Z</time></trkpt><trkpt lat="45.707205197204296" lon="11.285223756338628"><ele>538.75</ele><time>2026-04-16T17:33:11Z</time></trkpt><trkpt lat="45.70731733832795" lon="11.285194822252539"><ele>534.5</ele><time>2026-04-16T17:33:12Z</time></trkpt><trkpt lat="45.70745170442595" lon="11.285168726383544"><ele>530.25</ele><time>2026-04-16T17:33:13Z</time></trkpt><trkpt lat="45.707580417481054" lon="11.285152199848637"><ele>526.0</ele><time>2026-04-16T17:33:14Z</time></trkpt><trkpt lat="45.70768989649706" lon="11.285087803006066"><ele>526.0</ele><time>2026-04-16T17:33:15Z</time></trkpt><trkpt lat="45.70777135307513" lon="11.285025714677785"><ele>526.0</ele><time>2026-04-16T17:33:16Z</time></trkpt><trkpt lat="45.7078443695201" lon="11.284936979960861"><ele>526.0</ele><time>2026-04-16T17:33:17Z</time></trkpt><trkpt lat="45.70791526633953" lon="11.284834615985897"><ele>526.0</ele><time>2026-04-16T17:33:18Z</time></trkpt><trkpt lat="45.70798486046953" lon="11.284726726527657"><ele>526.0</ele><time>2026-04-16T17:33:19Z</time></trkpt><trkpt lat="45.708047028895216" lon="11.284633523878146"><ele>522.0</ele><time>2026-04-16T17:33:20Z</time></trkpt><trkpt lat="45.70811031922762" lon="11.284556119060293"><ele>518.0</ele><time>2026-04-16T17:33:21Z</time></trkpt><trkpt lat="45.70822238833135" lon="11.284495742791421"><ele>514.0</ele><time>2026-04-16T17:33:23Z</time></trkpt><trkpt lat="45.7083108940596" lon="11.284453579534441"><ele>510.0</ele><time>2026-04-16T17:33:24Z</time></trkpt><trkpt lat="45.708384714353954" lon="11.284427321405012"><ele>506.00000000000006</ele><time>2026-04-16T17:33:25Z</time></trkpt><trkpt lat="45.70845945127591" lon="11.284414034387694"><ele>502.0</ele><time>2026-04-16T17:33:26Z</time></trkpt><trkpt lat="45.70857407072358" lon="11.284404747492358"><ele>502.0</ele><time>2026-04-16T17:33:28Z</time></trkpt><trkpt lat="45.7086462169967" lon="11.284408449057572"><ele>502.00000000000006</ele><time>2026-04-16T17:33:30Z</time></trkpt><trkpt lat="45.708642224184985" lon="11.284260688692164"><ele>502.00000000000006</ele><time>2026-04-16T17:33:41Z</time></trkpt><trkpt lat="45.70848915440631" lon="11.28429437596331"><ele>502.0</ele><time>2026-04-16T17:33:43Z</time></trkpt><trkpt lat="45.70838173607783" lon="11.284283627116313"><ele>502.0</ele><time>2026-04-16T17:33:44Z</time></trkpt><trkpt lat="45.708276220929996" lon="11.284222625405882"><ele>502.0</ele><time>2026-04-16T17:33:45Z</time></trkpt><trkpt lat="45.70817350405435" lon="11.284154730214693"><ele>502.00000000000006</ele><time>2026-04-16T17:33:46Z</time></trkpt><trkpt lat="45.70807088014958" lon="11.284120024104578"><ele>502.00000000000006</ele><time>2026-04-16T17:33:47Z</time></trkpt><trkpt lat="45.70798505822309" lon="11.284112309230554"><ele>502.0</ele><time>2026-04-16T17:33:48Z</time></trkpt><trkpt lat="45.70787502696411" lon="11.28409620312037"><ele>502.0</ele><time>2026-04-16T17:33:49Z</time></trkpt><trkpt lat="45.707748558263674" lon="11.284114017086429"><ele>501.8</ele><time>2026-04-16T17:33:50Z</time></trkpt><trkpt lat="45.707623751028216" lon="11.284134208122598"><ele>501.6</ele><time>2026-04-16T17:33:51Z</time></trkpt><trkpt lat="45.707506602438364" lon="11.284143257732568"><ele>501.40000000000003</ele><time>2026-04-16T17:33:52Z</time></trkpt><trkpt lat="45.707405407191" lon="11.284117379941291"><ele>501.20000000000005</ele><time>2026-04-16T17:33:53Z</time></trkpt><trkpt lat="45.70731832934774" lon="11.284076998264002"><ele>501.0</ele><time>2026-04-16T17:33:54Z</time></trkpt><trkpt lat="45.7072372635324" lon="11.284010697377346"><ele>501.6666666666667</ele><time>2026-04-16T17:33:55Z</time></trkpt><trkpt lat="45.70717098084247" lon="11.283893925916818"><ele>502.33333333333337</ele><time>2026-04-16T17:33:56Z</time></trkpt><trkpt lat="45.7070966913533" lon="11.28382711474706"><ele>503.0</ele><time>2026-04-16T17:33:57Z</time></trkpt><trkpt lat="45.7070357143253" lon="11.283779911342808"><ele>503.6666666666667</ele><time>2026-04-16T17:33:58Z</time></trkpt><trkpt lat="45.70696214728509" lon="11.283772629801234"><ele>504.33333333333337</ele><time>2026-04-16T17:33:59Z</time></trkpt><trkpt lat="45.70689423341203" lon="11.283743178487818"><ele>505.0</ele><time>2026-04-16T17:34:00Z</time></trkpt><trkpt lat="45.706829048416175" lon="11.283742093086055"><ele>505.0</ele><time>2026-04-16T17:34:01Z</time></trkpt><trkpt lat="45.7066721737709" lon="11.28379915155195"><ele>505.0</ele><time>2026-04-16T17:34:03Z</time></trkpt><trkpt lat="45.70660343967962" lon="11.283817808583267"><ele>505.0</ele><time>2026-04-16T17:34:04Z</time></trkpt><trkpt lat="45.706494373812234" lon="11.2838309118888"><ele>505.0</ele><time>2026-04-16T17:34:05.999Z</time></trkpt><trkpt lat="45.70641366116455" lon="11.283766396525337"><ele>505.0</ele><time>2026-04-16T17:34:07.999Z</time></trkpt><trkpt lat="45.70657122965247" lon="11.283668771431989"><ele>505.0</ele><time>2026-04-16T17:34:14.999Z</time></trkpt><trkpt lat="45.7066514666071" lon="11.283561748086216"><ele>505.0</ele><time>2026-04-16T17:34:17.999Z</time></trkpt><trkpt lat="45.70673251414538" lon="11.283625438835104"><ele>505.0</ele><time>2026-04-16T17:34:25.999Z</time></trkpt><trkpt lat="45.706785536960034" lon="11.283574677091009"><ele>505.0</ele><time>2026-04-16T17:34:31.999Z</time></trkpt><trkpt lat="45.70688241350827" lon="11.283447986040363"><ele>505.0</ele><time>2026-04-16T17:34:33.999Z</time></trkpt><trkpt lat="45.706941356577474" lon="11.283398499603607"><ele>502.6666666666667</ele><time>2026-04-16T17:34:34.999Z</time></trkpt><trkpt lat="45.70699964359286" lon="11.2833325393777"><ele>500.33333333333337</ele><time>2026-04-16T17:34:36.999Z</time></trkpt><trkpt lat="45.70705400512527" lon="11.283260165786974"><ele>498.0</ele><time>2026-04-16T17:34:44.999Z</time></trkpt><trkpt lat="45.707125068209784" lon="11.28325254379174"><ele>495.66666666666663</ele><time>2026-04-16T17:34:47.999Z</time></trkpt><trkpt lat="45.707197110697024" lon="11.283217002546"><ele>493.3333333333333</ele><time>2026-04-16T17:34:53.999Z</time></trkpt><trkpt lat="45.70728203368096" lon="11.283164053045803"><ele>491.0</ele><time>2026-04-16T17:34:55.999Z</time></trkpt><trkpt lat="45.70737618835328" lon="11.28311325258"><ele>492.0</ele><time>2026-04-16T17:34:58Z</time></trkpt><trkpt lat="45.707416401652594" lon="11.283042534339781"><ele>492.99999999999994</ele><time>2026-04-16T17:34:59Z</time></trkpt><trkpt lat="45.707476491337495" lon="11.282962618326902"><ele>494.0</ele><time>2026-04-16T17:35:01Z</time></trkpt><trkpt lat="45.7075095996777" lon="11.282866447449809"><ele>495.0</ele><time>2026-04-16T17:35:26Z</time></trkpt><trkpt lat="45.70756072942906" lon="11.282803679731074"><ele>495.99999999999994</ele><time>2026-04-16T17:35:51Z</time></trkpt><trkpt lat="45.70763059167124" lon="11.282790137380141"><ele>497.0</ele><time>2026-04-16T17:36:37.999Z</time></trkpt><trkpt lat="45.70756880710005" lon="11.282767316315043"><ele>498.0</ele><time>2026-04-16T17:37:30Z</time></trkpt><trkpt lat="45.70751154982248" lon="11.282722239856042"><ele>498.0</ele><time>2026-04-16T17:37:36Z</time></trkpt><trkpt lat="45.707510394691354" lon="11.282606543275387"><ele>497.99999999999994</ele><time>2026-04-16T17:38:32.999Z</time></trkpt><trkpt lat="45.70746948133296" lon="11.282702817946074"><ele>498.0</ele><time>2026-04-16T17:39:10Z</time></trkpt><trkpt lat="45.70752234346286" lon="11.282761772110792"><ele>498.0</ele><time>2026-04-16T17:39:23Z</time></trkpt><trkpt lat="45.70750329871221" lon="11.282864150463665"><ele>497.99999999999994</ele><time>2026-04-16T17:39:37Z</time></trkpt><trkpt lat="45.70746275849517" lon="11.282941286071567"><ele>498.0</ele><time>2026-04-16T17:39:41Z</time></trkpt><trkpt lat="45.70742171124754" lon="11.283023866211437"><ele>498.0</ele><time>2026-04-16T17:39:43Z</time></trkpt><trkpt lat="45.70738453809904" lon="11.283100568587834"><ele>496.8333333333333</ele><time>2026-04-16T17:40:19Z</time></trkpt><trkpt lat="45.70732734999227" lon="11.283151645781565"><ele>495.66666666666663</ele><time>2026-04-16T17:40:21Z</time></trkpt><trkpt lat="45.70724330990148" lon="11.283171669985988"><ele>494.5</ele><time>2026-04-16T17:40:23Z</time></trkpt><trkpt lat="45.707144837248286" lon="11.283167328705323"><ele>493.3333333333333</ele><time>2026-04-16T17:40:25Z</time></trkpt><trkpt lat="45.70710106474449" lon="11.28323362758396"><ele>492.16666666666663</ele><time>2026-04-16T17:40:27.999Z</time></trkpt><trkpt lat="45.70703919744216" lon="11.28329278229273"><ele>491.0</ele><time>2026-04-16T17:40:37.999Z</time></trkpt><trkpt lat="45.7069827166211" lon="11.283348349812206"><ele>493.3333333333333</ele><time>2026-04-16T17:40:39.999Z</time></trkpt><trkpt lat="45.706900306063126" lon="11.28342043384974"><ele>495.66666666666663</ele><time>2026-04-16T17:40:41.999Z</time></trkpt><trkpt lat="45.70683899973241" lon="11.283521662957181"><ele>498.0</ele><time>2026-04-16T17:40:43.999Z</time></trkpt><trkpt lat="45.70677806150712" lon="11.283554555399608"><ele>500.33333333333337</ele><time>2026-04-16T17:40:44.999Z</time></trkpt><trkpt lat="45.70671549051176" lon="11.283589210995668"><ele>502.6666666666667</ele><time>2026-04-16T17:40:45.999Z</time></trkpt><trkpt lat="45.70665828960282" lon="11.283638210418294"><ele>505.0</ele><time>2026-04-16T17:40:46.999Z</time></trkpt><trkpt lat="45.706652239511705" lon="11.283533952698606"><ele>505.0</ele><time>2026-04-16T17:41:05.999Z</time></trkpt><trkpt lat="45.706716965529395" lon="11.283359794462239"><ele>505.0</ele><time>2026-04-16T17:41:07.999Z</time></trkpt><trkpt lat="45.706735770810695" lon="11.283229055001582"><ele>505.0</ele><time>2026-04-16T17:41:08.999Z</time></trkpt><trkpt lat="45.70679067453466" lon="11.283092249797031"><ele>505.0</ele><time>2026-04-16T17:41:09.999Z</time></trkpt><trkpt lat="45.70684812438595" lon="11.28298150950757"><ele>505.0</ele><time>2026-04-16T17:41:10.999Z</time></trkpt><trkpt lat="45.70689323523559" lon="11.282866005903818"><ele>503.6</ele><time>2026-04-16T17:41:11.999Z</time></trkpt><trkpt lat="45.706927068067536" lon="11.282747494245141"><ele>502.2</ele><time>2026-04-16T17:41:12.999Z</time></trkpt><trkpt lat="45.70697755310428" lon="11.282604040303235"><ele>500.79999999999995</ele><time>2026-04-16T17:41:13.999Z</time></trkpt><trkpt lat="45.70701992206245" lon="11.282457169301965"><ele>499.4</ele><time>2026-04-16T17:41:15.001Z</time></trkpt><trkpt lat="45.70707709360034" lon="11.282367165139384"><ele>498.0</ele><time>2026-04-16T17:41:16.001Z</time></trkpt><trkpt lat="45.70715424340389" lon="11.28227520637011"><ele>500.2</ele><time>2026-04-16T17:41:18.001Z</time></trkpt><trkpt lat="45.707258868203674" lon="11.2821329334488"><ele>502.4</ele><time>2026-04-16T17:41:20.001Z</time></trkpt><trkpt lat="45.707321964469074" lon="11.282016168555302"><ele>504.59999999999997</ele><time>2026-04-16T17:41:21.001Z</time></trkpt><trkpt lat="45.70737303322628" lon="11.281912911492599"><ele>506.79999999999995</ele><time>2026-04-16T17:41:22.001Z</time></trkpt><trkpt lat="45.70738991574336" lon="11.281815966459494"><ele>509.0</ele><time>2026-04-16T17:41:23.001Z</time></trkpt><trkpt lat="45.70735613566745" lon="11.281738014189775"><ele>509.0</ele><time>2026-04-16T17:41:25.001Z</time></trkpt><trkpt lat="45.707334856820815" lon="11.281648091208949"><ele>509.0</ele><time>2026-04-16T17:41:26.001Z</time></trkpt><trkpt lat="45.70727084200604" lon="11.281504500760867"><ele>509.0</ele><time>2026-04-16T17:41:27.001Z</time></trkpt><trkpt lat="45.70720737684723" lon="11.281312006835547"><ele>509.0</ele><time>2026-04-16T17:41:28.001Z</time></trkpt><trkpt lat="45.70713756655929" lon="11.281136512436676"><ele>511.0</ele><time>2026-04-16T17:41:29.001Z</time></trkpt><trkpt lat="45.7070657582753" lon="11.280901915330466"><ele>513.0</ele><time>2026-04-16T17:41:30.001Z</time></trkpt><trkpt lat="45.70700250177605" lon="11.280740312021711"><ele>515.0</ele><time>2026-04-16T17:41:31.001Z</time></trkpt><trkpt lat="45.706994140517395" lon="11.280578102178632"><ele>517.0</ele><time>2026-04-16T17:41:32Z</time></trkpt><trkpt lat="45.70699864346666" lon="11.280455106335378"><ele>519.4</ele><time>2026-04-16T17:41:33Z</time></trkpt><trkpt lat="45.707045094895406" lon="11.280275953627703"><ele>521.8000000000001</ele><time>2026-04-16T17:41:35Z</time></trkpt><trkpt lat="45.70714008655128" lon="11.280220394156593"><ele>524.2</ele><time>2026-04-16T17:41:37Z</time></trkpt><trkpt lat="45.70723761403483" lon="11.280207039717988"><ele>526.6</ele><time>2026-04-16T17:41:40Z</time></trkpt><trkpt lat="45.707310519242206" lon="11.280187556124286"><ele>529.0</ele><time>2026-04-16T17:41:41Z</time></trkpt><trkpt lat="45.707410502559796" lon="11.280136328779369"><ele>529.0</ele><time>2026-04-16T17:41:42Z</time></trkpt><trkpt lat="45.707483223092204" lon="11.280050074707049"><ele>529.0</ele><time>2026-04-16T17:41:43Z</time></trkpt><trkpt lat="45.70754657848152" lon="11.279941298042372"><ele>529.0</ele><time>2026-04-16T17:41:44Z</time></trkpt><trkpt lat="45.707590148584266" lon="11.27986391294754"><ele>529.0</ele><time>2026-04-16T17:41:45Z</time></trkpt><trkpt lat="45.70757830030346" lon="11.279700384394634"><ele>529.0</ele><time>2026-04-16T17:41:47Z</time></trkpt><trkpt lat="45.7075830376336" lon="11.279587007844196"><ele>529.6666666666667</ele><time>2026-04-16T17:41:48Z</time></trkpt><trkpt lat="45.70761002122608" lon="11.279478960258919"><ele>530.3333333333334</ele><time>2026-04-16T17:41:49Z</time></trkpt><trkpt lat="45.70769207189386" lon="11.279338076887374"><ele>531.0</ele><time>2026-04-16T17:41:51Z</time></trkpt><trkpt lat="45.70771939690042" lon="11.279256004194716"><ele>531.6666666666666</ele><time>2026-04-16T17:41:52Z</time></trkpt><trkpt lat="45.70771236886822" lon="11.279161304296462"><ele>532.3333333333333</ele><time>2026-04-16T17:41:53Z</time></trkpt><trkpt lat="45.707702914588175" lon="11.279028871500177"><ele>533.0</ele><time>2026-04-16T17:41:54Z</time></trkpt><trkpt lat="45.70762037703097" lon="11.278922599502167"><ele>533.0</ele><time>2026-04-16T17:41:55Z</time></trkpt><trkpt lat="45.70755475572488" lon="11.278829040196923"><ele>533.0</ele><time>2026-04-16T17:41:56Z</time></trkpt><trkpt lat="45.70747326638002" lon="11.27872628051625"><ele>533.0</ele><time>2026-04-16T17:41:57Z</time></trkpt><trkpt lat="45.70739767873883" lon="11.2786438394587"><ele>533.0</ele><time>2026-04-16T17:41:58Z</time></trkpt><trkpt lat="45.707303004138836" lon="11.278612321143132"><ele>533.0</ele><time>2026-04-16T17:41:59Z</time></trkpt><trkpt lat="45.70720080286914" lon="11.278575852128965"><ele>533.0</ele><time>2026-04-16T17:42:00Z</time></trkpt><trkpt lat="45.70708485556962" lon="11.278544189473665"><ele>533.0</ele><time>2026-04-16T17:42:01Z</time></trkpt><trkpt lat="45.70701128689547" lon="11.27848860270004"><ele>533.0</ele><time>2026-04-16T17:42:02Z</time></trkpt><trkpt lat="45.70691584242864" lon="11.278514299405499"><ele>533.0</ele><time>2026-04-16T17:42:04Z</time></trkpt><trkpt lat="45.7068603844858" lon="11.278644311500898"><ele>533.0</ele><time>2026-04-16T17:42:06Z</time></trkpt><trkpt lat="45.70681110208266" lon="11.27871362259724"><ele>535.6666666666666</ele><time>2026-04-16T17:42:07Z</time></trkpt><trkpt lat="45.70675159682773" lon="11.278800485016603"><ele>538.3333333333333</ele><time>2026-04-16T17:42:08Z</time></trkpt><trkpt lat="45.70669091934559" lon="11.278894704088477"><ele>541.0</ele><time>2026-04-16T17:42:09Z</time></trkpt><trkpt lat="45.70661450959703" lon="11.27899790582217"><ele>543.6666666666666</ele><time>2026-04-16T17:42:10Z</time></trkpt><trkpt lat="45.70655862464264" lon="11.279047971311442"><ele>546.3333333333334</ele><time>2026-04-16T17:42:11Z</time></trkpt><trkpt lat="45.70648264004818" lon="11.279081087461128"><ele>549.0</ele><time>2026-04-16T17:42:13Z</time></trkpt><trkpt lat="45.70637364690546" lon="11.279036761860878"><ele>549.0</ele><time>2026-04-16T17:42:15Z</time></trkpt><trkpt lat="45.7062919739886" lon="11.278986225295434"><ele>549.0</ele><time>2026-04-16T17:42:18Z</time></trkpt><trkpt lat="45.706235819053816" lon="11.278929304122046"><ele>549.0</ele><time>2026-04-16T17:42:19Z</time></trkpt><trkpt lat="45.706159408143584" lon="11.279066850322952"><ele>549.0</ele><time>2026-04-16T17:42:21Z</time></trkpt><trkpt lat="45.70609394858219" lon="11.279085212339178"><ele>549.0</ele><time>2026-04-16T17:42:22Z</time></trkpt><trkpt lat="45.706025613019094" lon="11.279093984468728"><ele>549.0</ele><time>2026-04-16T17:42:23Z</time></trkpt><trkpt lat="45.70587632616453" lon="11.278565281162534"><ele>554.2</ele><time>2026-04-16T17:42:24Z</time></trkpt><trkpt lat="45.7058014709242" lon="11.278471839592532"><ele>559.4</ele><time>2026-04-16T17:42:25Z</time></trkpt><trkpt lat="45.70573720165345" lon="11.278388387496188"><ele>564.6</ele><time>2026-04-16T17:42:26Z</time></trkpt><trkpt lat="45.70566056479734" lon="11.278344337563123"><ele>569.8</ele><time>2026-04-16T17:42:28Z</time></trkpt><trkpt lat="45.70556075411812" lon="11.278320555517771"><ele>575.0</ele><time>2026-04-16T17:42:32.999Z</time></trkpt><trkpt lat="45.70549256301817" lon="11.27823149893209"><ele>578.6</ele><time>2026-04-16T17:42:34.999Z</time></trkpt><trkpt lat="45.70546455127816" lon="11.278059044290712"><ele>582.2</ele><time>2026-04-16T17:42:36.999Z</time></trkpt><trkpt lat="45.7054648611938" lon="11.277938207544244"><ele>585.8</ele><time>2026-04-16T17:42:37.999Z</time></trkpt><trkpt lat="45.70545733622938" lon="11.277815613154303"><ele>589.4</ele><time>2026-04-16T17:42:38.999Z</time></trkpt><trkpt lat="45.70545635206561" lon="11.27768996494359"><ele>593.0</ele><time>2026-04-16T17:42:40.999Z</time></trkpt><trkpt lat="45.70551097877796" lon="11.277628355963941"><ele>593.0</ele><time>2026-04-16T17:42:42.999Z</time></trkpt><trkpt lat="45.705523333101105" lon="11.27752337542391"><ele>593.0</ele><time>2026-04-16T17:42:44.999Z</time></trkpt><trkpt lat="45.70560393045727" lon="11.277409408845518"><ele>593.0</ele><time>2026-04-16T17:42:46.999Z</time></trkpt><trkpt lat="45.7056650648673" lon="11.2772337520916"><ele>593.0</ele><time>2026-04-16T17:42:48.999Z</time></trkpt><trkpt lat="45.705695105896005" lon="11.277128713393802"><ele>593.0</ele><time>2026-04-16T17:42:49.999Z</time></trkpt><trkpt lat="45.70571975358845" lon="11.277045440640027"><ele>594.8</ele><time>2026-04-16T17:42:50.999Z</time></trkpt><trkpt lat="45.705738401728055" lon="11.2769401773884"><ele>596.5999999999999</ele><time>2026-04-16T17:42:52.999Z</time></trkpt><trkpt lat="45.705813468761214" lon="11.276764255149784"><ele>598.4000000000001</ele><time>2026-04-16T17:42:54.999Z</time></trkpt><trkpt lat="45.705864569767265" lon="11.27667637299061"><ele>600.2</ele><time>2026-04-16T17:42:55.999Z</time></trkpt><trkpt lat="45.70584622860803" lon="11.27657198779638"><ele>602.0</ele><time>2026-04-16T17:42:57.999Z</time></trkpt><trkpt lat="45.70573366414001" lon="11.276491161617809"><ele>601.1666666666666</ele><time>2026-04-16T17:42:59.999Z</time></trkpt><trkpt lat="45.70565221342243" lon="11.276386637316186"><ele>600.3333333333333</ele><time>2026-04-16T17:43:01.999Z</time></trkpt><trkpt lat="45.70560858346725" lon="11.276298030201493"><ele>599.5</ele><time>2026-04-16T17:43:02.999Z</time></trkpt><trkpt lat="45.70556485598614" lon="11.27621762042858"><ele>598.6666666666666</ele><time>2026-04-16T17:43:03.999Z</time></trkpt><trkpt lat="45.705500470810605" lon="11.276173396968295"><ele>597.8333333333334</ele><time>2026-04-16T17:43:04.999Z</time></trkpt><trkpt lat="45.70542315293543" lon="11.276111249119996"><ele>597.0</ele><time>2026-04-16T17:43:05.999Z</time></trkpt><trkpt lat="45.705358442638236" lon="11.276038458288609"><ele>597.0</ele><time>2026-04-16T17:43:06.999Z</time></trkpt><trkpt lat="45.70529349923827" lon="11.275979603328578"><ele>597.0</ele><time>2026-04-16T17:43:07.999Z</time></trkpt><trkpt lat="45.7052245909624" lon="11.275934284038874"><ele>597.0</ele><time>2026-04-16T17:43:08.999Z</time></trkpt><trkpt lat="45.70517110697329" lon="11.275855700130561"><ele>597.0</ele><time>2026-04-16T17:43:09.999Z</time></trkpt><trkpt lat="45.70512771344828" lon="11.27574843621085"><ele>597.0</ele><time>2026-04-16T17:43:10.999Z</time></trkpt><trkpt lat="45.705054434232785" lon="11.275605696168922"><ele>597.0</ele><time>2026-04-16T17:43:11.999Z</time></trkpt><trkpt lat="45.70497404693224" lon="11.275503858586578"><ele>599.3333333333334</ele><time>2026-04-16T17:43:12.999Z</time></trkpt><trkpt lat="45.70489911175218" lon="11.275421040160696"><ele>601.6666666666666</ele><time>2026-04-16T17:43:13.999Z</time></trkpt><trkpt lat="45.70483310470257" lon="11.275362379089442"><ele>604.0</ele><time>2026-04-16T17:43:14.999Z</time></trkpt><trkpt lat="45.7047679611614" lon="11.275330510651914"><ele>606.3333333333333</ele><time>2026-04-16T17:43:15.999Z</time></trkpt><trkpt lat="45.704681716059504" lon="11.27529312993812"><ele>608.6666666666666</ele><time>2026-04-16T17:43:16.999Z</time></trkpt><trkpt lat="45.704602408371336" lon="11.275268637161481"><ele>611.0</ele><time>2026-04-16T17:43:17.999Z</time></trkpt><trkpt lat="45.704507354305285" lon="11.27525693002701"><ele>611.0</ele><time>2026-04-16T17:43:18.999Z</time></trkpt><trkpt lat="45.704426408347146" lon="11.275214651872412"><ele>611.0</ele><time>2026-04-16T17:43:20.001Z</time></trkpt><trkpt lat="45.7043666717458" lon="11.27515228231006"><ele>611.0</ele><time>2026-04-16T17:43:21.001Z</time></trkpt><trkpt lat="45.704323501554775" lon="11.275079334939617"><ele>611.0</ele><time>2026-04-16T17:43:28.001Z</time></trkpt><trkpt lat="45.704266563767455" lon="11.275028198317301"><ele>611.0</ele><time>2026-04-16T17:43:42Z</time></trkpt><trkpt lat="45.7042194005215" lon="11.27492991967209"><ele>611.0</ele><time>2026-04-16T17:44:13Z</time></trkpt><trkpt lat="45.704204009551745" lon="11.274818752702853"><ele>613.5</ele><time>2026-04-16T17:44:47.999Z</time></trkpt><trkpt lat="45.704200513517875" lon="11.274703194511547"><ele>616.0</ele><time>2026-04-16T17:44:49.999Z</time></trkpt><trkpt lat="45.7041701843001" lon="11.274612629754559"><ele>618.5</ele><time>2026-04-16T17:44:51.999Z</time></trkpt><trkpt lat="45.704113675494476" lon="11.274687925781185"><ele>621.0</ele><time>2026-04-16T17:44:56.999Z</time></trkpt><trkpt lat="45.70409661056649" lon="11.274804241976248"><ele>623.5</ele><time>2026-04-16T17:44:59.999Z</time></trkpt><trkpt lat="45.70403366915729" lon="11.274885859834967"><ele>626.0</ele><time>2026-04-16T17:45:01.999Z</time></trkpt><trkpt lat="45.70397010541379" lon="11.27488507389499"><ele>626.0</ele><time>2026-04-16T17:45:04.999Z</time></trkpt><trkpt lat="45.703926790507786" lon="11.27480582672873"><ele>626.0</ele><time>2026-04-16T17:45:06.999Z</time></trkpt><trkpt lat="45.70387604327293" lon="11.274706148621435"><ele>626.0</ele><time>2026-04-16T17:45:08.999Z</time></trkpt><trkpt lat="45.703818740223724" lon="11.274583043510619"><ele>626.0</ele><time>2026-04-16T17:45:10.999Z</time></trkpt><trkpt lat="45.703709172406775" lon="11.274535640911305"><ele>626.0</ele><time>2026-04-16T17:45:11.999Z</time></trkpt><trkpt lat="45.70366406715165" lon="11.27463329180224"><ele>629.0</ele><time>2026-04-16T17:45:15.999Z</time></trkpt><trkpt lat="45.70364719341928" lon="11.27478643010926"><ele>632.0</ele><time>2026-04-16T17:45:17.999Z</time></trkpt><trkpt lat="45.703649172606085" lon="11.274907485998394"><ele>635.0</ele><time>2026-04-16T17:45:19.999Z</time></trkpt><trkpt lat="45.70362086370825" lon="11.274990796792546"><ele>638.0</ele><time>2026-04-16T17:45:22.999Z</time></trkpt><trkpt lat="45.70357041747063" lon="11.274905980097293"><ele>641.0</ele><time>2026-04-16T17:45:58Z</time></trkpt><trkpt lat="45.703524768462046" lon="11.274787565350232"><ele>644.0</ele><time>2026-04-16T17:47:02.999Z</time></trkpt><trkpt lat="45.70347317794048" lon="11.27463506163635"><ele>648.2</ele><time>2026-04-16T17:47:04.999Z</time></trkpt><trkpt lat="45.703440211388845" lon="11.274534820930425"><ele>652.4000000000001</ele><time>2026-04-16T17:47:05.999Z</time></trkpt><trkpt lat="45.703396889503075" lon="11.274408111729834"><ele>656.6</ele><time>2026-04-16T17:47:07.999Z</time></trkpt><trkpt lat="45.70328960520574" lon="11.274386989414062"><ele>660.8</ele><time>2026-04-16T17:47:09.999Z</time></trkpt><trkpt lat="45.703225893648934" lon="11.274377893496466"><ele>665.0</ele><time>2026-04-16T17:47:10.999Z</time></trkpt><trkpt lat="45.70312738041207" lon="11.27432863727042"><ele>665.0</ele><time>2026-04-16T17:47:11.999Z</time></trkpt><trkpt lat="45.70305401233821" lon="11.27426957492052"><ele>665.0</ele><time>2026-04-16T17:47:12.999Z</time></trkpt><trkpt lat="45.70300533860699" lon="11.274203761302328"><ele>665.0</ele><time>2026-04-16T17:47:13.999Z</time></trkpt><trkpt lat="45.70292499073385" lon="11.274048913077985"><ele>665.0</ele><time>2026-04-16T17:47:15.999Z</time></trkpt><trkpt lat="45.70286089902987" lon="11.273950561836562"><ele>665.0</ele><time>2026-04-16T17:47:16.999Z</time></trkpt><trkpt lat="45.70278719337304" lon="11.273901127437178"><ele>668.2</ele><time>2026-04-16T17:47:17.999Z</time></trkpt><trkpt lat="45.702685200885" lon="11.27383677892854"><ele>671.4</ele><time>2026-04-16T17:47:19.999Z</time></trkpt><trkpt lat="45.70260967630352" lon="11.27374439251001"><ele>674.5999999999999</ele><time>2026-04-16T17:47:20.999Z</time></trkpt><trkpt lat="45.702532818827926" lon="11.2736823978177"><ele>677.8</ele><time>2026-04-16T17:47:21.999Z</time></trkpt><trkpt lat="45.70239669234026" lon="11.273748254517853"><ele>681.0</ele><time>2026-04-16T17:47:22.999Z</time></trkpt><trkpt lat="45.70232896049734" lon="11.273679647795898"><ele>681.0</ele><time>2026-04-16T17:47:23.999Z</time></trkpt><trkpt lat="45.70220018127748" lon="11.273531785182891"><ele>681.0</ele><time>2026-04-16T17:47:25.999Z</time></trkpt><trkpt lat="45.70213421443171" lon="11.273385059040365"><ele>681.0</ele><time>2026-04-16T17:47:26.999Z</time></trkpt><trkpt lat="45.70211641859844" lon="11.273287184239832"><ele>681.0</ele><time>2026-04-16T17:47:27.999Z</time></trkpt><trkpt lat="45.70210943572926" lon="11.273128574195066"><ele>678.6666666666666</ele><time>2026-04-16T17:47:28.999Z</time></trkpt><trkpt lat="45.70210299650003" lon="11.273023830386657"><ele>676.3333333333334</ele><time>2026-04-16T17:47:29.999Z</time></trkpt><trkpt lat="45.70222398742254" lon="11.272929287598405"><ele>674.0</ele><time>2026-04-16T17:47:30.999Z</time></trkpt><trkpt lat="45.70221390769134" lon="11.272816327161804"><ele>671.6666666666667</ele><time>2026-04-16T17:47:33Z</time></trkpt><trkpt lat="45.70215347136548" lon="11.272863539287677"><ele>669.3333333333334</ele><time>2026-04-16T17:47:35Z</time></trkpt><trkpt lat="45.70215755257191" lon="11.272760247815025"><ele>667.0</ele><time>2026-04-16T17:49:53Z</time></trkpt><trkpt lat="45.70213288271168" lon="11.27264155036403"><ele>667.0</ele><time>2026-04-16T17:49:55Z</time></trkpt><trkpt lat="45.70205124143286" lon="11.272570339870574"><ele>667.0</ele><time>2026-04-16T17:49:56Z</time></trkpt><trkpt lat="45.701969412610445" lon="11.272476132861689"><ele>667.0</ele><time>2026-04-16T17:49:57Z</time></trkpt><trkpt lat="45.7019027098136" lon="11.272345519851163"><ele>667.0</ele><time>2026-04-16T17:49:58Z</time></trkpt><trkpt lat="45.70188183464452" lon="11.272169689257039"><ele>667.0</ele><time>2026-04-16T17:49:59Z</time></trkpt><trkpt lat="45.70182165066746" lon="11.27198738801672"><ele>669.0</ele><time>2026-04-16T17:50:00Z</time></trkpt><trkpt lat="45.70179036794404" lon="11.271795832268724"><ele>671.0</ele><time>2026-04-16T17:50:01Z</time></trkpt><trkpt lat="45.701762000708165" lon="11.271624634460188"><ele>673.0</ele><time>2026-04-16T17:50:02Z</time></trkpt><trkpt lat="45.70170484294691" lon="11.27146402858506"><ele>675.0</ele><time>2026-04-16T17:50:04Z</time></trkpt><trkpt lat="45.70165738477664" lon="11.27137941477454"><ele>675.0</ele><time>2026-04-16T17:50:05Z</time></trkpt><trkpt lat="45.70160280650571" lon="11.271283752678135"><ele>675.0</ele><time>2026-04-16T17:50:06Z</time></trkpt><trkpt lat="45.70155545236263" lon="11.271200752343224"><ele>675.0</ele><time>2026-04-16T17:50:07Z</time></trkpt><trkpt lat="45.70150459556149" lon="11.271111612657439"><ele>675.0</ele><time>2026-04-16T17:50:08Z</time></trkpt><trkpt lat="45.70142325333209" lon="11.270963823080457"><ele>675.0</ele><time>2026-04-16T17:50:09Z</time></trkpt><trkpt lat="45.7013624533019" lon="11.270847059212366"><ele>675.0</ele><time>2026-04-16T17:50:10Z</time></trkpt><trkpt lat="45.701313002656555" lon="11.270757245570456"><ele>675.0</ele><time>2026-04-16T17:50:11Z</time></trkpt><trkpt lat="45.701217244427845" lon="11.270619676727591"><ele>675.0</ele><time>2026-04-16T17:50:13Z</time></trkpt><trkpt lat="45.70111801536466" lon="11.270533924939405"><ele>675.0</ele><time>2026-04-16T17:50:14Z</time></trkpt><trkpt lat="45.70100821532971" lon="11.270459091981932"><ele>679.6</ele><time>2026-04-16T17:50:15Z</time></trkpt><trkpt lat="45.700932921427494" lon="11.270394222854032"><ele>684.2</ele><time>2026-04-16T17:50:16Z</time></trkpt><trkpt lat="45.70085564540556" lon="11.270337204855597"><ele>688.8</ele><time>2026-04-16T17:50:17Z</time></trkpt><trkpt lat="45.70080887072679" lon="11.270238297913613"><ele>693.4</ele><time>2026-04-16T17:50:18Z</time></trkpt><trkpt lat="45.70078726775165" lon="11.27009123696867"><ele>698.0</ele><time>2026-04-16T17:50:19Z</time></trkpt><trkpt lat="45.70075381569761" lon="11.26993125890479"><ele>696.2</ele><time>2026-04-16T17:50:20Z</time></trkpt><trkpt lat="45.70068350959786" lon="11.26976000821065"><ele>694.4</ele><time>2026-04-16T17:50:21Z</time></trkpt><trkpt lat="45.70062380977243" lon="11.269607324536878"><ele>692.6</ele><time>2026-04-16T17:50:22Z</time></trkpt><trkpt lat="45.70058285260704" lon="11.269479470933037"><ele>690.8000000000001</ele><time>2026-04-16T17:50:23Z</time></trkpt><trkpt lat="45.70053647915521" lon="11.269390594903665"><ele>689.0</ele><time>2026-04-16T17:50:24Z</time></trkpt><trkpt lat="45.70049289309612" lon="11.269297214923036"><ele>689.0</ele><time>2026-04-16T17:50:25Z</time></trkpt><trkpt lat="45.70047770144102" lon="11.269103502459172"><ele>689.0</ele><time>2026-04-16T17:50:27Z</time></trkpt><trkpt lat="45.70045141511039" lon="11.26895097849896"><ele>689.0</ele><time>2026-04-16T17:50:29Z</time></trkpt><trkpt lat="45.700483643645526" lon="11.268857947763891"><ele>689.0</ele><time>2026-04-16T17:50:30Z</time></trkpt><trkpt lat="45.700392608105055" lon="11.268815468935678"><ele>689.0</ele><time>2026-04-16T17:50:31Z</time></trkpt><trkpt lat="45.700384268129845" lon="11.268939555369677"><ele>689.0</ele><time>2026-04-16T17:51:39.999Z</time></trkpt><trkpt lat="45.700431833638696" lon="11.269051484715035"><ele>689.0</ele><time>2026-04-16T17:51:41.999Z</time></trkpt><trkpt lat="45.70042331870562" lon="11.269155752521051"><ele>689.0</ele><time>2026-04-16T17:51:44Z</time></trkpt><trkpt lat="45.70031253004454" lon="11.26915284540242"><ele>689.0</ele><time>2026-04-16T17:51:46Z</time></trkpt><trkpt lat="45.700241361726" lon="11.26908328984742"><ele>689.0</ele><time>2026-04-16T17:51:47Z</time></trkpt><trkpt lat="45.70016384121911" lon="11.269016744596497"><ele>690.3333333333333</ele><time>2026-04-16T17:51:48Z</time></trkpt><trkpt lat="45.700079715109226" lon="11.268977852490439"><ele>691.6666666666666</ele><time>2026-04-16T17:51:49Z</time></trkpt><trkpt lat="45.69998762869316" lon="11.268961180372292"><ele>693.0</ele><time>2026-04-16T17:51:50Z</time></trkpt><trkpt lat="45.69989751201685" lon="11.268953986976436"><ele>694.3333333333334</ele><time>2026-04-16T17:51:51Z</time></trkpt><trkpt lat="45.699816927486275" lon="11.268954599448215"><ele>695.6666666666667</ele><time>2026-04-16T17:51:52Z</time></trkpt><trkpt lat="45.699720414684315" lon="11.268968683470202"><ele>697.0</ele><time>2026-04-16T17:51:53Z</time></trkpt><trkpt lat="45.699630311132175" lon="11.268975796004053"><ele>696.4000000000001</ele><time>2026-04-16T17:51:54Z</time></trkpt><trkpt lat="45.699538760051595" lon="11.268941523739151"><ele>695.8000000000001</ele><time>2026-04-16T17:51:55Z</time></trkpt><trkpt lat="45.699466034415074" lon="11.268863096590687"><ele>695.2</ele><time>2026-04-16T17:51:56Z</time></trkpt><trkpt lat="45.699411523396314" lon="11.268740769981445"><ele>694.6</ele><time>2026-04-16T17:51:57Z</time></trkpt><trkpt lat="45.699369105345" lon="11.268629494092313"><ele>694.0</ele><time>2026-04-16T17:51:58Z</time></trkpt><trkpt lat="45.69931707547215" lon="11.26851755317867"><ele>690.6</ele><time>2026-04-16T17:52:00Z</time></trkpt><trkpt lat="45.699228051671014" lon="11.268440364236728"><ele>687.2</ele><time>2026-04-16T17:52:03Z</time></trkpt><trkpt lat="45.69915312834056" lon="11.268423587346488"><ele>683.8000000000001</ele><time>2026-04-16T17:52:04Z</time></trkpt><trkpt lat="45.69907494935698" lon="11.268431144064309"><ele>680.4000000000001</ele><time>2026-04-16T17:52:05Z</time></trkpt><trkpt lat="45.69898042827028" lon="11.268469615578221"><ele>677.0</ele><time>2026-04-16T17:52:07Z</time></trkpt><trkpt lat="45.698799074768196" lon="11.268531067729878"><ele>677.0</ele><time>2026-04-16T17:52:08Z</time></trkpt><trkpt lat="45.69873268302678" lon="11.26860938387172"><ele>677.0</ele><time>2026-04-16T17:52:09Z</time></trkpt><trkpt lat="45.69866995145838" lon="11.268686988903017"><ele>677.0</ele><time>2026-04-16T17:52:10Z</time></trkpt><trkpt lat="45.69885426987837" lon="11.269376586066645"><ele>680.0</ele><time>2026-04-16T17:52:11Z</time></trkpt><trkpt lat="45.698791233375985" lon="11.269486883688565"><ele>683.0</ele><time>2026-04-16T17:52:12Z</time></trkpt><trkpt lat="45.69873060358212" lon="11.26960447288331"><ele>686.0</ele><time>2026-04-16T17:52:13Z</time></trkpt><trkpt lat="45.69867871665702" lon="11.26972466895058"><ele>689.0</ele><time>2026-04-16T17:52:14Z</time></trkpt><trkpt lat="45.6986405741361" lon="11.269869538359451"><ele>692.0</ele><time>2026-04-16T17:52:15Z</time></trkpt><trkpt lat="45.69859772887552" lon="11.270044034623536"><ele>693.0</ele><time>2026-04-16T17:52:16Z</time></trkpt><trkpt lat="45.69855432882645" lon="11.270228941936034"><ele>694.0</ele><time>2026-04-16T17:52:17Z</time></trkpt><trkpt lat="45.698484489251484" lon="11.270432024430113"><ele>695.0</ele><time>2026-04-16T17:52:18Z</time></trkpt><trkpt lat="45.69838640250426" lon="11.270612178915076"><ele>700.25</ele><time>2026-04-16T17:52:19Z</time></trkpt><trkpt lat="45.69828773675178" lon="11.270757394153723"><ele>705.5</ele><time>2026-04-16T17:52:20Z</time></trkpt><trkpt lat="45.69820650464458" lon="11.270884536049918"><ele>710.75</ele><time>2026-04-16T17:52:21Z</time></trkpt><trkpt lat="45.69813083660645" lon="11.27102151909446"><ele>716.0</ele><time>2026-04-16T17:52:22Z</time></trkpt><trkpt lat="45.6980817356935" lon="11.271104238293596"><ele>716.0</ele><time>2026-04-16T17:52:23Z</time></trkpt><trkpt lat="45.69802336038128" lon="11.27118591096579"><ele>716.0</ele><time>2026-04-16T17:52:24Z</time></trkpt><trkpt lat="45.69798474505095" lon="11.271275960590577"><ele>716.0</ele><time>2026-04-16T17:52:25Z</time></trkpt><trkpt lat="45.697947274107825" lon="11.27138188002265"><ele>716.0</ele><time>2026-04-16T17:52:26Z</time></trkpt><trkpt lat="45.69789271105745" lon="11.271450987925585"><ele>716.0</ele><time>2026-04-16T17:52:27Z</time></trkpt><trkpt lat="45.69784107432744" lon="11.271559894333041"><ele>716.0</ele><time>2026-04-16T17:52:29Z</time></trkpt><trkpt lat="45.69782371746182" lon="11.271652994077446"><ele>718.5</ele><time>2026-04-16T17:52:30Z</time></trkpt><trkpt lat="45.69776682417958" lon="11.271735468977143"><ele>721.0</ele><time>2026-04-16T17:52:31Z</time></trkpt><trkpt lat="45.697703261304085" lon="11.27180348564922"><ele>723.5</ele><time>2026-04-16T17:52:32Z</time></trkpt><trkpt lat="45.69764088318881" lon="11.271893481775571"><ele>726.0</ele><time>2026-04-16T17:52:33Z</time></trkpt><trkpt lat="45.69757446572603" lon="11.271897166377496"><ele>728.5</ele><time>2026-04-16T17:52:34Z</time></trkpt><trkpt lat="45.69748233763073" lon="11.271901111382284"><ele>731.0</ele><time>2026-04-16T17:52:35Z</time></trkpt><trkpt lat="45.69742401273983" lon="11.271975212236745"><ele>731.0</ele><time>2026-04-16T17:52:36Z</time></trkpt><trkpt lat="45.69731510107009" lon="11.272062820226061"><ele>731.0</ele><time>2026-04-16T17:52:37.999Z</time></trkpt><trkpt lat="45.69727384465845" lon="11.272159156151133"><ele>731.0</ele><time>2026-04-16T17:52:40.999Z</time></trkpt><trkpt lat="45.69714738137175" lon="11.272195537279112"><ele>731.0</ele><time>2026-04-16T17:52:41.999Z</time></trkpt><trkpt lat="45.697082115032394" lon="11.272221961665478"><ele>731.0</ele><time>2026-04-16T17:52:42.999Z</time></trkpt><trkpt lat="45.6969670618139" lon="11.272327554996194"><ele>739.0</ele><time>2026-04-16T17:52:44.999Z</time></trkpt><trkpt lat="45.69689423007476" lon="11.272377170868012"><ele>747.0</ele><time>2026-04-16T17:52:45.999Z</time></trkpt><trkpt lat="45.69681877325019" lon="11.272420942923008"><ele>755.0</ele><time>2026-04-16T17:52:46.999Z</time></trkpt><trkpt lat="45.69671957055941" lon="11.272444544859226"><ele>763.0</ele><time>2026-04-16T17:52:47.999Z</time></trkpt><trkpt lat="45.69660842289735" lon="11.272468749358973"><ele>771.0</ele><time>2026-04-16T17:52:48.999Z</time></trkpt><trkpt lat="45.69651612593601" lon="11.27249973727494"><ele>771.0</ele><time>2026-04-16T17:52:49.999Z</time></trkpt><trkpt lat="45.696451961333075" lon="11.272536531136025"><ele>771.0</ele><time>2026-04-16T17:52:50.999Z</time></trkpt><trkpt lat="45.696379390607234" lon="11.27263144404023"><ele>771.0</ele><time>2026-04-16T17:52:52.999Z</time></trkpt><trkpt lat="45.69631955116882" lon="11.272709668134587"><ele>771.0</ele><time>2026-04-16T17:52:53.999Z</time></trkpt><trkpt lat="45.69626167685609" lon="11.272798802817965"><ele>771.0</ele><time>2026-04-16T17:52:54.999Z</time></trkpt><trkpt lat="45.69617634648317" lon="11.272850793642084"><ele>771.0</ele><time>2026-04-16T17:52:56.999Z</time></trkpt><trkpt lat="45.69608558303824" lon="11.272925633995698"><ele>769.3333333333334</ele><time>2026-04-16T17:52:57.999Z</time></trkpt><trkpt lat="45.69600947846499" lon="11.27300178510975"><ele>767.6666666666666</ele><time>2026-04-16T17:52:58.999Z</time></trkpt><trkpt lat="45.69590743248167" lon="11.27303086147524"><ele>766.0</ele><time>2026-04-16T17:53:00.999Z</time></trkpt><trkpt lat="45.69584999705603" lon="11.27306926353135"><ele>764.3333333333333</ele><time>2026-04-16T17:53:01.999Z</time></trkpt><trkpt lat="45.695788534865" lon="11.27315191061047"><ele>762.6666666666666</ele><time>2026-04-16T17:53:02.999Z</time></trkpt><trkpt lat="45.695724036652464" lon="11.273219679133767"><ele>761.0</ele><time>2026-04-16T17:53:03.999Z</time></trkpt><trkpt lat="45.695642732284284" lon="11.273237261402242"><ele>770.0</ele><time>2026-04-16T17:53:04.999Z</time></trkpt><trkpt lat="45.6955685824416" lon="11.273274966698944"><ele>779.0</ele><time>2026-04-16T17:53:05.999Z</time></trkpt><trkpt lat="45.69548273724186" lon="11.273415348509776"><ele>788.0</ele><time>2026-04-16T17:53:07.999Z</time></trkpt><trkpt lat="45.69543665623502" lon="11.273514771204091"><ele>797.0</ele><time>2026-04-16T17:53:08.999Z</time></trkpt><trkpt lat="45.69540044831129" lon="11.273596646728084"><ele>806.0</ele><time>2026-04-16T17:53:09.999Z</time></trkpt><trkpt lat="45.695296402844924" lon="11.273674305464722"><ele>806.0</ele><time>2026-04-16T17:53:11.999Z</time></trkpt><trkpt lat="45.69525786575137" lon="11.273755953806644"><ele>806.0</ele><time>2026-04-16T17:53:14.999Z</time></trkpt><trkpt lat="45.695312496331866" lon="11.273813144649873"><ele>806.0</ele><time>2026-04-16T17:53:17.999Z</time></trkpt><trkpt lat="45.69537938994284" lon="11.273808952740131"><ele>806.0</ele><time>2026-04-16T17:53:19.999Z</time></trkpt><trkpt lat="45.69544379914686" lon="11.273882422001556"><ele>806.0</ele><time>2026-04-16T17:53:23.999Z</time></trkpt><trkpt lat="45.695507462251" lon="11.273907541441256"><ele>806.0</ele><time>2026-04-16T17:53:24.999Z</time></trkpt><trkpt lat="45.69557281893894" lon="11.273955612457007"><ele>806.0</ele><time>2026-04-16T17:53:25.999Z</time></trkpt><trkpt lat="45.69562718725993" lon="11.27400497368534"><ele>810.8571428571429</ele><time>2026-04-16T17:53:27.999Z</time></trkpt><trkpt lat="45.695678536460285" lon="11.273948769566237"><ele>815.7142857142857</ele><time>2026-04-16T17:53:29.999Z</time></trkpt><trkpt lat="45.69575991762974" lon="11.27399133975173"><ele>820.5714285714286</ele><time>2026-04-16T17:53:32.999Z</time></trkpt><trkpt lat="45.69582094683042" lon="11.273963638808592"><ele>825.4285714285714</ele><time>2026-04-16T17:53:34.999Z</time></trkpt><trkpt lat="45.69588468855219" lon="11.27401040718009"><ele>830.2857142857142</ele><time>2026-04-16T17:53:38.998Z</time></trkpt><trkpt lat="45.695908343871714" lon="11.274114209619059"><ele>835.1428571428571</ele><time>2026-04-16T17:53:52Z</time></trkpt><trkpt lat="45.695945931602274" lon="11.274211013788594"><ele>840.0</ele><time>2026-04-16T17:53:55Z</time></trkpt><trkpt lat="45.69597914871586" lon="11.274293372411119"><ele>840.0</ele><time>2026-04-16T17:54:45Z</time></trkpt><trkpt lat="45.69600865856158" lon="11.274374346175314"><ele>840.0</ele><time>2026-04-16T17:55:00Z</time></trkpt><trkpt lat="45.696077947532345" lon="11.274358719335991"><ele>840.0</ele><time>2026-04-16T17:55:01.999Z</time></trkpt><trkpt lat="45.69615388540763" lon="11.274313945301175"><ele>840.0</ele><time>2026-04-16T17:55:03.999Z</time></trkpt><trkpt lat="45.69623771936671" lon="11.274307862169705"><ele>840.0</ele><time>2026-04-16T17:55:06.999Z</time></trkpt><trkpt lat="45.696302699366434" lon="11.274295697728315"><ele>840.0</ele><time>2026-04-16T17:55:08.999Z</time></trkpt><trkpt lat="45.696358292628695" lon="11.274354144605246"><ele>840.0</ele><time>2026-04-16T17:55:11.999Z</time></trkpt><trkpt lat="45.6963714143953" lon="11.274455454095456"><ele>845.5</ele><time>2026-04-16T17:55:17.999Z</time></trkpt><trkpt lat="45.69639986925119" lon="11.274553932429809"><ele>851.0</ele><time>2026-04-16T17:55:21.999Z</time></trkpt><trkpt lat="45.69646455686308" lon="11.274553806271365"><ele>856.5</ele><time>2026-04-16T17:55:30.999Z</time></trkpt><trkpt lat="45.69653453527206" lon="11.274495300445402"><ele>862.0</ele><time>2026-04-16T17:55:56Z</time></trkpt><trkpt lat="45.69659755568329" lon="11.27443898171099"><ele>867.5</ele><time>2026-04-16T17:55:59Z</time></trkpt><trkpt lat="45.69667951618994" lon="11.274348192833141"><ele>873.0</ele><time>2026-04-16T17:56:01Z</time></trkpt><trkpt lat="45.69677567057052" lon="11.274291163768552"><ele>872.9999999999999</ele><time>2026-04-16T17:56:03Z</time></trkpt><trkpt lat="45.69683887381311" lon="11.274283576155558"><ele>873.0</ele><time>2026-04-16T17:56:07Z</time></trkpt><trkpt lat="45.69690356567282" lon="11.27430044534611"><ele>873.0</ele><time>2026-04-16T17:56:11Z</time></trkpt><trkpt lat="45.69697162884677" lon="11.274348296556843"><ele>873.0</ele><time>2026-04-16T17:56:34Z</time></trkpt><trkpt lat="45.697038283391706" lon="11.274377203062667"><ele>873.0</ele><time>2026-04-16T17:56:52Z</time></trkpt><trkpt lat="45.69709303101625" lon="11.274441101080905"><ele>872.9999999999999</ele><time>2026-04-16T17:56:57Z</time></trkpt><trkpt lat="45.69717145457652" lon="11.27444976536889"><ele>873.0</ele><time>2026-04-16T17:57:00.999Z</time></trkpt><trkpt lat="45.69724712083867" lon="11.274410966193319"><ele>874.6666666666666</ele><time>2026-04-16T17:57:03.999Z</time></trkpt><trkpt lat="45.6973174626534" lon="11.274364972459182"><ele>876.3333333333333</ele><time>2026-04-16T17:57:05.999Z</time></trkpt><trkpt lat="45.697400520980736" lon="11.274411194507802"><ele>878.0</ele><time>2026-04-16T17:57:06.999Z</time></trkpt><trkpt lat="45.697465114555726" lon="11.274384488567122"><ele>879.6666666666666</ele><time>2026-04-16T17:57:08.999Z</time></trkpt><trkpt lat="45.697579226406866" lon="11.2744444067481"><ele>881.3333333333333</ele><time>2026-04-16T17:57:11.999Z</time></trkpt><trkpt lat="45.69764969955576" lon="11.274469065639554"><ele>883.0</ele><time>2026-04-16T17:57:12.999Z</time></trkpt><trkpt lat="45.69773859551294" lon="11.274503465284718"><ele>882.4</ele><time>2026-04-16T17:57:13.999Z</time></trkpt><trkpt lat="45.6978097551197" lon="11.274447987832037"><ele>881.8</ele><time>2026-04-16T17:57:14.999Z</time></trkpt><trkpt lat="45.69790046436712" lon="11.274443822404551"><ele>881.2</ele><time>2026-04-16T17:57:15.999Z</time></trkpt><trkpt lat="45.697991584898965" lon="11.274432244901254"><ele>880.6</ele><time>2026-04-16T17:57:17.999Z</time></trkpt><trkpt lat="45.69811514568513" lon="11.274481947579376"><ele>880.0</ele><time>2026-04-16T17:57:20.999Z</time></trkpt><trkpt lat="45.69820072868394" lon="11.274508643217068"><ele>880.0</ele><time>2026-04-16T17:57:21.999Z</time></trkpt><trkpt lat="45.69828536213413" lon="11.274522650501774"><ele>880.0</ele><time>2026-04-16T17:57:22.999Z</time></trkpt><trkpt lat="45.69835704760956" lon="11.274532483957433"><ele>880.0</ele><time>2026-04-16T17:57:23.999Z</time></trkpt><trkpt lat="45.69844022750969" lon="11.274604061260417"><ele>880.0</ele><time>2026-04-16T17:57:25.999Z</time></trkpt><trkpt lat="45.69848249362666" lon="11.274796218079725"><ele>880.0</ele><time>2026-04-16T17:57:27.999Z</time></trkpt><trkpt lat="45.69846387869694" lon="11.274948158284586"><ele>887.6</ele><time>2026-04-16T17:57:28.999Z</time></trkpt><trkpt lat="45.69847397148629" lon="11.275068078094169"><ele>895.2</ele><time>2026-04-16T17:57:29.999Z</time></trkpt><trkpt lat="45.69852276162758" lon="11.275241234691027"><ele>902.8</ele><time>2026-04-16T17:57:31.999Z</time></trkpt><trkpt lat="45.6985095069126" lon="11.275368703171495"><ele>910.4</ele><time>2026-04-16T17:57:33.999Z</time></trkpt><trkpt lat="45.69849921613701" lon="11.2755235364323"><ele>918.0</ele><time>2026-04-16T17:57:35.999Z</time></trkpt><trkpt lat="45.69850186962108" lon="11.275620379412144"><ele>920.8</ele><time>2026-04-16T17:57:36.999Z</time></trkpt><trkpt lat="45.69855454633403" lon="11.275792629771464"><ele>923.5999999999999</ele><time>2026-04-16T17:57:38.999Z</time></trkpt><trkpt lat="45.69851430659291" lon="11.275877400056489"><ele>926.4000000000001</ele><time>2026-04-16T17:57:40.999Z</time></trkpt><trkpt lat="45.69843468410401" lon="11.27587937059198"><ele>929.2</ele><time>2026-04-16T18:03:18Z</time></trkpt><trkpt lat="45.69841783913171" lon="11.275772556408194"><ele>932.0</ele><time>2026-04-16T18:03:23.999Z</time></trkpt><trkpt lat="45.69835413555378" lon="11.275672558471287"><ele>932.0000000000001</ele><time>2026-04-16T18:03:25.999Z</time></trkpt><trkpt lat="45.69830394747383" lon="11.275613280971157"><ele>932.0</ele><time>2026-04-16T18:03:26.999Z</time></trkpt><trkpt lat="45.69824790449799" lon="11.2755226969765"><ele>932.0</ele><time>2026-04-16T18:03:27.999Z</time></trkpt><trkpt lat="45.6981786274921" lon="11.275420259762054"><ele>932.0</ele><time>2026-04-16T18:03:29.999Z</time></trkpt><trkpt lat="45.69812106538345" lon="11.275350893947188"><ele>932.0000000000001</ele><time>2026-04-16T18:03:31.999Z</time></trkpt><trkpt lat="45.69809087794607" lon="11.275239287648981"><ele>932.0</ele><time>2026-04-16T18:03:33.999Z</time></trkpt><trkpt lat="45.69804506260281" lon="11.275170427090591"><ele>930.3333333333334</ele><time>2026-04-16T18:03:35.999Z</time></trkpt><trkpt lat="45.69797599558964" lon="11.275094277170496"><ele>928.6666666666667</ele><time>2026-04-16T18:03:37.999Z</time></trkpt><trkpt lat="45.69790898831316" lon="11.275098395181168"><ele>927.0</ele><time>2026-04-16T18:03:39.999Z</time></trkpt><trkpt lat="45.69784131624618" lon="11.275099763678563"><ele>925.3333333333333</ele><time>2026-04-16T18:03:41.999Z</time></trkpt><trkpt lat="45.69777570061008" lon="11.275100293756662"><ele>923.6666666666666</ele><time>2026-04-16T18:03:44.999Z</time></trkpt><trkpt lat="45.69768337438575" lon="11.27514651194752"><ele>922.0</ele><time>2026-04-16T18:03:49.999Z</time></trkpt><trkpt lat="45.69759967704725" lon="11.275137548391083"><ele>921.9999999999999</ele><time>2026-04-16T18:03:51.999Z</time></trkpt><trkpt lat="45.69755213475081" lon="11.27521457489477"><ele>922.0</ele><time>2026-04-16T18:03:56.999Z</time></trkpt><trkpt lat="45.69753768850475" lon="11.275308252847182"><ele>922.0</ele><time>2026-04-16T18:04:25Z</time></trkpt><trkpt lat="45.69747728126986" lon="11.275354019637497"><ele>922.0</ele><time>2026-04-16T18:04:36Z</time></trkpt><trkpt lat="45.69750532789907" lon="11.275449181614157"><ele>921.9999999999999</ele><time>2026-04-16T18:04:39Z</time></trkpt><trkpt lat="45.69753360360104" lon="11.27553512873999"><ele>922.0</ele><time>2026-04-16T18:04:41Z</time></trkpt><trkpt lat="45.697637052373054" lon="11.275598403474806"><ele>920.9999999999999</ele><time>2026-04-16T18:04:45Z</time></trkpt><trkpt lat="45.69770279636679" lon="11.275662250484018"><ele>920.0</ele><time>2026-04-16T18:04:46Z</time></trkpt><trkpt lat="45.69776313902591" lon="11.275749952837874"><ele>919.0</ele><time>2026-04-16T18:04:47Z</time></trkpt><trkpt lat="45.69780512874214" lon="11.275847874788878"><ele>918.0</ele><time>2026-04-16T18:04:48Z</time></trkpt><trkpt lat="45.69782881773895" lon="11.275952566906254"><ele>916.9999999999999</ele><time>2026-04-16T18:04:49Z</time></trkpt><trkpt lat="45.697859209850776" lon="11.276039939014987"><ele>916.0</ele><time>2026-04-16T18:04:50Z</time></trkpt><trkpt lat="45.697897815978294" lon="11.276116240850339"><ele>917.4</ele><time>2026-04-16T18:04:51Z</time></trkpt><trkpt lat="45.697970552655185" lon="11.276175578190824"><ele>918.8</ele><time>2026-04-16T18:04:52Z</time></trkpt><trkpt lat="45.69805014313788" lon="11.276184321387229"><ele>920.1999999999999</ele><time>2026-04-16T18:04:53Z</time></trkpt><trkpt lat="45.6981455918453" lon="11.27624245422614"><ele>921.5999999999999</ele><time>2026-04-16T18:04:54Z</time></trkpt><trkpt lat="45.69820889139042" lon="11.276380023608617"><ele>923.0</ele><time>2026-04-16T18:04:55Z</time></trkpt><trkpt lat="45.69826179338557" lon="11.276459447621813"><ele>923.0000000000001</ele><time>2026-04-16T18:04:56Z</time></trkpt><trkpt lat="45.69830903075691" lon="11.27654445380763"><ele>923.0</ele><time>2026-04-16T18:04:57Z</time></trkpt><trkpt lat="45.69833959509693" lon="11.276633550034298"><ele>923.0</ele><time>2026-04-16T18:04:58Z</time></trkpt><trkpt lat="45.69833691347655" lon="11.276735074556463"><ele>923.0</ele><time>2026-04-16T18:04:59Z</time></trkpt><trkpt lat="45.69826920249106" lon="11.276868541611172"><ele>923.0000000000001</ele><time>2026-04-16T18:05:01Z</time></trkpt><trkpt lat="45.69823942399405" lon="11.276957025181884"><ele>923.0</ele><time>2026-04-16T18:05:02Z</time></trkpt><trkpt lat="45.698221395692904" lon="11.277062471211941"><ele>923.0</ele><time>2026-04-16T18:05:03Z</time></trkpt><trkpt lat="45.69828920702175" lon="11.277236538757696"><ele>923.0</ele><time>2026-04-16T18:05:05Z</time></trkpt><trkpt lat="45.698318792056654" lon="11.277414477253469"><ele>923.0</ele><time>2026-04-16T18:05:07Z</time></trkpt><trkpt lat="45.698285200443955" lon="11.277553618101035"><ele>923.0</ele><time>2026-04-16T18:05:09Z</time></trkpt><trkpt lat="45.698241579666394" lon="11.277645600155783"><ele>923.0</ele><time>2026-04-16T18:05:10Z</time></trkpt><trkpt lat="45.698221487584895" lon="11.277744419525806"><ele>921.0000000000001</ele><time>2026-04-16T18:05:11Z</time></trkpt><trkpt lat="45.69823735963996" lon="11.277938085453746"><ele>919.0</ele><time>2026-04-16T18:05:13Z</time></trkpt><trkpt lat="45.69824329144057" lon="11.278049148255729"><ele>917.0</ele><time>2026-04-16T18:05:14Z</time></trkpt><trkpt lat="45.698249112912926" lon="11.278151401704294"><ele>915.0</ele><time>2026-04-16T18:05:15Z</time></trkpt><trkpt lat="45.69825087123096" lon="11.27826140233576"><ele>913.0000000000001</ele><time>2026-04-16T18:05:16Z</time></trkpt><trkpt lat="45.69824318218549" lon="11.278371478991806"><ele>911.0</ele><time>2026-04-16T18:05:17Z</time></trkpt><trkpt lat="45.698223624264664" lon="11.278475479189392"><ele>910.8</ele><time>2026-04-16T18:05:18Z</time></trkpt><trkpt lat="45.698141515328366" lon="11.278609869972028"><ele>910.5999999999999</ele><time>2026-04-16T18:05:20Z</time></trkpt><trkpt lat="45.698079690651625" lon="11.278673813753182"><ele>910.4</ele><time>2026-04-16T18:05:21Z</time></trkpt><trkpt lat="45.69799007676047" lon="11.27874341951891"><ele>910.2</ele><time>2026-04-16T18:05:22Z</time></trkpt><trkpt lat="45.697926406595" lon="11.278795325531839"><ele>910.0</ele><time>2026-04-16T18:05:23Z</time></trkpt><trkpt lat="45.69787723339219" lon="11.278875412678277"><ele>907.8</ele><time>2026-04-16T18:05:24Z</time></trkpt><trkpt lat="45.697854671612305" lon="11.2790518365295"><ele>905.6</ele><time>2026-04-16T18:05:26Z</time></trkpt><trkpt lat="45.697929140897386" lon="11.279149320638142"><ele>903.4000000000001</ele><time>2026-04-16T18:05:26.999Z</time></trkpt><trkpt lat="45.69799286229004" lon="11.279237641758995"><ele>901.2</ele><time>2026-04-16T18:05:27.999Z</time></trkpt><trkpt lat="45.69806453885489" lon="11.27933804922839"><ele>899.0</ele><time>2026-04-16T18:05:28.999Z</time></trkpt><trkpt lat="45.698132245678984" lon="11.279447765329365"><ele>899.0</ele><time>2026-04-16T18:05:29.999Z</time></trkpt><trkpt lat="45.69816240289725" lon="11.279563500894977"><ele>899.0000000000001</ele><time>2026-04-16T18:05:30.999Z</time></trkpt><trkpt lat="45.69821703519358" lon="11.279650440948112"><ele>899.0000000000001</ele><time>2026-04-16T18:05:31.999Z</time></trkpt><trkpt lat="45.69835199986547" lon="11.279605666729022"><ele>899.0</ele><time>2026-04-16T18:05:32.999Z</time></trkpt><trkpt lat="45.698455708093476" lon="11.279659399136698"><ele>899.0</ele><time>2026-04-16T18:05:34.999Z</time></trkpt><trkpt lat="45.69851827008756" lon="11.27969204836156"><ele>896.4000000000001</ele><time>2026-04-16T18:05:35.999Z</time></trkpt><trkpt lat="45.69848294365779" lon="11.279823160144343"><ele>893.8000000000001</ele><time>2026-04-16T18:05:36.999Z</time></trkpt><trkpt lat="45.69853215445277" lon="11.279980840579546"><ele>891.1999999999999</ele><time>2026-04-16T18:05:38.999Z</time></trkpt><trkpt lat="45.69859023880013" lon="11.280045192033752"><ele>888.5999999999999</ele><time>2026-04-16T18:05:39.999Z</time></trkpt><trkpt lat="45.698713885862105" lon="11.280031067238376"><ele>886.0</ele><time>2026-04-16T18:05:40.999Z</time></trkpt><trkpt lat="45.69880074700035" lon="11.280037400979841"><ele>886.0</ele><time>2026-04-16T18:05:41.999Z</time></trkpt><trkpt lat="45.6988976099532" lon="11.280054449465167"><ele>885.9999999999999</ele><time>2026-04-16T18:05:42.999Z</time></trkpt><trkpt lat="45.69899271340201" lon="11.280077441013761"><ele>885.9999999999999</ele><time>2026-04-16T18:05:43.999Z</time></trkpt><trkpt lat="45.69908214482532" lon="11.280110530633495"><ele>886.0</ele><time>2026-04-16T18:05:44.999Z</time></trkpt><trkpt lat="45.6991670904783" lon="11.280155176095306"><ele>886.0</ele><time>2026-04-16T18:05:45.999Z</time></trkpt><trkpt lat="45.69925912555229" lon="11.280208627166697"><ele>886.0</ele><time>2026-04-16T18:05:46.999Z</time></trkpt><trkpt lat="45.69935246140278" lon="11.280251446569949"><ele>885.9999999999999</ele><time>2026-04-16T18:05:47.999Z</time></trkpt><trkpt lat="45.69944976996486" lon="11.280287795204737"><ele>885.9999999999999</ele><time>2026-04-16T18:05:48.999Z</time></trkpt><trkpt lat="45.69953256673076" lon="11.280312709691245"><ele>886.0</ele><time>2026-04-16T18:05:49.999Z</time></trkpt><trkpt lat="45.699616725610944" lon="11.280353887894943"><ele>886.0</ele><time>2026-04-16T18:05:50.999Z</time></trkpt><trkpt lat="45.69970226490458" lon="11.280377597326478"><ele>887.8333333333333</ele><time>2026-04-16T18:05:51.999Z</time></trkpt><trkpt lat="45.69976024217047" lon="11.280461091470789"><ele>889.6666666666666</ele><time>2026-04-16T18:05:52.999Z</time></trkpt><trkpt lat="45.69981313602875" lon="11.280557766365954"><ele>891.5</ele><time>2026-04-16T18:05:53.999Z</time></trkpt><trkpt lat="45.699853828355394" lon="11.280643797032715"><ele>893.3333333333333</ele><time>2026-04-16T18:05:54.999Z</time></trkpt><trkpt lat="45.69989559634996" lon="11.280751837587504"><ele>895.1666666666666</ele><time>2026-04-16T18:05:55.999Z</time></trkpt><trkpt lat="45.69992316683925" lon="11.28084692273143"><ele>897.0</ele><time>2026-04-16T18:05:56.999Z</time></trkpt><trkpt lat="45.69994393216888" lon="11.280951343654285"><ele>892.2857142857143</ele><time>2026-04-16T18:05:57.999Z</time></trkpt><trkpt lat="45.699947344721735" lon="11.281046054553435"><ele>887.5714285714286</ele><time>2026-04-16T18:05:58.999Z</time></trkpt><trkpt lat="45.6998939520009" lon="11.281122505762184"><ele>882.8571428571429</ele><time>2026-04-16T18:06:00.999Z</time></trkpt><trkpt lat="45.69981475158316" lon="11.281148467203609"><ele>878.1428571428571</ele><time>2026-04-16T18:06:03.999Z</time></trkpt><trkpt lat="45.699750480812774" lon="11.281199729659159"><ele>873.4285714285713</ele><time>2026-04-16T18:06:06.999Z</time></trkpt><trkpt lat="45.69971467660396" lon="11.281085649750315"><ele>868.7142857142857</ele><time>2026-04-16T18:06:07.999Z</time></trkpt><trkpt lat="45.699751374368205" lon="11.281008661231844"><ele>864.0</ele><time>2026-04-16T18:06:08.999Z</time></trkpt><trkpt lat="45.69958283252486" lon="11.28099904317231"><ele>864.0</ele><time>2026-04-16T18:06:15.999Z</time></trkpt><trkpt lat="45.699668300714706" lon="11.281410114771578"><ele>864.0</ele><time>2026-04-16T18:06:16.999Z</time></trkpt><trkpt lat="45.699577297927256" lon="11.280940578424032"><ele>864.0</ele><time>2026-04-16T18:06:19.999Z</time></trkpt><trkpt lat="45.69969364303923" lon="11.280871464820018"><ele>864.0</ele><time>2026-04-16T18:06:20.999Z</time></trkpt><trkpt lat="45.69945621343111" lon="11.281257719981909"><ele>864.0</ele><time>2026-04-16T18:06:22.999Z</time></trkpt><trkpt lat="45.699473601453754" lon="11.281344844092445"><ele>864.0</ele><time>2026-04-16T18:06:26Z</time></trkpt><trkpt lat="45.69944391844552" lon="11.281430881359935"><ele>864.0</ele><time>2026-04-16T18:06:28Z</time></trkpt><trkpt lat="45.69936733720336" lon="11.28139314664231"><ele>864.0</ele><time>2026-04-16T18:06:31Z</time></trkpt><trkpt lat="45.699336769773275" lon="11.281517099766841"><ele>864.0</ele><time>2026-04-16T18:06:35Z</time></trkpt><trkpt lat="45.69928162363767" lon="11.281583747712418"><ele>864.0</ele><time>2026-04-16T18:06:40Z</time></trkpt><trkpt lat="45.69921784235422" lon="11.281605957595179"><ele>864.0</ele><time>2026-04-16T18:06:45Z</time></trkpt><trkpt lat="45.69916088236385" lon="11.281564709798207"><ele>856.0</ele><time>2026-04-16T18:06:48Z</time></trkpt><trkpt lat="45.699116252645155" lon="11.28165865496039"><ele>848.0</ele><time>2026-04-16T18:06:51Z</time></trkpt><trkpt lat="45.69905761454268" lon="11.281701688242066"><ele>840.0</ele><time>2026-04-16T18:06:53Z</time></trkpt><trkpt lat="45.698994238855356" lon="11.281777818178996"><ele>832.0</ele><time>2026-04-16T18:06:55Z</time></trkpt><trkpt lat="45.69901740503086" lon="11.281889663952713"><ele>824.0</ele><time>2026-04-16T18:06:59Z</time></trkpt><trkpt lat="45.69907156312466" lon="11.281993324577346"><ele>816.0</ele><time>2026-04-16T18:07:02Z</time></trkpt><trkpt lat="45.69911246965459" lon="11.28208576688359"><ele>816.0</ele><time>2026-04-16T18:07:04Z</time></trkpt><trkpt lat="45.69907880872845" lon="11.282203536267865"><ele>816.0</ele><time>2026-04-16T18:07:20Z</time></trkpt><trkpt lat="45.6991365124365" lon="11.282281938732616"><ele>816.0</ele><time>2026-04-16T18:07:24Z</time></trkpt><trkpt lat="45.6991274039994" lon="11.282387479159173"><ele>816.0</ele><time>2026-04-16T18:07:26Z</time></trkpt><trkpt lat="45.69907333209483" lon="11.282463721408789"><ele>816.0</ele><time>2026-04-16T18:07:27.999Z</time></trkpt><trkpt lat="45.69906599258453" lon="11.282561315844482"><ele>816.0</ele><time>2026-04-16T18:07:31.999Z</time></trkpt><trkpt lat="45.69903170106548" lon="11.282655047941946"><ele>811.5714285714286</ele><time>2026-04-16T18:07:36.999Z</time></trkpt><trkpt lat="45.698998492288695" lon="11.282738678090183"><ele>807.1428571428571</ele><time>2026-04-16T18:07:40.999Z</time></trkpt><trkpt lat="45.699003237686156" lon="11.282841730013144"><ele>802.7142857142858</ele><time>2026-04-16T18:07:43.999Z</time></trkpt><trkpt lat="45.69902583924695" lon="11.28293006842956"><ele>798.2857142857142</ele><time>2026-04-16T18:07:46.999Z</time></trkpt><trkpt lat="45.69901457292982" lon="11.28302722822875"><ele>793.8571428571428</ele><time>2026-04-16T18:07:49.999Z</time></trkpt><trkpt lat="45.699013842982765" lon="11.28312231508485"><ele>789.4285714285714</ele><time>2026-04-16T18:07:51.999Z</time></trkpt><trkpt lat="45.69901929988015" lon="11.283274716107229"><ele>785.0</ele><time>2026-04-16T18:07:53.999Z</time></trkpt><trkpt lat="45.69904613181926" lon="11.283431246081646"><ele>781.6666666666667</ele><time>2026-04-16T18:07:55.999Z</time></trkpt><trkpt lat="45.699019034234546" lon="11.283545883013476"><ele>778.3333333333334</ele><time>2026-04-16T18:07:58.999Z</time></trkpt><trkpt lat="45.6990348317216" lon="11.283688355695846"><ele>775.0</ele><time>2026-04-16T18:09:29Z</time></trkpt><trkpt lat="45.698982926811425" lon="11.283832312254871"><ele>771.6666666666667</ele><time>2026-04-16T18:09:31Z</time></trkpt><trkpt lat="45.69894850423232" lon="11.283911359922737"><ele>768.3333333333334</ele><time>2026-04-16T18:09:32Z</time></trkpt><trkpt lat="45.698991468512936" lon="11.28401578362259"><ele>765.0</ele><time>2026-04-16T18:09:34.999Z</time></trkpt><trkpt lat="45.69900016852107" lon="11.28413588807715"><ele>764.8333333333334</ele><time>2026-04-16T18:09:36.999Z</time></trkpt><trkpt lat="45.698978654651285" lon="11.28423216020703"><ele>764.6666666666666</ele><time>2026-04-16T18:09:45.999Z</time></trkpt><trkpt lat="45.699017006480524" lon="11.284313842576122"><ele>764.5</ele><time>2026-04-16T18:09:47.999Z</time></trkpt><trkpt lat="45.698997420366716" lon="11.284447598558838"><ele>764.3333333333333</ele><time>2026-04-16T18:09:50.999Z</time></trkpt><trkpt lat="45.69900118547628" lon="11.284599046813584"><ele>764.1666666666666</ele><time>2026-04-16T18:09:52.999Z</time></trkpt><trkpt lat="45.69900653665844" lon="11.284716207260182"><ele>764.0</ele><time>2026-04-16T18:09:53.999Z</time></trkpt><trkpt lat="45.69901166185397" lon="11.28482985784852"><ele>764.0</ele><time>2026-04-16T18:09:54.999Z</time></trkpt><trkpt lat="45.698994994493454" lon="11.284932856479113"><ele>764.0</ele><time>2026-04-16T18:09:55.999Z</time></trkpt><trkpt lat="45.69896302141231" lon="11.285024067982075"><ele>764.0</ele><time>2026-04-16T18:09:56.999Z</time></trkpt><trkpt lat="45.69894194034985" lon="11.285146561469498"><ele>764.0</ele><time>2026-04-16T18:09:58.999Z</time></trkpt><trkpt lat="45.69897042609819" lon="11.285254027110986"><ele>764.0</ele><time>2026-04-16T18:10:01.999Z</time></trkpt><trkpt lat="45.69891308317118" lon="11.285332551926945"><ele>764.0</ele><time>2026-04-16T18:10:05.999Z</time></trkpt><trkpt lat="45.69891209877477" lon="11.285220443879757"><ele>764.0</ele><time>2026-04-16T18:10:08.999Z</time></trkpt><trkpt lat="45.69891125428034" lon="11.285112340503535"><ele>764.0</ele><time>2026-04-16T18:10:11.999Z</time></trkpt><trkpt lat="45.69882464808258" lon="11.28508590078931"><ele>764.0</ele><time>2026-04-16T18:10:14.999Z</time></trkpt><trkpt lat="45.6987310713015" lon="11.285118339184482"><ele>764.0</ele><time>2026-04-16T18:10:16.999Z</time></trkpt><trkpt lat="45.69868817506151" lon="11.285286093867722"><ele>764.0</ele><time>2026-04-16T18:10:18.999Z</time></trkpt><trkpt lat="45.69866423828318" lon="11.28540889207871"><ele>764.0</ele><time>2026-04-16T18:10:19.999Z</time></trkpt><trkpt lat="45.698647766633655" lon="11.285509679304289"><ele>764.0</ele><time>2026-04-16T18:10:20.999Z</time></trkpt><trkpt lat="45.6986290898221" lon="11.285599752322774"><ele>764.0</ele><time>2026-04-16T18:10:21.999Z</time></trkpt><trkpt lat="45.6986291920638" lon="11.285707755107866"><ele>764.0</ele><time>2026-04-16T18:10:22.999Z</time></trkpt><trkpt lat="45.69861758994125" lon="11.28581197290481"><ele>764.0</ele><time>2026-04-16T18:10:23.999Z</time></trkpt><trkpt lat="45.69858120447569" lon="11.285886791322259"><ele>764.0</ele><time>2026-04-16T18:10:24.999Z</time></trkpt><trkpt lat="45.69849728120128" lon="11.28600941936664"><ele>763.8000000000001</ele><time>2026-04-16T18:10:26.999Z</time></trkpt><trkpt lat="45.69844366737321" lon="11.286143587330944"><ele>763.6</ele><time>2026-04-16T18:10:28.999Z</time></trkpt><trkpt lat="45.69840759274256" lon="11.286288085614366"><ele>763.4</ele><time>2026-04-16T18:10:30.999Z</time></trkpt><trkpt lat="45.69838448653904" lon="11.28639993746067"><ele>763.2</ele><time>2026-04-16T18:10:32.999Z</time></trkpt><trkpt lat="45.698312858803014" lon="11.286390315823832"><ele>763.0</ele><time>2026-04-16T18:10:35.998Z</time></trkpt><trkpt lat="45.698206018153506" lon="11.286321619371355"><ele>763.0</ele><time>2026-04-16T18:10:38Z</time></trkpt><trkpt lat="45.698084005018" lon="11.286280656119972"><ele>763.0</ele><time>2026-04-16T18:10:40Z</time></trkpt><trkpt lat="45.69802130923468" lon="11.286219326543144"><ele>763.0</ele><time>2026-04-16T18:10:41Z</time></trkpt><trkpt lat="45.69794274070181" lon="11.286158333054118"><ele>763.0</ele><time>2026-04-16T18:10:42Z</time></trkpt><trkpt lat="45.697857845002154" lon="11.286110144333634"><ele>763.0</ele><time>2026-04-16T18:10:43Z</time></trkpt><trkpt lat="45.69780503223529" lon="11.285991195651402"><ele>760.6666666666667</ele><time>2026-04-16T18:10:44Z</time></trkpt><trkpt lat="45.69773757363212" lon="11.285918888709611"><ele>758.3333333333334</ele><time>2026-04-16T18:10:45Z</time></trkpt><trkpt lat="45.69768246175819" lon="11.28584090972616"><ele>756.0</ele><time>2026-04-16T18:10:46Z</time></trkpt><trkpt lat="45.697635204076896" lon="11.285761721808981"><ele>753.6666666666666</ele><time>2026-04-16T18:10:47Z</time></trkpt><trkpt lat="45.697575893289056" lon="11.285663184993869"><ele>751.3333333333333</ele><time>2026-04-16T18:10:48Z</time></trkpt><trkpt lat="45.69753366482393" lon="11.285593029591988"><ele>749.0</ele><time>2026-04-16T18:10:49Z</time></trkpt><trkpt lat="45.69736938826424" lon="11.285654584595813"><ele>749.0</ele><time>2026-04-16T18:10:53Z</time></trkpt><trkpt lat="45.697280731726764" lon="11.285645480382186"><ele>749.0</ele><time>2026-04-16T18:10:55Z</time></trkpt><trkpt lat="45.69719047817242" lon="11.28561381538406"><ele>749.0</ele><time>2026-04-16T18:10:56Z</time></trkpt><trkpt lat="45.69711685266156" lon="11.28560432781366"><ele>749.0</ele><time>2026-04-16T18:10:57Z</time></trkpt><trkpt lat="45.697014993316515" lon="11.285650273140233"><ele>749.0</ele><time>2026-04-16T18:10:59Z</time></trkpt><trkpt lat="45.69695393326485" lon="11.285700218891819"><ele>749.0</ele><time>2026-04-16T18:11:00Z</time></trkpt><trkpt lat="45.696888978079166" lon="11.285737934799453"><ele>747.0</ele><time>2026-04-16T18:11:01Z</time></trkpt><trkpt lat="45.69683752098481" lon="11.285795668553462"><ele>745.0</ele><time>2026-04-16T18:11:02Z</time></trkpt><trkpt lat="45.6967997545271" lon="11.285874855747116"><ele>743.0</ele><time>2026-04-16T18:11:03Z</time></trkpt><trkpt lat="45.69677855939794" lon="11.286042051340496"><ele>741.0</ele><time>2026-04-16T18:11:05Z</time></trkpt><trkpt lat="45.696764299363764" lon="11.286156488239639"><ele>739.0</ele><time>2026-04-16T18:11:08Z</time></trkpt><trkpt lat="45.69670553554191" lon="11.286216445166097"><ele>737.0</ele><time>2026-04-16T18:11:40Z</time></trkpt><trkpt lat="45.69663808130952" lon="11.286193776205778"><ele>737.0</ele><time>2026-04-16T18:11:41Z</time></trkpt><trkpt lat="45.69655044117804" lon="11.286133496367905"><ele>737.0</ele><time>2026-04-16T18:11:42Z</time></trkpt><trkpt lat="45.69643464503571" lon="11.286052161053728"><ele>737.0</ele><time>2026-04-16T18:11:43Z</time></trkpt><trkpt lat="45.696285419566614" lon="11.28592995935669"><ele>737.0</ele><time>2026-04-16T18:11:43.999Z</time></trkpt><trkpt lat="45.696142616424176" lon="11.28578613283957"><ele>740.25</ele><time>2026-04-16T18:11:44.999Z</time></trkpt><trkpt lat="45.69601845018717" lon="11.285653880608919"><ele>743.5</ele><time>2026-04-16T18:11:45.999Z</time></trkpt><trkpt lat="45.69589834590508" lon="11.285534781332437"><ele>746.75</ele><time>2026-04-16T18:11:46.999Z</time></trkpt><trkpt lat="45.69578256358042" lon="11.285447805468744"><ele>750.0</ele><time>2026-04-16T18:11:47.999Z</time></trkpt><trkpt lat="45.69565153532653" lon="11.285360629657333"><ele>742.75</ele><time>2026-04-16T18:11:48.999Z</time></trkpt><trkpt lat="45.69550875370384" lon="11.285271050797709"><ele>735.5</ele><time>2026-04-16T18:11:49.999Z</time></trkpt><trkpt lat="45.69538054048013" lon="11.285192509274289"><ele>728.25</ele><time>2026-04-16T18:11:50.999Z</time></trkpt><trkpt lat="45.69525790994348" lon="11.285127550764113"><ele>721.0</ele><time>2026-04-16T18:11:51.999Z</time></trkpt><trkpt lat="45.69515136751408" lon="11.285094818824428"><ele>721.0</ele><time>2026-04-16T18:11:52.999Z</time></trkpt><trkpt lat="45.69504384470435" lon="11.285082040847135"><ele>721.0</ele><time>2026-04-16T18:11:53.999Z</time></trkpt><trkpt lat="45.694923964148785" lon="11.285084605121028"><ele>721.0</ele><time>2026-04-16T18:11:54.999Z</time></trkpt><trkpt lat="45.694784729463294" lon="11.285112040368448"><ele>721.0</ele><time>2026-04-16T18:11:55.999Z</time></trkpt><trkpt lat="45.69465564517309" lon="11.285136165490224"><ele>721.0</ele><time>2026-04-16T18:11:56.999Z</time></trkpt><trkpt lat="45.694564784596196" lon="11.285150463713897"><ele>721.0</ele><time>2026-04-16T18:11:57.999Z</time></trkpt><trkpt lat="45.69450111533327" lon="11.28524863437579"><ele>721.0</ele><time>2026-04-16T18:11:59.999Z</time></trkpt><trkpt lat="45.69450464203515" lon="11.285348695008244"><ele>721.0</ele><time>2026-04-16T18:12:00.999Z</time></trkpt><trkpt lat="45.69451541192385" lon="11.285480014199651"><ele>721.0</ele><time>2026-04-16T18:12:01.999Z</time></trkpt><trkpt lat="45.694521214828455" lon="11.285650261703404"><ele>727.1999999999999</ele><time>2026-04-16T18:12:02.999Z</time></trkpt><trkpt lat="45.694545088588754" lon="11.285824516211438"><ele>733.4</ele><time>2026-04-16T18:12:03.999Z</time></trkpt><trkpt lat="45.694554840002375" lon="11.285970009474891"><ele>739.6</ele><time>2026-04-16T18:12:04.999Z</time></trkpt><trkpt lat="45.69459932261841" lon="11.286116074613105"><ele>745.8</ele><time>2026-04-16T18:12:05.999Z</time></trkpt><trkpt lat="45.69461417038743" lon="11.28620510807397"><ele>752.0</ele><time>2026-04-16T18:12:06.999Z</time></trkpt><trkpt lat="45.69460775705639" lon="11.286311392478984"><ele>752.0</ele><time>2026-04-16T18:12:07.999Z</time></trkpt><trkpt lat="45.694568516993236" lon="11.286405514114708"><ele>752.0</ele><time>2026-04-16T18:12:08.999Z</time></trkpt><trkpt lat="45.69452762118201" lon="11.286507898311648"><ele>752.0</ele><time>2026-04-16T18:12:09.999Z</time></trkpt><trkpt lat="45.69448622154736" lon="11.286622460837464"><ele>752.0</ele><time>2026-04-16T18:12:10.999Z</time></trkpt><trkpt lat="45.69444420517606" lon="11.286721756173094"><ele>752.0</ele><time>2026-04-16T18:12:11.999Z</time></trkpt><trkpt lat="45.69437804565653" lon="11.286842950828499"><ele>752.0</ele><time>2026-04-16T18:12:13.999Z</time></trkpt><trkpt lat="45.694319862942855" lon="11.286913267710341"><ele>747.2</ele><time>2026-04-16T18:12:15.999Z</time></trkpt><trkpt lat="45.694255412046004" lon="11.287005920030209"><ele>742.4000000000001</ele><time>2026-04-16T18:12:41.999Z</time></trkpt><trkpt lat="45.69421037647523" lon="11.287089447646709"><ele>737.5999999999999</ele><time>2026-04-16T18:12:43Z</time></trkpt><trkpt lat="45.69416032125939" lon="11.287192800478246"><ele>732.8</ele><time>2026-04-16T18:12:44Z</time></trkpt><trkpt lat="45.694109961318404" lon="11.287306832998988"><ele>728.0</ele><time>2026-04-16T18:12:45Z</time></trkpt><trkpt lat="45.69406630116401" lon="11.287439511621939"><ele>728.0</ele><time>2026-04-16T18:12:46Z</time></trkpt><trkpt lat="45.694012665530245" lon="11.287563369800443"><ele>728.0</ele><time>2026-04-16T18:12:47Z</time></trkpt><trkpt lat="45.693994735066816" lon="11.287710620926266"><ele>728.0</ele><time>2026-04-16T18:12:48Z</time></trkpt><trkpt lat="45.69394064179161" lon="11.287830374580194"><ele>728.0</ele><time>2026-04-16T18:12:49Z</time></trkpt><trkpt lat="45.693883730852974" lon="11.287957931173061"><ele>728.0</ele><time>2026-04-16T18:12:50Z</time></trkpt><trkpt lat="45.693828536731644" lon="11.288118523256424"><ele>725.8</ele><time>2026-04-16T18:12:51Z</time></trkpt><trkpt lat="45.69375080448958" lon="11.288249083846685"><ele>723.5999999999999</ele><time>2026-04-16T18:12:52Z</time></trkpt><trkpt lat="45.69367770427177" lon="11.288360100590115"><ele>721.4000000000001</ele><time>2026-04-16T18:12:53Z</time></trkpt><trkpt lat="45.69360725044588" lon="11.288431340412227"><ele>719.2</ele><time>2026-04-16T18:12:54Z</time></trkpt><trkpt lat="45.69352871411647" lon="11.288417891426437"><ele>717.0</ele><time>2026-04-16T18:12:55Z</time></trkpt><trkpt lat="45.69343511018506" lon="11.288447465323799"><ele>717.0</ele><time>2026-04-16T18:12:56Z</time></trkpt><trkpt lat="45.69336538797719" lon="11.288529314485888"><ele>717.0</ele><time>2026-04-16T18:12:57Z</time></trkpt><trkpt lat="45.69331851297736" lon="11.2886517859643"><ele>717.0</ele><time>2026-04-16T18:12:58Z</time></trkpt><trkpt lat="45.69327325796294" lon="11.288796171270217"><ele>717.0</ele><time>2026-04-16T18:12:59Z</time></trkpt><trkpt lat="45.69323543115977" lon="11.288910704114368"><ele>717.0</ele><time>2026-04-16T18:13:00Z</time></trkpt><trkpt lat="45.69320186120219" lon="11.28900911421502"><ele>717.0</ele><time>2026-04-16T18:13:01Z</time></trkpt><trkpt lat="45.693163974516345" lon="11.289088992630873"><ele>717.0</ele><time>2026-04-16T18:13:02Z</time></trkpt><trkpt lat="45.693053694603805" lon="11.2891633048136"><ele>717.0</ele><time>2026-04-16T18:13:04Z</time></trkpt><trkpt lat="45.69294943169131" lon="11.289177098380703"><ele>717.0</ele><time>2026-04-16T18:13:05Z</time></trkpt><trkpt lat="45.692885963048205" lon="11.289206370474005"><ele>717.0</ele><time>2026-04-16T18:13:06Z</time></trkpt><trkpt lat="45.692796924619294" lon="11.289365730312548"><ele>724.0</ele><time>2026-04-16T18:13:08Z</time></trkpt><trkpt lat="45.69274541758857" lon="11.289510874142081"><ele>731.0</ele><time>2026-04-16T18:13:09Z</time></trkpt><trkpt lat="45.69270924258471" lon="11.289670354883858"><ele>738.0</ele><time>2026-04-16T18:13:10Z</time></trkpt><trkpt lat="45.6926829072906" lon="11.289845310003956"><ele>745.0</ele><time>2026-04-16T18:13:11Z</time></trkpt><trkpt lat="45.69266434803926" lon="11.290011492018955"><ele>745.0</ele><time>2026-04-16T18:13:12Z</time></trkpt><trkpt lat="45.692651374318814" lon="11.290180310336625"><ele>745.0</ele><time>2026-04-16T18:13:13Z</time></trkpt><trkpt lat="45.69265636226742" lon="11.290324680670413"><ele>745.0</ele><time>2026-04-16T18:13:14Z</time></trkpt><trkpt lat="45.692637328824304" lon="11.290462585930557"><ele>745.0</ele><time>2026-04-16T18:13:15Z</time></trkpt><trkpt lat="45.692636179340525" lon="11.290604307690247"><ele>745.0</ele><time>2026-04-16T18:13:16Z</time></trkpt><trkpt lat="45.69263813626287" lon="11.290748338213891"><ele>744.0</ele><time>2026-04-16T18:13:17Z</time></trkpt><trkpt lat="45.69264348248046" lon="11.290888790388543"><ele>743.0</ele><time>2026-04-16T18:13:18Z</time></trkpt><trkpt lat="45.69265840167647" lon="11.29101070756862"><ele>742.0</ele><time>2026-04-16T18:13:19Z</time></trkpt><trkpt lat="45.692659704707154" lon="11.291150662013656"><ele>741.0</ele><time>2026-04-16T18:13:20Z</time></trkpt><trkpt lat="45.692665939969814" lon="11.291290070334057"><ele>740.0</ele><time>2026-04-16T18:13:21Z</time></trkpt><trkpt lat="45.692713366607244" lon="11.291407510437782"><ele>732.3333333333333</ele><time>2026-04-16T18:13:22Z</time></trkpt><trkpt lat="45.692757477533576" lon="11.2915081763127"><ele>724.6666666666666</ele><time>2026-04-16T18:13:23Z</time></trkpt><trkpt lat="45.692824050678965" lon="11.291582322190049"><ele>717.0</ele><time>2026-04-16T18:13:24Z</time></trkpt><trkpt lat="45.69290224125877" lon="11.29162657298347"><ele>709.3333333333334</ele><time>2026-04-16T18:13:25Z</time></trkpt><trkpt lat="45.69299727536736" lon="11.291660190873596"><ele>701.6666666666667</ele><time>2026-04-16T18:13:26Z</time></trkpt><trkpt lat="45.693068038620574" lon="11.291669914431276"><ele>694.0</ele><time>2026-04-16T18:13:27Z</time></trkpt><trkpt lat="45.6931218864576" lon="11.291785050506078"><ele>694.0</ele><time>2026-04-16T18:13:29Z</time></trkpt><trkpt lat="45.69308269371395" lon="11.291867460220004"><ele>694.0</ele><time>2026-04-16T18:13:30Z</time></trkpt><trkpt lat="45.69304068281764" lon="11.291964096018571"><ele>694.0</ele><time>2026-04-16T18:13:31Z</time></trkpt><trkpt lat="45.69299205831498" lon="11.29207458170202"><ele>694.0</ele><time>2026-04-16T18:13:32Z</time></trkpt><trkpt lat="45.69293070246157" lon="11.292202675767657"><ele>694.0</ele><time>2026-04-16T18:13:33Z</time></trkpt><trkpt lat="45.69285701014537" lon="11.292348883932997"><ele>693.5</ele><time>2026-04-16T18:13:34Z</time></trkpt><trkpt lat="45.69279839109125" lon="11.292469184891553"><ele>693.0</ele><time>2026-04-16T18:13:35Z</time></trkpt><trkpt lat="45.69276486198399" lon="11.292591302464043"><ele>692.5</ele><time>2026-04-16T18:13:36Z</time></trkpt><trkpt lat="45.69275452646122" lon="11.292688009431254"><ele>692.0</ele><time>2026-04-16T18:13:37Z</time></trkpt><trkpt lat="45.69276328742429" lon="11.292791312572843"><ele>691.5</ele><time>2026-04-16T18:13:38Z</time></trkpt><trkpt lat="45.692768101796965" lon="11.292887934770242"><ele>691.0</ele><time>2026-04-16T18:13:39Z</time></trkpt><trkpt lat="45.692805294693535" lon="11.293017941128234"><ele>689.8</ele><time>2026-04-16T18:13:40Z</time></trkpt><trkpt lat="45.692870911022865" lon="11.293139411722906"><ele>688.5999999999999</ele><time>2026-04-16T18:13:41Z</time></trkpt><trkpt lat="45.69293420282966" lon="11.293269369903097"><ele>687.4</ele><time>2026-04-16T18:13:42Z</time></trkpt><trkpt lat="45.692979757050374" lon="11.293369456265932"><ele>686.2</ele><time>2026-04-16T18:13:43Z</time></trkpt><trkpt lat="45.692995091195584" lon="11.293488075799141"><ele>685.0</ele><time>2026-04-16T18:13:44Z</time></trkpt><trkpt lat="45.69294236151915" lon="11.293670474267762"><ele>685.0</ele><time>2026-04-16T18:13:46Z</time></trkpt><trkpt lat="45.69291598274085" lon="11.293797722228382"><ele>685.0</ele><time>2026-04-16T18:13:47Z</time></trkpt><trkpt lat="45.692908905082724" lon="11.293917017177995"><ele>685.0</ele><time>2026-04-16T18:13:48Z</time></trkpt><trkpt lat="45.69291567513934" lon="11.294024375137848"><ele>685.0</ele><time>2026-04-16T18:13:49Z</time></trkpt><trkpt lat="45.692931757193406" lon="11.29413418175684"><ele>685.0</ele><time>2026-04-16T18:13:49.999Z</time></trkpt><trkpt lat="45.69296740147274" lon="11.294260482760281"><ele>685.0</ele><time>2026-04-16T18:13:50.999Z</time></trkpt><trkpt lat="45.693028731379854" lon="11.294378501467031"><ele>687.2</ele><time>2026-04-16T18:13:51.999Z</time></trkpt><trkpt lat="45.693107828028054" lon="11.294470441354147"><ele>689.4</ele><time>2026-04-16T18:13:52.999Z</time></trkpt><trkpt lat="45.693196978210395" lon="11.294536410990382"><ele>691.5999999999999</ele><time>2026-04-16T18:13:53.999Z</time></trkpt><trkpt lat="45.69327764267376" lon="11.29462680450797"><ele>693.8</ele><time>2026-04-16T18:13:54.999Z</time></trkpt><trkpt lat="45.69337687830613" lon="11.294676027382696"><ele>696.0</ele><time>2026-04-16T18:13:55.999Z</time></trkpt><trkpt lat="45.6934838917416" lon="11.294663158145358"><ele>696.0</ele><time>2026-04-16T18:13:56.999Z</time></trkpt><trkpt lat="45.69358451230375" lon="11.294669604188732"><ele>696.0</ele><time>2026-04-16T18:13:57.999Z</time></trkpt><trkpt lat="45.69365673363319" lon="11.294715496094343"><ele>696.0</ele><time>2026-04-16T18:13:58.999Z</time></trkpt><trkpt lat="45.69366177420254" lon="11.2948389848418"><ele>696.0</ele><time>2026-04-16T18:14:00.999Z</time></trkpt><trkpt lat="45.69367642051181" lon="11.294978412544822"><ele>696.0</ele><time>2026-04-16T18:14:01.999Z</time></trkpt><trkpt lat="45.69369897693113" lon="11.295121612028387"><ele>690.6666666666666</ele><time>2026-04-16T18:14:02.999Z</time></trkpt><trkpt lat="45.69373600894043" lon="11.295246433174807"><ele>685.3333333333334</ele><time>2026-04-16T18:14:03.999Z</time></trkpt><trkpt lat="45.6937683860492" lon="11.295356882479593"><ele>680.0</ele><time>2026-04-16T18:14:04.999Z</time></trkpt><trkpt lat="45.693793401682754" lon="11.295475980868295"><ele>674.6666666666667</ele><time>2026-04-16T18:14:05.999Z</time></trkpt><trkpt lat="45.69379461311736" lon="11.295583189390213"><ele>669.3333333333334</ele><time>2026-04-16T18:14:06.999Z</time></trkpt><trkpt lat="45.693745759613115" lon="11.29567014401677"><ele>664.0</ele><time>2026-04-16T18:14:07.999Z</time></trkpt><trkpt lat="45.693692910308535" lon="11.295776240250003"><ele>664.0</ele><time>2026-04-16T18:14:08.999Z</time></trkpt><trkpt lat="45.69363361494182" lon="11.29589942320616"><ele>664.0</ele><time>2026-04-16T18:14:09.999Z</time></trkpt><trkpt lat="45.69361287078839" lon="11.296033227666593"><ele>664.0</ele><time>2026-04-16T18:14:10.999Z</time></trkpt><trkpt lat="45.693582599183976" lon="11.29617547163543"><ele>664.0</ele><time>2026-04-16T18:14:11.999Z</time></trkpt><trkpt lat="45.693600169647304" lon="11.296315919694004"><ele>664.0</ele><time>2026-04-16T18:14:12.999Z</time></trkpt><trkpt lat="45.69364211604087" lon="11.296450143837182"><ele>663.2</ele><time>2026-04-16T18:14:13.999Z</time></trkpt><trkpt lat="45.69366693094965" lon="11.296566103230587"><ele>662.4000000000001</ele><time>2026-04-16T18:14:14.999Z</time></trkpt><trkpt lat="45.69367842351117" lon="11.296692007326367"><ele>661.6</ele><time>2026-04-16T18:14:16.999Z</time></trkpt><trkpt lat="45.69354576582641" lon="11.296801945100668"><ele>660.8</ele><time>2026-04-16T18:14:18.999Z</time></trkpt><trkpt lat="45.69346776735266" lon="11.296892882586206"><ele>660.0</ele><time>2026-04-16T18:14:19.999Z</time></trkpt><trkpt lat="45.69341240283506" lon="11.297075049092333"><ele>669.4</ele><time>2026-04-16T18:14:21.999Z</time></trkpt><trkpt lat="45.69337610782459" lon="11.297185161113239"><ele>678.8</ele><time>2026-04-16T18:14:22.999Z</time></trkpt><trkpt lat="45.69334889746921" lon="11.297314600114117"><ele>688.2</ele><time>2026-04-16T18:14:23.999Z</time></trkpt><trkpt lat="45.69332533450668" lon="11.29744581992135"><ele>697.6</ele><time>2026-04-16T18:14:24.999Z</time></trkpt><trkpt lat="45.69328221868236" lon="11.297601592836937"><ele>707.0</ele><time>2026-04-16T18:14:25.999Z</time></trkpt><trkpt lat="45.69325085945095" lon="11.297727672266353"><ele>707.0</ele><time>2026-04-16T18:14:26.999Z</time></trkpt><trkpt lat="45.69335240270017" lon="11.297851501754023"><ele>707.0</ele><time>2026-04-16T18:14:27.999Z</time></trkpt><trkpt lat="45.69336844021557" lon="11.29794518839022"><ele>707.0</ele><time>2026-04-16T18:14:28.999Z</time></trkpt><trkpt lat="45.69337037016287" lon="11.298069557317557"><ele>707.0</ele><time>2026-04-16T18:14:29.999Z</time></trkpt><trkpt lat="45.69333896798137" lon="11.298163104258467"><ele>707.0</ele><time>2026-04-16T18:14:30.999Z</time></trkpt><trkpt lat="45.69327323410052" lon="11.298262393041469"><ele>704.0</ele><time>2026-04-16T18:14:31.999Z</time></trkpt><trkpt lat="45.69319303994805" lon="11.298368217065324"><ele>701.0</ele><time>2026-04-16T18:14:32.999Z</time></trkpt><trkpt lat="45.69310080160235" lon="11.29845754191871"><ele>698.0</ele><time>2026-04-16T18:14:33.999Z</time></trkpt><trkpt lat="45.69303401739526" lon="11.29852466244898"><ele>695.0</ele><time>2026-04-16T18:14:34.999Z</time></trkpt><trkpt lat="45.692972514969405" lon="11.298617853862497"><ele>692.0</ele><time>2026-04-16T18:14:35.999Z</time></trkpt><trkpt lat="45.69299834868352" lon="11.298726664144212"><ele>692.0</ele><time>2026-04-16T18:14:37.999Z</time></trkpt><trkpt lat="45.69303402183943" lon="11.298803164805857"><ele>692.0</ele><time>2026-04-16T18:14:38.999Z</time></trkpt><trkpt lat="45.693067803565526" lon="11.298898070437525"><ele>692.0</ele><time>2026-04-16T18:14:39.999Z</time></trkpt><trkpt lat="45.69307288488675" lon="11.299048520652995"><ele>692.0</ele><time>2026-04-16T18:14:40.999Z</time></trkpt><trkpt lat="45.69309243034289" lon="11.299177735390389"><ele>692.0</ele><time>2026-04-16T18:14:41.999Z</time></trkpt><trkpt lat="45.69313383904871" lon="11.299277178903253"><ele>692.0</ele><time>2026-04-16T18:14:42.999Z</time></trkpt><trkpt lat="45.69320468796464" lon="11.299330502739421"><ele>691.3333333333333</ele><time>2026-04-16T18:14:43.999Z</time></trkpt><trkpt lat="45.69327385890621" lon="11.299350377044583"><ele>690.6666666666666</ele><time>2026-04-16T18:14:44.999Z</time></trkpt><trkpt lat="45.69334618270564" lon="11.299390121813634"><ele>690.0</ele><time>2026-04-16T18:14:45.999Z</time></trkpt><trkpt lat="45.69338407081845" lon="11.299476274317895"><ele>689.3333333333334</ele><time>2026-04-16T18:14:46.999Z</time></trkpt><trkpt lat="45.69339799059696" lon="11.299570522165416"><ele>688.6666666666667</ele><time>2026-04-16T18:14:47.999Z</time></trkpt><trkpt lat="45.69338434741127" lon="11.299670745637995"><ele>688.0</ele><time>2026-04-16T18:14:49Z</time></trkpt><trkpt lat="45.69334791477918" lon="11.29979765788323"><ele>691.8</ele><time>2026-04-16T18:14:50Z</time></trkpt><trkpt lat="45.69335787861636" lon="11.299912576432758"><ele>695.5999999999999</ele><time>2026-04-16T18:14:51Z</time></trkpt><trkpt lat="45.69338937145845" lon="11.300023370217001"><ele>699.4000000000001</ele><time>2026-04-16T18:14:52Z</time></trkpt><trkpt lat="45.6934525099506" lon="11.30010039146648"><ele>703.2</ele><time>2026-04-16T18:14:53Z</time></trkpt><trkpt lat="45.69354248704289" lon="11.300172244554513"><ele>707.0</ele><time>2026-04-16T18:14:54Z</time></trkpt><trkpt lat="45.69363489261691" lon="11.300240574484437"><ele>697.0</ele><time>2026-04-16T18:14:55Z</time></trkpt><trkpt lat="45.693717231660564" lon="11.300319436779802"><ele>687.0</ele><time>2026-04-16T18:14:56Z</time></trkpt><trkpt lat="45.693768256498714" lon="11.300400366026677"><ele>677.0</ele><time>2026-04-16T18:14:57Z</time></trkpt><trkpt lat="45.6937805545185" lon="11.30055809688474"><ele>667.0</ele><time>2026-04-16T18:14:59Z</time></trkpt><trkpt lat="45.69375051434755" lon="11.300646400441247"><ele>657.0</ele><time>2026-04-16T18:15:00Z</time></trkpt><trkpt lat="45.693705606598506" lon="11.300768253281483"><ele>657.0</ele><time>2026-04-16T18:15:01Z</time></trkpt><trkpt lat="45.693627647641634" lon="11.300910083789802"><ele>657.0</ele><time>2026-04-16T18:15:02Z</time></trkpt><trkpt lat="45.69355356414244" lon="11.301067628449434"><ele>657.0</ele><time>2026-04-16T18:15:03Z</time></trkpt><trkpt lat="45.69346921163179" lon="11.301207673535076"><ele>657.0</ele><time>2026-04-16T18:15:04Z</time></trkpt><trkpt lat="45.69340276494523" lon="11.301358216980633"><ele>663.5</ele><time>2026-04-16T18:15:05Z</time></trkpt><trkpt lat="45.693363816348665" lon="11.301484396014631"><ele>670.0</ele><time>2026-04-16T18:15:06Z</time></trkpt><trkpt lat="45.69331786256451" lon="11.301588423359695"><ele>676.5</ele><time>2026-04-16T18:15:07Z</time></trkpt><trkpt lat="45.69325654315473" lon="11.301690508090887"><ele>683.0</ele><time>2026-04-16T18:15:08Z</time></trkpt><trkpt lat="45.693185808658505" lon="11.301771797780445"><ele>689.5</ele><time>2026-04-16T18:15:09Z</time></trkpt><trkpt lat="45.69312667581456" lon="11.30184727846404"><ele>696.0</ele><time>2026-04-16T18:15:10Z</time></trkpt><trkpt lat="45.69310042194701" lon="11.30193371721247"><ele>696.0</ele><time>2026-04-16T18:15:11Z</time></trkpt><trkpt lat="45.69306535877997" lon="11.302054462220179"><ele>696.0</ele><time>2026-04-16T18:15:12Z</time></trkpt><trkpt lat="45.69305609886743" lon="11.302176397064574"><ele>696.0</ele><time>2026-04-16T18:15:13Z</time></trkpt><trkpt lat="45.693066549135715" lon="11.302287116409854"><ele>696.0</ele><time>2026-04-16T18:15:14Z</time></trkpt><trkpt lat="45.693058177351986" lon="11.30239211687965"><ele>696.0</ele><time>2026-04-16T18:15:15Z</time></trkpt><trkpt lat="45.69302635174787" lon="11.302473450833377"><ele>696.0</ele><time>2026-04-16T18:15:16Z</time></trkpt><trkpt lat="45.692960120836986" lon="11.302568784273646"><ele>698.0</ele><time>2026-04-16T18:15:17Z</time></trkpt><trkpt lat="45.692878461244916" lon="11.302669568719173"><ele>700.0</ele><time>2026-04-16T18:15:18Z</time></trkpt><trkpt lat="45.692809898369866" lon="11.302757662381342"><ele>702.0</ele><time>2026-04-16T18:15:19Z</time></trkpt><trkpt lat="45.692754617602944" lon="11.302824341934809"><ele>704.0</ele><time>2026-04-16T18:15:20Z</time></trkpt><trkpt lat="45.692706600606975" lon="11.302911068697929"><ele>706.0</ele><time>2026-04-16T18:15:21Z</time></trkpt><trkpt lat="45.692683092701834" lon="11.303011409581702"><ele>708.0</ele><time>2026-04-16T18:15:22Z</time></trkpt><trkpt lat="45.69263572927636" lon="11.303137071475819"><ele>708.0</ele><time>2026-04-16T18:15:23Z</time></trkpt><trkpt lat="45.692584794914374" lon="11.303246520508873"><ele>708.0</ele><time>2026-04-16T18:15:24Z</time></trkpt><trkpt lat="45.692570207855816" lon="11.303366875140666"><ele>708.0</ele><time>2026-04-16T18:15:25Z</time></trkpt><trkpt lat="45.692588773227165" lon="11.303487617234579"><ele>708.0</ele><time>2026-04-16T18:15:26Z</time></trkpt><trkpt lat="45.69259944869876" lon="11.303621928603848"><ele>708.0</ele><time>2026-04-16T18:15:27Z</time></trkpt><trkpt lat="45.69262988130768" lon="11.303762630328345"><ele>708.0</ele><time>2026-04-16T18:15:28Z</time></trkpt><trkpt lat="45.69261341375839" lon="11.303900150685665"><ele>708.0</ele><time>2026-04-16T18:15:29Z</time></trkpt><trkpt lat="45.69261389348377" lon="11.304007496647818"><ele>708.0</ele><time>2026-04-16T18:15:30Z</time></trkpt><trkpt lat="45.692644607238456" lon="11.304123227492385"><ele>708.0</ele><time>2026-04-16T18:15:31Z</time></trkpt><trkpt lat="45.69270378141686" lon="11.304315299188374"><ele>708.0</ele><time>2026-04-16T18:15:33Z</time></trkpt><trkpt lat="45.69272356430356" lon="11.304453235880425"><ele>707.4</ele><time>2026-04-16T18:15:34Z</time></trkpt><trkpt lat="45.6927299403223" lon="11.30457441149159"><ele>706.8</ele><time>2026-04-16T18:15:35Z</time></trkpt><trkpt lat="45.692797804285945" lon="11.304701625256357"><ele>706.2</ele><time>2026-04-16T18:15:36.999Z</time></trkpt><trkpt lat="45.69286482363297" lon="11.304729410242286"><ele>705.6</ele><time>2026-04-16T18:15:37.999Z</time></trkpt><trkpt lat="45.69297367009855" lon="11.304778116378785"><ele>705.0</ele><time>2026-04-16T18:15:38.999Z</time></trkpt><trkpt lat="45.69308076001594" lon="11.304800358565794"><ele>696.4</ele><time>2026-04-16T18:15:39.999Z</time></trkpt><trkpt lat="45.69315746175392" lon="11.30482210737594"><ele>687.8</ele><time>2026-04-16T18:15:40.999Z</time></trkpt><trkpt lat="45.69323708311947" lon="11.304929039038248"><ele>679.2</ele><time>2026-04-16T18:15:42.999Z</time></trkpt><trkpt lat="45.693242689679195" lon="11.305025475723752"><ele>670.6</ele><time>2026-04-16T18:15:43.999Z</time></trkpt><trkpt lat="45.69323719307321" lon="11.305129780947146"><ele>662.0</ele><time>2026-04-16T18:15:44.999Z</time></trkpt><trkpt lat="45.69323623879468" lon="11.30530523831305"><ele>662.0</ele><time>2026-04-16T18:15:46.999Z</time></trkpt><trkpt lat="45.693308167811026" lon="11.305453881390909"><ele>662.0</ele><time>2026-04-16T18:15:48.999Z</time></trkpt><trkpt lat="45.693348499881985" lon="11.305551536084744"><ele>662.0</ele><time>2026-04-16T18:15:49.999Z</time></trkpt><trkpt lat="45.693370209994335" lon="11.305662657069641"><ele>662.0</ele><time>2026-04-16T18:15:50.999Z</time></trkpt><trkpt lat="45.69337539740857" lon="11.305801093910565"><ele>662.0</ele><time>2026-04-16T18:15:51.999Z</time></trkpt><trkpt lat="45.693389379746264" lon="11.305941615553493"><ele>665.8</ele><time>2026-04-16T18:15:52.999Z</time></trkpt><trkpt lat="45.693403948258066" lon="11.306090718170362"><ele>669.6</ele><time>2026-04-16T18:15:53.999Z</time></trkpt><trkpt lat="45.69340605455154" lon="11.306231533076666"><ele>673.4</ele><time>2026-04-16T18:15:54.999Z</time></trkpt><trkpt lat="45.69341561730906" lon="11.306381408969763"><ele>677.1999999999999</ele><time>2026-04-16T18:15:55.999Z</time></trkpt><trkpt lat="45.69343107516952" lon="11.306535333512938"><ele>681.0</ele><time>2026-04-16T18:15:56.999Z</time></trkpt><trkpt lat="45.69344903959453" lon="11.306667756949766"><ele>683.5999999999999</ele><time>2026-04-16T18:15:57.999Z</time></trkpt><trkpt lat="45.69346731086698" lon="11.30678478325284"><ele>686.2</ele><time>2026-04-16T18:15:58.999Z</time></trkpt><trkpt lat="45.69349825769116" lon="11.306912299896759"><ele>688.8</ele><time>2026-04-16T18:15:59.999Z</time></trkpt><trkpt lat="45.69353869850368" lon="11.307027906996986"><ele>691.4000000000001</ele><time>2026-04-16T18:16:00.999Z</time></trkpt><trkpt lat="45.693602722780284" lon="11.307132113609315"><ele>694.0</ele><time>2026-04-16T18:16:01.999Z</time></trkpt><trkpt lat="45.693660931019245" lon="11.307220896757523"><ele>685.0</ele><time>2026-04-16T18:16:02.999Z</time></trkpt><trkpt lat="45.693728240559395" lon="11.307278307086083"><ele>676.0</ele><time>2026-04-16T18:16:03.999Z</time></trkpt><trkpt lat="45.69378460091505" lon="11.307382236512458"><ele>667.0</ele><time>2026-04-16T18:16:04.999Z</time></trkpt><trkpt lat="45.69381453120755" lon="11.307473114131588"><ele>658.0</ele><time>2026-04-16T18:16:05.999Z</time></trkpt><trkpt lat="45.693861313121104" lon="11.307624734446163"><ele>649.0</ele><time>2026-04-16T18:16:06.999Z</time></trkpt><trkpt lat="45.69392707192957" lon="11.30777685129846"><ele>649.0</ele><time>2026-04-16T18:16:07.999Z</time></trkpt><trkpt lat="45.69399707763813" lon="11.307962272889949"><ele>649.0</ele><time>2026-04-16T18:16:08.999Z</time></trkpt><trkpt lat="45.69406959544196" lon="11.308113663755789"><ele>649.0</ele><time>2026-04-16T18:16:09.999Z</time></trkpt><trkpt lat="45.694138788505654" lon="11.308250536415164"><ele>649.0</ele><time>2026-04-16T18:16:10.999Z</time></trkpt><trkpt lat="45.69422714360824" lon="11.308373121618803"><ele>653.0</ele><time>2026-04-16T18:16:11.999Z</time></trkpt><trkpt lat="45.69428401494234" lon="11.308482795345682"><ele>657.0</ele><time>2026-04-16T18:16:12.999Z</time></trkpt><trkpt lat="45.69433587500046" lon="11.30858169861555"><ele>661.0</ele><time>2026-04-16T18:16:13.999Z</time></trkpt><trkpt lat="45.69432838207571" lon="11.308755218982304"><ele>665.0</ele><time>2026-04-16T18:16:15.999Z</time></trkpt><trkpt lat="45.694279606837135" lon="11.308832448431318"><ele>669.0</ele><time>2026-04-16T18:16:16.999Z</time></trkpt><trkpt lat="45.69422932140693" lon="11.308939775523667"><ele>669.0</ele><time>2026-04-16T18:16:17.999Z</time></trkpt><trkpt lat="45.694200725682705" lon="11.309086930191613"><ele>669.0</ele><time>2026-04-16T18:16:18.999Z</time></trkpt><trkpt lat="45.69416474671882" lon="11.309179900760336"><ele>669.0</ele><time>2026-04-16T18:16:19.999Z</time></trkpt><trkpt lat="45.694099489624286" lon="11.30926117323814"><ele>669.0</ele><time>2026-04-16T18:16:20.999Z</time></trkpt><trkpt lat="45.69401973780301" lon="11.309341626226644"><ele>669.0</ele><time>2026-04-16T18:16:21.999Z</time></trkpt><trkpt lat="45.69392517800851" lon="11.309426169263824"><ele>669.0</ele><time>2026-04-16T18:16:22.999Z</time></trkpt><trkpt lat="45.69383479300749" lon="11.309511086819894"><ele>669.0</ele><time>2026-04-16T18:16:23.999Z</time></trkpt><trkpt lat="45.69373056999782" lon="11.309580116836507"><ele>669.0</ele><time>2026-04-16T18:16:24.999Z</time></trkpt><trkpt lat="45.69364083846251" lon="11.309619369388086"><ele>669.0</ele><time>2026-04-16T18:16:25.999Z</time></trkpt><trkpt lat="45.693556600929874" lon="11.309643535568576"><ele>669.0</ele><time>2026-04-16T18:16:26.999Z</time></trkpt><trkpt lat="45.693489749933704" lon="11.309648733175877"><ele>673.2</ele><time>2026-04-16T18:16:27.999Z</time></trkpt><trkpt lat="45.69341676049527" lon="11.309653017867355"><ele>677.4000000000001</ele><time>2026-04-16T18:16:28.999Z</time></trkpt><trkpt lat="45.69332998205619" lon="11.309620211867708"><ele>681.6</ele><time>2026-04-16T18:16:29.999Z</time></trkpt><trkpt lat="45.69323325016704" lon="11.309547392201699"><ele>685.8</ele><time>2026-04-16T18:16:30.999Z</time></trkpt><trkpt lat="45.69312087968919" lon="11.309500677352807"><ele>690.0</ele><time>2026-04-16T18:16:31.999Z</time></trkpt><trkpt lat="45.69299875877503" lon="11.309475432659204"><ele>690.0</ele><time>2026-04-16T18:16:32.999Z</time></trkpt><trkpt lat="45.692868227750665" lon="11.309441922538108"><ele>690.0</ele><time>2026-04-16T18:16:33.999Z</time></trkpt><trkpt lat="45.69274898151024" lon="11.309408945947759"><ele>690.0</ele><time>2026-04-16T18:16:34.998Z</time></trkpt><trkpt lat="45.692623001702565" lon="11.30939672851408"><ele>690.0</ele><time>2026-04-16T18:16:35.998Z</time></trkpt><trkpt lat="45.692481805842874" lon="11.309397751618636"><ele>689.75</ele><time>2026-04-16T18:16:36.998Z</time></trkpt><trkpt lat="45.69234620532044" lon="11.309395929351874"><ele>689.5</ele><time>2026-04-16T18:16:37.998Z</time></trkpt><trkpt lat="45.692228374139596" lon="11.309383145940748"><ele>689.25</ele><time>2026-04-16T18:16:38.998Z</time></trkpt><trkpt lat="45.69211837743901" lon="11.309367223211064"><ele>689.0</ele><time>2026-04-16T18:16:39.998Z</time></trkpt><trkpt lat="45.69201297633477" lon="11.309351031642834"><ele>687.4000000000001</ele><time>2026-04-16T18:16:40.998Z</time></trkpt><trkpt lat="45.69188717282026" lon="11.309344311179215"><ele>685.8</ele><time>2026-04-16T18:16:41.998Z</time></trkpt><trkpt lat="45.691784437308264" lon="11.309345787407828"><ele>684.2</ele><time>2026-04-16T18:16:42.998Z</time></trkpt><trkpt lat="45.69169887551287" lon="11.3093489917416"><ele>682.5999999999999</ele><time>2026-04-16T18:16:43.998Z</time></trkpt><trkpt lat="45.69160224602971" lon="11.309341479627744"><ele>681.0</ele><time>2026-04-16T18:16:44.998Z</time></trkpt><trkpt lat="45.69150734515293" lon="11.309302707062688"><ele>681.0</ele><time>2026-04-16T18:16:45.998Z</time></trkpt><trkpt lat="45.69140910340496" lon="11.309261292638508"><ele>681.0</ele><time>2026-04-16T18:16:46.998Z</time></trkpt><trkpt lat="45.69132337229736" lon="11.309229149819975"><ele>681.0</ele><time>2026-04-16T18:16:47.998Z</time></trkpt><trkpt lat="45.69123020276018" lon="11.309232321205451"><ele>681.0</ele><time>2026-04-16T18:16:48.998Z</time></trkpt><trkpt lat="45.69113078872856" lon="11.309258290490355"><ele>681.0</ele><time>2026-04-16T18:16:49.998Z</time></trkpt><trkpt lat="45.69104074868397" lon="11.309277202863289"><ele>681.0</ele><time>2026-04-16T18:16:50.998Z</time></trkpt><trkpt lat="45.690963454802414" lon="11.309291932640955"><ele>681.0</ele><time>2026-04-16T18:16:51.998Z</time></trkpt><trkpt lat="45.69089505430152" lon="11.30933297062329"><ele>681.0</ele><time>2026-04-16T18:16:54Z</time></trkpt><trkpt lat="45.69094830714871" lon="11.309384198974719"><ele>681.0</ele><time>2026-04-16T18:16:56Z</time></trkpt><trkpt lat="45.69108488480505" lon="11.309381166493967"><ele>681.0</ele><time>2026-04-16T18:16:58Z</time></trkpt><trkpt lat="45.69118871864852" lon="11.309400641348981"><ele>681.0</ele><time>2026-04-16T18:16:59Z</time></trkpt><trkpt lat="45.69129187118707" lon="11.30944882877728"><ele>681.0</ele><time>2026-04-16T18:17:00Z</time></trkpt><trkpt lat="45.69140549550613" lon="11.30949313711555"><ele>681.0</ele><time>2026-04-16T18:17:01Z</time></trkpt><trkpt lat="45.69150084483331" lon="11.309535737575331"><ele>681.0</ele><time>2026-04-16T18:17:02Z</time></trkpt><trkpt lat="45.691594528410604" lon="11.309589608790914"><ele>681.0</ele><time>2026-04-16T18:17:03Z</time></trkpt><trkpt lat="45.69168019568761" lon="11.309620180502282"><ele>681.0</ele><time>2026-04-16T18:17:04Z</time></trkpt><trkpt lat="45.69178971933601" lon="11.309653787774886"><ele>681.0</ele><time>2026-04-16T18:17:05Z</time></trkpt><trkpt lat="45.69190133493377" lon="11.309678126275966"><ele>681.0</ele><time>2026-04-16T18:17:06Z</time></trkpt><trkpt lat="45.69201416510758" lon="11.30972482805951"><ele>681.0</ele><time>2026-04-16T18:17:07Z</time></trkpt><trkpt lat="45.692112750861156" lon="11.309763901707344"><ele>681.0</ele><time>2026-04-16T18:17:08Z</time></trkpt><trkpt lat="45.69220024073062" lon="11.309818882101933"><ele>675.0</ele><time>2026-04-16T18:17:09Z</time></trkpt><trkpt lat="45.69226416435327" lon="11.30985359515755"><ele>669.0</ele><time>2026-04-16T18:17:10Z</time></trkpt><trkpt lat="45.692194885075125" lon="11.30995790753855"><ele>663.0</ele><time>2026-04-16T18:17:14Z</time></trkpt><trkpt lat="45.69208266554257" lon="11.30998626131293"><ele>657.0</ele><time>2026-04-16T18:17:15Z</time></trkpt><trkpt lat="45.69196721147248" lon="11.310016538424696"><ele>651.0</ele><time>2026-04-16T18:17:16Z</time></trkpt><trkpt lat="45.69190110876628" lon="11.310032353178288"><ele>649.4</ele><time>2026-04-16T18:17:17Z</time></trkpt><trkpt lat="45.691809004263646" lon="11.31008110013569"><ele>647.8</ele><time>2026-04-16T18:17:18Z</time></trkpt><trkpt lat="45.69171251762753" lon="11.310139079023724"><ele>646.1999999999999</ele><time>2026-04-16T18:17:19Z</time></trkpt><trkpt lat="45.69163149841101" lon="11.310189382324737"><ele>644.5999999999999</ele><time>2026-04-16T18:17:20Z</time></trkpt><trkpt lat="45.69155533318267" lon="11.310257313473732"><ele>643.0</ele><time>2026-04-16T18:17:21Z</time></trkpt><trkpt lat="45.69147858281579" lon="11.310319758213183"><ele>643.0</ele><time>2026-04-16T18:17:22Z</time></trkpt><trkpt lat="45.691381970424864" lon="11.310380352126069"><ele>643.0</ele><time>2026-04-16T18:17:23Z</time></trkpt><trkpt lat="45.69128170280925" lon="11.310432285681468"><ele>643.0</ele><time>2026-04-16T18:17:24Z</time></trkpt><trkpt lat="45.691186988849005" lon="11.310478859726656"><ele>643.0</ele><time>2026-04-16T18:17:25Z</time></trkpt><trkpt lat="45.691105530771985" lon="11.310521586281068"><ele>643.0</ele><time>2026-04-16T18:17:26Z</time></trkpt><trkpt lat="45.69104453936043" lon="11.310554705983101"><ele>639.0</ele><time>2026-04-16T18:17:27Z</time></trkpt><trkpt lat="45.69098878512896" lon="11.310635478952545"><ele>635.0</ele><time>2026-04-16T18:17:29Z</time></trkpt><trkpt lat="45.69107887497537" lon="11.31067937046928"><ele>631.0</ele><time>2026-04-16T18:17:32Z</time></trkpt><trkpt lat="45.691164593596014" lon="11.31067382710475"><ele>627.0</ele><time>2026-04-16T18:17:33Z</time></trkpt><trkpt lat="45.69125971922153" lon="11.310684467608006"><ele>623.0</ele><time>2026-04-16T18:17:34Z</time></trkpt><trkpt lat="45.69133857813838" lon="11.310708224285218"><ele>619.0</ele><time>2026-04-16T18:17:35Z</time></trkpt><trkpt lat="45.69146869233951" lon="11.310730519838772"><ele>619.0</ele><time>2026-04-16T18:17:37Z</time></trkpt><trkpt lat="45.69145330527657" lon="11.310836780796539"><ele>619.0</ele><time>2026-04-16T18:17:40Z</time></trkpt><trkpt lat="45.69139369940647" lon="11.310867747273937"><ele>619.0</ele><time>2026-04-16T18:17:41Z</time></trkpt><trkpt lat="45.691319360040104" lon="11.310901987277616"><ele>619.0</ele><time>2026-04-16T18:17:42Z</time></trkpt><trkpt lat="45.69122958985661" lon="11.310956391950127"><ele>619.0</ele><time>2026-04-16T18:17:43Z</time></trkpt><trkpt lat="45.69113944650303" lon="11.310988527339344"><ele>619.0</ele><time>2026-04-16T18:17:44Z</time></trkpt><trkpt lat="45.69106441750258" lon="11.310992043624458"><ele>619.0</ele><time>2026-04-16T18:17:45Z</time></trkpt><trkpt lat="45.690983295531645" lon="11.310997926858631"><ele>619.0</ele><time>2026-04-16T18:17:46Z</time></trkpt><trkpt lat="45.69091992860021" lon="11.311023171473936"><ele>619.0</ele><time>2026-04-16T18:17:47Z</time></trkpt><trkpt lat="45.69083180150335" lon="11.311066049644138"><ele>619.0</ele><time>2026-04-16T18:17:48Z</time></trkpt><trkpt lat="45.69074815856507" lon="11.311085749710895"><ele>619.0</ele><time>2026-04-16T18:17:49Z</time></trkpt><trkpt lat="45.69067791156807" lon="11.311112144615011"><ele>619.0</ele><time>2026-04-16T18:17:50Z</time></trkpt><trkpt lat="45.69059093351515" lon="11.311149379669612"><ele>619.0</ele><time>2026-04-16T18:17:51Z</time></trkpt><trkpt lat="45.69049423309907" lon="11.311183436250513"><ele>619.0</ele><time>2026-04-16T18:17:52Z</time></trkpt><trkpt lat="45.69040255838615" lon="11.311214678386953"><ele>619.0</ele><time>2026-04-16T18:17:53Z</time></trkpt><trkpt lat="45.69030515144089" lon="11.311240488710052"><ele>619.0</ele><time>2026-04-16T18:17:54Z</time></trkpt><trkpt lat="45.69020853360592" lon="11.31124837203112"><ele>619.0</ele><time>2026-04-16T18:17:55Z</time></trkpt><trkpt lat="45.690100737129654" lon="11.31128666278797"><ele>619.5</ele><time>2026-04-16T18:17:56Z</time></trkpt><trkpt lat="45.6899671895618" lon="11.311307953178321"><ele>620.0</ele><time>2026-04-16T18:17:57Z</time></trkpt><trkpt lat="45.689831279283716" lon="11.311331354811808"><ele>620.5</ele><time>2026-04-16T18:17:58Z</time></trkpt><trkpt lat="45.68973255977602" lon="11.311377566897605"><ele>621.0</ele><time>2026-04-16T18:17:58.999Z</time></trkpt><trkpt lat="45.689642669528816" lon="11.311385058800347"><ele>621.0</ele><time>2026-04-16T18:17:59.999Z</time></trkpt><trkpt lat="45.68954893140107" lon="11.311402450735718"><ele>621.0</ele><time>2026-04-16T18:18:00.999Z</time></trkpt><trkpt lat="45.68946585190439" lon="11.31145233607529"><ele>621.0</ele><time>2026-04-16T18:18:01.999Z</time></trkpt><trkpt lat="45.689395357344466" lon="11.311476506944203"><ele>621.0</ele><time>2026-04-16T18:18:02.999Z</time></trkpt><trkpt lat="45.68931809583503" lon="11.311504692352797"><ele>621.0</ele><time>2026-04-16T18:18:03.999Z</time></trkpt><trkpt lat="45.689218194832044" lon="11.311541136945907"><ele>621.0</ele><time>2026-04-16T18:18:04.999Z</time></trkpt><trkpt lat="45.68912152796117" lon="11.3115918184742"><ele>617.5714285714286</ele><time>2026-04-16T18:18:05.999Z</time></trkpt><trkpt lat="45.68904589403064" lon="11.311612745902101"><ele>614.1428571428571</ele><time>2026-04-16T18:18:06.999Z</time></trkpt><trkpt lat="45.68896516428931" lon="11.311635441340115"><ele>610.7142857142858</ele><time>2026-04-16T18:18:07.999Z</time></trkpt><trkpt lat="45.68888169476656" lon="11.311658752524819"><ele>607.2857142857142</ele><time>2026-04-16T18:18:08.999Z</time></trkpt><trkpt lat="45.68881488301518" lon="11.311643680863806"><ele>603.8571428571429</ele><time>2026-04-16T18:18:09.999Z</time></trkpt><trkpt lat="45.68875941511868" lon="11.311689699963528"><ele>600.4285714285714</ele><time>2026-04-16T18:18:10.999Z</time></trkpt><trkpt lat="45.68868873851258" lon="11.31168612338288"><ele>597.0</ele><time>2026-04-16T18:18:36.999Z</time></trkpt><trkpt lat="45.68856708221619" lon="11.311628644695498"><ele>597.6</ele><time>2026-04-16T18:18:39.999Z</time></trkpt><trkpt lat="45.688468656851725" lon="11.311552323548444"><ele>598.2</ele><time>2026-04-16T18:18:40.999Z</time></trkpt><trkpt lat="45.6883631765142" lon="11.311482166411638"><ele>598.8</ele><time>2026-04-16T18:18:41.999Z</time></trkpt><trkpt lat="45.688274704321486" lon="11.311428338284223"><ele>599.4</ele><time>2026-04-16T18:18:42.999Z</time></trkpt><trkpt lat="45.68819307813267" lon="11.311398832135565"><ele>600.0</ele><time>2026-04-16T18:18:43.999Z</time></trkpt><trkpt lat="45.68811798213637" lon="11.31141622596761"><ele>597.0</ele><time>2026-04-16T18:18:44.999Z</time></trkpt><trkpt lat="45.6880255880426" lon="11.31141471146762"><ele>594.0</ele><time>2026-04-16T18:18:45.999Z</time></trkpt><trkpt lat="45.68790581181638" lon="11.311443440512122"><ele>591.0</ele><time>2026-04-16T18:18:46.999Z</time></trkpt><trkpt lat="45.68778263145183" lon="11.311481252998629"><ele>588.0</ele><time>2026-04-16T18:18:47.999Z</time></trkpt><trkpt lat="45.687692994083406" lon="11.311500789915597"><ele>585.0</ele><time>2026-04-16T18:18:48.999Z</time></trkpt><trkpt lat="45.68757206547827" lon="11.311520615043932"><ele>583.2</ele><time>2026-04-16T18:18:49.999Z</time></trkpt><trkpt lat="45.68744823255232" lon="11.311567306568088"><ele>581.4</ele><time>2026-04-16T18:18:50.999Z</time></trkpt><trkpt lat="45.6873484045228" lon="11.311529102784545"><ele>579.6</ele><time>2026-04-16T18:18:51.999Z</time></trkpt><trkpt lat="45.687251017241515" lon="11.311472180850235"><ele>577.8</ele><time>2026-04-16T18:18:52.999Z</time></trkpt><trkpt lat="45.68715074809347" lon="11.311460317412115"><ele>576.0</ele><time>2026-04-16T18:18:53.999Z</time></trkpt><trkpt lat="45.6870608708835" lon="11.311437263320517"><ele>576.0</ele><time>2026-04-16T18:18:54.999Z</time></trkpt><trkpt lat="45.68697011242039" lon="11.311430595035212"><ele>576.0</ele><time>2026-04-16T18:18:55.999Z</time></trkpt><trkpt lat="45.686889988894656" lon="11.311411927125585"><ele>576.0</ele><time>2026-04-16T18:18:56.999Z</time></trkpt><trkpt lat="45.686807594169714" lon="11.31136453390057"><ele>576.0</ele><time>2026-04-16T18:18:57.999Z</time></trkpt><trkpt lat="45.68670743410856" lon="11.311306138208515"><ele>576.0</ele><time>2026-04-16T18:18:58.999Z</time></trkpt><trkpt lat="45.68659986764298" lon="11.311248754675137"><ele>577.4</ele><time>2026-04-16T18:19:00Z</time></trkpt><trkpt lat="45.68651167820291" lon="11.311203994119415"><ele>578.8</ele><time>2026-04-16T18:19:01Z</time></trkpt><trkpt lat="45.686427210244105" lon="11.31115412146608"><ele>580.1999999999999</ele><time>2026-04-16T18:19:02Z</time></trkpt><trkpt lat="45.68631891266235" lon="11.311080997868487"><ele>581.6</ele><time>2026-04-16T18:19:03Z</time></trkpt><trkpt lat="45.68621300066036" lon="11.310989567263782"><ele>583.0</ele><time>2026-04-16T18:19:04Z</time></trkpt><trkpt lat="45.68613592021522" lon="11.310913319810938"><ele>581.8333333333334</ele><time>2026-04-16T18:19:05Z</time></trkpt><trkpt lat="45.68607826733547" lon="11.310827615150881"><ele>580.6666666666667</ele><time>2026-04-16T18:19:06Z</time></trkpt><trkpt lat="45.68602480427221" lon="11.310749924107725"><ele>579.5</ele><time>2026-04-16T18:19:08Z</time></trkpt><trkpt lat="45.68597056099854" lon="11.310848968568797"><ele>578.3333333333334</ele><time>2026-04-16T18:19:11Z</time></trkpt><trkpt lat="45.68602209265477" lon="11.31097699413937"><ele>577.1666666666666</ele><time>2026-04-16T18:19:14Z</time></trkpt><trkpt lat="45.68602959775906" lon="11.311080427268275"><ele>576.0</ele><time>2026-04-16T18:19:15Z</time></trkpt><trkpt lat="45.68603196066489" lon="11.311220684819402"><ele>576.0</ele><time>2026-04-16T18:19:16Z</time></trkpt><trkpt lat="45.68601795232983" lon="11.311386220431155"><ele>576.0</ele><time>2026-04-16T18:19:17Z</time></trkpt><trkpt lat="45.68599070701449" lon="11.311572116128863"><ele>576.0</ele><time>2026-04-16T18:19:18Z</time></trkpt><trkpt lat="45.68596641488026" lon="11.31173832459894"><ele>576.0</ele><time>2026-04-16T18:19:19Z</time></trkpt><trkpt lat="45.68595164083683" lon="11.311899961129274"><ele>576.25</ele><time>2026-04-16T18:19:20Z</time></trkpt><trkpt lat="45.68594849631757" lon="11.312073575339479"><ele>576.5</ele><time>2026-04-16T18:19:21Z</time></trkpt><trkpt lat="45.68594761792064" lon="11.312240940993874"><ele>576.75</ele><time>2026-04-16T18:19:22Z</time></trkpt><trkpt lat="45.68595678537845" lon="11.312357216849025"><ele>577.0</ele><time>2026-04-16T18:19:23Z</time></trkpt><trkpt lat="45.68605472704958" lon="11.312521585561635"><ele>574.2</ele><time>2026-04-16T18:19:25Z</time></trkpt><trkpt lat="45.68614221079314" lon="11.312638388603713"><ele>571.4000000000001</ele><time>2026-04-16T18:19:26Z</time></trkpt><trkpt lat="45.68622372514916" lon="11.31276497803965"><ele>568.5999999999999</ele><time>2026-04-16T18:19:27Z</time></trkpt><trkpt lat="45.6862762235724" lon="11.312881832675009"><ele>565.8</ele><time>2026-04-16T18:19:28Z</time></trkpt><trkpt lat="45.686296282107875" lon="11.312997869952156"><ele>563.0</ele><time>2026-04-16T18:19:29Z</time></trkpt><trkpt lat="45.686284899226806" lon="11.313109446147894"><ele>563.0</ele><time>2026-04-16T18:19:30Z</time></trkpt><trkpt lat="45.68629190373783" lon="11.313232805117977"><ele>563.0</ele><time>2026-04-16T18:19:31Z</time></trkpt><trkpt lat="45.68628585110416" lon="11.313418633451649"><ele>563.0</ele><time>2026-04-16T18:19:32Z</time></trkpt><trkpt lat="45.686267140295946" lon="11.313573202788682"><ele>563.0</ele><time>2026-04-16T18:19:33Z</time></trkpt><trkpt lat="45.686289672039415" lon="11.313706397544202"><ele>563.0</ele><time>2026-04-16T18:19:34Z</time></trkpt><trkpt lat="45.68633576196676" lon="11.31385966233143"><ele>563.8</ele><time>2026-04-16T18:19:35Z</time></trkpt><trkpt lat="45.686390269066564" lon="11.313971423454042"><ele>564.5999999999999</ele><time>2026-04-16T18:19:36Z</time></trkpt><trkpt lat="45.686422201819894" lon="11.314061566653555"><ele>565.4000000000001</ele><time>2026-04-16T18:19:37Z</time></trkpt><trkpt lat="45.68637843337963" lon="11.3142243033321"><ele>566.2</ele><time>2026-04-16T18:19:39Z</time></trkpt><trkpt lat="45.68630309027788" lon="11.31430376582784"><ele>567.0</ele><time>2026-04-16T18:19:40Z</time></trkpt><trkpt lat="45.68620656517625" lon="11.314345738085738"><ele>567.0</ele><time>2026-04-16T18:19:41Z</time></trkpt><trkpt lat="45.6860977814607" lon="11.314358427082384"><ele>567.0</ele><time>2026-04-16T18:19:42Z</time></trkpt><trkpt lat="45.68601150596912" lon="11.314354190816111"><ele>567.0</ele><time>2026-04-16T18:19:43Z</time></trkpt><trkpt lat="45.68592466842487" lon="11.314329002338752"><ele>567.0</ele><time>2026-04-16T18:19:44Z</time></trkpt><trkpt lat="45.68583479297957" lon="11.314280988460744"><ele>567.0</ele><time>2026-04-16T18:19:45Z</time></trkpt><trkpt lat="45.6857695324028" lon="11.314256036942755"><ele>567.0</ele><time>2026-04-16T18:19:46Z</time></trkpt><trkpt lat="45.68569871744561" lon="11.31434898182852"><ele>567.0</ele><time>2026-04-16T18:19:48Z</time></trkpt><trkpt lat="45.685676977982226" lon="11.3144487913735"><ele>567.0</ele><time>2026-04-16T18:19:49Z</time></trkpt><trkpt lat="45.68562892071156" lon="11.31457551689679"><ele>567.0</ele><time>2026-04-16T18:19:50Z</time></trkpt><trkpt lat="45.68558546754592" lon="11.314653041443915"><ele>567.0</ele><time>2026-04-16T18:19:51Z</time></trkpt><trkpt lat="45.685524364357" lon="11.314694988276655"><ele>567.0</ele><time>2026-04-16T18:19:52Z</time></trkpt><trkpt lat="45.685430202475416" lon="11.31475252425003"><ele>567.0</ele><time>2026-04-16T18:19:53Z</time></trkpt><trkpt lat="45.685350734726896" lon="11.314801286355864"><ele>567.0</ele><time>2026-04-16T18:19:54Z</time></trkpt><trkpt lat="45.685271654772684" lon="11.314844031550658"><ele>567.0</ele><time>2026-04-16T18:19:55Z</time></trkpt><trkpt lat="45.685229501117654" lon="11.314976866699986"><ele>567.0</ele><time>2026-04-16T18:19:57Z</time></trkpt><trkpt lat="45.68524760960382" lon="11.315078509140143"><ele>567.0</ele><time>2026-04-16T18:19:58Z</time></trkpt><trkpt lat="45.68528168603506" lon="11.315188387717638"><ele>567.0</ele><time>2026-04-16T18:19:59Z</time></trkpt><trkpt lat="45.68531051121533" lon="11.31531244010609"><ele>567.0</ele><time>2026-04-16T18:20:00Z</time></trkpt><trkpt lat="45.685317316078255" lon="11.31547905337927"><ele>563.6</ele><time>2026-04-16T18:20:01Z</time></trkpt><trkpt lat="45.68531346698974" lon="11.315664443845979"><ele>560.2</ele><time>2026-04-16T18:20:02Z</time></trkpt><trkpt lat="45.685293330405486" lon="11.315804259182213"><ele>556.8</ele><time>2026-04-16T18:20:03Z</time></trkpt><trkpt lat="45.68526620967035" lon="11.31593190008941"><ele>553.4</ele><time>2026-04-16T18:20:04Z</time></trkpt><trkpt lat="45.685224845016485" lon="11.316064497302811"><ele>550.0</ele><time>2026-04-16T18:20:04.999Z</time></trkpt><trkpt lat="45.68517509399979" lon="11.316214298898414"><ele>558.5</ele><time>2026-04-16T18:20:05.999Z</time></trkpt><trkpt lat="45.6851368946704" lon="11.316343083646903"><ele>567.0</ele><time>2026-04-16T18:20:06.999Z</time></trkpt><trkpt lat="45.68510189591525" lon="11.316507263963011"><ele>575.5</ele><time>2026-04-16T18:20:07.999Z</time></trkpt><trkpt lat="45.685075996777094" lon="11.316680887377245"><ele>584.0</ele><time>2026-04-16T18:20:08.999Z</time></trkpt><trkpt lat="45.685047484398766" lon="11.316837094369571"><ele>584.0</ele><time>2026-04-16T18:20:09.999Z</time></trkpt><trkpt lat="45.68500483010547" lon="11.316972941039692"><ele>584.0</ele><time>2026-04-16T18:20:10.999Z</time></trkpt><trkpt lat="45.68494763641505" lon="11.317102321622505"><ele>584.0</ele><time>2026-04-16T18:20:11.999Z</time></trkpt><trkpt lat="45.68489549881764" lon="11.317219319544325"><ele>584.0</ele><time>2026-04-16T18:20:12.999Z</time></trkpt><trkpt lat="45.6848411629098" lon="11.317337487772447"><ele>584.0</ele><time>2026-04-16T18:20:13.999Z</time></trkpt><trkpt lat="45.684793699759425" lon="11.317480701320974"><ele>582.0</ele><time>2026-04-16T18:20:14.999Z</time></trkpt><trkpt lat="45.684755391055155" lon="11.31764834845222"><ele>580.0</ele><time>2026-04-16T18:20:15.999Z</time></trkpt><trkpt lat="45.68472853142887" lon="11.31783082820351"><ele>578.0</ele><time>2026-04-16T18:20:16.999Z</time></trkpt><trkpt lat="45.68471285511355" lon="11.317979536468131"><ele>576.0</ele><time>2026-04-16T18:20:17.999Z</time></trkpt><trkpt lat="45.684712510304635" lon="11.318107784788106"><ele>574.0</ele><time>2026-04-16T18:20:18.999Z</time></trkpt><trkpt lat="45.684733465790394" lon="11.318211608757968"><ele>573.4</ele><time>2026-04-16T18:20:19.999Z</time></trkpt><trkpt lat="45.684777818941" lon="11.318308220867426"><ele>572.8</ele><time>2026-04-16T18:20:20.999Z</time></trkpt><trkpt lat="45.68481888201703" lon="11.318397224257668"><ele>572.2</ele><time>2026-04-16T18:20:21.999Z</time></trkpt><trkpt lat="45.68486479389588" lon="11.318528991441417"><ele>571.6</ele><time>2026-04-16T18:20:22.999Z</time></trkpt><trkpt lat="45.684882476554634" lon="11.318647319786255"><ele>571.0</ele><time>2026-04-16T18:20:23.999Z</time></trkpt><trkpt lat="45.68486926175426" lon="11.318804797047353"><ele>569.8</ele><time>2026-04-16T18:20:24.999Z</time></trkpt><trkpt lat="45.684851590546884" lon="11.31895582648044"><ele>568.6</ele><time>2026-04-16T18:20:25.999Z</time></trkpt><trkpt lat="45.684817616425455" lon="11.319106519638042"><ele>567.4</ele><time>2026-04-16T18:20:26.999Z</time></trkpt><trkpt lat="45.68476351941774" lon="11.319244232444758"><ele>566.2</ele><time>2026-04-16T18:20:27.999Z</time></trkpt><trkpt lat="45.68470386811598" lon="11.319363218306481"><ele>565.0</ele><time>2026-04-16T18:20:28.999Z</time></trkpt><trkpt lat="45.68467093683704" lon="11.31947569895366"><ele>565.0</ele><time>2026-04-16T18:20:29.999Z</time></trkpt><trkpt lat="45.684646451374086" lon="11.319597262171321"><ele>565.0</ele><time>2026-04-16T18:20:30.999Z</time></trkpt><trkpt lat="45.68462828899072" lon="11.319694765492512"><ele>565.0</ele><time>2026-04-16T18:20:31.999Z</time></trkpt><trkpt lat="45.68459520843759" lon="11.319794896759683"><ele>565.0</ele><time>2026-04-16T18:20:32.999Z</time></trkpt><trkpt lat="45.6845569350658" lon="11.31988939548772"><ele>565.0</ele><time>2026-04-16T18:20:33.999Z</time></trkpt><trkpt lat="45.684518675011866" lon="11.319979834678298"><ele>565.0</ele><time>2026-04-16T18:20:34.999Z</time></trkpt><trkpt lat="45.684534007417405" lon="11.320142382662416"><ele>564.5</ele><time>2026-04-16T18:20:36.999Z</time></trkpt><trkpt lat="45.68455362780713" lon="11.320251402971204"><ele>564.0</ele><time>2026-04-16T18:20:37.999Z</time></trkpt><trkpt lat="45.68456423737566" lon="11.320348319653904"><ele>563.5</ele><time>2026-04-16T18:20:38.999Z</time></trkpt><trkpt lat="45.68452535022272" lon="11.320475681402792"><ele>563.0</ele><time>2026-04-16T18:20:40.999Z</time></trkpt><trkpt lat="45.68454359010978" lon="11.320603628852522"><ele>562.5</ele><time>2026-04-16T18:20:44.999Z</time></trkpt><trkpt lat="45.68459570611302" lon="11.320741686113202"><ele>562.0</ele><time>2026-04-16T18:20:45.999Z</time></trkpt><trkpt lat="45.68463067268674" lon="11.320893401793354"><ele>561.0</ele><time>2026-04-16T18:20:46.999Z</time></trkpt><trkpt lat="45.6846513797728" lon="11.321035812696417"><ele>560.0</ele><time>2026-04-16T18:20:47.999Z</time></trkpt><trkpt lat="45.68467345882315" lon="11.321142211551255"><ele>559.0</ele><time>2026-04-16T18:20:48.999Z</time></trkpt><trkpt lat="45.684690049709666" lon="11.321253747407379"><ele>558.0</ele><time>2026-04-16T18:20:49.999Z</time></trkpt><trkpt lat="45.68471571474855" lon="11.321370840381672"><ele>557.0</ele><time>2026-04-16T18:20:50.999Z</time></trkpt><trkpt lat="45.68475003268064" lon="11.321478152135192"><ele>556.0</ele><time>2026-04-16T18:20:51.999Z</time></trkpt><trkpt lat="45.684784089774574" lon="11.321577931525194"><ele>555.6666666666667</ele><time>2026-04-16T18:20:52.999Z</time></trkpt><trkpt lat="45.68479825694763" lon="11.321691932836869"><ele>555.3333333333334</ele><time>2026-04-16T18:20:53.999Z</time></trkpt><trkpt lat="45.68480667994561" lon="11.321816637533416"><ele>555.0</ele><time>2026-04-16T18:20:54.999Z</time></trkpt><trkpt lat="45.68482214335622" lon="11.321934909751745"><ele>554.6666666666666</ele><time>2026-04-16T18:20:55.999Z</time></trkpt><trkpt lat="45.68480233319015" lon="11.32204964515309"><ele>554.3333333333333</ele><time>2026-04-16T18:20:56.999Z</time></trkpt><trkpt lat="45.68488206811101" lon="11.322158196490507"><ele>554.0</ele><time>2026-04-16T18:20:59.999Z</time></trkpt><trkpt lat="45.68490151142662" lon="11.3222562718272"><ele>553.3333333333333</ele><time>2026-04-16T18:21:00.999Z</time></trkpt><trkpt lat="45.684886620507065" lon="11.322377377560874"><ele>552.6666666666666</ele><time>2026-04-16T18:21:02.999Z</time></trkpt><trkpt lat="45.68485618334603" lon="11.322466889292954"><ele>552.0</ele><time>2026-04-16T18:21:05Z</time></trkpt><trkpt lat="45.68482662716793" lon="11.322583623992838"><ele>551.3333333333334</ele><time>2026-04-16T18:21:07Z</time></trkpt><trkpt lat="45.684884503109274" lon="11.322667675772466"><ele>550.6666666666667</ele><time>2026-04-16T18:21:10Z</time></trkpt><trkpt lat="45.68496888080545" lon="11.322641222389953"><ele>550.0</ele><time>2026-04-16T18:21:12Z</time></trkpt><trkpt lat="45.68506301366844" lon="11.322678835989471"><ele>550.0</ele><time>2026-04-16T18:21:14Z</time></trkpt><trkpt lat="45.68515138984065" lon="11.32267192719363"><ele>550.0</ele><time>2026-04-16T18:21:16Z</time></trkpt><trkpt lat="45.68524379125089" lon="11.322660431272668"><ele>550.0</ele><time>2026-04-16T18:21:20Z</time></trkpt><trkpt lat="45.685313567974475" lon="11.322676911731238"><ele>550.0</ele><time>2026-04-16T18:21:23Z</time></trkpt><trkpt lat="45.68537328425264" lon="11.322709304379451"><ele>550.0</ele><time>2026-04-16T18:21:26Z</time></trkpt><trkpt lat="45.685442816968475" lon="11.322731810516183"><ele>550.0</ele><time>2026-04-16T18:21:28Z</time></trkpt><trkpt lat="45.685535416284715" lon="11.322754197911948"><ele>545.2</ele><time>2026-04-16T18:21:30Z</time></trkpt><trkpt lat="45.68559604807337" lon="11.322786790321691"><ele>540.4</ele><time>2026-04-16T18:21:31Z</time></trkpt><trkpt lat="45.68571149726024" lon="11.322966037689893"><ele>535.6</ele><time>2026-04-16T18:21:33Z</time></trkpt><trkpt lat="45.685771443412904" lon="11.323022265735105"><ele>530.8</ele><time>2026-04-16T18:21:34Z</time></trkpt><trkpt lat="45.68584137893967" lon="11.323122461272975"><ele>526.0</ele><time>2026-04-16T18:21:35Z</time></trkpt><trkpt lat="45.68588778912277" lon="11.323229555988723"><ele>523.6</ele><time>2026-04-16T18:21:36Z</time></trkpt><trkpt lat="45.68592195331891" lon="11.32337879030356"><ele>521.2</ele><time>2026-04-16T18:21:38Z</time></trkpt><trkpt lat="45.68585097982175" lon="11.323566073424884"><ele>518.8</ele><time>2026-04-16T18:21:40Z</time></trkpt><trkpt lat="45.68579425548073" lon="11.323668242062434"><ele>516.4</ele><time>2026-04-16T18:21:41Z</time></trkpt><trkpt lat="45.68575915421615" lon="11.323776568339495"><ele>514.0</ele><time>2026-04-16T18:21:42Z</time></trkpt><trkpt lat="45.6857496901394" lon="11.323893656978733"><ele>512.6666666666667</ele><time>2026-04-16T18:21:43Z</time></trkpt><trkpt lat="45.685732798556636" lon="11.323984401648653"><ele>511.33333333333337</ele><time>2026-04-16T18:21:44Z</time></trkpt><trkpt lat="45.68564304357067" lon="11.324059067332309"><ele>510.0</ele><time>2026-04-16T18:21:46Z</time></trkpt><trkpt lat="45.68555766938429" lon="11.324107858760057"><ele>508.66666666666663</ele><time>2026-04-16T18:21:47Z</time></trkpt><trkpt lat="45.68549701157792" lon="11.324189558659139"><ele>507.3333333333333</ele><time>2026-04-16T18:21:48Z</time></trkpt><trkpt lat="45.68547468464266" lon="11.32428873124566"><ele>506.0</ele><time>2026-04-16T18:21:49Z</time></trkpt><trkpt lat="45.685528755366555" lon="11.324455129772948"><ele>505.99999999999994</ele><time>2026-04-16T18:21:51Z</time></trkpt><trkpt lat="45.68557334164395" lon="11.324519980088867"><ele>506.0</ele><time>2026-04-16T18:21:52Z</time></trkpt><trkpt lat="45.68561775363739" lon="11.324633146724086"><ele>506.0</ele><time>2026-04-16T18:21:53Z</time></trkpt><trkpt lat="45.685609163873586" lon="11.324723311385831"><ele>506.0</ele><time>2026-04-16T18:21:54Z</time></trkpt><trkpt lat="45.68558855270914" lon="11.324841843577902"><ele>505.99999999999994</ele><time>2026-04-16T18:21:55Z</time></trkpt><trkpt lat="45.685537800217745" lon="11.324940414485194"><ele>506.0</ele><time>2026-04-16T18:21:56Z</time></trkpt><trkpt lat="45.68555734724722" lon="11.325109901498536"><ele>504.0</ele><time>2026-04-16T18:21:58Z</time></trkpt><trkpt lat="45.68558716243017" lon="11.325210066663315"><ele>502.0</ele><time>2026-04-16T18:21:59Z</time></trkpt><trkpt lat="45.68559961132626" lon="11.325345176013505"><ele>500.0</ele><time>2026-04-16T18:22:00Z</time></trkpt><trkpt lat="45.68560094784112" lon="11.325471577542935"><ele>498.0</ele><time>2026-04-16T18:22:01Z</time></trkpt><trkpt lat="45.685527649944966" lon="11.325630447547912"><ele>496.0</ele><time>2026-04-16T18:22:03Z</time></trkpt><trkpt lat="45.68546177522579" lon="11.325687570079195"><ele>494.50000000000006</ele><time>2026-04-16T18:22:04Z</time></trkpt><trkpt lat="45.685400380508256" lon="11.325709513260037"><ele>493.0</ele><time>2026-04-16T18:22:05Z</time></trkpt><trkpt lat="45.68532088045424" lon="11.3257073580573"><ele>491.5</ele><time>2026-04-16T18:22:06Z</time></trkpt><trkpt lat="45.6852209118835" lon="11.325695428813392"><ele>490.0</ele><time>2026-04-16T18:22:07Z</time></trkpt><trkpt lat="45.68511818614612" lon="11.325696189758867"><ele>488.50000000000006</ele><time>2026-04-16T18:22:08Z</time></trkpt><trkpt lat="45.6850364561449" lon="11.325709407773099"><ele>487.0</ele><time>2026-04-16T18:22:09Z</time></trkpt><trkpt lat="45.68495251023555" lon="11.325745067493997"><ele>487.00000000000006</ele><time>2026-04-16T18:22:11Z</time></trkpt><trkpt lat="45.684968223976824" lon="11.325834938433715"><ele>487.0</ele><time>2026-04-16T18:22:12.999Z</time></trkpt><trkpt lat="45.684956024999735" lon="11.325931426787685"><ele>487.0</ele><time>2026-04-16T18:22:13.999Z</time></trkpt><trkpt lat="45.68492655904122" lon="11.326059833010207"><ele>487.0</ele><time>2026-04-16T18:22:14.999Z</time></trkpt><trkpt lat="45.68489218783711" lon="11.326182733368968"><ele>487.00000000000006</ele><time>2026-04-16T18:22:15.999Z</time></trkpt><trkpt lat="45.684831340130174" lon="11.326284128137125"><ele>487.0</ele><time>2026-04-16T18:22:16.999Z</time></trkpt><trkpt lat="45.68476692144658" lon="11.326384526830706"><ele>485.00000000000006</ele><time>2026-04-16T18:22:17.999Z</time></trkpt><trkpt lat="45.68468908944028" lon="11.32646318091684"><ele>483.0</ele><time>2026-04-16T18:22:18.999Z</time></trkpt><trkpt lat="45.68461334678497" lon="11.32651851791107"><ele>481.0</ele><time>2026-04-16T18:22:19.999Z</time></trkpt><trkpt lat="45.684546353887136" lon="11.326545805638881"><ele>479.0</ele><time>2026-04-16T18:22:20.999Z</time></trkpt><trkpt lat="45.68447472863345" lon="11.326546650212503"><ele>477.00000000000006</ele><time>2026-04-16T18:22:21.999Z</time></trkpt><trkpt lat="45.6843888310453" lon="11.326544752392927"><ele>475.0</ele><time>2026-04-16T18:22:22.999Z</time></trkpt><trkpt lat="45.6843144823588" lon="11.326528360479147"><ele>474.33333333333337</ele><time>2026-04-16T18:22:23.999Z</time></trkpt><trkpt lat="45.68424913706946" lon="11.326517741675842"><ele>473.6666666666667</ele><time>2026-04-16T18:22:24.999Z</time></trkpt><trkpt lat="45.684172789355635" lon="11.326537251479001"><ele>473.0</ele><time>2026-04-16T18:22:25.999Z</time></trkpt><trkpt lat="45.68410334359215" lon="11.326590495173734"><ele>472.33333333333337</ele><time>2026-04-16T18:22:26.999Z</time></trkpt><trkpt lat="45.6840434908001" lon="11.326661409418854"><ele>471.6666666666667</ele><time>2026-04-16T18:22:27.999Z</time></trkpt><trkpt lat="45.68397573170506" lon="11.326744899356946"><ele>471.0</ele><time>2026-04-16T18:22:28.999Z</time></trkpt><trkpt lat="45.68392229900565" lon="11.326852247681536"><ele>471.0</ele><time>2026-04-16T18:22:29.999Z</time></trkpt><trkpt lat="45.68385495011988" lon="11.326971072014963"><ele>471.0</ele><time>2026-04-16T18:22:30.999Z</time></trkpt><trkpt lat="45.683797297071635" lon="11.327081603035023"><ele>471.0</ele><time>2026-04-16T18:22:31.999Z</time></trkpt><trkpt lat="45.68374137501794" lon="11.327187597535735"><ele>471.0</ele><time>2026-04-16T18:22:32.999Z</time></trkpt><trkpt lat="45.68368952354454" lon="11.327254618285071"><ele>471.0</ele><time>2026-04-16T18:22:33.999Z</time></trkpt><trkpt lat="45.683635665878924" lon="11.327351878158165"><ele>469.0</ele><time>2026-04-16T18:22:35.999Z</time></trkpt><trkpt lat="45.68370304895318" lon="11.32747149317742"><ele>467.0</ele><time>2026-04-16T18:22:37.999Z</time></trkpt><trkpt lat="45.68375710183492" lon="11.327535498296568"><ele>465.0</ele><time>2026-04-16T18:22:38.999Z</time></trkpt><trkpt lat="45.68374965568256" lon="11.3277059659658"><ele>463.0</ele><time>2026-04-16T18:22:40.999Z</time></trkpt><trkpt lat="45.683721654908624" lon="11.32779733941446"><ele>461.0</ele><time>2026-04-16T18:22:41.999Z</time></trkpt><trkpt lat="45.68366260240218" lon="11.327881286307493"><ele>461.0</ele><time>2026-04-16T18:22:42.999Z</time></trkpt><trkpt lat="45.68360230908008" lon="11.327979746051325"><ele>461.0</ele><time>2026-04-16T18:22:43.999Z</time></trkpt><trkpt lat="45.68357060432787" lon="11.32809807612924"><ele>461.0</ele><time>2026-04-16T18:22:44.999Z</time></trkpt><trkpt lat="45.68353583866778" lon="11.328233851008845"><ele>461.0</ele><time>2026-04-16T18:22:45.999Z</time></trkpt><trkpt lat="45.6835229505447" lon="11.328362425889393"><ele>461.0</ele><time>2026-04-16T18:22:46.999Z</time></trkpt><trkpt lat="45.68354061798119" lon="11.328473992468059"><ele>461.25</ele><time>2026-04-16T18:22:47.999Z</time></trkpt><trkpt lat="45.68357478860381" lon="11.328573845319134"><ele>461.5</ele><time>2026-04-16T18:22:48.999Z</time></trkpt><trkpt lat="45.6836380150366" lon="11.32869416870709"><ele>461.75</ele><time>2026-04-16T18:22:49.999Z</time></trkpt><trkpt lat="45.68370369866332" lon="11.328857577599603"><ele>462.0</ele><time>2026-04-16T18:22:50.999Z</time></trkpt><trkpt lat="45.683769859292084" lon="11.329050787429363"><ele>462.0</ele><time>2026-04-16T18:22:51.999Z</time></trkpt><trkpt lat="45.68384354310293" lon="11.3291497933428"><ele>462.00000000000006</ele><time>2026-04-16T18:22:52.999Z</time></trkpt><trkpt lat="45.68393429002292" lon="11.329202865557122"><ele>462.00000000000006</ele><time>2026-04-16T18:22:53.999Z</time></trkpt><trkpt lat="45.68400971407024" lon="11.329250076341932"><ele>462.0</ele><time>2026-04-16T18:22:54.999Z</time></trkpt><trkpt lat="45.68404703625772" lon="11.329341312254934"><ele>462.0</ele><time>2026-04-16T18:22:55.999Z</time></trkpt><trkpt lat="45.68408794902885" lon="11.329495181424974"><ele>462.0</ele><time>2026-04-16T18:22:56.999Z</time></trkpt><trkpt lat="45.68410638911625" lon="11.329650284072528"><ele>462.0</ele><time>2026-04-16T18:22:57.999Z</time></trkpt><trkpt lat="45.684142632862624" lon="11.329827797553806"><ele>462.0</ele><time>2026-04-16T18:22:58.999Z</time></trkpt><trkpt lat="45.68417272891717" lon="11.33000544490468"><ele>462.0</ele><time>2026-04-16T18:22:59.999Z</time></trkpt><trkpt lat="45.68421865987438" lon="11.330193440523407"><ele>462.8</ele><time>2026-04-16T18:23:00.999Z</time></trkpt><trkpt lat="45.68426844096075" lon="11.330341151468698"><ele>463.6</ele><time>2026-04-16T18:23:01.999Z</time></trkpt><trkpt lat="45.684287260634825" lon="11.330489832276525"><ele>464.40000000000003</ele><time>2026-04-16T18:23:02.999Z</time></trkpt><trkpt lat="45.68430611333958" lon="11.330647835423722"><ele>465.20000000000005</ele><time>2026-04-16T18:23:03.999Z</time></trkpt><trkpt lat="45.684297260376155" lon="11.330762592035498"><ele>466.0</ele><time>2026-04-16T18:23:04.999Z</time></trkpt><trkpt lat="45.68424004040055" lon="11.330847929059585"><ele>464.4</ele><time>2026-04-16T18:23:08.999Z</time></trkpt><trkpt lat="45.68420405869461" lon="11.330939188198306"><ele>462.8</ele><time>2026-04-16T18:23:10Z</time></trkpt><trkpt lat="45.684162274198165" lon="11.331058135001948"><ele>461.19999999999993</ele><time>2026-04-16T18:23:11Z</time></trkpt><trkpt lat="45.684114948644584" lon="11.331210282171908"><ele>459.59999999999997</ele><time>2026-04-16T18:23:12Z</time></trkpt><trkpt lat="45.68407055909317" lon="11.3313667307406"><ele>458.0</ele><time>2026-04-16T18:23:13Z</time></trkpt><trkpt lat="45.68402251937498" lon="11.331507505776054"><ele>456.66666666666663</ele><time>2026-04-16T18:23:14Z</time></trkpt><trkpt lat="45.683960519437896" lon="11.331611673100758"><ele>455.3333333333333</ele><time>2026-04-16T18:23:15Z</time></trkpt><trkpt lat="45.683905380837835" lon="11.331702140437368"><ele>454.0</ele><time>2026-04-16T18:23:16Z</time></trkpt><trkpt lat="45.68387721828347" lon="11.331815188860208"><ele>452.66666666666663</ele><time>2026-04-16T18:23:17Z</time></trkpt><trkpt lat="45.68385454279546" lon="11.331953056194223"><ele>451.3333333333333</ele><time>2026-04-16T18:23:18Z</time></trkpt><trkpt lat="45.683840847271334" lon="11.332074378731468"><ele>450.0</ele><time>2026-04-16T18:23:19Z</time></trkpt><trkpt lat="45.6838589388326" lon="11.332168780387269"><ele>448.8</ele><time>2026-04-16T18:23:20Z</time></trkpt><trkpt lat="45.68388805512423" lon="11.332267169152209"><ele>447.6</ele><time>2026-04-16T18:23:21Z</time></trkpt><trkpt lat="45.68389510363868" lon="11.332398123119907"><ele>446.4</ele><time>2026-04-16T18:23:22Z</time></trkpt><trkpt lat="45.6838932835429" lon="11.332546536162695"><ele>445.2</ele><time>2026-04-16T18:23:23Z</time></trkpt><trkpt lat="45.6839161704725" lon="11.332703368707824"><ele>444.0</ele><time>2026-04-16T18:23:24Z</time></trkpt><trkpt lat="45.68392823872355" lon="11.33283617671026"><ele>444.0</ele><time>2026-04-16T18:23:25Z</time></trkpt><trkpt lat="45.68391050281954" lon="11.332964281191737"><ele>444.0</ele><time>2026-04-16T18:23:26Z</time></trkpt><trkpt lat="45.683881556134814" lon="11.333086455686571"><ele>444.0</ele><time>2026-04-16T18:23:27Z</time></trkpt><trkpt lat="45.68385109972552" lon="11.333200377784546"><ele>444.0</ele><time>2026-04-16T18:23:28Z</time></trkpt><trkpt lat="45.68381590490771" lon="11.333304962157694"><ele>444.0</ele><time>2026-04-16T18:23:29Z</time></trkpt><trkpt lat="45.683765252144994" lon="11.333406475791003"><ele>444.0</ele><time>2026-04-16T18:23:30Z</time></trkpt><trkpt lat="45.68370870914126" lon="11.333517624888632"><ele>443.6666666666667</ele><time>2026-04-16T18:23:31Z</time></trkpt><trkpt lat="45.683650425152706" lon="11.333625449323378"><ele>443.33333333333337</ele><time>2026-04-16T18:23:32Z</time></trkpt><trkpt lat="45.68359425267095" lon="11.33372571489716"><ele>443.0</ele><time>2026-04-16T18:23:33Z</time></trkpt><trkpt lat="45.68356440898514" lon="11.33383429055404"><ele>442.6666666666667</ele><time>2026-04-16T18:23:34Z</time></trkpt><trkpt lat="45.68354824741103" lon="11.33395033419247"><ele>442.33333333333337</ele><time>2026-04-16T18:23:35Z</time></trkpt><trkpt lat="45.68355179475753" lon="11.334067736717852"><ele>442.0</ele><time>2026-04-16T18:23:36Z</time></trkpt><trkpt lat="45.68356729821098" lon="11.334207099347733"><ele>441.0</ele><time>2026-04-16T18:23:37Z</time></trkpt><trkpt lat="45.683602509735906" lon="11.334350287600758"><ele>440.00000000000006</ele><time>2026-04-16T18:23:38Z</time></trkpt><trkpt lat="45.68359780035707" lon="11.334504268831155"><ele>439.00000000000006</ele><time>2026-04-16T18:23:39Z</time></trkpt><trkpt lat="45.68360603199237" lon="11.33463602988632"><ele>438.0</ele><time>2026-04-16T18:23:40Z</time></trkpt><trkpt lat="45.68361411158941" lon="11.334750790202317"><ele>437.0</ele><time>2026-04-16T18:23:41Z</time></trkpt><trkpt lat="45.6836281668602" lon="11.334842951539457"><ele>437.0</ele><time>2026-04-16T18:23:42Z</time></trkpt><trkpt lat="45.68362468109308" lon="11.334992792726064"><ele>437.00000000000006</ele><time>2026-04-16T18:23:44Z</time></trkpt><trkpt lat="45.68358748363547" lon="11.335081324568726"><ele>437.00000000000006</ele><time>2026-04-16T18:24:11Z</time></trkpt><trkpt lat="45.68348896388149" lon="11.3350012742831"><ele>437.0</ele><time>2026-04-16T18:24:14Z</time></trkpt><trkpt lat="45.683407729647904" lon="11.334923794884885"><ele>437.0</ele><time>2026-04-16T18:24:14.999Z</time></trkpt><trkpt lat="45.68329203538744" lon="11.334822632212491"><ele>437.40000000000003</ele><time>2026-04-16T18:24:15.999Z</time></trkpt><trkpt lat="45.68319863278356" lon="11.334745959226382"><ele>437.80000000000007</ele><time>2026-04-16T18:24:16.999Z</time></trkpt><trkpt lat="45.683134708706454" lon="11.334693484653783"><ele>438.2</ele><time>2026-04-16T18:24:17.999Z</time></trkpt><trkpt lat="45.68302016056475" lon="11.334801253667385"><ele>438.6</ele><time>2026-04-16T18:24:18.999Z</time></trkpt><trkpt lat="45.68289765082606" lon="11.334835799277135"><ele>439.0</ele><time>2026-04-16T18:24:19.999Z</time></trkpt><trkpt lat="45.68274153545218" lon="11.33483235547486"><ele>437.75</ele><time>2026-04-16T18:24:20.999Z</time></trkpt><trkpt lat="45.68256554073915" lon="11.334851589784245"><ele>436.5</ele><time>2026-04-16T18:24:21.999Z</time></trkpt><trkpt lat="45.68245411787591" lon="11.334914945167272"><ele>435.25</ele><time>2026-04-16T18:24:22.999Z</time></trkpt><trkpt lat="45.682374099678235" lon="11.334956642280744"><ele>434.0</ele><time>2026-04-16T18:24:23.999Z</time></trkpt><trkpt lat="45.68231694278041" lon="11.335084286732853"><ele>434.0</ele><time>2026-04-16T18:24:24.999Z</time></trkpt><trkpt lat="45.68232396178998" lon="11.335270070494715"><ele>434.0</ele><time>2026-04-16T18:24:25.999Z</time></trkpt><trkpt lat="45.68231968227152" lon="11.335468311955879"><ele>434.0</ele><time>2026-04-16T18:24:26.999Z</time></trkpt><trkpt lat="45.682296757645396" lon="11.335662986550258"><ele>434.0</ele><time>2026-04-16T18:24:27.999Z</time></trkpt><trkpt lat="45.68230335766866" lon="11.335849200886406"><ele>431.5</ele><time>2026-04-16T18:24:28.999Z</time></trkpt><trkpt lat="45.68228574662899" lon="11.336031420389055"><ele>429.0</ele><time>2026-04-16T18:24:29.999Z</time></trkpt><trkpt lat="45.682333794514854" lon="11.336227394904666"><ele>426.5</ele><time>2026-04-16T18:24:30.999Z</time></trkpt><trkpt lat="45.68236430386731" lon="11.336464066843208"><ele>424.0</ele><time>2026-04-16T18:24:31.999Z</time></trkpt><trkpt lat="45.68240129134598" lon="11.336708942769505"><ele>421.5</ele><time>2026-04-16T18:24:32.999Z</time></trkpt><trkpt lat="45.68243505309056" lon="11.336933349012787"><ele>419.0</ele><time>2026-04-16T18:24:33.999Z</time></trkpt><trkpt lat="45.682474516498665" lon="11.337116580272943"><ele>416.5</ele><time>2026-04-16T18:24:34.999Z</time></trkpt><trkpt lat="45.682472002870284" lon="11.337307819967307"><ele>414.0</ele><time>2026-04-16T18:24:35.999Z</time></trkpt><trkpt lat="45.682471883750374" lon="11.337523087611727"><ele>412.66666666666663</ele><time>2026-04-16T18:24:36.999Z</time></trkpt><trkpt lat="45.68250949210743" lon="11.337764414208326"><ele>411.3333333333333</ele><time>2026-04-16T18:24:37.999Z</time></trkpt><trkpt lat="45.6825622510871" lon="11.338025879760588"><ele>410.0</ele><time>2026-04-16T18:24:38.999Z</time></trkpt><trkpt lat="45.682596167733834" lon="11.338299787823935"><ele>408.66666666666663</ele><time>2026-04-16T18:24:39.999Z</time></trkpt><trkpt lat="45.68266228152975" lon="11.338549467668466"><ele>407.33333333333337</ele><time>2026-04-16T18:24:40.999Z</time></trkpt><trkpt lat="45.682710990118274" lon="11.338784415644202"><ele>406.0</ele><time>2026-04-16T18:24:41.999Z</time></trkpt><trkpt lat="45.682758605059604" lon="11.338983160415136"><ele>406.0</ele><time>2026-04-16T18:24:42.999Z</time></trkpt><trkpt lat="45.6827855004933" lon="11.339185332036543"><ele>406.0</ele><time>2026-04-16T18:24:43.999Z</time></trkpt><trkpt lat="45.68273950003222" lon="11.339389893085931"><ele>406.0</ele><time>2026-04-16T18:24:44.999Z</time></trkpt><trkpt lat="45.68272958271517" lon="11.339628393294912"><ele>404.25</ele><time>2026-04-16T18:24:45.999Z</time></trkpt><trkpt lat="45.68271617534016" lon="11.339853895349389"><ele>402.5</ele><time>2026-04-16T18:24:46.999Z</time></trkpt><trkpt lat="45.68267847925413" lon="11.340026104599298"><ele>400.75</ele><time>2026-04-16T18:24:47.999Z</time></trkpt><trkpt lat="45.68265311934103" lon="11.340128816931054"><ele>399.0</ele><time>2026-04-16T18:24:48.999Z</time></trkpt><trkpt lat="45.682770833436194" lon="11.34017872045053"><ele>397.57142857142856</ele><time>2026-04-16T18:24:54.999Z</time></trkpt><trkpt lat="45.682832305973854" lon="11.340199670414583"><ele>396.1428571428571</ele><time>2026-04-16T18:25:09.999Z</time></trkpt><trkpt lat="45.682875747263786" lon="11.34028219364903"><ele>394.7142857142857</ele><time>2026-04-16T18:25:12.999Z</time></trkpt><trkpt lat="45.68289510522693" lon="11.340190104544831"><ele>393.2857142857143</ele><time>2026-04-16T18:25:16Z</time></trkpt><trkpt lat="45.682909296101805" lon="11.34008702403697"><ele>391.85714285714283</ele><time>2026-04-16T18:26:41.999Z</time></trkpt><trkpt lat="45.682873683603944" lon="11.340218847492837"><ele>390.42857142857144</ele><time>2026-04-16T18:27:04.999Z</time></trkpt><trkpt lat="45.68281445907202" lon="11.340257792888199"><ele>389.0</ele><time>2026-04-16T18:33:48Z</time></trkpt><trkpt lat="45.682784576432944" lon="11.340175767696163"><ele>389.0</ele><time>2026-04-16T18:33:59Z</time></trkpt></trkseg></trk></gpx>